<?xml version="1.0" encoding="UTF-8" standalone="no" ?>
<gpx xmlns="http://www.topografix.com/GPX/1/1" xmlns:xsi="http://www.w3.org/2001/XMLSchema-instance" xsi:schemaLocation="http://www.topografix.com/GPX/1/1 http://www.topografix.com/GPX/1/1/gpx.xsd" version="1.1" creator="VisuGPX - https://www.visugpx.com">
  <metadata>
    <name>Marcoux VTT électrique</name>
    <desc><![CDATA[vincet, lionel, mag, christian  super, super]]></desc>
  </metadata>
  <trk>
    <name><![CDATA[Marcoux VTT électrique]]></name>
    <trkseg>
      <trkpt lat="44.13107" lon="6.28589">
        <ele>690.59997558594</ele>
        <time>2022-04-28T15:29:42.000Z</time>
      </trkpt>
      <trkpt lat="44.13107" lon="6.28589">
        <ele>690.20001220703</ele>
        <time>2022-04-28T15:29:42.000Z</time>
      </trkpt>
      <trkpt lat="44.13115" lon="6.28592">
        <ele>690</ele>
        <time>2022-04-28T15:29:42.003Z</time>
      </trkpt>
      <trkpt lat="44.1312" lon="6.2859">
        <ele>690.20001220703</ele>
        <time>2022-04-28T15:29:42.007Z</time>
      </trkpt>
      <trkpt lat="44.13123" lon="6.28585">
        <ele>690.40002441406</ele>
        <time>2022-04-28T15:29:42.013Z</time>
      </trkpt>
      <trkpt lat="44.13129" lon="6.28573">
        <ele>690.79998779297</ele>
        <time>2022-04-28T15:29:42.022Z</time>
      </trkpt>
      <trkpt lat="44.13134" lon="6.28575">
        <ele>690.40002441406</ele>
        <time>2022-04-28T15:29:42.033Z</time>
      </trkpt>
      <trkpt lat="44.13136" lon="6.28588">
        <ele>690.79998779297</ele>
        <time>2022-04-28T15:29:42.047Z</time>
      </trkpt>
      <trkpt lat="44.13136" lon="6.28592">
        <ele>691</ele>
        <time>2022-04-28T15:29:42.062Z</time>
      </trkpt>
      <trkpt lat="44.13135" lon="6.2862">
        <ele>691.40002441406</ele>
        <time>2022-04-28T15:29:42.083Z</time>
      </trkpt>
      <trkpt lat="44.13135" lon="6.28651">
        <ele>691.59997558594</ele>
        <time>2022-04-28T15:29:42.111Z</time>
      </trkpt>
      <trkpt lat="44.13134" lon="6.28655">
        <ele>691.79998779297</ele>
        <time>2022-04-28T15:29:42.140Z</time>
      </trkpt>
      <trkpt lat="44.13133" lon="6.28686">
        <ele>692.20001220703</ele>
        <time>2022-04-28T15:29:42.176Z</time>
      </trkpt>
      <trkpt lat="44.13133" lon="6.28711">
        <ele>692.79998779297</ele>
        <time>2022-04-28T15:29:42.218Z</time>
      </trkpt>
      <trkpt lat="44.13132" lon="6.28733">
        <ele>693</ele>
        <time>2022-04-28T15:29:42.265Z</time>
      </trkpt>
      <trkpt lat="44.13131" lon="6.28773">
        <ele>693</ele>
        <time>2022-04-28T15:29:42.321Z</time>
      </trkpt>
      <trkpt lat="44.13128" lon="6.28816">
        <ele>693.40002441406</ele>
        <time>2022-04-28T15:29:42.387Z</time>
      </trkpt>
      <trkpt lat="44.13121" lon="6.28862">
        <ele>693.59997558594</ele>
        <time>2022-04-28T15:29:42.464Z</time>
      </trkpt>
      <trkpt lat="44.13117" lon="6.28913">
        <ele>693.59997558594</ele>
        <time>2022-04-28T15:29:42.552Z</time>
      </trkpt>
      <trkpt lat="44.13112" lon="6.28968">
        <ele>694</ele>
        <time>2022-04-28T15:29:42.653Z</time>
      </trkpt>
      <trkpt lat="44.1311" lon="6.28982">
        <ele>694</ele>
        <time>2022-04-28T15:29:42.757Z</time>
      </trkpt>
      <trkpt lat="44.13106" lon="6.29005">
        <ele>694.40002441406</ele>
        <time>2022-04-28T15:29:42.867Z</time>
      </trkpt>
      <trkpt lat="44.13102" lon="6.29034">
        <ele>695</ele>
        <time>2022-04-28T15:29:42.983Z</time>
      </trkpt>
      <trkpt lat="44.13099" lon="6.29048">
        <ele>695.59997558594</ele>
        <time>2022-04-28T15:29:43.103Z</time>
      </trkpt>
      <trkpt lat="44.13096" lon="6.2908">
        <ele>696.20001220703</ele>
        <time>2022-04-28T15:29:43.230Z</time>
      </trkpt>
      <trkpt lat="44.13096" lon="6.29088">
        <ele>696.40002441406</ele>
        <time>2022-04-28T15:29:43.359Z</time>
      </trkpt>
      <trkpt lat="44.13106" lon="6.2912">
        <ele>697</ele>
        <time>2022-04-28T15:29:43.496Z</time>
      </trkpt>
      <trkpt lat="44.13108" lon="6.29128">
        <ele>697.40002441406</ele>
        <time>2022-04-28T15:29:43.635Z</time>
      </trkpt>
      <trkpt lat="44.13117" lon="6.29157">
        <ele>698</ele>
        <time>2022-04-28T15:29:43.781Z</time>
      </trkpt>
      <trkpt lat="44.13121" lon="6.29175">
        <ele>698.40002441406</ele>
        <time>2022-04-28T15:29:43.932Z</time>
      </trkpt>
      <trkpt lat="44.13131" lon="6.29222">
        <ele>699.20001220703</ele>
        <time>2022-04-28T15:29:44.094Z</time>
      </trkpt>
      <trkpt lat="44.13132" lon="6.29232">
        <ele>699.40002441406</ele>
        <time>2022-04-28T15:29:44.258Z</time>
      </trkpt>
      <trkpt lat="44.13139" lon="6.29264">
        <ele>700.20001220703</ele>
        <time>2022-04-28T15:29:44.430Z</time>
      </trkpt>
      <trkpt lat="44.13144" lon="6.29287">
        <ele>700.59997558594</ele>
        <time>2022-04-28T15:29:44.607Z</time>
      </trkpt>
      <trkpt lat="44.13149" lon="6.2931">
        <ele>701</ele>
        <time>2022-04-28T15:29:44.790Z</time>
      </trkpt>
      <trkpt lat="44.13157" lon="6.29348">
        <ele>701.79998779297</ele>
        <time>2022-04-28T15:29:44.982Z</time>
      </trkpt>
      <trkpt lat="44.13158" lon="6.29353">
        <ele>701.79998779297</ele>
        <time>2022-04-28T15:29:45.175Z</time>
      </trkpt>
      <trkpt lat="44.13172" lon="6.29404">
        <ele>702.79998779297</ele>
        <time>2022-04-28T15:29:45.380Z</time>
      </trkpt>
      <trkpt lat="44.13175" lon="6.29413">
        <ele>702.79998779297</ele>
        <time>2022-04-28T15:29:45.587Z</time>
      </trkpt>
      <trkpt lat="44.13183" lon="6.29447">
        <ele>703.20001220703</ele>
        <time>2022-04-28T15:29:45.803Z</time>
      </trkpt>
      <trkpt lat="44.13193" lon="6.29497">
        <ele>703.79998779297</ele>
        <time>2022-04-28T15:29:46.030Z</time>
      </trkpt>
      <trkpt lat="44.13208" lon="6.29548">
        <ele>703.79998779297</ele>
        <time>2022-04-28T15:29:46.270Z</time>
      </trkpt>
      <trkpt lat="44.13223" lon="6.29566">
        <ele>704</ele>
        <time>2022-04-28T15:29:46.516Z</time>
      </trkpt>
      <trkpt lat="44.13244" lon="6.29585">
        <ele>704</ele>
        <time>2022-04-28T15:29:46.770Z</time>
      </trkpt>
      <trkpt lat="44.13269" lon="6.29598">
        <ele>703.79998779297</ele>
        <time>2022-04-28T15:29:47.033Z</time>
      </trkpt>
      <trkpt lat="44.13292" lon="6.29612">
        <ele>703.59997558594</ele>
        <time>2022-04-28T15:29:47.304Z</time>
      </trkpt>
      <trkpt lat="44.13324" lon="6.29643">
        <ele>704</ele>
        <time>2022-04-28T15:29:47.587Z</time>
      </trkpt>
      <trkpt lat="44.13327" lon="6.29647">
        <ele>704.20001220703</ele>
        <time>2022-04-28T15:29:47.872Z</time>
      </trkpt>
      <trkpt lat="44.13336" lon="6.29666">
        <ele>704.59997558594</ele>
        <time>2022-04-28T15:29:48.162Z</time>
      </trkpt>
      <trkpt lat="44.13338" lon="6.29671">
        <ele>704.59997558594</ele>
        <time>2022-04-28T15:29:48.453Z</time>
      </trkpt>
      <trkpt lat="44.13344" lon="6.29687">
        <ele>704.79998779297</ele>
        <time>2022-04-28T15:29:48.748Z</time>
      </trkpt>
      <trkpt lat="44.13349" lon="6.29703">
        <ele>704.79998779297</ele>
        <time>2022-04-28T15:29:49.047Z</time>
      </trkpt>
      <trkpt lat="44.13352" lon="6.2973">
        <ele>704.20001220703</ele>
        <time>2022-04-28T15:29:49.352Z</time>
      </trkpt>
      <trkpt lat="44.13352" lon="6.29735">
        <ele>704</ele>
        <time>2022-04-28T15:29:49.658Z</time>
      </trkpt>
      <trkpt lat="44.13353" lon="6.29747">
        <ele>703.79998779297</ele>
        <time>2022-04-28T15:29:49.967Z</time>
      </trkpt>
      <trkpt lat="44.13357" lon="6.29755">
        <ele>703.59997558594</ele>
        <time>2022-04-28T15:29:50.278Z</time>
      </trkpt>
      <trkpt lat="44.13365" lon="6.2977">
        <ele>703</ele>
        <time>2022-04-28T15:29:50.594Z</time>
      </trkpt>
      <trkpt lat="44.13374" lon="6.29777">
        <ele>702.79998779297</ele>
        <time>2022-04-28T15:29:50.913Z</time>
      </trkpt>
      <trkpt lat="44.13385" lon="6.29782">
        <ele>702.79998779297</ele>
        <time>2022-04-28T15:29:51.236Z</time>
      </trkpt>
      <trkpt lat="44.13386" lon="6.29783">
        <ele>702.79998779297</ele>
        <time>2022-04-28T15:29:51.559Z</time>
      </trkpt>
      <trkpt lat="44.13393" lon="6.29783">
        <ele>702.79998779297</ele>
        <time>2022-04-28T15:29:51.884Z</time>
      </trkpt>
      <trkpt lat="44.13407" lon="6.29784">
        <ele>702.79998779297</ele>
        <time>2022-04-28T15:29:52.214Z</time>
      </trkpt>
      <trkpt lat="44.13416" lon="6.29793">
        <ele>703</ele>
        <time>2022-04-28T15:29:52.547Z</time>
      </trkpt>
      <trkpt lat="44.13417" lon="6.29797">
        <ele>703</ele>
        <time>2022-04-28T15:29:52.881Z</time>
      </trkpt>
      <trkpt lat="44.13421" lon="6.29815">
        <ele>702.79998779297</ele>
        <time>2022-04-28T15:29:53.219Z</time>
      </trkpt>
      <trkpt lat="44.13422" lon="6.29824">
        <ele>703</ele>
        <time>2022-04-28T15:29:53.560Z</time>
      </trkpt>
      <trkpt lat="44.13426" lon="6.29849">
        <ele>703</ele>
        <time>2022-04-28T15:29:53.906Z</time>
      </trkpt>
      <trkpt lat="44.13433" lon="6.29867">
        <ele>703.20001220703</ele>
        <time>2022-04-28T15:29:54.257Z</time>
      </trkpt>
      <trkpt lat="44.13444" lon="6.29867">
        <ele>703.20001220703</ele>
        <time>2022-04-28T15:29:54.612Z</time>
      </trkpt>
      <trkpt lat="44.13457" lon="6.29867">
        <ele>703</ele>
        <time>2022-04-28T15:29:54.971Z</time>
      </trkpt>
      <trkpt lat="44.1346" lon="6.2987">
        <ele>703</ele>
        <time>2022-04-28T15:29:55.331Z</time>
      </trkpt>
      <trkpt lat="44.13463" lon="6.29878">
        <ele>703</ele>
        <time>2022-04-28T15:29:55.693Z</time>
      </trkpt>
      <trkpt lat="44.13472" lon="6.29905">
        <ele>703</ele>
        <time>2022-04-28T15:29:56.061Z</time>
      </trkpt>
      <trkpt lat="44.13478" lon="6.29911">
        <ele>703.40002441406</ele>
        <time>2022-04-28T15:29:56.432Z</time>
      </trkpt>
      <trkpt lat="44.13485" lon="6.29917">
        <ele>703</ele>
        <time>2022-04-28T15:29:56.806Z</time>
      </trkpt>
      <trkpt lat="44.13487" lon="6.29924">
        <ele>701.79998779297</ele>
        <time>2022-04-28T15:29:57.181Z</time>
      </trkpt>
      <trkpt lat="44.13488" lon="6.29926">
        <ele>701.59997558594</ele>
        <time>2022-04-28T15:29:57.557Z</time>
      </trkpt>
      <trkpt lat="44.13493" lon="6.29928">
        <ele>701.20001220703</ele>
        <time>2022-04-28T15:29:57.935Z</time>
      </trkpt>
      <trkpt lat="44.13495" lon="6.29928">
        <ele>701.20001220703</ele>
        <time>2022-04-28T15:29:58.313Z</time>
      </trkpt>
      <trkpt lat="44.13498" lon="6.29926">
        <ele>701.20001220703</ele>
        <time>2022-04-28T15:29:58.692Z</time>
      </trkpt>
      <trkpt lat="44.135" lon="6.29922">
        <ele>701.59997558594</ele>
        <time>2022-04-28T15:29:59.073Z</time>
      </trkpt>
      <trkpt lat="44.13505" lon="6.29914">
        <ele>702.40002441406</ele>
        <time>2022-04-28T15:29:59.456Z</time>
      </trkpt>
      <trkpt lat="44.1351" lon="6.29914">
        <ele>703.20001220703</ele>
        <time>2022-04-28T15:29:59.840Z</time>
      </trkpt>
      <trkpt lat="44.13514" lon="6.2991">
        <ele>704.20001220703</ele>
        <time>2022-04-28T15:30:00.226Z</time>
      </trkpt>
      <trkpt lat="44.13516" lon="6.29907">
        <ele>704.20001220703</ele>
        <time>2022-04-28T15:30:00.613Z</time>
      </trkpt>
      <trkpt lat="44.13523" lon="6.29898">
        <ele>704.40002441406</ele>
        <time>2022-04-28T15:30:01.003Z</time>
      </trkpt>
      <trkpt lat="44.13529" lon="6.29898">
        <ele>704.40002441406</ele>
        <time>2022-04-28T15:30:01.395Z</time>
      </trkpt>
      <trkpt lat="44.13532" lon="6.29901">
        <ele>704.79998779297</ele>
        <time>2022-04-28T15:30:01.788Z</time>
      </trkpt>
      <trkpt lat="44.13538" lon="6.2991">
        <ele>705.40002441406</ele>
        <time>2022-04-28T15:30:02.184Z</time>
      </trkpt>
      <trkpt lat="44.13544" lon="6.29915">
        <ele>706.40002441406</ele>
        <time>2022-04-28T15:30:02.582Z</time>
      </trkpt>
      <trkpt lat="44.13546" lon="6.29917">
        <ele>706.79998779297</ele>
        <time>2022-04-28T15:30:02.981Z</time>
      </trkpt>
      <trkpt lat="44.13557" lon="6.29926">
        <ele>707.79998779297</ele>
        <time>2022-04-28T15:30:03.384Z</time>
      </trkpt>
      <trkpt lat="44.13561" lon="6.29929">
        <ele>708.20001220703</ele>
        <time>2022-04-28T15:30:03.788Z</time>
      </trkpt>
      <trkpt lat="44.13578" lon="6.29934">
        <ele>708.40002441406</ele>
        <time>2022-04-28T15:30:04.198Z</time>
      </trkpt>
      <trkpt lat="44.1359" lon="6.29933">
        <ele>708.79998779297</ele>
        <time>2022-04-28T15:30:04.612Z</time>
      </trkpt>
      <trkpt lat="44.13593" lon="6.29933">
        <ele>709</ele>
        <time>2022-04-28T15:30:05.026Z</time>
      </trkpt>
      <trkpt lat="44.13608" lon="6.2993">
        <ele>709.79998779297</ele>
        <time>2022-04-28T15:30:05.445Z</time>
      </trkpt>
      <trkpt lat="44.1363" lon="6.29926">
        <ele>711</ele>
        <time>2022-04-28T15:30:05.871Z</time>
      </trkpt>
      <trkpt lat="44.13635" lon="6.29926">
        <ele>711</ele>
        <time>2022-04-28T15:30:06.299Z</time>
      </trkpt>
      <trkpt lat="44.13652" lon="6.29925">
        <ele>711.40002441406</ele>
        <time>2022-04-28T15:30:06.732Z</time>
      </trkpt>
      <trkpt lat="44.13664" lon="6.29923">
        <ele>711.59997558594</ele>
        <time>2022-04-28T15:30:07.169Z</time>
      </trkpt>
      <trkpt lat="44.1368" lon="6.29917">
        <ele>711.59997558594</ele>
        <time>2022-04-28T15:30:07.611Z</time>
      </trkpt>
      <trkpt lat="44.13696" lon="6.2991">
        <ele>712</ele>
        <time>2022-04-28T15:30:08.059Z</time>
      </trkpt>
      <trkpt lat="44.13702" lon="6.29907">
        <ele>712.20001220703</ele>
        <time>2022-04-28T15:30:08.509Z</time>
      </trkpt>
      <trkpt lat="44.13722" lon="6.29896">
        <ele>712.59997558594</ele>
        <time>2022-04-28T15:30:08.966Z</time>
      </trkpt>
      <trkpt lat="44.13746" lon="6.29885">
        <ele>713</ele>
        <time>2022-04-28T15:30:09.431Z</time>
      </trkpt>
      <trkpt lat="44.13765" lon="6.29873">
        <ele>712.79998779297</ele>
        <time>2022-04-28T15:30:09.902Z</time>
      </trkpt>
      <trkpt lat="44.1378" lon="6.29867">
        <ele>713.20001220703</ele>
        <time>2022-04-28T15:30:10.378Z</time>
      </trkpt>
      <trkpt lat="44.13785" lon="6.29865">
        <ele>713.40002441406</ele>
        <time>2022-04-28T15:30:10.856Z</time>
      </trkpt>
      <trkpt lat="44.13795" lon="6.29862">
        <ele>714.20001220703</ele>
        <time>2022-04-28T15:30:11.337Z</time>
      </trkpt>
      <trkpt lat="44.13805" lon="6.29853">
        <ele>714.79998779297</ele>
        <time>2022-04-28T15:30:11.822Z</time>
      </trkpt>
      <trkpt lat="44.13808" lon="6.29851">
        <ele>714.79998779297</ele>
        <time>2022-04-28T15:30:12.308Z</time>
      </trkpt>
      <trkpt lat="44.13824" lon="6.29842">
        <ele>715.20001220703</ele>
        <time>2022-04-28T15:30:12.799Z</time>
      </trkpt>
      <trkpt lat="44.13841" lon="6.29839">
        <ele>715.59997558594</ele>
        <time>2022-04-28T15:30:13.296Z</time>
      </trkpt>
      <trkpt lat="44.13857" lon="6.29845">
        <ele>716</ele>
        <time>2022-04-28T15:30:13.798Z</time>
      </trkpt>
      <trkpt lat="44.1387" lon="6.29861">
        <ele>717.20001220703</ele>
        <time>2022-04-28T15:30:14.305Z</time>
      </trkpt>
      <trkpt lat="44.13891" lon="6.29877">
        <ele>717.59997558594</ele>
        <time>2022-04-28T15:30:14.820Z</time>
      </trkpt>
      <trkpt lat="44.13908" lon="6.29884">
        <ele>717.20001220703</ele>
        <time>2022-04-28T15:30:15.341Z</time>
      </trkpt>
      <trkpt lat="44.13931" lon="6.29886">
        <ele>716.59997558594</ele>
        <time>2022-04-28T15:30:15.869Z</time>
      </trkpt>
      <trkpt lat="44.13948" lon="6.29885">
        <ele>716.40002441406</ele>
        <time>2022-04-28T15:30:16.402Z</time>
      </trkpt>
      <trkpt lat="44.13971" lon="6.29888">
        <ele>716.20001220703</ele>
        <time>2022-04-28T15:30:16.943Z</time>
      </trkpt>
      <trkpt lat="44.13979" lon="6.2989">
        <ele>716</ele>
        <time>2022-04-28T15:30:17.486Z</time>
      </trkpt>
      <trkpt lat="44.14007" lon="6.29894">
        <ele>715</ele>
        <time>2022-04-28T15:30:18.038Z</time>
      </trkpt>
      <trkpt lat="44.14013" lon="6.29894">
        <ele>714.79998779297</ele>
        <time>2022-04-28T15:30:18.592Z</time>
      </trkpt>
      <trkpt lat="44.14037" lon="6.29896">
        <ele>714</ele>
        <time>2022-04-28T15:30:19.154Z</time>
      </trkpt>
      <trkpt lat="44.14042" lon="6.29896">
        <ele>714</ele>
        <time>2022-04-28T15:30:19.717Z</time>
      </trkpt>
      <trkpt lat="44.1406" lon="6.29898">
        <ele>713.40002441406</ele>
        <time>2022-04-28T15:30:20.286Z</time>
      </trkpt>
      <trkpt lat="44.14065" lon="6.29899">
        <ele>713.20001220703</ele>
        <time>2022-04-28T15:30:20.857Z</time>
      </trkpt>
      <trkpt lat="44.14069" lon="6.299">
        <ele>713</ele>
        <time>2022-04-28T15:30:21.429Z</time>
      </trkpt>
      <trkpt lat="44.14079" lon="6.29903">
        <ele>712.59997558594</ele>
        <time>2022-04-28T15:30:22.004Z</time>
      </trkpt>
      <trkpt lat="44.14083" lon="6.29905">
        <ele>712.40002441406</ele>
        <time>2022-04-28T15:30:22.581Z</time>
      </trkpt>
      <trkpt lat="44.14098" lon="6.29915">
        <ele>711.40002441406</ele>
        <time>2022-04-28T15:30:23.163Z</time>
      </trkpt>
      <trkpt lat="44.14103" lon="6.29919">
        <ele>711</ele>
        <time>2022-04-28T15:30:23.747Z</time>
      </trkpt>
      <trkpt lat="44.14107" lon="6.29923">
        <ele>710.79998779297</ele>
        <time>2022-04-28T15:30:24.332Z</time>
      </trkpt>
      <trkpt lat="44.14116" lon="6.29931">
        <ele>710.40002441406</ele>
        <time>2022-04-28T15:30:24.921Z</time>
      </trkpt>
      <trkpt lat="44.14132" lon="6.29949">
        <ele>710</ele>
        <time>2022-04-28T15:30:25.516Z</time>
      </trkpt>
      <trkpt lat="44.14149" lon="6.29977">
        <ele>710.59997558594</ele>
        <time>2022-04-28T15:30:26.120Z</time>
      </trkpt>
      <trkpt lat="44.14155" lon="6.29989">
        <ele>711.20001220703</ele>
        <time>2022-04-28T15:30:26.727Z</time>
      </trkpt>
      <trkpt lat="44.14167" lon="6.30005">
        <ele>712.20001220703</ele>
        <time>2022-04-28T15:30:27.339Z</time>
      </trkpt>
      <trkpt lat="44.14179" lon="6.3002">
        <ele>713.40002441406</ele>
        <time>2022-04-28T15:30:27.956Z</time>
      </trkpt>
      <trkpt lat="44.14195" lon="6.30036">
        <ele>714.40002441406</ele>
        <time>2022-04-28T15:30:28.580Z</time>
      </trkpt>
      <trkpt lat="44.14198" lon="6.3004">
        <ele>714.59997558594</ele>
        <time>2022-04-28T15:30:29.205Z</time>
      </trkpt>
      <trkpt lat="44.14204" lon="6.30054">
        <ele>715.59997558594</ele>
        <time>2022-04-28T15:30:29.833Z</time>
      </trkpt>
      <trkpt lat="44.1421" lon="6.30069">
        <ele>716.20001220703</ele>
        <time>2022-04-28T15:30:30.465Z</time>
      </trkpt>
      <trkpt lat="44.14226" lon="6.30095">
        <ele>716.59997558594</ele>
        <time>2022-04-28T15:30:31.105Z</time>
      </trkpt>
      <trkpt lat="44.14228" lon="6.30098">
        <ele>716.59997558594</ele>
        <time>2022-04-28T15:30:31.746Z</time>
      </trkpt>
      <trkpt lat="44.14242" lon="6.30115">
        <ele>716.79998779297</ele>
        <time>2022-04-28T15:30:32.393Z</time>
      </trkpt>
      <trkpt lat="44.14252" lon="6.30136">
        <ele>717.79998779297</ele>
        <time>2022-04-28T15:30:33.046Z</time>
      </trkpt>
      <trkpt lat="44.1425" lon="6.30152">
        <ele>718.79998779297</ele>
        <time>2022-04-28T15:30:33.703Z</time>
      </trkpt>
      <trkpt lat="44.14248" lon="6.30155">
        <ele>719</ele>
        <time>2022-04-28T15:30:34.360Z</time>
      </trkpt>
      <trkpt lat="44.14242" lon="6.30171">
        <ele>720</ele>
        <time>2022-04-28T15:30:35.021Z</time>
      </trkpt>
      <trkpt lat="44.14238" lon="6.30184">
        <ele>720.59997558594</ele>
        <time>2022-04-28T15:30:35.686Z</time>
      </trkpt>
      <trkpt lat="44.14238" lon="6.30188">
        <ele>720.79998779297</ele>
        <time>2022-04-28T15:30:36.352Z</time>
      </trkpt>
      <trkpt lat="44.14239" lon="6.30192">
        <ele>721</ele>
        <time>2022-04-28T15:30:37.019Z</time>
      </trkpt>
      <trkpt lat="44.14241" lon="6.30199">
        <ele>721.40002441406</ele>
        <time>2022-04-28T15:30:37.687Z</time>
      </trkpt>
      <trkpt lat="44.1425" lon="6.30211">
        <ele>722.20001220703</ele>
        <time>2022-04-28T15:30:38.359Z</time>
      </trkpt>
      <trkpt lat="44.14252" lon="6.30213">
        <ele>722.40002441406</ele>
        <time>2022-04-28T15:30:39.032Z</time>
      </trkpt>
      <trkpt lat="44.14272" lon="6.30222">
        <ele>723</ele>
        <time>2022-04-28T15:30:39.712Z</time>
      </trkpt>
      <trkpt lat="44.14291" lon="6.30222">
        <ele>722.40002441406</ele>
        <time>2022-04-28T15:30:40.398Z</time>
      </trkpt>
      <trkpt lat="44.14305" lon="6.30224">
        <ele>722</ele>
        <time>2022-04-28T15:30:41.088Z</time>
      </trkpt>
      <trkpt lat="44.14319" lon="6.30238">
        <ele>722</ele>
        <time>2022-04-28T15:30:41.784Z</time>
      </trkpt>
      <trkpt lat="44.14339" lon="6.30254">
        <ele>723</ele>
        <time>2022-04-28T15:30:42.487Z</time>
      </trkpt>
      <trkpt lat="44.14341" lon="6.30256">
        <ele>723.20001220703</ele>
        <time>2022-04-28T15:30:43.191Z</time>
      </trkpt>
      <trkpt lat="44.14348" lon="6.30268">
        <ele>723.79998779297</ele>
        <time>2022-04-28T15:30:43.898Z</time>
      </trkpt>
      <trkpt lat="44.14351" lon="6.30287">
        <ele>724.20001220703</ele>
        <time>2022-04-28T15:30:44.610Z</time>
      </trkpt>
      <trkpt lat="44.14352" lon="6.30292">
        <ele>724.40002441406</ele>
        <time>2022-04-28T15:30:45.323Z</time>
      </trkpt>
      <trkpt lat="44.14361" lon="6.30312">
        <ele>725</ele>
        <time>2022-04-28T15:30:46.041Z</time>
      </trkpt>
      <trkpt lat="44.14365" lon="6.30317">
        <ele>725.20001220703</ele>
        <time>2022-04-28T15:30:46.761Z</time>
      </trkpt>
      <trkpt lat="44.14374" lon="6.30327">
        <ele>725.79998779297</ele>
        <time>2022-04-28T15:30:47.485Z</time>
      </trkpt>
      <trkpt lat="44.14379" lon="6.30331">
        <ele>726.20001220703</ele>
        <time>2022-04-28T15:30:48.210Z</time>
      </trkpt>
      <trkpt lat="44.14391" lon="6.30341">
        <ele>727.20001220703</ele>
        <time>2022-04-28T15:30:48.940Z</time>
      </trkpt>
      <trkpt lat="44.14407" lon="6.30355">
        <ele>728.20001220703</ele>
        <time>2022-04-28T15:30:49.676Z</time>
      </trkpt>
      <trkpt lat="44.1441" lon="6.30358">
        <ele>728.59997558594</ele>
        <time>2022-04-28T15:30:50.413Z</time>
      </trkpt>
      <trkpt lat="44.14419" lon="6.30367">
        <ele>729.20001220703</ele>
        <time>2022-04-28T15:30:51.154Z</time>
      </trkpt>
      <trkpt lat="44.14434" lon="6.30381">
        <ele>730</ele>
        <time>2022-04-28T15:30:51.900Z</time>
      </trkpt>
      <trkpt lat="44.14441" lon="6.30388">
        <ele>730.40002441406</ele>
        <time>2022-04-28T15:30:52.649Z</time>
      </trkpt>
      <trkpt lat="44.14455" lon="6.30405">
        <ele>730.59997558594</ele>
        <time>2022-04-28T15:30:53.404Z</time>
      </trkpt>
      <trkpt lat="44.14477" lon="6.30432">
        <ele>729.79998779297</ele>
        <time>2022-04-28T15:30:54.168Z</time>
      </trkpt>
      <trkpt lat="44.14481" lon="6.30436">
        <ele>729.59997558594</ele>
        <time>2022-04-28T15:30:54.934Z</time>
      </trkpt>
      <trkpt lat="44.14489" lon="6.30441">
        <ele>729.20001220703</ele>
        <time>2022-04-28T15:30:55.703Z</time>
      </trkpt>
      <trkpt lat="44.14497" lon="6.30445">
        <ele>729</ele>
        <time>2022-04-28T15:30:56.474Z</time>
      </trkpt>
      <trkpt lat="44.14516" lon="6.30456">
        <ele>729</ele>
        <time>2022-04-28T15:30:57.252Z</time>
      </trkpt>
      <trkpt lat="44.1454" lon="6.30477">
        <ele>729.20001220703</ele>
        <time>2022-04-28T15:30:58.039Z</time>
      </trkpt>
      <trkpt lat="44.14562" lon="6.30504">
        <ele>728.20001220703</ele>
        <time>2022-04-28T15:30:58.835Z</time>
      </trkpt>
      <trkpt lat="44.14565" lon="6.30508">
        <ele>728.20001220703</ele>
        <time>2022-04-28T15:30:59.632Z</time>
      </trkpt>
      <trkpt lat="44.14584" lon="6.3053">
        <ele>728</ele>
        <time>2022-04-28T15:31:00.437Z</time>
      </trkpt>
      <trkpt lat="44.14595" lon="6.30542">
        <ele>729</ele>
        <time>2022-04-28T15:31:01.247Z</time>
      </trkpt>
      <trkpt lat="44.14602" lon="6.30549">
        <ele>729.59997558594</ele>
        <time>2022-04-28T15:31:02.060Z</time>
      </trkpt>
      <trkpt lat="44.1461" lon="6.30555">
        <ele>730.20001220703</ele>
        <time>2022-04-28T15:31:02.875Z</time>
      </trkpt>
      <trkpt lat="44.14623" lon="6.30564">
        <ele>731.20001220703</ele>
        <time>2022-04-28T15:31:03.695Z</time>
      </trkpt>
      <trkpt lat="44.14626" lon="6.30564">
        <ele>731.40002441406</ele>
        <time>2022-04-28T15:31:04.516Z</time>
      </trkpt>
      <trkpt lat="44.1464" lon="6.30565">
        <ele>732.59997558594</ele>
        <time>2022-04-28T15:31:05.341Z</time>
      </trkpt>
      <trkpt lat="44.14649" lon="6.30566">
        <ele>733.79998779297</ele>
        <time>2022-04-28T15:31:06.169Z</time>
      </trkpt>
      <trkpt lat="44.14656" lon="6.30569">
        <ele>734.40002441406</ele>
        <time>2022-04-28T15:31:06.999Z</time>
      </trkpt>
      <trkpt lat="44.1466" lon="6.30573">
        <ele>734.79998779297</ele>
        <time>2022-04-28T15:31:07.831Z</time>
      </trkpt>
      <trkpt lat="44.14663" lon="6.30581">
        <ele>735.79998779297</ele>
        <time>2022-04-28T15:31:08.665Z</time>
      </trkpt>
      <trkpt lat="44.14664" lon="6.30584">
        <ele>736.20001220703</ele>
        <time>2022-04-28T15:31:09.500Z</time>
      </trkpt>
      <trkpt lat="44.14666" lon="6.30597">
        <ele>737.20001220703</ele>
        <time>2022-04-28T15:31:10.338Z</time>
      </trkpt>
      <trkpt lat="44.14668" lon="6.30611">
        <ele>737.79998779297</ele>
        <time>2022-04-28T15:31:11.179Z</time>
      </trkpt>
      <trkpt lat="44.1467" lon="6.30619">
        <ele>738.40002441406</ele>
        <time>2022-04-28T15:31:12.022Z</time>
      </trkpt>
      <trkpt lat="44.14675" lon="6.30629">
        <ele>739.20001220703</ele>
        <time>2022-04-28T15:31:12.868Z</time>
      </trkpt>
      <trkpt lat="44.14676" lon="6.30632">
        <ele>739.59997558594</ele>
        <time>2022-04-28T15:31:13.715Z</time>
      </trkpt>
      <trkpt lat="44.14678" lon="6.30639">
        <ele>740.40002441406</ele>
        <time>2022-04-28T15:31:14.563Z</time>
      </trkpt>
      <trkpt lat="44.14679" lon="6.30641">
        <ele>740.59997558594</ele>
        <time>2022-04-28T15:31:15.412Z</time>
      </trkpt>
      <trkpt lat="44.14682" lon="6.30653">
        <ele>741.59997558594</ele>
        <time>2022-04-28T15:31:16.264Z</time>
      </trkpt>
      <trkpt lat="44.14682" lon="6.30656">
        <ele>741.79998779297</ele>
        <time>2022-04-28T15:31:17.116Z</time>
      </trkpt>
      <trkpt lat="44.14687" lon="6.30676">
        <ele>742.79998779297</ele>
        <time>2022-04-28T15:31:17.973Z</time>
      </trkpt>
      <trkpt lat="44.1469" lon="6.30679">
        <ele>742.79998779297</ele>
        <time>2022-04-28T15:31:18.831Z</time>
      </trkpt>
      <trkpt lat="44.14703" lon="6.30689">
        <ele>744</ele>
        <time>2022-04-28T15:31:19.694Z</time>
      </trkpt>
      <trkpt lat="44.14706" lon="6.30689">
        <ele>744.20001220703</ele>
        <time>2022-04-28T15:31:20.558Z</time>
      </trkpt>
      <trkpt lat="44.1472" lon="6.30682">
        <ele>745</ele>
        <time>2022-04-28T15:31:21.427Z</time>
      </trkpt>
      <trkpt lat="44.14722" lon="6.3068">
        <ele>745.20001220703</ele>
        <time>2022-04-28T15:31:22.297Z</time>
      </trkpt>
      <trkpt lat="44.1473" lon="6.30671">
        <ele>746</ele>
        <time>2022-04-28T15:31:23.170Z</time>
      </trkpt>
      <trkpt lat="44.14735" lon="6.30669">
        <ele>746.40002441406</ele>
        <time>2022-04-28T15:31:24.044Z</time>
      </trkpt>
      <trkpt lat="44.14739" lon="6.3067">
        <ele>747</ele>
        <time>2022-04-28T15:31:24.920Z</time>
      </trkpt>
      <trkpt lat="44.14741" lon="6.30672">
        <ele>747.20001220703</ele>
        <time>2022-04-28T15:31:25.796Z</time>
      </trkpt>
      <trkpt lat="44.14742" lon="6.30674">
        <ele>747.59997558594</ele>
        <time>2022-04-28T15:31:26.673Z</time>
      </trkpt>
      <trkpt lat="44.14743" lon="6.30682">
        <ele>748.40002441406</ele>
        <time>2022-04-28T15:31:27.552Z</time>
      </trkpt>
      <trkpt lat="44.14743" lon="6.30688">
        <ele>748.79998779297</ele>
        <time>2022-04-28T15:31:28.432Z</time>
      </trkpt>
      <trkpt lat="44.14742" lon="6.30693">
        <ele>749.40002441406</ele>
        <time>2022-04-28T15:31:29.314Z</time>
      </trkpt>
      <trkpt lat="44.14741" lon="6.30695">
        <ele>749.59997558594</ele>
        <time>2022-04-28T15:31:30.196Z</time>
      </trkpt>
      <trkpt lat="44.1474" lon="6.30698">
        <ele>750.20001220703</ele>
        <time>2022-04-28T15:31:31.079Z</time>
      </trkpt>
      <trkpt lat="44.14739" lon="6.30701">
        <ele>750.59997558594</ele>
        <time>2022-04-28T15:31:31.962Z</time>
      </trkpt>
      <trkpt lat="44.14737" lon="6.3071">
        <ele>751.59997558594</ele>
        <time>2022-04-28T15:31:32.848Z</time>
      </trkpt>
      <trkpt lat="44.14736" lon="6.30713">
        <ele>752</ele>
        <time>2022-04-28T15:31:33.734Z</time>
      </trkpt>
      <trkpt lat="44.14734" lon="6.30724">
        <ele>752.79998779297</ele>
        <time>2022-04-28T15:31:34.623Z</time>
      </trkpt>
      <trkpt lat="44.14733" lon="6.30731">
        <ele>753.40002441406</ele>
        <time>2022-04-28T15:31:35.514Z</time>
      </trkpt>
      <trkpt lat="44.14731" lon="6.30739">
        <ele>753.79998779297</ele>
        <time>2022-04-28T15:31:36.406Z</time>
      </trkpt>
      <trkpt lat="44.14729" lon="6.30756">
        <ele>755.20001220703</ele>
        <time>2022-04-28T15:31:37.302Z</time>
      </trkpt>
      <trkpt lat="44.14729" lon="6.30759">
        <ele>755.40002441406</ele>
        <time>2022-04-28T15:31:38.199Z</time>
      </trkpt>
      <trkpt lat="44.14728" lon="6.30768">
        <ele>756.20001220703</ele>
        <time>2022-04-28T15:31:39.098Z</time>
      </trkpt>
      <trkpt lat="44.14728" lon="6.30778">
        <ele>757.20001220703</ele>
        <time>2022-04-28T15:31:39.999Z</time>
      </trkpt>
      <trkpt lat="44.14728" lon="6.30781">
        <ele>757.40002441406</ele>
        <time>2022-04-28T15:31:40.901Z</time>
      </trkpt>
      <trkpt lat="44.14727" lon="6.30793">
        <ele>758.40002441406</ele>
        <time>2022-04-28T15:31:41.806Z</time>
      </trkpt>
      <trkpt lat="44.14725" lon="6.30802">
        <ele>759.59997558594</ele>
        <time>2022-04-28T15:31:42.713Z</time>
      </trkpt>
      <trkpt lat="44.14722" lon="6.30813">
        <ele>760.79998779297</ele>
        <time>2022-04-28T15:31:43.623Z</time>
      </trkpt>
      <trkpt lat="44.1472" lon="6.30818">
        <ele>761.20001220703</ele>
        <time>2022-04-28T15:31:44.534Z</time>
      </trkpt>
      <trkpt lat="44.14714" lon="6.30822">
        <ele>761.79998779297</ele>
        <time>2022-04-28T15:31:45.447Z</time>
      </trkpt>
      <trkpt lat="44.14712" lon="6.30821">
        <ele>762</ele>
        <time>2022-04-28T15:31:46.361Z</time>
      </trkpt>
      <trkpt lat="44.14704" lon="6.30815">
        <ele>763</ele>
        <time>2022-04-28T15:31:47.278Z</time>
      </trkpt>
      <trkpt lat="44.14703" lon="6.30813">
        <ele>763.20001220703</ele>
        <time>2022-04-28T15:31:48.195Z</time>
      </trkpt>
      <trkpt lat="44.14698" lon="6.30807">
        <ele>764.20001220703</ele>
        <time>2022-04-28T15:31:49.114Z</time>
      </trkpt>
      <trkpt lat="44.14694" lon="6.30806">
        <ele>764.79998779297</ele>
        <time>2022-04-28T15:31:50.035Z</time>
      </trkpt>
      <trkpt lat="44.14691" lon="6.30806">
        <ele>765.40002441406</ele>
        <time>2022-04-28T15:31:50.957Z</time>
      </trkpt>
      <trkpt lat="44.14691" lon="6.30806">
        <ele>765.40002441406</ele>
        <time>2022-04-28T15:31:51.879Z</time>
      </trkpt>
      <trkpt lat="44.14693" lon="6.30809">
        <ele>765.79998779297</ele>
        <time>2022-04-28T15:31:52.802Z</time>
      </trkpt>
      <trkpt lat="44.14698" lon="6.30813">
        <ele>765.20001220703</ele>
        <time>2022-04-28T15:31:53.727Z</time>
      </trkpt>
      <trkpt lat="44.14698" lon="6.30813">
        <ele>765</ele>
        <time>2022-04-28T15:31:54.652Z</time>
      </trkpt>
      <trkpt lat="44.14694" lon="6.3081">
        <ele>765.20001220703</ele>
        <time>2022-04-28T15:31:55.578Z</time>
      </trkpt>
      <trkpt lat="44.14692" lon="6.30809">
        <ele>765.40002441406</ele>
        <time>2022-04-28T15:31:56.505Z</time>
      </trkpt>
      <trkpt lat="44.14688" lon="6.30809">
        <ele>765.79998779297</ele>
        <time>2022-04-28T15:31:57.433Z</time>
      </trkpt>
      <trkpt lat="44.14685" lon="6.30809">
        <ele>766</ele>
        <time>2022-04-28T15:31:58.362Z</time>
      </trkpt>
      <trkpt lat="44.14684" lon="6.3081">
        <ele>766.20001220703</ele>
        <time>2022-04-28T15:31:59.292Z</time>
      </trkpt>
      <trkpt lat="44.14681" lon="6.30814">
        <ele>766.40002441406</ele>
        <time>2022-04-28T15:32:00.223Z</time>
      </trkpt>
      <trkpt lat="44.14677" lon="6.30818">
        <ele>766.79998779297</ele>
        <time>2022-04-28T15:32:01.156Z</time>
      </trkpt>
      <trkpt lat="44.14676" lon="6.3082">
        <ele>766.79998779297</ele>
        <time>2022-04-28T15:32:02.089Z</time>
      </trkpt>
      <trkpt lat="44.14673" lon="6.30822">
        <ele>767.40002441406</ele>
        <time>2022-04-28T15:32:03.023Z</time>
      </trkpt>
      <trkpt lat="44.14665" lon="6.30828">
        <ele>768.59997558594</ele>
        <time>2022-04-28T15:32:03.960Z</time>
      </trkpt>
      <trkpt lat="44.14656" lon="6.3083">
        <ele>769.59997558594</ele>
        <time>2022-04-28T15:32:04.900Z</time>
      </trkpt>
      <trkpt lat="44.1465" lon="6.3083">
        <ele>770.40002441406</ele>
        <time>2022-04-28T15:32:05.842Z</time>
      </trkpt>
      <trkpt lat="44.14648" lon="6.3083">
        <ele>770.59997558594</ele>
        <time>2022-04-28T15:32:06.785Z</time>
      </trkpt>
      <trkpt lat="44.1464" lon="6.3083">
        <ele>772</ele>
        <time>2022-04-28T15:32:07.730Z</time>
      </trkpt>
      <trkpt lat="44.14634" lon="6.30829">
        <ele>772.59997558594</ele>
        <time>2022-04-28T15:32:08.677Z</time>
      </trkpt>
      <trkpt lat="44.14632" lon="6.30829">
        <ele>773</ele>
        <time>2022-04-28T15:32:09.625Z</time>
      </trkpt>
      <trkpt lat="44.14621" lon="6.30828">
        <ele>774.20001220703</ele>
        <time>2022-04-28T15:32:10.576Z</time>
      </trkpt>
      <trkpt lat="44.14612" lon="6.3083">
        <ele>775.40002441406</ele>
        <time>2022-04-28T15:32:11.530Z</time>
      </trkpt>
      <trkpt lat="44.14605" lon="6.30833">
        <ele>776</ele>
        <time>2022-04-28T15:32:12.487Z</time>
      </trkpt>
      <trkpt lat="44.14598" lon="6.30838">
        <ele>776.59997558594</ele>
        <time>2022-04-28T15:32:13.446Z</time>
      </trkpt>
      <trkpt lat="44.1459" lon="6.30844">
        <ele>777.59997558594</ele>
        <time>2022-04-28T15:32:14.408Z</time>
      </trkpt>
      <trkpt lat="44.14588" lon="6.30844">
        <ele>777.79998779297</ele>
        <time>2022-04-28T15:32:15.370Z</time>
      </trkpt>
      <trkpt lat="44.14575" lon="6.30847">
        <ele>779.20001220703</ele>
        <time>2022-04-28T15:32:16.336Z</time>
      </trkpt>
      <trkpt lat="44.14561" lon="6.30844">
        <ele>780.20001220703</ele>
        <time>2022-04-28T15:32:17.307Z</time>
      </trkpt>
      <trkpt lat="44.14559" lon="6.30843">
        <ele>780.20001220703</ele>
        <time>2022-04-28T15:32:18.279Z</time>
      </trkpt>
      <trkpt lat="44.1455" lon="6.30843">
        <ele>781.40002441406</ele>
        <time>2022-04-28T15:32:19.253Z</time>
      </trkpt>
      <trkpt lat="44.14548" lon="6.30842">
        <ele>781.59997558594</ele>
        <time>2022-04-28T15:32:20.228Z</time>
      </trkpt>
      <trkpt lat="44.14538" lon="6.3084">
        <ele>782.59997558594</ele>
        <time>2022-04-28T15:32:21.206Z</time>
      </trkpt>
      <trkpt lat="44.14531" lon="6.30833">
        <ele>783.40002441406</ele>
        <time>2022-04-28T15:32:22.187Z</time>
      </trkpt>
      <trkpt lat="44.1453" lon="6.30831">
        <ele>783.59997558594</ele>
        <time>2022-04-28T15:32:23.169Z</time>
      </trkpt>
      <trkpt lat="44.14523" lon="6.30823">
        <ele>785</ele>
        <time>2022-04-28T15:32:24.153Z</time>
      </trkpt>
      <trkpt lat="44.14519" lon="6.30821">
        <ele>785.59997558594</ele>
        <time>2022-04-28T15:32:25.139Z</time>
      </trkpt>
      <trkpt lat="44.14513" lon="6.30821">
        <ele>786.40002441406</ele>
        <time>2022-04-28T15:32:26.127Z</time>
      </trkpt>
      <trkpt lat="44.14509" lon="6.30822">
        <ele>787</ele>
        <time>2022-04-28T15:32:27.116Z</time>
      </trkpt>
      <trkpt lat="44.14505" lon="6.30823">
        <ele>787.40002441406</ele>
        <time>2022-04-28T15:32:28.106Z</time>
      </trkpt>
      <trkpt lat="44.14494" lon="6.30822">
        <ele>788.59997558594</ele>
        <time>2022-04-28T15:32:29.100Z</time>
      </trkpt>
      <trkpt lat="44.14484" lon="6.30819">
        <ele>789.79998779297</ele>
        <time>2022-04-28T15:32:30.097Z</time>
      </trkpt>
      <trkpt lat="44.1448" lon="6.30817">
        <ele>790.40002441406</ele>
        <time>2022-04-28T15:32:31.095Z</time>
      </trkpt>
      <trkpt lat="44.14476" lon="6.30816">
        <ele>791</ele>
        <time>2022-04-28T15:32:32.095Z</time>
      </trkpt>
      <trkpt lat="44.14468" lon="6.30811">
        <ele>792.20001220703</ele>
        <time>2022-04-28T15:32:33.097Z</time>
      </trkpt>
      <trkpt lat="44.14462" lon="6.30808">
        <ele>793</ele>
        <time>2022-04-28T15:32:34.102Z</time>
      </trkpt>
      <trkpt lat="44.1446" lon="6.30807">
        <ele>793.40002441406</ele>
        <time>2022-04-28T15:32:35.107Z</time>
      </trkpt>
      <trkpt lat="44.14451" lon="6.30804">
        <ele>794.59997558594</ele>
        <time>2022-04-28T15:32:36.115Z</time>
      </trkpt>
      <trkpt lat="44.14443" lon="6.308">
        <ele>795.59997558594</ele>
        <time>2022-04-28T15:32:37.126Z</time>
      </trkpt>
      <trkpt lat="44.14441" lon="6.30799">
        <ele>795.79998779297</ele>
        <time>2022-04-28T15:32:38.137Z</time>
      </trkpt>
      <trkpt lat="44.14434" lon="6.30792">
        <ele>796.79998779297</ele>
        <time>2022-04-28T15:32:39.151Z</time>
      </trkpt>
      <trkpt lat="44.14431" lon="6.30789">
        <ele>797.40002441406</ele>
        <time>2022-04-28T15:32:40.166Z</time>
      </trkpt>
      <trkpt lat="44.14428" lon="6.30786">
        <ele>798</ele>
        <time>2022-04-28T15:32:41.183Z</time>
      </trkpt>
      <trkpt lat="44.14418" lon="6.3078">
        <ele>799.20001220703</ele>
        <time>2022-04-28T15:32:42.203Z</time>
      </trkpt>
      <trkpt lat="44.1441" lon="6.30776">
        <ele>800.20001220703</ele>
        <time>2022-04-28T15:32:43.226Z</time>
      </trkpt>
      <trkpt lat="44.14403" lon="6.30773">
        <ele>801.40002441406</ele>
        <time>2022-04-28T15:32:44.251Z</time>
      </trkpt>
      <trkpt lat="44.14399" lon="6.30772">
        <ele>802</ele>
        <time>2022-04-28T15:32:45.277Z</time>
      </trkpt>
      <trkpt lat="44.14396" lon="6.30771">
        <ele>802.59997558594</ele>
        <time>2022-04-28T15:32:46.304Z</time>
      </trkpt>
      <trkpt lat="44.14386" lon="6.30767">
        <ele>803.79998779297</ele>
        <time>2022-04-28T15:32:47.335Z</time>
      </trkpt>
      <trkpt lat="44.14383" lon="6.30766">
        <ele>804.40002441406</ele>
        <time>2022-04-28T15:32:48.367Z</time>
      </trkpt>
      <trkpt lat="44.14379" lon="6.30765">
        <ele>805</ele>
        <time>2022-04-28T15:32:49.400Z</time>
      </trkpt>
      <trkpt lat="44.14371" lon="6.30759">
        <ele>806</ele>
        <time>2022-04-28T15:32:50.436Z</time>
      </trkpt>
      <trkpt lat="44.14366" lon="6.30757">
        <ele>807</ele>
        <time>2022-04-28T15:32:51.473Z</time>
      </trkpt>
      <trkpt lat="44.14357" lon="6.30756">
        <ele>808.20001220703</ele>
        <time>2022-04-28T15:32:52.513Z</time>
      </trkpt>
      <trkpt lat="44.14349" lon="6.30759">
        <ele>809.20001220703</ele>
        <time>2022-04-28T15:32:53.556Z</time>
      </trkpt>
      <trkpt lat="44.14347" lon="6.30759">
        <ele>809.40002441406</ele>
        <time>2022-04-28T15:32:54.599Z</time>
      </trkpt>
      <trkpt lat="44.14342" lon="6.30758">
        <ele>810.20001220703</ele>
        <time>2022-04-28T15:32:55.644Z</time>
      </trkpt>
      <trkpt lat="44.14339" lon="6.30757">
        <ele>810.59997558594</ele>
        <time>2022-04-28T15:32:56.690Z</time>
      </trkpt>
      <trkpt lat="44.14332" lon="6.30756">
        <ele>811.20001220703</ele>
        <time>2022-04-28T15:32:57.738Z</time>
      </trkpt>
      <trkpt lat="44.14326" lon="6.30755">
        <ele>812</ele>
        <time>2022-04-28T15:32:58.788Z</time>
      </trkpt>
      <trkpt lat="44.14322" lon="6.30755">
        <ele>812.40002441406</ele>
        <time>2022-04-28T15:32:59.839Z</time>
      </trkpt>
      <trkpt lat="44.14314" lon="6.30753">
        <ele>813.20001220703</ele>
        <time>2022-04-28T15:33:00.893Z</time>
      </trkpt>
      <trkpt lat="44.14309" lon="6.30752">
        <ele>813.40002441406</ele>
        <time>2022-04-28T15:33:01.949Z</time>
      </trkpt>
      <trkpt lat="44.14299" lon="6.3075">
        <ele>814.40002441406</ele>
        <time>2022-04-28T15:33:03.008Z</time>
      </trkpt>
      <trkpt lat="44.14294" lon="6.3075">
        <ele>814.59997558594</ele>
        <time>2022-04-28T15:33:04.068Z</time>
      </trkpt>
      <trkpt lat="44.14286" lon="6.30748">
        <ele>815.59997558594</ele>
        <time>2022-04-28T15:33:05.131Z</time>
      </trkpt>
      <trkpt lat="44.14284" lon="6.30748">
        <ele>816</ele>
        <time>2022-04-28T15:33:06.194Z</time>
      </trkpt>
      <trkpt lat="44.14278" lon="6.30748">
        <ele>817</ele>
        <time>2022-04-28T15:33:07.260Z</time>
      </trkpt>
      <trkpt lat="44.14271" lon="6.30745">
        <ele>817.59997558594</ele>
        <time>2022-04-28T15:33:08.328Z</time>
      </trkpt>
      <trkpt lat="44.14269" lon="6.30744">
        <ele>818</ele>
        <time>2022-04-28T15:33:09.396Z</time>
      </trkpt>
      <trkpt lat="44.14262" lon="6.30739">
        <ele>819</ele>
        <time>2022-04-28T15:33:10.467Z</time>
      </trkpt>
      <trkpt lat="44.14258" lon="6.30736">
        <ele>819.20001220703</ele>
        <time>2022-04-28T15:33:11.539Z</time>
      </trkpt>
      <trkpt lat="44.14252" lon="6.3073">
        <ele>820</ele>
        <time>2022-04-28T15:33:12.614Z</time>
      </trkpt>
      <trkpt lat="44.14247" lon="6.30724">
        <ele>821.20001220703</ele>
        <time>2022-04-28T15:33:13.691Z</time>
      </trkpt>
      <trkpt lat="44.1424" lon="6.30714">
        <ele>822.20001220703</ele>
        <time>2022-04-28T15:33:14.771Z</time>
      </trkpt>
      <trkpt lat="44.14235" lon="6.3071">
        <ele>823</ele>
        <time>2022-04-28T15:33:15.853Z</time>
      </trkpt>
      <trkpt lat="44.14232" lon="6.30709">
        <ele>823.20001220703</ele>
        <time>2022-04-28T15:33:16.936Z</time>
      </trkpt>
      <trkpt lat="44.1422" lon="6.30704">
        <ele>824.20001220703</ele>
        <time>2022-04-28T15:33:18.023Z</time>
      </trkpt>
      <trkpt lat="44.14218" lon="6.30703">
        <ele>824.79998779297</ele>
        <time>2022-04-28T15:33:19.110Z</time>
      </trkpt>
      <trkpt lat="44.14212" lon="6.30704">
        <ele>825.40002441406</ele>
        <time>2022-04-28T15:33:20.199Z</time>
      </trkpt>
      <trkpt lat="44.14205" lon="6.30706">
        <ele>826</ele>
        <time>2022-04-28T15:33:21.290Z</time>
      </trkpt>
      <trkpt lat="44.14201" lon="6.30706">
        <ele>826.40002441406</ele>
        <time>2022-04-28T15:33:22.383Z</time>
      </trkpt>
      <trkpt lat="44.14195" lon="6.30703">
        <ele>827</ele>
        <time>2022-04-28T15:33:23.478Z</time>
      </trkpt>
      <trkpt lat="44.14192" lon="6.30699">
        <ele>827.40002441406</ele>
        <time>2022-04-28T15:33:24.574Z</time>
      </trkpt>
      <trkpt lat="44.14188" lon="6.30692">
        <ele>828.20001220703</ele>
        <time>2022-04-28T15:33:25.672Z</time>
      </trkpt>
      <trkpt lat="44.14186" lon="6.3069">
        <ele>828.59997558594</ele>
        <time>2022-04-28T15:33:26.771Z</time>
      </trkpt>
      <trkpt lat="44.14179" lon="6.30682">
        <ele>829.59997558594</ele>
        <time>2022-04-28T15:33:27.873Z</time>
      </trkpt>
      <trkpt lat="44.14174" lon="6.30678">
        <ele>830</ele>
        <time>2022-04-28T15:33:28.977Z</time>
      </trkpt>
      <trkpt lat="44.14168" lon="6.30674">
        <ele>830.59997558594</ele>
        <time>2022-04-28T15:33:30.083Z</time>
      </trkpt>
      <trkpt lat="44.14162" lon="6.30669">
        <ele>831.79998779297</ele>
        <time>2022-04-28T15:33:31.191Z</time>
      </trkpt>
      <trkpt lat="44.14159" lon="6.30665">
        <ele>832.20001220703</ele>
        <time>2022-04-28T15:33:32.300Z</time>
      </trkpt>
      <trkpt lat="44.14156" lon="6.30662">
        <ele>833</ele>
        <time>2022-04-28T15:33:33.411Z</time>
      </trkpt>
      <trkpt lat="44.14154" lon="6.3066">
        <ele>833.20001220703</ele>
        <time>2022-04-28T15:33:34.522Z</time>
      </trkpt>
      <trkpt lat="44.14148" lon="6.30653">
        <ele>834</ele>
        <time>2022-04-28T15:33:35.636Z</time>
      </trkpt>
      <trkpt lat="44.14141" lon="6.30644">
        <ele>835</ele>
        <time>2022-04-28T15:33:36.753Z</time>
      </trkpt>
      <trkpt lat="44.14138" lon="6.30641">
        <ele>835.40002441406</ele>
        <time>2022-04-28T15:33:37.871Z</time>
      </trkpt>
      <trkpt lat="44.14132" lon="6.30635">
        <ele>836.20001220703</ele>
        <time>2022-04-28T15:33:38.991Z</time>
      </trkpt>
      <trkpt lat="44.14125" lon="6.3063">
        <ele>837.59997558594</ele>
        <time>2022-04-28T15:33:40.114Z</time>
      </trkpt>
      <trkpt lat="44.14124" lon="6.30628">
        <ele>838.20001220703</ele>
        <time>2022-04-28T15:33:41.237Z</time>
      </trkpt>
      <trkpt lat="44.14121" lon="6.30623">
        <ele>838.79998779297</ele>
        <time>2022-04-28T15:33:42.362Z</time>
      </trkpt>
      <trkpt lat="44.14115" lon="6.30612">
        <ele>839.59997558594</ele>
        <time>2022-04-28T15:33:43.490Z</time>
      </trkpt>
      <trkpt lat="44.14114" lon="6.3061">
        <ele>840</ele>
        <time>2022-04-28T15:33:44.618Z</time>
      </trkpt>
      <trkpt lat="44.14112" lon="6.30602">
        <ele>840.79998779297</ele>
        <time>2022-04-28T15:33:45.748Z</time>
      </trkpt>
      <trkpt lat="44.1411" lon="6.30595">
        <ele>841.40002441406</ele>
        <time>2022-04-28T15:33:46.880Z</time>
      </trkpt>
      <trkpt lat="44.14108" lon="6.3059">
        <ele>842</ele>
        <time>2022-04-28T15:33:48.013Z</time>
      </trkpt>
      <trkpt lat="44.14104" lon="6.30582">
        <ele>842.79998779297</ele>
        <time>2022-04-28T15:33:49.149Z</time>
      </trkpt>
      <trkpt lat="44.14103" lon="6.3058">
        <ele>843</ele>
        <time>2022-04-28T15:33:50.285Z</time>
      </trkpt>
      <trkpt lat="44.141" lon="6.30571">
        <ele>844</ele>
        <time>2022-04-28T15:33:51.424Z</time>
      </trkpt>
      <trkpt lat="44.14098" lon="6.30567">
        <ele>844.59997558594</ele>
        <time>2022-04-28T15:33:52.564Z</time>
      </trkpt>
      <trkpt lat="44.14096" lon="6.30563">
        <ele>845.20001220703</ele>
        <time>2022-04-28T15:33:53.705Z</time>
      </trkpt>
      <trkpt lat="44.1409" lon="6.30551">
        <ele>846.20001220703</ele>
        <time>2022-04-28T15:33:54.849Z</time>
      </trkpt>
      <trkpt lat="44.14087" lon="6.30541">
        <ele>847.40002441406</ele>
        <time>2022-04-28T15:33:55.996Z</time>
      </trkpt>
      <trkpt lat="44.14083" lon="6.30531">
        <ele>848.20001220703</ele>
        <time>2022-04-28T15:33:57.145Z</time>
      </trkpt>
      <trkpt lat="44.14081" lon="6.30529">
        <ele>848.40002441406</ele>
        <time>2022-04-28T15:33:58.295Z</time>
      </trkpt>
      <trkpt lat="44.14074" lon="6.30518">
        <ele>849.59997558594</ele>
        <time>2022-04-28T15:33:59.448Z</time>
      </trkpt>
      <trkpt lat="44.14071" lon="6.30513">
        <ele>849.79998779297</ele>
        <time>2022-04-28T15:34:00.603Z</time>
      </trkpt>
      <trkpt lat="44.14064" lon="6.30504">
        <ele>850.59997558594</ele>
        <time>2022-04-28T15:34:01.761Z</time>
      </trkpt>
      <trkpt lat="44.14057" lon="6.30502">
        <ele>851</ele>
        <time>2022-04-28T15:34:02.921Z</time>
      </trkpt>
      <trkpt lat="44.1405" lon="6.30506">
        <ele>851.59997558594</ele>
        <time>2022-04-28T15:34:04.083Z</time>
      </trkpt>
      <trkpt lat="44.14048" lon="6.30509">
        <ele>851.79998779297</ele>
        <time>2022-04-28T15:34:05.246Z</time>
      </trkpt>
      <trkpt lat="44.14044" lon="6.30525">
        <ele>852</ele>
        <time>2022-04-28T15:34:06.413Z</time>
      </trkpt>
      <trkpt lat="44.14041" lon="6.30534">
        <ele>852.59997558594</ele>
        <time>2022-04-28T15:34:07.583Z</time>
      </trkpt>
      <trkpt lat="44.14036" lon="6.30542">
        <ele>853.40002441406</ele>
        <time>2022-04-28T15:34:08.755Z</time>
      </trkpt>
      <trkpt lat="44.14033" lon="6.30546">
        <ele>853.79998779297</ele>
        <time>2022-04-28T15:34:09.928Z</time>
      </trkpt>
      <trkpt lat="44.14024" lon="6.30554">
        <ele>854.79998779297</ele>
        <time>2022-04-28T15:34:11.105Z</time>
      </trkpt>
      <trkpt lat="44.14015" lon="6.30563">
        <ele>855.79998779297</ele>
        <time>2022-04-28T15:34:12.285Z</time>
      </trkpt>
      <trkpt lat="44.14011" lon="6.30567">
        <ele>856.40002441406</ele>
        <time>2022-04-28T15:34:13.467Z</time>
      </trkpt>
      <trkpt lat="44.14008" lon="6.30572">
        <ele>857.20001220703</ele>
        <time>2022-04-28T15:34:14.650Z</time>
      </trkpt>
      <trkpt lat="44.14001" lon="6.30578">
        <ele>858.20001220703</ele>
        <time>2022-04-28T15:34:15.836Z</time>
      </trkpt>
      <trkpt lat="44.13999" lon="6.3058">
        <ele>858.40002441406</ele>
        <time>2022-04-28T15:34:17.022Z</time>
      </trkpt>
      <trkpt lat="44.13994" lon="6.30584">
        <ele>859.40002441406</ele>
        <time>2022-04-28T15:34:18.210Z</time>
      </trkpt>
      <trkpt lat="44.1399" lon="6.30587">
        <ele>859.59997558594</ele>
        <time>2022-04-28T15:34:19.400Z</time>
      </trkpt>
      <trkpt lat="44.1398" lon="6.30598">
        <ele>860.59997558594</ele>
        <time>2022-04-28T15:34:20.594Z</time>
      </trkpt>
      <trkpt lat="44.13976" lon="6.30603">
        <ele>861.20001220703</ele>
        <time>2022-04-28T15:34:21.790Z</time>
      </trkpt>
      <trkpt lat="44.13973" lon="6.30613">
        <ele>862</ele>
        <time>2022-04-28T15:34:22.988Z</time>
      </trkpt>
      <trkpt lat="44.13968" lon="6.30627">
        <ele>862.59997558594</ele>
        <time>2022-04-28T15:34:24.190Z</time>
      </trkpt>
      <trkpt lat="44.13966" lon="6.30633">
        <ele>863</ele>
        <time>2022-04-28T15:34:25.393Z</time>
      </trkpt>
      <trkpt lat="44.13961" lon="6.30654">
        <ele>864.20001220703</ele>
        <time>2022-04-28T15:34:26.601Z</time>
      </trkpt>
      <trkpt lat="44.13961" lon="6.30658">
        <ele>864.40002441406</ele>
        <time>2022-04-28T15:34:27.810Z</time>
      </trkpt>
      <trkpt lat="44.13956" lon="6.30673">
        <ele>865.40002441406</ele>
        <time>2022-04-28T15:34:29.023Z</time>
      </trkpt>
      <trkpt lat="44.13955" lon="6.30675">
        <ele>865.59997558594</ele>
        <time>2022-04-28T15:34:30.236Z</time>
      </trkpt>
      <trkpt lat="44.13952" lon="6.3068">
        <ele>866.40002441406</ele>
        <time>2022-04-28T15:34:31.451Z</time>
      </trkpt>
      <trkpt lat="44.13947" lon="6.3069">
        <ele>867.40002441406</ele>
        <time>2022-04-28T15:34:32.669Z</time>
      </trkpt>
      <trkpt lat="44.13941" lon="6.30703">
        <ele>868.59997558594</ele>
        <time>2022-04-28T15:34:33.890Z</time>
      </trkpt>
      <trkpt lat="44.13937" lon="6.30709">
        <ele>869.20001220703</ele>
        <time>2022-04-28T15:34:35.113Z</time>
      </trkpt>
      <trkpt lat="44.13931" lon="6.30718">
        <ele>869.79998779297</ele>
        <time>2022-04-28T15:34:36.339Z</time>
      </trkpt>
      <trkpt lat="44.13927" lon="6.30725">
        <ele>870.20001220703</ele>
        <time>2022-04-28T15:34:37.567Z</time>
      </trkpt>
      <trkpt lat="44.13921" lon="6.30736">
        <ele>871</ele>
        <time>2022-04-28T15:34:38.798Z</time>
      </trkpt>
      <trkpt lat="44.13914" lon="6.3075">
        <ele>872</ele>
        <time>2022-04-28T15:34:40.033Z</time>
      </trkpt>
      <trkpt lat="44.13913" lon="6.30753">
        <ele>872.20001220703</ele>
        <time>2022-04-28T15:34:41.269Z</time>
      </trkpt>
      <trkpt lat="44.1391" lon="6.30764">
        <ele>873.20001220703</ele>
        <time>2022-04-28T15:34:42.507Z</time>
      </trkpt>
      <trkpt lat="44.13908" lon="6.30771">
        <ele>873.79998779297</ele>
        <time>2022-04-28T15:34:43.747Z</time>
      </trkpt>
      <trkpt lat="44.13906" lon="6.30781">
        <ele>874.40002441406</ele>
        <time>2022-04-28T15:34:44.989Z</time>
      </trkpt>
      <trkpt lat="44.13907" lon="6.30792">
        <ele>875</ele>
        <time>2022-04-28T15:34:46.234Z</time>
      </trkpt>
      <trkpt lat="44.13909" lon="6.30798">
        <ele>875.40002441406</ele>
        <time>2022-04-28T15:34:47.480Z</time>
      </trkpt>
      <trkpt lat="44.13915" lon="6.30809">
        <ele>876.59997558594</ele>
        <time>2022-04-28T15:34:48.730Z</time>
      </trkpt>
      <trkpt lat="44.13921" lon="6.30818">
        <ele>877.59997558594</ele>
        <time>2022-04-28T15:34:49.983Z</time>
      </trkpt>
      <trkpt lat="44.13928" lon="6.30827">
        <ele>878.79998779297</ele>
        <time>2022-04-28T15:34:51.238Z</time>
      </trkpt>
      <trkpt lat="44.1393" lon="6.30829">
        <ele>878.79998779297</ele>
        <time>2022-04-28T15:34:52.494Z</time>
      </trkpt>
      <trkpt lat="44.13939" lon="6.30838">
        <ele>879.79998779297</ele>
        <time>2022-04-28T15:34:53.754Z</time>
      </trkpt>
      <trkpt lat="44.13945" lon="6.30844">
        <ele>881</ele>
        <time>2022-04-28T15:34:55.016Z</time>
      </trkpt>
      <trkpt lat="44.13956" lon="6.30854">
        <ele>882.20001220703</ele>
        <time>2022-04-28T15:34:56.282Z</time>
      </trkpt>
      <trkpt lat="44.1396" lon="6.30857">
        <ele>883</ele>
        <time>2022-04-28T15:34:57.550Z</time>
      </trkpt>
      <trkpt lat="44.13962" lon="6.30858">
        <ele>883.20001220703</ele>
        <time>2022-04-28T15:34:58.818Z</time>
      </trkpt>
      <trkpt lat="44.13973" lon="6.30865">
        <ele>884.20001220703</ele>
        <time>2022-04-28T15:35:00.090Z</time>
      </trkpt>
      <trkpt lat="44.13977" lon="6.30868">
        <ele>885</ele>
        <time>2022-04-28T15:35:01.364Z</time>
      </trkpt>
      <trkpt lat="44.13982" lon="6.30871">
        <ele>885.59997558594</ele>
        <time>2022-04-28T15:35:02.639Z</time>
      </trkpt>
      <trkpt lat="44.13992" lon="6.30878">
        <ele>886.79998779297</ele>
        <time>2022-04-28T15:35:03.918Z</time>
      </trkpt>
      <trkpt lat="44.13994" lon="6.30879">
        <ele>887</ele>
        <time>2022-04-28T15:35:05.198Z</time>
      </trkpt>
      <trkpt lat="44.14002" lon="6.30886">
        <ele>887.79998779297</ele>
        <time>2022-04-28T15:35:06.480Z</time>
      </trkpt>
      <trkpt lat="44.1401" lon="6.30891">
        <ele>889</ele>
        <time>2022-04-28T15:35:07.765Z</time>
      </trkpt>
      <trkpt lat="44.14019" lon="6.30896">
        <ele>890.20001220703</ele>
        <time>2022-04-28T15:35:09.053Z</time>
      </trkpt>
      <trkpt lat="44.14024" lon="6.309">
        <ele>891</ele>
        <time>2022-04-28T15:35:10.343Z</time>
      </trkpt>
      <trkpt lat="44.14026" lon="6.30902">
        <ele>891.20001220703</ele>
        <time>2022-04-28T15:35:11.634Z</time>
      </trkpt>
      <trkpt lat="44.14034" lon="6.30907">
        <ele>892.20001220703</ele>
        <time>2022-04-28T15:35:12.928Z</time>
      </trkpt>
      <trkpt lat="44.14038" lon="6.3091">
        <ele>892.79998779297</ele>
        <time>2022-04-28T15:35:14.223Z</time>
      </trkpt>
      <trkpt lat="44.14041" lon="6.30913">
        <ele>893.20001220703</ele>
        <time>2022-04-28T15:35:15.520Z</time>
      </trkpt>
      <trkpt lat="44.14055" lon="6.30927">
        <ele>894.59997558594</ele>
        <time>2022-04-28T15:35:16.822Z</time>
      </trkpt>
      <trkpt lat="44.14063" lon="6.30934">
        <ele>895.59997558594</ele>
        <time>2022-04-28T15:35:18.127Z</time>
      </trkpt>
      <trkpt lat="44.14073" lon="6.30943">
        <ele>896.59997558594</ele>
        <time>2022-04-28T15:35:19.436Z</time>
      </trkpt>
      <trkpt lat="44.14083" lon="6.30951">
        <ele>897.79998779297</ele>
        <time>2022-04-28T15:35:20.748Z</time>
      </trkpt>
      <trkpt lat="44.14087" lon="6.30955">
        <ele>898.20001220703</ele>
        <time>2022-04-28T15:35:22.062Z</time>
      </trkpt>
      <trkpt lat="44.14089" lon="6.30956">
        <ele>898.40002441406</ele>
        <time>2022-04-28T15:35:23.377Z</time>
      </trkpt>
      <trkpt lat="44.14093" lon="6.30959">
        <ele>898.79998779297</ele>
        <time>2022-04-28T15:35:24.693Z</time>
      </trkpt>
      <trkpt lat="44.14102" lon="6.30966">
        <ele>899.79998779297</ele>
        <time>2022-04-28T15:35:26.012Z</time>
      </trkpt>
      <trkpt lat="44.14104" lon="6.30967">
        <ele>900.20001220703</ele>
        <time>2022-04-28T15:35:27.332Z</time>
      </trkpt>
      <trkpt lat="44.14112" lon="6.30974">
        <ele>901.20001220703</ele>
        <time>2022-04-28T15:35:28.655Z</time>
      </trkpt>
      <trkpt lat="44.14116" lon="6.30976">
        <ele>901.79998779297</ele>
        <time>2022-04-28T15:35:29.979Z</time>
      </trkpt>
      <trkpt lat="44.14118" lon="6.30977">
        <ele>902.20001220703</ele>
        <time>2022-04-28T15:35:31.304Z</time>
      </trkpt>
      <trkpt lat="44.14128" lon="6.30985">
        <ele>903.40002441406</ele>
        <time>2022-04-28T15:35:32.633Z</time>
      </trkpt>
      <trkpt lat="44.14135" lon="6.3099">
        <ele>904.40002441406</ele>
        <time>2022-04-28T15:35:33.964Z</time>
      </trkpt>
      <trkpt lat="44.14146" lon="6.31001">
        <ele>905.40002441406</ele>
        <time>2022-04-28T15:35:35.299Z</time>
      </trkpt>
      <trkpt lat="44.14158" lon="6.31009">
        <ele>906.59997558594</ele>
        <time>2022-04-28T15:35:36.639Z</time>
      </trkpt>
      <trkpt lat="44.14165" lon="6.31012">
        <ele>907.40002441406</ele>
        <time>2022-04-28T15:35:37.981Z</time>
      </trkpt>
      <trkpt lat="44.14169" lon="6.31015">
        <ele>907.79998779297</ele>
        <time>2022-04-28T15:35:39.324Z</time>
      </trkpt>
      <trkpt lat="44.14177" lon="6.3102">
        <ele>908.79998779297</ele>
        <time>2022-04-28T15:35:40.670Z</time>
      </trkpt>
      <trkpt lat="44.14178" lon="6.31021">
        <ele>909</ele>
        <time>2022-04-28T15:35:42.017Z</time>
      </trkpt>
      <trkpt lat="44.14183" lon="6.31027">
        <ele>909.59997558594</ele>
        <time>2022-04-28T15:35:43.366Z</time>
      </trkpt>
      <trkpt lat="44.14185" lon="6.31028">
        <ele>909.79998779297</ele>
        <time>2022-04-28T15:35:44.715Z</time>
      </trkpt>
      <trkpt lat="44.14192" lon="6.31032">
        <ele>910.79998779297</ele>
        <time>2022-04-28T15:35:46.067Z</time>
      </trkpt>
      <trkpt lat="44.14194" lon="6.31034">
        <ele>911</ele>
        <time>2022-04-28T15:35:47.419Z</time>
      </trkpt>
      <trkpt lat="44.14204" lon="6.31043">
        <ele>912.40002441406</ele>
        <time>2022-04-28T15:35:48.775Z</time>
      </trkpt>
      <trkpt lat="44.14215" lon="6.31052">
        <ele>913.59997558594</ele>
        <time>2022-04-28T15:35:50.135Z</time>
      </trkpt>
      <trkpt lat="44.14225" lon="6.31061">
        <ele>914.59997558594</ele>
        <time>2022-04-28T15:35:51.499Z</time>
      </trkpt>
      <trkpt lat="44.14229" lon="6.31064">
        <ele>915</ele>
        <time>2022-04-28T15:35:52.864Z</time>
      </trkpt>
      <trkpt lat="44.14235" lon="6.31069">
        <ele>915.79998779297</ele>
        <time>2022-04-28T15:35:54.232Z</time>
      </trkpt>
      <trkpt lat="44.14246" lon="6.31078">
        <ele>916.79998779297</ele>
        <time>2022-04-28T15:35:55.604Z</time>
      </trkpt>
      <trkpt lat="44.14248" lon="6.3108">
        <ele>917.20001220703</ele>
        <time>2022-04-28T15:35:56.976Z</time>
      </trkpt>
      <trkpt lat="44.14255" lon="6.31088">
        <ele>918.20001220703</ele>
        <time>2022-04-28T15:35:58.351Z</time>
      </trkpt>
      <trkpt lat="44.14262" lon="6.31094">
        <ele>919</ele>
        <time>2022-04-28T15:35:59.729Z</time>
      </trkpt>
      <trkpt lat="44.14265" lon="6.31098">
        <ele>919.20001220703</ele>
        <time>2022-04-28T15:36:01.108Z</time>
      </trkpt>
      <trkpt lat="44.14275" lon="6.31112">
        <ele>920.59997558594</ele>
        <time>2022-04-28T15:36:02.492Z</time>
      </trkpt>
      <trkpt lat="44.14277" lon="6.31115">
        <ele>920.79998779297</ele>
        <time>2022-04-28T15:36:03.877Z</time>
      </trkpt>
      <trkpt lat="44.14285" lon="6.3113">
        <ele>921.59997558594</ele>
        <time>2022-04-28T15:36:05.266Z</time>
      </trkpt>
      <trkpt lat="44.14288" lon="6.31131">
        <ele>921.59997558594</ele>
        <time>2022-04-28T15:36:06.656Z</time>
      </trkpt>
      <trkpt lat="44.14293" lon="6.31131">
        <ele>922</ele>
        <time>2022-04-28T15:36:08.048Z</time>
      </trkpt>
      <trkpt lat="44.14296" lon="6.31125">
        <ele>922.20001220703</ele>
        <time>2022-04-28T15:36:09.441Z</time>
      </trkpt>
      <trkpt lat="44.14296" lon="6.31118">
        <ele>922.40002441406</ele>
        <time>2022-04-28T15:36:10.836Z</time>
      </trkpt>
      <trkpt lat="44.14295" lon="6.31112">
        <ele>922.79998779297</ele>
        <time>2022-04-28T15:36:12.232Z</time>
      </trkpt>
      <trkpt lat="44.14294" lon="6.3111">
        <ele>923</ele>
        <time>2022-04-28T15:36:13.629Z</time>
      </trkpt>
      <trkpt lat="44.14287" lon="6.31102">
        <ele>923.79998779297</ele>
        <time>2022-04-28T15:36:15.029Z</time>
      </trkpt>
      <trkpt lat="44.14284" lon="6.31097">
        <ele>924.40002441406</ele>
        <time>2022-04-28T15:36:16.430Z</time>
      </trkpt>
      <trkpt lat="44.14279" lon="6.31086">
        <ele>924.79998779297</ele>
        <time>2022-04-28T15:36:17.834Z</time>
      </trkpt>
      <trkpt lat="44.14278" lon="6.31083">
        <ele>925</ele>
        <time>2022-04-28T15:36:19.239Z</time>
      </trkpt>
      <trkpt lat="44.14274" lon="6.31071">
        <ele>926</ele>
        <time>2022-04-28T15:36:20.647Z</time>
      </trkpt>
      <trkpt lat="44.14271" lon="6.31062">
        <ele>926.79998779297</ele>
        <time>2022-04-28T15:36:22.057Z</time>
      </trkpt>
      <trkpt lat="44.1427" lon="6.31059">
        <ele>927.20001220703</ele>
        <time>2022-04-28T15:36:23.468Z</time>
      </trkpt>
      <trkpt lat="44.14266" lon="6.31044">
        <ele>928.40002441406</ele>
        <time>2022-04-28T15:36:24.883Z</time>
      </trkpt>
      <trkpt lat="44.14263" lon="6.31034">
        <ele>929.20001220703</ele>
        <time>2022-04-28T15:36:26.300Z</time>
      </trkpt>
      <trkpt lat="44.14261" lon="6.31028">
        <ele>929.40002441406</ele>
        <time>2022-04-28T15:36:27.719Z</time>
      </trkpt>
      <trkpt lat="44.14257" lon="6.31016">
        <ele>930.59997558594</ele>
        <time>2022-04-28T15:36:29.141Z</time>
      </trkpt>
      <trkpt lat="44.14254" lon="6.31007">
        <ele>931.40002441406</ele>
        <time>2022-04-28T15:36:30.565Z</time>
      </trkpt>
      <trkpt lat="44.14253" lon="6.31004">
        <ele>931.79998779297</ele>
        <time>2022-04-28T15:36:31.990Z</time>
      </trkpt>
      <trkpt lat="44.14248" lon="6.30992">
        <ele>932.59997558594</ele>
        <time>2022-04-28T15:36:33.418Z</time>
      </trkpt>
      <trkpt lat="44.14247" lon="6.30983">
        <ele>933.20001220703</ele>
        <time>2022-04-28T15:36:34.848Z</time>
      </trkpt>
      <trkpt lat="44.14247" lon="6.30976">
        <ele>933.59997558594</ele>
        <time>2022-04-28T15:36:36.279Z</time>
      </trkpt>
      <trkpt lat="44.14252" lon="6.30969">
        <ele>934.20001220703</ele>
        <time>2022-04-28T15:36:37.713Z</time>
      </trkpt>
      <trkpt lat="44.14265" lon="6.30966">
        <ele>934.59997558594</ele>
        <time>2022-04-28T15:36:39.151Z</time>
      </trkpt>
      <trkpt lat="44.1427" lon="6.30968">
        <ele>934.79998779297</ele>
        <time>2022-04-28T15:36:40.590Z</time>
      </trkpt>
      <trkpt lat="44.14279" lon="6.30973">
        <ele>935.59997558594</ele>
        <time>2022-04-28T15:36:42.033Z</time>
      </trkpt>
      <trkpt lat="44.14281" lon="6.30974">
        <ele>935.79998779297</ele>
        <time>2022-04-28T15:36:43.476Z</time>
      </trkpt>
      <trkpt lat="44.14284" lon="6.30976">
        <ele>936</ele>
        <time>2022-04-28T15:36:44.920Z</time>
      </trkpt>
      <trkpt lat="44.1429" lon="6.30979">
        <ele>936.79998779297</ele>
        <time>2022-04-28T15:36:46.366Z</time>
      </trkpt>
      <trkpt lat="44.14298" lon="6.30985">
        <ele>938</ele>
        <time>2022-04-28T15:36:47.815Z</time>
      </trkpt>
      <trkpt lat="44.143" lon="6.30987">
        <ele>938.20001220703</ele>
        <time>2022-04-28T15:36:49.265Z</time>
      </trkpt>
      <trkpt lat="44.14307" lon="6.30991">
        <ele>939</ele>
        <time>2022-04-28T15:36:50.717Z</time>
      </trkpt>
      <trkpt lat="44.14316" lon="6.30997">
        <ele>940</ele>
        <time>2022-04-28T15:36:52.172Z</time>
      </trkpt>
      <trkpt lat="44.14318" lon="6.30999">
        <ele>940.20001220703</ele>
        <time>2022-04-28T15:36:53.628Z</time>
      </trkpt>
      <trkpt lat="44.1433" lon="6.31005">
        <ele>941.40002441406</ele>
        <time>2022-04-28T15:36:55.088Z</time>
      </trkpt>
      <trkpt lat="44.14335" lon="6.31007">
        <ele>941.79998779297</ele>
        <time>2022-04-28T15:36:56.550Z</time>
      </trkpt>
      <trkpt lat="44.14342" lon="6.31009">
        <ele>942.40002441406</ele>
        <time>2022-04-28T15:36:58.014Z</time>
      </trkpt>
      <trkpt lat="44.14353" lon="6.31012">
        <ele>943.59997558594</ele>
        <time>2022-04-28T15:36:59.482Z</time>
      </trkpt>
      <trkpt lat="44.14356" lon="6.31012">
        <ele>943.79998779297</ele>
        <time>2022-04-28T15:37:00.951Z</time>
      </trkpt>
      <trkpt lat="44.14366" lon="6.31014">
        <ele>944.59997558594</ele>
        <time>2022-04-28T15:37:02.423Z</time>
      </trkpt>
      <trkpt lat="44.14373" lon="6.31016">
        <ele>945.40002441406</ele>
        <time>2022-04-28T15:37:03.897Z</time>
      </trkpt>
      <trkpt lat="44.14375" lon="6.31017">
        <ele>945.79998779297</ele>
        <time>2022-04-28T15:37:05.372Z</time>
      </trkpt>
      <trkpt lat="44.14388" lon="6.31025">
        <ele>946.79998779297</ele>
        <time>2022-04-28T15:37:06.851Z</time>
      </trkpt>
      <trkpt lat="44.14401" lon="6.31038">
        <ele>948.20001220703</ele>
        <time>2022-04-28T15:37:08.335Z</time>
      </trkpt>
      <trkpt lat="44.14407" lon="6.31045">
        <ele>948.79998779297</ele>
        <time>2022-04-28T15:37:09.822Z</time>
      </trkpt>
      <trkpt lat="44.14411" lon="6.31049">
        <ele>949.20001220703</ele>
        <time>2022-04-28T15:37:11.310Z</time>
      </trkpt>
      <trkpt lat="44.14424" lon="6.31063">
        <ele>950</ele>
        <time>2022-04-28T15:37:12.804Z</time>
      </trkpt>
      <trkpt lat="44.14426" lon="6.31066">
        <ele>950.20001220703</ele>
        <time>2022-04-28T15:37:14.298Z</time>
      </trkpt>
      <trkpt lat="44.14443" lon="6.31084">
        <ele>951.40002441406</ele>
        <time>2022-04-28T15:37:15.799Z</time>
      </trkpt>
      <trkpt lat="44.14455" lon="6.31099">
        <ele>952.20001220703</ele>
        <time>2022-04-28T15:37:17.305Z</time>
      </trkpt>
      <trkpt lat="44.1446" lon="6.31107">
        <ele>952.79998779297</ele>
        <time>2022-04-28T15:37:18.814Z</time>
      </trkpt>
      <trkpt lat="44.14464" lon="6.31112">
        <ele>953.40002441406</ele>
        <time>2022-04-28T15:37:20.324Z</time>
      </trkpt>
      <trkpt lat="44.14475" lon="6.31131">
        <ele>954.59997558594</ele>
        <time>2022-04-28T15:37:21.840Z</time>
      </trkpt>
      <trkpt lat="44.14484" lon="6.31147">
        <ele>955.59997558594</ele>
        <time>2022-04-28T15:37:23.361Z</time>
      </trkpt>
      <trkpt lat="44.14492" lon="6.31162">
        <ele>956.59997558594</ele>
        <time>2022-04-28T15:37:24.886Z</time>
      </trkpt>
      <trkpt lat="44.14499" lon="6.31176">
        <ele>957.59997558594</ele>
        <time>2022-04-28T15:37:26.415Z</time>
      </trkpt>
      <trkpt lat="44.14504" lon="6.31188">
        <ele>958.79998779297</ele>
        <time>2022-04-28T15:37:27.947Z</time>
      </trkpt>
      <trkpt lat="44.14511" lon="6.312">
        <ele>959.79998779297</ele>
        <time>2022-04-28T15:37:29.482Z</time>
      </trkpt>
      <trkpt lat="44.14512" lon="6.31202">
        <ele>959.79998779297</ele>
        <time>2022-04-28T15:37:31.018Z</time>
      </trkpt>
      <trkpt lat="44.14522" lon="6.31215">
        <ele>961</ele>
        <time>2022-04-28T15:37:32.558Z</time>
      </trkpt>
      <trkpt lat="44.14528" lon="6.31222">
        <ele>962</ele>
        <time>2022-04-28T15:37:34.101Z</time>
      </trkpt>
      <trkpt lat="44.14534" lon="6.31229">
        <ele>963.20001220703</ele>
        <time>2022-04-28T15:37:35.646Z</time>
      </trkpt>
      <trkpt lat="44.14535" lon="6.31231">
        <ele>963.40002441406</ele>
        <time>2022-04-28T15:37:37.192Z</time>
      </trkpt>
      <trkpt lat="44.14541" lon="6.31237">
        <ele>964.20001220703</ele>
        <time>2022-04-28T15:37:38.740Z</time>
      </trkpt>
      <trkpt lat="44.14549" lon="6.31245">
        <ele>965.20001220703</ele>
        <time>2022-04-28T15:37:40.291Z</time>
      </trkpt>
      <trkpt lat="44.14551" lon="6.31247">
        <ele>965.20001220703</ele>
        <time>2022-04-28T15:37:41.843Z</time>
      </trkpt>
      <trkpt lat="44.14558" lon="6.31254">
        <ele>966.40002441406</ele>
        <time>2022-04-28T15:37:43.398Z</time>
      </trkpt>
      <trkpt lat="44.14563" lon="6.3126">
        <ele>966.79998779297</ele>
        <time>2022-04-28T15:37:44.955Z</time>
      </trkpt>
      <trkpt lat="44.14567" lon="6.31264">
        <ele>967.40002441406</ele>
        <time>2022-04-28T15:37:46.514Z</time>
      </trkpt>
      <trkpt lat="44.14573" lon="6.31272">
        <ele>968.40002441406</ele>
        <time>2022-04-28T15:37:48.075Z</time>
      </trkpt>
      <trkpt lat="44.14575" lon="6.31275">
        <ele>968.59997558594</ele>
        <time>2022-04-28T15:37:49.637Z</time>
      </trkpt>
      <trkpt lat="44.14579" lon="6.31282">
        <ele>969.40002441406</ele>
        <time>2022-04-28T15:37:51.201Z</time>
      </trkpt>
      <trkpt lat="44.14586" lon="6.3129">
        <ele>970.40002441406</ele>
        <time>2022-04-28T15:37:52.768Z</time>
      </trkpt>
      <trkpt lat="44.14588" lon="6.31292">
        <ele>970.59997558594</ele>
        <time>2022-04-28T15:37:54.336Z</time>
      </trkpt>
      <trkpt lat="44.14596" lon="6.31297">
        <ele>971.59997558594</ele>
        <time>2022-04-28T15:37:55.907Z</time>
      </trkpt>
      <trkpt lat="44.146" lon="6.31298">
        <ele>972</ele>
        <time>2022-04-28T15:37:57.479Z</time>
      </trkpt>
      <trkpt lat="44.14607" lon="6.31299">
        <ele>972.79998779297</ele>
        <time>2022-04-28T15:37:59.053Z</time>
      </trkpt>
      <trkpt lat="44.14614" lon="6.31303">
        <ele>974</ele>
        <time>2022-04-28T15:38:00.630Z</time>
      </trkpt>
      <trkpt lat="44.14622" lon="6.31309">
        <ele>975.20001220703</ele>
        <time>2022-04-28T15:38:02.209Z</time>
      </trkpt>
      <trkpt lat="44.1463" lon="6.31315">
        <ele>976.20001220703</ele>
        <time>2022-04-28T15:38:03.791Z</time>
      </trkpt>
      <trkpt lat="44.14638" lon="6.31321">
        <ele>977</ele>
        <time>2022-04-28T15:38:05.376Z</time>
      </trkpt>
      <trkpt lat="44.14643" lon="6.31326">
        <ele>977.79998779297</ele>
        <time>2022-04-28T15:38:06.963Z</time>
      </trkpt>
      <trkpt lat="44.14645" lon="6.31328">
        <ele>978.20001220703</ele>
        <time>2022-04-28T15:38:08.551Z</time>
      </trkpt>
      <trkpt lat="44.14653" lon="6.31334">
        <ele>979.20001220703</ele>
        <time>2022-04-28T15:38:10.142Z</time>
      </trkpt>
      <trkpt lat="44.14657" lon="6.31337">
        <ele>979.79998779297</ele>
        <time>2022-04-28T15:38:11.734Z</time>
      </trkpt>
      <trkpt lat="44.1466" lon="6.3134">
        <ele>980.40002441406</ele>
        <time>2022-04-28T15:38:13.328Z</time>
      </trkpt>
      <trkpt lat="44.1467" lon="6.31349">
        <ele>981.59997558594</ele>
        <time>2022-04-28T15:38:14.925Z</time>
      </trkpt>
      <trkpt lat="44.14672" lon="6.31351">
        <ele>981.79998779297</ele>
        <time>2022-04-28T15:38:16.523Z</time>
      </trkpt>
      <trkpt lat="44.14682" lon="6.31357">
        <ele>982.79998779297</ele>
        <time>2022-04-28T15:38:18.124Z</time>
      </trkpt>
      <trkpt lat="44.14686" lon="6.31359">
        <ele>983.40002441406</ele>
        <time>2022-04-28T15:38:19.727Z</time>
      </trkpt>
      <trkpt lat="44.14688" lon="6.3136">
        <ele>983.79998779297</ele>
        <time>2022-04-28T15:38:21.331Z</time>
      </trkpt>
      <trkpt lat="44.14698" lon="6.31369">
        <ele>984.79998779297</ele>
        <time>2022-04-28T15:38:22.938Z</time>
      </trkpt>
      <trkpt lat="44.14705" lon="6.31378">
        <ele>986</ele>
        <time>2022-04-28T15:38:24.548Z</time>
      </trkpt>
      <trkpt lat="44.14711" lon="6.31384">
        <ele>986.79998779297</ele>
        <time>2022-04-28T15:38:26.160Z</time>
      </trkpt>
      <trkpt lat="44.14712" lon="6.31386">
        <ele>987</ele>
        <time>2022-04-28T15:38:27.773Z</time>
      </trkpt>
      <trkpt lat="44.14717" lon="6.31397">
        <ele>988</ele>
        <time>2022-04-28T15:38:29.389Z</time>
      </trkpt>
      <trkpt lat="44.14717" lon="6.314">
        <ele>988.40002441406</ele>
        <time>2022-04-28T15:38:31.006Z</time>
      </trkpt>
      <trkpt lat="44.14713" lon="6.31407">
        <ele>989.20001220703</ele>
        <time>2022-04-28T15:38:32.625Z</time>
      </trkpt>
      <trkpt lat="44.1471" lon="6.3141">
        <ele>989.40002441406</ele>
        <time>2022-04-28T15:38:34.245Z</time>
      </trkpt>
      <trkpt lat="44.14704" lon="6.31411">
        <ele>990</ele>
        <time>2022-04-28T15:38:35.867Z</time>
      </trkpt>
      <trkpt lat="44.14701" lon="6.31411">
        <ele>990.20001220703</ele>
        <time>2022-04-28T15:38:37.490Z</time>
      </trkpt>
      <trkpt lat="44.14699" lon="6.3141">
        <ele>990.40002441406</ele>
        <time>2022-04-28T15:38:39.113Z</time>
      </trkpt>
      <trkpt lat="44.1469" lon="6.31409">
        <ele>991.40002441406</ele>
        <time>2022-04-28T15:38:40.739Z</time>
      </trkpt>
      <trkpt lat="44.14684" lon="6.31409">
        <ele>992.20001220703</ele>
        <time>2022-04-28T15:38:42.367Z</time>
      </trkpt>
      <trkpt lat="44.14682" lon="6.31409">
        <ele>992.20001220703</ele>
        <time>2022-04-28T15:38:43.996Z</time>
      </trkpt>
      <trkpt lat="44.14675" lon="6.31413">
        <ele>993.40002441406</ele>
        <time>2022-04-28T15:38:45.627Z</time>
      </trkpt>
      <trkpt lat="44.14667" lon="6.31419">
        <ele>994.59997558594</ele>
        <time>2022-04-28T15:38:47.261Z</time>
      </trkpt>
      <trkpt lat="44.14655" lon="6.31423">
        <ele>995.59997558594</ele>
        <time>2022-04-28T15:38:48.899Z</time>
      </trkpt>
      <trkpt lat="44.14653" lon="6.31423">
        <ele>995.79998779297</ele>
        <time>2022-04-28T15:38:50.538Z</time>
      </trkpt>
      <trkpt lat="44.14641" lon="6.31421">
        <ele>997.20001220703</ele>
        <time>2022-04-28T15:38:52.181Z</time>
      </trkpt>
      <trkpt lat="44.14638" lon="6.31421">
        <ele>997.40002441406</ele>
        <time>2022-04-28T15:38:53.824Z</time>
      </trkpt>
      <trkpt lat="44.14627" lon="6.31417">
        <ele>998.40002441406</ele>
        <time>2022-04-28T15:38:55.471Z</time>
      </trkpt>
      <trkpt lat="44.14618" lon="6.31415">
        <ele>999</ele>
        <time>2022-04-28T15:38:57.121Z</time>
      </trkpt>
      <trkpt lat="44.14616" lon="6.31414">
        <ele>999.20001220703</ele>
        <time>2022-04-28T15:38:58.772Z</time>
      </trkpt>
      <trkpt lat="44.14607" lon="6.31412">
        <ele>1000.4000244141</ele>
        <time>2022-04-28T15:39:00.425Z</time>
      </trkpt>
      <trkpt lat="44.14603" lon="6.31411">
        <ele>1000.5999755859</ele>
        <time>2022-04-28T15:39:02.080Z</time>
      </trkpt>
      <trkpt lat="44.14596" lon="6.31409">
        <ele>1001.4000244141</ele>
        <time>2022-04-28T15:39:03.737Z</time>
      </trkpt>
      <trkpt lat="44.14589" lon="6.31407">
        <ele>1002</ele>
        <time>2022-04-28T15:39:05.396Z</time>
      </trkpt>
      <trkpt lat="44.14584" lon="6.31405">
        <ele>1002.5999755859</ele>
        <time>2022-04-28T15:39:07.057Z</time>
      </trkpt>
      <trkpt lat="44.14573" lon="6.31401">
        <ele>1003.799987793</ele>
        <time>2022-04-28T15:39:08.721Z</time>
      </trkpt>
      <trkpt lat="44.14571" lon="6.314">
        <ele>1004</ele>
        <time>2022-04-28T15:39:10.386Z</time>
      </trkpt>
      <trkpt lat="44.14565" lon="6.31397">
        <ele>1005</ele>
        <time>2022-04-28T15:39:12.053Z</time>
      </trkpt>
      <trkpt lat="44.14554" lon="6.31392">
        <ele>1006</ele>
        <time>2022-04-28T15:39:13.724Z</time>
      </trkpt>
      <trkpt lat="44.14543" lon="6.31388">
        <ele>1007.4000244141</ele>
        <time>2022-04-28T15:39:15.398Z</time>
      </trkpt>
      <trkpt lat="44.14537" lon="6.31386">
        <ele>1008.4000244141</ele>
        <time>2022-04-28T15:39:17.075Z</time>
      </trkpt>
      <trkpt lat="44.14525" lon="6.31383">
        <ele>1009.200012207</ele>
        <time>2022-04-28T15:39:18.755Z</time>
      </trkpt>
      <trkpt lat="44.14523" lon="6.31383">
        <ele>1009.5999755859</ele>
        <time>2022-04-28T15:39:20.436Z</time>
      </trkpt>
      <trkpt lat="44.14516" lon="6.31381">
        <ele>1010.4000244141</ele>
        <time>2022-04-28T15:39:22.119Z</time>
      </trkpt>
      <trkpt lat="44.14505" lon="6.31379">
        <ele>1011.4000244141</ele>
        <time>2022-04-28T15:39:23.806Z</time>
      </trkpt>
      <trkpt lat="44.14503" lon="6.31378">
        <ele>1011.5999755859</ele>
        <time>2022-04-28T15:39:25.494Z</time>
      </trkpt>
      <trkpt lat="44.14492" lon="6.31377">
        <ele>1012.799987793</ele>
        <time>2022-04-28T15:39:27.185Z</time>
      </trkpt>
      <trkpt lat="44.1449" lon="6.31377">
        <ele>1013</ele>
        <time>2022-04-28T15:39:28.876Z</time>
      </trkpt>
      <trkpt lat="44.14479" lon="6.3138">
        <ele>1014</ele>
        <time>2022-04-28T15:39:30.571Z</time>
      </trkpt>
      <trkpt lat="44.14476" lon="6.3138">
        <ele>1014.4000244141</ele>
        <time>2022-04-28T15:39:32.267Z</time>
      </trkpt>
      <trkpt lat="44.1447" lon="6.31382">
        <ele>1015.200012207</ele>
        <time>2022-04-28T15:39:33.965Z</time>
      </trkpt>
      <trkpt lat="44.14464" lon="6.31384">
        <ele>1015.799987793</ele>
        <time>2022-04-28T15:39:35.665Z</time>
      </trkpt>
      <trkpt lat="44.1446" lon="6.31385">
        <ele>1016.200012207</ele>
        <time>2022-04-28T15:39:37.366Z</time>
      </trkpt>
      <trkpt lat="44.14451" lon="6.31389">
        <ele>1017</ele>
        <time>2022-04-28T15:39:39.070Z</time>
      </trkpt>
      <trkpt lat="44.14449" lon="6.31389">
        <ele>1017.200012207</ele>
        <time>2022-04-28T15:39:40.775Z</time>
      </trkpt>
      <trkpt lat="44.1444" lon="6.31395">
        <ele>1018.200012207</ele>
        <time>2022-04-28T15:39:42.483Z</time>
      </trkpt>
      <trkpt lat="44.14438" lon="6.31396">
        <ele>1018.4000244141</ele>
        <time>2022-04-28T15:39:44.192Z</time>
      </trkpt>
      <trkpt lat="44.14431" lon="6.314">
        <ele>1019.200012207</ele>
        <time>2022-04-28T15:39:45.903Z</time>
      </trkpt>
      <trkpt lat="44.1443" lon="6.31403">
        <ele>1019.5999755859</ele>
        <time>2022-04-28T15:39:47.615Z</time>
      </trkpt>
      <trkpt lat="44.14427" lon="6.31408">
        <ele>1020.200012207</ele>
        <time>2022-04-28T15:39:49.328Z</time>
      </trkpt>
      <trkpt lat="44.14427" lon="6.31411">
        <ele>1020.4000244141</ele>
        <time>2022-04-28T15:39:51.042Z</time>
      </trkpt>
      <trkpt lat="44.14427" lon="6.31424">
        <ele>1021.200012207</ele>
        <time>2022-04-28T15:39:52.759Z</time>
      </trkpt>
      <trkpt lat="44.14431" lon="6.31438">
        <ele>1021.4000244141</ele>
        <time>2022-04-28T15:39:54.479Z</time>
      </trkpt>
      <trkpt lat="44.14437" lon="6.31449">
        <ele>1021.799987793</ele>
        <time>2022-04-28T15:39:56.202Z</time>
      </trkpt>
      <trkpt lat="44.14446" lon="6.3146">
        <ele>1022.5999755859</ele>
        <time>2022-04-28T15:39:57.929Z</time>
      </trkpt>
      <trkpt lat="44.14451" lon="6.31467">
        <ele>1023.4000244141</ele>
        <time>2022-04-28T15:39:59.658Z</time>
      </trkpt>
      <trkpt lat="44.14454" lon="6.31472">
        <ele>1023.5999755859</ele>
        <time>2022-04-28T15:40:01.389Z</time>
      </trkpt>
      <trkpt lat="44.14459" lon="6.31483">
        <ele>1024.8000488281</ele>
        <time>2022-04-28T15:40:03.123Z</time>
      </trkpt>
      <trkpt lat="44.1446" lon="6.31486">
        <ele>1025</ele>
        <time>2022-04-28T15:40:04.858Z</time>
      </trkpt>
      <trkpt lat="44.14465" lon="6.315">
        <ele>1026</ele>
        <time>2022-04-28T15:40:06.596Z</time>
      </trkpt>
      <trkpt lat="44.14468" lon="6.31509">
        <ele>1026.5999755859</ele>
        <time>2022-04-28T15:40:08.336Z</time>
      </trkpt>
      <trkpt lat="44.1447" lon="6.31515">
        <ele>1027</ele>
        <time>2022-04-28T15:40:10.078Z</time>
      </trkpt>
      <trkpt lat="44.14477" lon="6.31533">
        <ele>1027.8000488281</ele>
        <time>2022-04-28T15:40:11.825Z</time>
      </trkpt>
      <trkpt lat="44.14481" lon="6.31542">
        <ele>1028.5999755859</ele>
        <time>2022-04-28T15:40:13.574Z</time>
      </trkpt>
      <trkpt lat="44.14482" lon="6.31545">
        <ele>1029</ele>
        <time>2022-04-28T15:40:15.324Z</time>
      </trkpt>
      <trkpt lat="44.14492" lon="6.3156">
        <ele>1030</ele>
        <time>2022-04-28T15:40:17.078Z</time>
      </trkpt>
      <trkpt lat="44.14494" lon="6.31562">
        <ele>1030.1999511719</ele>
        <time>2022-04-28T15:40:18.833Z</time>
      </trkpt>
      <trkpt lat="44.14502" lon="6.31567">
        <ele>1031.1999511719</ele>
        <time>2022-04-28T15:40:20.591Z</time>
      </trkpt>
      <trkpt lat="44.14509" lon="6.31571">
        <ele>1031.8000488281</ele>
        <time>2022-04-28T15:40:22.351Z</time>
      </trkpt>
      <trkpt lat="44.14513" lon="6.31574">
        <ele>1032.4000244141</ele>
        <time>2022-04-28T15:40:24.113Z</time>
      </trkpt>
      <trkpt lat="44.14528" lon="6.31587">
        <ele>1033.4000244141</ele>
        <time>2022-04-28T15:40:25.880Z</time>
      </trkpt>
      <trkpt lat="44.14541" lon="6.31597">
        <ele>1034.1999511719</ele>
        <time>2022-04-28T15:40:27.652Z</time>
      </trkpt>
      <trkpt lat="44.1455" lon="6.31604">
        <ele>1034.4000244141</ele>
        <time>2022-04-28T15:40:29.427Z</time>
      </trkpt>
      <trkpt lat="44.14564" lon="6.31615">
        <ele>1035.1999511719</ele>
        <time>2022-04-28T15:40:31.208Z</time>
      </trkpt>
      <trkpt lat="44.14576" lon="6.31623">
        <ele>1035.8000488281</ele>
        <time>2022-04-28T15:40:32.993Z</time>
      </trkpt>
      <trkpt lat="44.14585" lon="6.31631">
        <ele>1036.1999511719</ele>
        <time>2022-04-28T15:40:34.781Z</time>
      </trkpt>
      <trkpt lat="44.14592" lon="6.31635">
        <ele>1036.5999755859</ele>
        <time>2022-04-28T15:40:36.572Z</time>
      </trkpt>
      <trkpt lat="44.14607" lon="6.31645">
        <ele>1037.4000244141</ele>
        <time>2022-04-28T15:40:38.368Z</time>
      </trkpt>
      <trkpt lat="44.14611" lon="6.31649">
        <ele>1037.8000488281</ele>
        <time>2022-04-28T15:40:40.165Z</time>
      </trkpt>
      <trkpt lat="44.14621" lon="6.31657">
        <ele>1038.4000244141</ele>
        <time>2022-04-28T15:40:41.966Z</time>
      </trkpt>
      <trkpt lat="44.14625" lon="6.31662">
        <ele>1038.8000488281</ele>
        <time>2022-04-28T15:40:43.769Z</time>
      </trkpt>
      <trkpt lat="44.14634" lon="6.31672">
        <ele>1039.1999511719</ele>
        <time>2022-04-28T15:40:45.575Z</time>
      </trkpt>
      <trkpt lat="44.14641" lon="6.31684">
        <ele>1039.5999755859</ele>
        <time>2022-04-28T15:40:47.385Z</time>
      </trkpt>
      <trkpt lat="44.14654" lon="6.31715">
        <ele>1040.1999511719</ele>
        <time>2022-04-28T15:40:49.203Z</time>
      </trkpt>
      <trkpt lat="44.14663" lon="6.3174">
        <ele>1041.4000244141</ele>
        <time>2022-04-28T15:40:51.027Z</time>
      </trkpt>
      <trkpt lat="44.14676" lon="6.31762">
        <ele>1042.4000244141</ele>
        <time>2022-04-28T15:40:52.858Z</time>
      </trkpt>
      <trkpt lat="44.14678" lon="6.31765">
        <ele>1042.5999755859</ele>
        <time>2022-04-28T15:40:54.690Z</time>
      </trkpt>
      <trkpt lat="44.1469" lon="6.3178">
        <ele>1043.5999755859</ele>
        <time>2022-04-28T15:40:56.527Z</time>
      </trkpt>
      <trkpt lat="44.14693" lon="6.31783">
        <ele>1043.5999755859</ele>
        <time>2022-04-28T15:40:58.365Z</time>
      </trkpt>
      <trkpt lat="44.1471" lon="6.31797">
        <ele>1044.5999755859</ele>
        <time>2022-04-28T15:41:00.209Z</time>
      </trkpt>
      <trkpt lat="44.14713" lon="6.31798">
        <ele>1044.8000488281</ele>
        <time>2022-04-28T15:41:02.054Z</time>
      </trkpt>
      <trkpt lat="44.14734" lon="6.31808">
        <ele>1045.5999755859</ele>
        <time>2022-04-28T15:41:03.906Z</time>
      </trkpt>
      <trkpt lat="44.14739" lon="6.3181">
        <ele>1046</ele>
        <time>2022-04-28T15:41:05.760Z</time>
      </trkpt>
      <trkpt lat="44.14755" lon="6.31815">
        <ele>1046.5999755859</ele>
        <time>2022-04-28T15:41:07.619Z</time>
      </trkpt>
      <trkpt lat="44.14761" lon="6.31817">
        <ele>1046.8000488281</ele>
        <time>2022-04-28T15:41:09.480Z</time>
      </trkpt>
      <trkpt lat="44.14781" lon="6.31823">
        <ele>1047.5999755859</ele>
        <time>2022-04-28T15:41:11.348Z</time>
      </trkpt>
      <trkpt lat="44.14787" lon="6.31825">
        <ele>1047.8000488281</ele>
        <time>2022-04-28T15:41:13.218Z</time>
      </trkpt>
      <trkpt lat="44.14803" lon="6.31833">
        <ele>1048.5999755859</ele>
        <time>2022-04-28T15:41:15.093Z</time>
      </trkpt>
      <trkpt lat="44.14808" lon="6.31836">
        <ele>1049</ele>
        <time>2022-04-28T15:41:16.970Z</time>
      </trkpt>
      <trkpt lat="44.14821" lon="6.3185">
        <ele>1049.5999755859</ele>
        <time>2022-04-28T15:41:18.852Z</time>
      </trkpt>
      <trkpt lat="44.14838" lon="6.3187">
        <ele>1050.5999755859</ele>
        <time>2022-04-28T15:41:20.741Z</time>
      </trkpt>
      <trkpt lat="44.14841" lon="6.31873">
        <ele>1050.8000488281</ele>
        <time>2022-04-28T15:41:22.631Z</time>
      </trkpt>
      <trkpt lat="44.14863" lon="6.31895">
        <ele>1051.8000488281</ele>
        <time>2022-04-28T15:41:24.530Z</time>
      </trkpt>
      <trkpt lat="44.14872" lon="6.31901">
        <ele>1052.1999511719</ele>
        <time>2022-04-28T15:41:26.432Z</time>
      </trkpt>
      <trkpt lat="44.14883" lon="6.31907">
        <ele>1052.8000488281</ele>
        <time>2022-04-28T15:41:28.338Z</time>
      </trkpt>
      <trkpt lat="44.14885" lon="6.31909">
        <ele>1052.8000488281</ele>
        <time>2022-04-28T15:41:30.245Z</time>
      </trkpt>
      <trkpt lat="44.14905" lon="6.3192">
        <ele>1054</ele>
        <time>2022-04-28T15:41:32.158Z</time>
      </trkpt>
      <trkpt lat="44.14926" lon="6.31936">
        <ele>1054.8000488281</ele>
        <time>2022-04-28T15:41:34.079Z</time>
      </trkpt>
      <trkpt lat="44.14931" lon="6.31941">
        <ele>1055</ele>
        <time>2022-04-28T15:41:36.002Z</time>
      </trkpt>
      <trkpt lat="44.14944" lon="6.31957">
        <ele>1055.8000488281</ele>
        <time>2022-04-28T15:41:37.930Z</time>
      </trkpt>
      <trkpt lat="44.1495" lon="6.31965">
        <ele>1056.1999511719</ele>
        <time>2022-04-28T15:41:39.861Z</time>
      </trkpt>
      <trkpt lat="44.14958" lon="6.31977">
        <ele>1057.4000244141</ele>
        <time>2022-04-28T15:41:41.796Z</time>
      </trkpt>
      <trkpt lat="44.14962" lon="6.31983">
        <ele>1057.5999755859</ele>
        <time>2022-04-28T15:41:43.733Z</time>
      </trkpt>
      <trkpt lat="44.14976" lon="6.32">
        <ele>1057.8000488281</ele>
        <time>2022-04-28T15:41:45.675Z</time>
      </trkpt>
      <trkpt lat="44.14991" lon="6.32014">
        <ele>1058.1999511719</ele>
        <time>2022-04-28T15:41:47.623Z</time>
      </trkpt>
      <trkpt lat="44.14994" lon="6.32016">
        <ele>1058.4000244141</ele>
        <time>2022-04-28T15:41:49.572Z</time>
      </trkpt>
      <trkpt lat="44.1501" lon="6.32027">
        <ele>1059.1999511719</ele>
        <time>2022-04-28T15:41:51.527Z</time>
      </trkpt>
      <trkpt lat="44.15015" lon="6.32031">
        <ele>1059.5999755859</ele>
        <time>2022-04-28T15:41:53.484Z</time>
      </trkpt>
      <trkpt lat="44.15035" lon="6.32045">
        <ele>1060.4000244141</ele>
        <time>2022-04-28T15:41:55.448Z</time>
      </trkpt>
      <trkpt lat="44.15059" lon="6.32064">
        <ele>1061.4000244141</ele>
        <time>2022-04-28T15:41:57.421Z</time>
      </trkpt>
      <trkpt lat="44.15062" lon="6.32066">
        <ele>1061.5999755859</ele>
        <time>2022-04-28T15:41:59.395Z</time>
      </trkpt>
      <trkpt lat="44.15083" lon="6.32083">
        <ele>1062.5999755859</ele>
        <time>2022-04-28T15:42:01.376Z</time>
      </trkpt>
      <trkpt lat="44.15104" lon="6.32097">
        <ele>1063.1999511719</ele>
        <time>2022-04-28T15:42:03.365Z</time>
      </trkpt>
      <trkpt lat="44.15126" lon="6.32114">
        <ele>1063.4000244141</ele>
        <time>2022-04-28T15:42:05.362Z</time>
      </trkpt>
      <trkpt lat="44.15135" lon="6.32123">
        <ele>1063.5999755859</ele>
        <time>2022-04-28T15:42:07.362Z</time>
      </trkpt>
      <trkpt lat="44.15145" lon="6.32136">
        <ele>1064.1999511719</ele>
        <time>2022-04-28T15:42:09.367Z</time>
      </trkpt>
      <trkpt lat="44.15154" lon="6.32148">
        <ele>1064.5999755859</ele>
        <time>2022-04-28T15:42:11.376Z</time>
      </trkpt>
      <trkpt lat="44.15162" lon="6.3216">
        <ele>1065.4000244141</ele>
        <time>2022-04-28T15:42:13.388Z</time>
      </trkpt>
      <trkpt lat="44.15166" lon="6.32166">
        <ele>1065.5999755859</ele>
        <time>2022-04-28T15:42:15.402Z</time>
      </trkpt>
      <trkpt lat="44.15174" lon="6.32177">
        <ele>1066.5999755859</ele>
        <time>2022-04-28T15:42:17.420Z</time>
      </trkpt>
      <trkpt lat="44.15184" lon="6.32189">
        <ele>1067.8000488281</ele>
        <time>2022-04-28T15:42:19.442Z</time>
      </trkpt>
      <trkpt lat="44.15191" lon="6.32199">
        <ele>1069</ele>
        <time>2022-04-28T15:42:21.467Z</time>
      </trkpt>
      <trkpt lat="44.15198" lon="6.32209">
        <ele>1070</ele>
        <time>2022-04-28T15:42:23.495Z</time>
      </trkpt>
      <trkpt lat="44.152" lon="6.32211">
        <ele>1070.1999511719</ele>
        <time>2022-04-28T15:42:25.524Z</time>
      </trkpt>
      <trkpt lat="44.15206" lon="6.32221">
        <ele>1071.1999511719</ele>
        <time>2022-04-28T15:42:27.556Z</time>
      </trkpt>
      <trkpt lat="44.1521" lon="6.32234">
        <ele>1072.1999511719</ele>
        <time>2022-04-28T15:42:29.591Z</time>
      </trkpt>
      <trkpt lat="44.15211" lon="6.32251">
        <ele>1073.1999511719</ele>
        <time>2022-04-28T15:42:31.630Z</time>
      </trkpt>
      <trkpt lat="44.15212" lon="6.32258">
        <ele>1073.4000244141</ele>
        <time>2022-04-28T15:42:33.671Z</time>
      </trkpt>
      <trkpt lat="44.15214" lon="6.32268">
        <ele>1074.1999511719</ele>
        <time>2022-04-28T15:42:35.714Z</time>
      </trkpt>
      <trkpt lat="44.15218" lon="6.32281">
        <ele>1074.8000488281</ele>
        <time>2022-04-28T15:42:37.760Z</time>
      </trkpt>
      <trkpt lat="44.15219" lon="6.32284">
        <ele>1075.1999511719</ele>
        <time>2022-04-28T15:42:39.807Z</time>
      </trkpt>
      <trkpt lat="44.15224" lon="6.32299">
        <ele>1076.4000244141</ele>
        <time>2022-04-28T15:42:41.858Z</time>
      </trkpt>
      <trkpt lat="44.15225" lon="6.32302">
        <ele>1076.5999755859</ele>
        <time>2022-04-28T15:42:43.910Z</time>
      </trkpt>
      <trkpt lat="44.15229" lon="6.32311">
        <ele>1077.5999755859</ele>
        <time>2022-04-28T15:42:45.964Z</time>
      </trkpt>
      <trkpt lat="44.15235" lon="6.32325">
        <ele>1078.8000488281</ele>
        <time>2022-04-28T15:42:48.022Z</time>
      </trkpt>
      <trkpt lat="44.15237" lon="6.32331">
        <ele>1079.4000244141</ele>
        <time>2022-04-28T15:42:50.081Z</time>
      </trkpt>
      <trkpt lat="44.1524" lon="6.32336">
        <ele>1079.8000488281</ele>
        <time>2022-04-28T15:42:52.142Z</time>
      </trkpt>
      <trkpt lat="44.15251" lon="6.32351">
        <ele>1081</ele>
        <time>2022-04-28T15:42:54.208Z</time>
      </trkpt>
      <trkpt lat="44.15252" lon="6.32354">
        <ele>1081.1999511719</ele>
        <time>2022-04-28T15:42:56.274Z</time>
      </trkpt>
      <trkpt lat="44.15259" lon="6.32364">
        <ele>1082.1999511719</ele>
        <time>2022-04-28T15:42:58.344Z</time>
      </trkpt>
      <trkpt lat="44.15264" lon="6.32371">
        <ele>1083</ele>
        <time>2022-04-28T15:43:00.416Z</time>
      </trkpt>
      <trkpt lat="44.15265" lon="6.32373">
        <ele>1083.1999511719</ele>
        <time>2022-04-28T15:43:02.488Z</time>
      </trkpt>
      <trkpt lat="44.1527" lon="6.32383">
        <ele>1084.4000244141</ele>
        <time>2022-04-28T15:43:04.563Z</time>
      </trkpt>
      <trkpt lat="44.15273" lon="6.32388">
        <ele>1084.8000488281</ele>
        <time>2022-04-28T15:43:06.640Z</time>
      </trkpt>
      <trkpt lat="44.15277" lon="6.32393">
        <ele>1085.4000244141</ele>
        <time>2022-04-28T15:43:08.718Z</time>
      </trkpt>
      <trkpt lat="44.15284" lon="6.32406">
        <ele>1086.5999755859</ele>
        <time>2022-04-28T15:43:10.800Z</time>
      </trkpt>
      <trkpt lat="44.15286" lon="6.32409">
        <ele>1086.8000488281</ele>
        <time>2022-04-28T15:43:12.883Z</time>
      </trkpt>
      <trkpt lat="44.15288" lon="6.32414">
        <ele>1087.4000244141</ele>
        <time>2022-04-28T15:43:14.967Z</time>
      </trkpt>
      <trkpt lat="44.15294" lon="6.32425">
        <ele>1088.5999755859</ele>
        <time>2022-04-28T15:43:17.054Z</time>
      </trkpt>
      <trkpt lat="44.15297" lon="6.32429">
        <ele>1089</ele>
        <time>2022-04-28T15:43:19.143Z</time>
      </trkpt>
      <trkpt lat="44.15302" lon="6.32437">
        <ele>1089.8000488281</ele>
        <time>2022-04-28T15:43:21.234Z</time>
      </trkpt>
      <trkpt lat="44.15308" lon="6.32446">
        <ele>1090.5999755859</ele>
        <time>2022-04-28T15:43:23.328Z</time>
      </trkpt>
      <trkpt lat="44.15309" lon="6.32449">
        <ele>1090.8000488281</ele>
        <time>2022-04-28T15:43:25.423Z</time>
      </trkpt>
      <trkpt lat="44.15311" lon="6.32454">
        <ele>1091.1999511719</ele>
        <time>2022-04-28T15:43:27.519Z</time>
      </trkpt>
      <trkpt lat="44.15313" lon="6.32463">
        <ele>1091.8000488281</ele>
        <time>2022-04-28T15:43:29.617Z</time>
      </trkpt>
      <trkpt lat="44.15314" lon="6.32465">
        <ele>1092.1999511719</ele>
        <time>2022-04-28T15:43:31.716Z</time>
      </trkpt>
      <trkpt lat="44.15321" lon="6.3248">
        <ele>1093.4000244141</ele>
        <time>2022-04-28T15:43:33.819Z</time>
      </trkpt>
      <trkpt lat="44.15322" lon="6.32482">
        <ele>1093.5999755859</ele>
        <time>2022-04-28T15:43:35.922Z</time>
      </trkpt>
      <trkpt lat="44.15326" lon="6.3249">
        <ele>1094.4000244141</ele>
        <time>2022-04-28T15:43:38.028Z</time>
      </trkpt>
      <trkpt lat="44.15331" lon="6.32501">
        <ele>1095.1999511719</ele>
        <time>2022-04-28T15:43:40.137Z</time>
      </trkpt>
      <trkpt lat="44.15333" lon="6.32503">
        <ele>1095.4000244141</ele>
        <time>2022-04-28T15:43:42.246Z</time>
      </trkpt>
      <trkpt lat="44.15339" lon="6.32513">
        <ele>1096.1999511719</ele>
        <time>2022-04-28T15:43:44.358Z</time>
      </trkpt>
      <trkpt lat="44.15345" lon="6.32522">
        <ele>1097.1999511719</ele>
        <time>2022-04-28T15:43:46.473Z</time>
      </trkpt>
      <trkpt lat="44.15348" lon="6.32527">
        <ele>1097.4000244141</ele>
        <time>2022-04-28T15:43:48.590Z</time>
      </trkpt>
      <trkpt lat="44.15354" lon="6.32536">
        <ele>1098.5999755859</ele>
        <time>2022-04-28T15:43:50.709Z</time>
      </trkpt>
      <trkpt lat="44.15356" lon="6.32538">
        <ele>1099</ele>
        <time>2022-04-28T15:43:52.829Z</time>
      </trkpt>
      <trkpt lat="44.15363" lon="6.32547">
        <ele>1099.5999755859</ele>
        <time>2022-04-28T15:43:54.952Z</time>
      </trkpt>
      <trkpt lat="44.15366" lon="6.32552">
        <ele>1100.1999511719</ele>
        <time>2022-04-28T15:43:57.077Z</time>
      </trkpt>
      <trkpt lat="44.15372" lon="6.32563">
        <ele>1100.8000488281</ele>
        <time>2022-04-28T15:43:59.205Z</time>
      </trkpt>
      <trkpt lat="44.15377" lon="6.32576">
        <ele>1101.5999755859</ele>
        <time>2022-04-28T15:44:01.336Z</time>
      </trkpt>
      <trkpt lat="44.15381" lon="6.3259">
        <ele>1101.8000488281</ele>
        <time>2022-04-28T15:44:03.471Z</time>
      </trkpt>
      <trkpt lat="44.15383" lon="6.32598">
        <ele>1101.8000488281</ele>
        <time>2022-04-28T15:44:05.608Z</time>
      </trkpt>
      <trkpt lat="44.15392" lon="6.32634">
        <ele>1101.8000488281</ele>
        <time>2022-04-28T15:44:07.753Z</time>
      </trkpt>
      <trkpt lat="44.15399" lon="6.32662">
        <ele>1101.8000488281</ele>
        <time>2022-04-28T15:44:09.905Z</time>
      </trkpt>
      <trkpt lat="44.15401" lon="6.32683">
        <ele>1101.8000488281</ele>
        <time>2022-04-28T15:44:12.062Z</time>
      </trkpt>
      <trkpt lat="44.15401" lon="6.32689">
        <ele>1101.8000488281</ele>
        <time>2022-04-28T15:44:14.220Z</time>
      </trkpt>
      <trkpt lat="44.15397" lon="6.32725">
        <ele>1100.8000488281</ele>
        <time>2022-04-28T15:44:16.387Z</time>
      </trkpt>
      <trkpt lat="44.15396" lon="6.32731">
        <ele>1100.4000244141</ele>
        <time>2022-04-28T15:44:18.555Z</time>
      </trkpt>
      <trkpt lat="44.15388" lon="6.32759">
        <ele>1100</ele>
        <time>2022-04-28T15:44:20.730Z</time>
      </trkpt>
      <trkpt lat="44.15383" lon="6.32784">
        <ele>1099.1999511719</ele>
        <time>2022-04-28T15:44:22.911Z</time>
      </trkpt>
      <trkpt lat="44.15381" lon="6.3279">
        <ele>1099</ele>
        <time>2022-04-28T15:44:25.093Z</time>
      </trkpt>
      <trkpt lat="44.15381" lon="6.32798">
        <ele>1099</ele>
        <time>2022-04-28T15:44:27.277Z</time>
      </trkpt>
      <trkpt lat="44.15379" lon="6.32821">
        <ele>1097.8000488281</ele>
        <time>2022-04-28T15:44:29.466Z</time>
      </trkpt>
      <trkpt lat="44.15377" lon="6.32838">
        <ele>1097.4000244141</ele>
        <time>2022-04-28T15:44:31.659Z</time>
      </trkpt>
      <trkpt lat="44.15373" lon="6.32852">
        <ele>1096.8000488281</ele>
        <time>2022-04-28T15:44:33.856Z</time>
      </trkpt>
      <trkpt lat="44.15369" lon="6.32867">
        <ele>1096.5999755859</ele>
        <time>2022-04-28T15:44:36.056Z</time>
      </trkpt>
      <trkpt lat="44.15365" lon="6.329">
        <ele>1096.1999511719</ele>
        <time>2022-04-28T15:44:38.264Z</time>
      </trkpt>
      <trkpt lat="44.15358" lon="6.3292">
        <ele>1096.4000244141</ele>
        <time>2022-04-28T15:44:40.477Z</time>
      </trkpt>
      <trkpt lat="44.15355" lon="6.32926">
        <ele>1096.8000488281</ele>
        <time>2022-04-28T15:44:42.692Z</time>
      </trkpt>
      <trkpt lat="44.15345" lon="6.32948">
        <ele>1097.5999755859</ele>
        <time>2022-04-28T15:44:44.913Z</time>
      </trkpt>
      <trkpt lat="44.15344" lon="6.32953">
        <ele>1098</ele>
        <time>2022-04-28T15:44:47.135Z</time>
      </trkpt>
      <trkpt lat="44.15344" lon="6.3297">
        <ele>1098.8000488281</ele>
        <time>2022-04-28T15:44:49.361Z</time>
      </trkpt>
      <trkpt lat="44.15346" lon="6.32981">
        <ele>1099</ele>
        <time>2022-04-28T15:44:51.589Z</time>
      </trkpt>
      <trkpt lat="44.15351" lon="6.3299">
        <ele>1099.5999755859</ele>
        <time>2022-04-28T15:44:53.820Z</time>
      </trkpt>
      <trkpt lat="44.15353" lon="6.32995">
        <ele>1099.8000488281</ele>
        <time>2022-04-28T15:44:56.052Z</time>
      </trkpt>
      <trkpt lat="44.15356" lon="6.33006">
        <ele>1100.1999511719</ele>
        <time>2022-04-28T15:44:58.287Z</time>
      </trkpt>
      <trkpt lat="44.15361" lon="6.33026">
        <ele>1100</ele>
        <time>2022-04-28T15:45:00.527Z</time>
      </trkpt>
      <trkpt lat="44.15369" lon="6.33059">
        <ele>1099.1999511719</ele>
        <time>2022-04-28T15:45:02.775Z</time>
      </trkpt>
      <trkpt lat="44.15371" lon="6.33065">
        <ele>1099</ele>
        <time>2022-04-28T15:45:05.024Z</time>
      </trkpt>
      <trkpt lat="44.1538" lon="6.33094">
        <ele>1099.8000488281</ele>
        <time>2022-04-28T15:45:07.280Z</time>
      </trkpt>
      <trkpt lat="44.15382" lon="6.33098">
        <ele>1100.1999511719</ele>
        <time>2022-04-28T15:45:09.538Z</time>
      </trkpt>
      <trkpt lat="44.15387" lon="6.33108">
        <ele>1100.8000488281</ele>
        <time>2022-04-28T15:45:11.798Z</time>
      </trkpt>
      <trkpt lat="44.15389" lon="6.33112">
        <ele>1101.4000244141</ele>
        <time>2022-04-28T15:45:14.059Z</time>
      </trkpt>
      <trkpt lat="44.15394" lon="6.33132">
        <ele>1102.5999755859</ele>
        <time>2022-04-28T15:45:16.325Z</time>
      </trkpt>
      <trkpt lat="44.15395" lon="6.33147">
        <ele>1103.5999755859</ele>
        <time>2022-04-28T15:45:18.595Z</time>
      </trkpt>
      <trkpt lat="44.15394" lon="6.33161">
        <ele>1104.4000244141</ele>
        <time>2022-04-28T15:45:20.868Z</time>
      </trkpt>
      <trkpt lat="44.15393" lon="6.33165">
        <ele>1104.8000488281</ele>
        <time>2022-04-28T15:45:23.142Z</time>
      </trkpt>
      <trkpt lat="44.15389" lon="6.33179">
        <ele>1106</ele>
        <time>2022-04-28T15:45:25.419Z</time>
      </trkpt>
      <trkpt lat="44.15388" lon="6.33184">
        <ele>1106.5999755859</ele>
        <time>2022-04-28T15:45:27.697Z</time>
      </trkpt>
      <trkpt lat="44.15385" lon="6.33187">
        <ele>1106.8000488281</ele>
        <time>2022-04-28T15:45:29.976Z</time>
      </trkpt>
      <trkpt lat="44.15384" lon="6.33188">
        <ele>1107</ele>
        <time>2022-04-28T15:45:32.256Z</time>
      </trkpt>
      <trkpt lat="44.15384" lon="6.33188">
        <ele>1107</ele>
        <time>2022-04-28T15:45:34.536Z</time>
      </trkpt>
      <trkpt lat="44.15384" lon="6.33188">
        <ele>1107.1999511719</ele>
        <time>2022-04-28T15:45:36.816Z</time>
      </trkpt>
      <trkpt lat="44.15379" lon="6.33188">
        <ele>1107.5999755859</ele>
        <time>2022-04-28T15:45:39.097Z</time>
      </trkpt>
      <trkpt lat="44.15377" lon="6.33186">
        <ele>1107.4000244141</ele>
        <time>2022-04-28T15:45:41.379Z</time>
      </trkpt>
      <trkpt lat="44.15363" lon="6.33175">
        <ele>1105</ele>
        <time>2022-04-28T15:45:43.666Z</time>
      </trkpt>
      <trkpt lat="44.15361" lon="6.33174">
        <ele>1104.1999511719</ele>
        <time>2022-04-28T15:45:45.954Z</time>
      </trkpt>
      <trkpt lat="44.15358" lon="6.33175">
        <ele>1103.4000244141</ele>
        <time>2022-04-28T15:45:48.243Z</time>
      </trkpt>
      <trkpt lat="44.15353" lon="6.33177">
        <ele>1101.5999755859</ele>
        <time>2022-04-28T15:45:50.533Z</time>
      </trkpt>
      <trkpt lat="44.15351" lon="6.33178">
        <ele>1100</ele>
        <time>2022-04-28T15:45:52.824Z</time>
      </trkpt>
      <trkpt lat="44.15344" lon="6.3318">
        <ele>1098</ele>
        <time>2022-04-28T15:45:55.118Z</time>
      </trkpt>
      <trkpt lat="44.15336" lon="6.3318">
        <ele>1096</ele>
        <time>2022-04-28T15:45:57.414Z</time>
      </trkpt>
      <trkpt lat="44.15332" lon="6.3318">
        <ele>1094.5999755859</ele>
        <time>2022-04-28T15:45:59.711Z</time>
      </trkpt>
      <trkpt lat="44.15329" lon="6.33181">
        <ele>1093.4000244141</ele>
        <time>2022-04-28T15:46:02.009Z</time>
      </trkpt>
      <trkpt lat="44.15325" lon="6.33183">
        <ele>1092</ele>
        <time>2022-04-28T15:46:04.309Z</time>
      </trkpt>
      <trkpt lat="44.15322" lon="6.33185">
        <ele>1090.5999755859</ele>
        <time>2022-04-28T15:46:06.610Z</time>
      </trkpt>
      <trkpt lat="44.15316" lon="6.33189">
        <ele>1089</ele>
        <time>2022-04-28T15:46:08.913Z</time>
      </trkpt>
      <trkpt lat="44.15314" lon="6.33192">
        <ele>1088</ele>
        <time>2022-04-28T15:46:11.217Z</time>
      </trkpt>
      <trkpt lat="44.1531" lon="6.33199">
        <ele>1086</ele>
        <time>2022-04-28T15:46:13.523Z</time>
      </trkpt>
      <trkpt lat="44.15308" lon="6.33203">
        <ele>1084.8000488281</ele>
        <time>2022-04-28T15:46:15.830Z</time>
      </trkpt>
      <trkpt lat="44.15306" lon="6.33205">
        <ele>1083.5999755859</ele>
        <time>2022-04-28T15:46:18.138Z</time>
      </trkpt>
      <trkpt lat="44.15304" lon="6.33206">
        <ele>1082.5999755859</ele>
        <time>2022-04-28T15:46:20.446Z</time>
      </trkpt>
      <trkpt lat="44.153" lon="6.33203">
        <ele>1081.5999755859</ele>
        <time>2022-04-28T15:46:22.756Z</time>
      </trkpt>
      <trkpt lat="44.15297" lon="6.332">
        <ele>1081.4000244141</ele>
        <time>2022-04-28T15:46:25.067Z</time>
      </trkpt>
      <trkpt lat="44.1529" lon="6.33193">
        <ele>1081</ele>
        <time>2022-04-28T15:46:27.381Z</time>
      </trkpt>
      <trkpt lat="44.15288" lon="6.33188">
        <ele>1080.8000488281</ele>
        <time>2022-04-28T15:46:29.696Z</time>
      </trkpt>
      <trkpt lat="44.15282" lon="6.33184">
        <ele>1080.5999755859</ele>
        <time>2022-04-28T15:46:32.013Z</time>
      </trkpt>
      <trkpt lat="44.15271" lon="6.33177">
        <ele>1080</ele>
        <time>2022-04-28T15:46:34.334Z</time>
      </trkpt>
      <trkpt lat="44.15268" lon="6.33177">
        <ele>1079.5999755859</ele>
        <time>2022-04-28T15:46:36.656Z</time>
      </trkpt>
      <trkpt lat="44.1526" lon="6.33179">
        <ele>1078.8000488281</ele>
        <time>2022-04-28T15:46:38.980Z</time>
      </trkpt>
      <trkpt lat="44.15256" lon="6.33178">
        <ele>1078.4000244141</ele>
        <time>2022-04-28T15:46:41.306Z</time>
      </trkpt>
      <trkpt lat="44.15252" lon="6.33179">
        <ele>1077.4000244141</ele>
        <time>2022-04-28T15:46:43.633Z</time>
      </trkpt>
      <trkpt lat="44.15244" lon="6.33181">
        <ele>1076.1999511719</ele>
        <time>2022-04-28T15:46:45.963Z</time>
      </trkpt>
      <trkpt lat="44.15239" lon="6.33179">
        <ele>1076</ele>
        <time>2022-04-28T15:46:48.294Z</time>
      </trkpt>
      <trkpt lat="44.1523" lon="6.33173">
        <ele>1075.1999511719</ele>
        <time>2022-04-28T15:46:50.629Z</time>
      </trkpt>
      <trkpt lat="44.15226" lon="6.33169">
        <ele>1074.8000488281</ele>
        <time>2022-04-28T15:46:52.965Z</time>
      </trkpt>
      <trkpt lat="44.15223" lon="6.33166">
        <ele>1074.4000244141</ele>
        <time>2022-04-28T15:46:55.302Z</time>
      </trkpt>
      <trkpt lat="44.15221" lon="6.33166">
        <ele>1074</ele>
        <time>2022-04-28T15:46:57.640Z</time>
      </trkpt>
      <trkpt lat="44.15214" lon="6.33165">
        <ele>1073.1999511719</ele>
        <time>2022-04-28T15:46:59.980Z</time>
      </trkpt>
      <trkpt lat="44.15211" lon="6.33162">
        <ele>1072.5999755859</ele>
        <time>2022-04-28T15:47:02.321Z</time>
      </trkpt>
      <trkpt lat="44.15204" lon="6.33158">
        <ele>1071.4000244141</ele>
        <time>2022-04-28T15:47:04.665Z</time>
      </trkpt>
      <trkpt lat="44.15197" lon="6.33153">
        <ele>1070.8000488281</ele>
        <time>2022-04-28T15:47:07.011Z</time>
      </trkpt>
      <trkpt lat="44.15194" lon="6.33154">
        <ele>1070.4000244141</ele>
        <time>2022-04-28T15:47:09.358Z</time>
      </trkpt>
      <trkpt lat="44.1519" lon="6.33151">
        <ele>1070</ele>
        <time>2022-04-28T15:47:11.707Z</time>
      </trkpt>
      <trkpt lat="44.1518" lon="6.33143">
        <ele>1069.1999511719</ele>
        <time>2022-04-28T15:47:14.059Z</time>
      </trkpt>
      <trkpt lat="44.15173" lon="6.33138">
        <ele>1068</ele>
        <time>2022-04-28T15:47:16.414Z</time>
      </trkpt>
      <trkpt lat="44.1517" lon="6.33137">
        <ele>1067.4000244141</ele>
        <time>2022-04-28T15:47:18.770Z</time>
      </trkpt>
      <trkpt lat="44.15166" lon="6.33138">
        <ele>1066.8000488281</ele>
        <time>2022-04-28T15:47:21.127Z</time>
      </trkpt>
      <trkpt lat="44.15153" lon="6.33135">
        <ele>1065.4000244141</ele>
        <time>2022-04-28T15:47:23.488Z</time>
      </trkpt>
      <trkpt lat="44.15148" lon="6.33136">
        <ele>1064.1999511719</ele>
        <time>2022-04-28T15:47:25.851Z</time>
      </trkpt>
      <trkpt lat="44.15146" lon="6.33136">
        <ele>1063.8000488281</ele>
        <time>2022-04-28T15:47:28.215Z</time>
      </trkpt>
      <trkpt lat="44.15143" lon="6.33136">
        <ele>1063.4000244141</ele>
        <time>2022-04-28T15:47:30.579Z</time>
      </trkpt>
      <trkpt lat="44.15136" lon="6.3313">
        <ele>1062.8000488281</ele>
        <time>2022-04-28T15:47:32.946Z</time>
      </trkpt>
      <trkpt lat="44.1513" lon="6.33125">
        <ele>1061.8000488281</ele>
        <time>2022-04-28T15:47:35.315Z</time>
      </trkpt>
      <trkpt lat="44.15126" lon="6.33125">
        <ele>1060.8000488281</ele>
        <time>2022-04-28T15:47:37.685Z</time>
      </trkpt>
      <trkpt lat="44.15123" lon="6.33126">
        <ele>1060.4000244141</ele>
        <time>2022-04-28T15:47:40.056Z</time>
      </trkpt>
      <trkpt lat="44.15117" lon="6.33128">
        <ele>1059</ele>
        <time>2022-04-28T15:47:42.430Z</time>
      </trkpt>
      <trkpt lat="44.15113" lon="6.33128">
        <ele>1058.5999755859</ele>
        <time>2022-04-28T15:47:44.805Z</time>
      </trkpt>
      <trkpt lat="44.15107" lon="6.33131">
        <ele>1058.1999511719</ele>
        <time>2022-04-28T15:47:47.182Z</time>
      </trkpt>
      <trkpt lat="44.15101" lon="6.33135">
        <ele>1057.4000244141</ele>
        <time>2022-04-28T15:47:49.561Z</time>
      </trkpt>
      <trkpt lat="44.15096" lon="6.33137">
        <ele>1057.4000244141</ele>
        <time>2022-04-28T15:47:51.941Z</time>
      </trkpt>
      <trkpt lat="44.15084" lon="6.33141">
        <ele>1056.8000488281</ele>
        <time>2022-04-28T15:47:54.325Z</time>
      </trkpt>
      <trkpt lat="44.15079" lon="6.33145">
        <ele>1056.1999511719</ele>
        <time>2022-04-28T15:47:56.711Z</time>
      </trkpt>
      <trkpt lat="44.15072" lon="6.33147">
        <ele>1055.8000488281</ele>
        <time>2022-04-28T15:47:59.099Z</time>
      </trkpt>
      <trkpt lat="44.15065" lon="6.33147">
        <ele>1055.1999511719</ele>
        <time>2022-04-28T15:48:01.490Z</time>
      </trkpt>
      <trkpt lat="44.15059" lon="6.33147">
        <ele>1054.5999755859</ele>
        <time>2022-04-28T15:48:03.883Z</time>
      </trkpt>
      <trkpt lat="44.15054" lon="6.33147">
        <ele>1053.8000488281</ele>
        <time>2022-04-28T15:48:06.277Z</time>
      </trkpt>
      <trkpt lat="44.15047" lon="6.3315">
        <ele>1052.5999755859</ele>
        <time>2022-04-28T15:48:08.673Z</time>
      </trkpt>
      <trkpt lat="44.15043" lon="6.33148">
        <ele>1052.1999511719</ele>
        <time>2022-04-28T15:48:11.071Z</time>
      </trkpt>
      <trkpt lat="44.15039" lon="6.33147">
        <ele>1052</ele>
        <time>2022-04-28T15:48:13.470Z</time>
      </trkpt>
      <trkpt lat="44.15035" lon="6.3315">
        <ele>1051.5999755859</ele>
        <time>2022-04-28T15:48:15.871Z</time>
      </trkpt>
      <trkpt lat="44.15024" lon="6.3315">
        <ele>1050.1999511719</ele>
        <time>2022-04-28T15:48:18.275Z</time>
      </trkpt>
      <trkpt lat="44.15015" lon="6.33148">
        <ele>1049.5999755859</ele>
        <time>2022-04-28T15:48:20.682Z</time>
      </trkpt>
      <trkpt lat="44.15011" lon="6.33145">
        <ele>1049.1999511719</ele>
        <time>2022-04-28T15:48:23.090Z</time>
      </trkpt>
      <trkpt lat="44.15001" lon="6.33139">
        <ele>1048</ele>
        <time>2022-04-28T15:48:25.502Z</time>
      </trkpt>
      <trkpt lat="44.14994" lon="6.33132">
        <ele>1047</ele>
        <time>2022-04-28T15:48:27.917Z</time>
      </trkpt>
      <trkpt lat="44.14983" lon="6.33125">
        <ele>1046.1999511719</ele>
        <time>2022-04-28T15:48:30.336Z</time>
      </trkpt>
      <trkpt lat="44.14977" lon="6.33123">
        <ele>1045.8000488281</ele>
        <time>2022-04-28T15:48:32.756Z</time>
      </trkpt>
      <trkpt lat="44.14967" lon="6.33123">
        <ele>1045</ele>
        <time>2022-04-28T15:48:35.180Z</time>
      </trkpt>
      <trkpt lat="44.14963" lon="6.3312">
        <ele>1044.5999755859</ele>
        <time>2022-04-28T15:48:37.605Z</time>
      </trkpt>
      <trkpt lat="44.14952" lon="6.33114">
        <ele>1043.5999755859</ele>
        <time>2022-04-28T15:48:40.034Z</time>
      </trkpt>
      <trkpt lat="44.14942" lon="6.33107">
        <ele>1042.4000244141</ele>
        <time>2022-04-28T15:48:42.466Z</time>
      </trkpt>
      <trkpt lat="44.14936" lon="6.331">
        <ele>1041.1999511719</ele>
        <time>2022-04-28T15:48:44.901Z</time>
      </trkpt>
      <trkpt lat="44.14929" lon="6.33095">
        <ele>1040</ele>
        <time>2022-04-28T15:48:47.338Z</time>
      </trkpt>
      <trkpt lat="44.14924" lon="6.33093">
        <ele>1039.5999755859</ele>
        <time>2022-04-28T15:48:49.777Z</time>
      </trkpt>
      <trkpt lat="44.14918" lon="6.3309">
        <ele>1039</ele>
        <time>2022-04-28T15:48:52.218Z</time>
      </trkpt>
      <trkpt lat="44.14909" lon="6.33085">
        <ele>1037.8000488281</ele>
        <time>2022-04-28T15:48:54.662Z</time>
      </trkpt>
      <trkpt lat="44.14905" lon="6.33088">
        <ele>1037.1999511719</ele>
        <time>2022-04-28T15:48:57.107Z</time>
      </trkpt>
      <trkpt lat="44.14901" lon="6.33091">
        <ele>1037</ele>
        <time>2022-04-28T15:48:59.554Z</time>
      </trkpt>
      <trkpt lat="44.14892" lon="6.33094">
        <ele>1036.5999755859</ele>
        <time>2022-04-28T15:49:02.004Z</time>
      </trkpt>
      <trkpt lat="44.14889" lon="6.33095">
        <ele>1036.5999755859</ele>
        <time>2022-04-28T15:49:04.455Z</time>
      </trkpt>
      <trkpt lat="44.14887" lon="6.33095">
        <ele>1036.1999511719</ele>
        <time>2022-04-28T15:49:06.907Z</time>
      </trkpt>
      <trkpt lat="44.14881" lon="6.33087">
        <ele>1035.5999755859</ele>
        <time>2022-04-28T15:49:09.361Z</time>
      </trkpt>
      <trkpt lat="44.14879" lon="6.33081">
        <ele>1035.1999511719</ele>
        <time>2022-04-28T15:49:11.817Z</time>
      </trkpt>
      <trkpt lat="44.14876" lon="6.33075">
        <ele>1034.5999755859</ele>
        <time>2022-04-28T15:49:14.274Z</time>
      </trkpt>
      <trkpt lat="44.14868" lon="6.33058">
        <ele>1033.5999755859</ele>
        <time>2022-04-28T15:49:16.736Z</time>
      </trkpt>
      <trkpt lat="44.14864" lon="6.33052">
        <ele>1032.8000488281</ele>
        <time>2022-04-28T15:49:19.200Z</time>
      </trkpt>
      <trkpt lat="44.14859" lon="6.33043">
        <ele>1032</ele>
        <time>2022-04-28T15:49:21.666Z</time>
      </trkpt>
      <trkpt lat="44.14853" lon="6.33036">
        <ele>1030.8000488281</ele>
        <time>2022-04-28T15:49:24.135Z</time>
      </trkpt>
      <trkpt lat="44.1485" lon="6.33032">
        <ele>1030</ele>
        <time>2022-04-28T15:49:26.605Z</time>
      </trkpt>
      <trkpt lat="44.14845" lon="6.33029">
        <ele>1029.5999755859</ele>
        <time>2022-04-28T15:49:29.077Z</time>
      </trkpt>
      <trkpt lat="44.14835" lon="6.33011">
        <ele>1028.1999511719</ele>
        <time>2022-04-28T15:49:31.554Z</time>
      </trkpt>
      <trkpt lat="44.14828" lon="6.33009">
        <ele>1027</ele>
        <time>2022-04-28T15:49:34.033Z</time>
      </trkpt>
      <trkpt lat="44.14823" lon="6.33006">
        <ele>1026.4000244141</ele>
        <time>2022-04-28T15:49:36.514Z</time>
      </trkpt>
      <trkpt lat="44.14818" lon="6.33003">
        <ele>1025.8000488281</ele>
        <time>2022-04-28T15:49:38.997Z</time>
      </trkpt>
      <trkpt lat="44.14813" lon="6.32999">
        <ele>1025.1999511719</ele>
        <time>2022-04-28T15:49:41.482Z</time>
      </trkpt>
      <trkpt lat="44.14808" lon="6.32996">
        <ele>1024.5999755859</ele>
        <time>2022-04-28T15:49:43.968Z</time>
      </trkpt>
      <trkpt lat="44.14796" lon="6.32993">
        <ele>1023.5999755859</ele>
        <time>2022-04-28T15:49:46.458Z</time>
      </trkpt>
      <trkpt lat="44.14788" lon="6.32987">
        <ele>1022.200012207</ele>
        <time>2022-04-28T15:49:48.951Z</time>
      </trkpt>
      <trkpt lat="44.14784" lon="6.32982">
        <ele>1021.200012207</ele>
        <time>2022-04-28T15:49:51.446Z</time>
      </trkpt>
      <trkpt lat="44.14778" lon="6.32978">
        <ele>1020.4000244141</ele>
        <time>2022-04-28T15:49:53.943Z</time>
      </trkpt>
      <trkpt lat="44.14767" lon="6.32973">
        <ele>1019.200012207</ele>
        <time>2022-04-28T15:49:56.444Z</time>
      </trkpt>
      <trkpt lat="44.14755" lon="6.32966">
        <ele>1017.799987793</ele>
        <time>2022-04-28T15:49:58.949Z</time>
      </trkpt>
      <trkpt lat="44.14743" lon="6.32954">
        <ele>1016</ele>
        <time>2022-04-28T15:50:01.458Z</time>
      </trkpt>
      <trkpt lat="44.14735" lon="6.32941">
        <ele>1014.200012207</ele>
        <time>2022-04-28T15:50:03.971Z</time>
      </trkpt>
      <trkpt lat="44.1473" lon="6.32939">
        <ele>1013.4000244141</ele>
        <time>2022-04-28T15:50:06.486Z</time>
      </trkpt>
      <trkpt lat="44.14726" lon="6.32939">
        <ele>1012.799987793</ele>
        <time>2022-04-28T15:50:09.002Z</time>
      </trkpt>
      <trkpt lat="44.14719" lon="6.32933">
        <ele>1011.5999755859</ele>
        <time>2022-04-28T15:50:11.521Z</time>
      </trkpt>
      <trkpt lat="44.14716" lon="6.3293">
        <ele>1011</ele>
        <time>2022-04-28T15:50:14.041Z</time>
      </trkpt>
      <trkpt lat="44.14713" lon="6.32927">
        <ele>1010</ele>
        <time>2022-04-28T15:50:16.562Z</time>
      </trkpt>
      <trkpt lat="44.14709" lon="6.32924">
        <ele>1009.4000244141</ele>
        <time>2022-04-28T15:50:19.085Z</time>
      </trkpt>
      <trkpt lat="44.14705" lon="6.32919">
        <ele>1008.799987793</ele>
        <time>2022-04-28T15:50:21.609Z</time>
      </trkpt>
      <trkpt lat="44.14702" lon="6.32913">
        <ele>1008.200012207</ele>
        <time>2022-04-28T15:50:24.135Z</time>
      </trkpt>
      <trkpt lat="44.14698" lon="6.32908">
        <ele>1007.5999755859</ele>
        <time>2022-04-28T15:50:26.663Z</time>
      </trkpt>
      <trkpt lat="44.14692" lon="6.32904">
        <ele>1006.200012207</ele>
        <time>2022-04-28T15:50:29.193Z</time>
      </trkpt>
      <trkpt lat="44.14687" lon="6.329">
        <ele>1005.4000244141</ele>
        <time>2022-04-28T15:50:31.724Z</time>
      </trkpt>
      <trkpt lat="44.14683" lon="6.32894">
        <ele>1004.799987793</ele>
        <time>2022-04-28T15:50:34.257Z</time>
      </trkpt>
      <trkpt lat="44.14679" lon="6.32886">
        <ele>1004.4000244141</ele>
        <time>2022-04-28T15:50:36.793Z</time>
      </trkpt>
      <trkpt lat="44.14674" lon="6.32879">
        <ele>1004</ele>
        <time>2022-04-28T15:50:39.331Z</time>
      </trkpt>
      <trkpt lat="44.14671" lon="6.32872">
        <ele>1003.4000244141</ele>
        <time>2022-04-28T15:50:41.871Z</time>
      </trkpt>
      <trkpt lat="44.14667" lon="6.32866">
        <ele>1002.5999755859</ele>
        <time>2022-04-28T15:50:44.413Z</time>
      </trkpt>
      <trkpt lat="44.1466" lon="6.32862">
        <ele>1001.4000244141</ele>
        <time>2022-04-28T15:50:46.957Z</time>
      </trkpt>
      <trkpt lat="44.14658" lon="6.3286">
        <ele>1000.5999755859</ele>
        <time>2022-04-28T15:50:49.502Z</time>
      </trkpt>
      <trkpt lat="44.14656" lon="6.32856">
        <ele>999.79998779297</ele>
        <time>2022-04-28T15:50:52.048Z</time>
      </trkpt>
      <trkpt lat="44.14647" lon="6.32849">
        <ele>998.59997558594</ele>
        <time>2022-04-28T15:50:54.597Z</time>
      </trkpt>
      <trkpt lat="44.14636" lon="6.32844">
        <ele>997.20001220703</ele>
        <time>2022-04-28T15:50:57.150Z</time>
      </trkpt>
      <trkpt lat="44.14629" lon="6.32838">
        <ele>996.20001220703</ele>
        <time>2022-04-28T15:50:59.705Z</time>
      </trkpt>
      <trkpt lat="44.14624" lon="6.32836">
        <ele>995.59997558594</ele>
        <time>2022-04-28T15:51:02.262Z</time>
      </trkpt>
      <trkpt lat="44.1462" lon="6.32832">
        <ele>995</ele>
        <time>2022-04-28T15:51:04.821Z</time>
      </trkpt>
      <trkpt lat="44.14616" lon="6.32825">
        <ele>994.20001220703</ele>
        <time>2022-04-28T15:51:07.382Z</time>
      </trkpt>
      <trkpt lat="44.1461" lon="6.32818">
        <ele>993.59997558594</ele>
        <time>2022-04-28T15:51:09.945Z</time>
      </trkpt>
      <trkpt lat="44.14604" lon="6.32806">
        <ele>992</ele>
        <time>2022-04-28T15:51:12.511Z</time>
      </trkpt>
      <trkpt lat="44.14604" lon="6.32799">
        <ele>991.59997558594</ele>
        <time>2022-04-28T15:51:15.079Z</time>
      </trkpt>
      <trkpt lat="44.14603" lon="6.32793">
        <ele>991</ele>
        <time>2022-04-28T15:51:17.648Z</time>
      </trkpt>
      <trkpt lat="44.14598" lon="6.3278">
        <ele>989.59997558594</ele>
        <time>2022-04-28T15:51:20.221Z</time>
      </trkpt>
      <trkpt lat="44.14594" lon="6.32776">
        <ele>989</ele>
        <time>2022-04-28T15:51:22.795Z</time>
      </trkpt>
      <trkpt lat="44.14589" lon="6.3277">
        <ele>988.40002441406</ele>
        <time>2022-04-28T15:51:25.371Z</time>
      </trkpt>
      <trkpt lat="44.14585" lon="6.32765">
        <ele>987.79998779297</ele>
        <time>2022-04-28T15:51:27.949Z</time>
      </trkpt>
      <trkpt lat="44.1458" lon="6.32759">
        <ele>987</ele>
        <time>2022-04-28T15:51:30.529Z</time>
      </trkpt>
      <trkpt lat="44.14576" lon="6.32752">
        <ele>986.20001220703</ele>
        <time>2022-04-28T15:51:33.111Z</time>
      </trkpt>
      <trkpt lat="44.14573" lon="6.32746">
        <ele>985.20001220703</ele>
        <time>2022-04-28T15:51:35.695Z</time>
      </trkpt>
      <trkpt lat="44.14566" lon="6.32733">
        <ele>984</ele>
        <time>2022-04-28T15:51:38.282Z</time>
      </trkpt>
      <trkpt lat="44.14562" lon="6.32727">
        <ele>983.40002441406</ele>
        <time>2022-04-28T15:51:40.871Z</time>
      </trkpt>
      <trkpt lat="44.14557" lon="6.32721">
        <ele>982.59997558594</ele>
        <time>2022-04-28T15:51:43.463Z</time>
      </trkpt>
      <trkpt lat="44.14549" lon="6.32712">
        <ele>981.40002441406</ele>
        <time>2022-04-28T15:51:46.058Z</time>
      </trkpt>
      <trkpt lat="44.14542" lon="6.3271">
        <ele>979.79998779297</ele>
        <time>2022-04-28T15:51:48.655Z</time>
      </trkpt>
      <trkpt lat="44.14541" lon="6.32711">
        <ele>979.40002441406</ele>
        <time>2022-04-28T15:51:51.252Z</time>
      </trkpt>
      <trkpt lat="44.14539" lon="6.32714">
        <ele>978.59997558594</ele>
        <time>2022-04-28T15:51:53.850Z</time>
      </trkpt>
      <trkpt lat="44.14537" lon="6.32707">
        <ele>978.40002441406</ele>
        <time>2022-04-28T15:51:56.450Z</time>
      </trkpt>
      <trkpt lat="44.14532" lon="6.32703">
        <ele>977.79998779297</ele>
        <time>2022-04-28T15:51:59.052Z</time>
      </trkpt>
      <trkpt lat="44.14526" lon="6.32705">
        <ele>977.40002441406</ele>
        <time>2022-04-28T15:52:01.656Z</time>
      </trkpt>
      <trkpt lat="44.14524" lon="6.32705">
        <ele>977.20001220703</ele>
        <time>2022-04-28T15:52:04.260Z</time>
      </trkpt>
      <trkpt lat="44.14515" lon="6.32703">
        <ele>976.40002441406</ele>
        <time>2022-04-28T15:52:06.867Z</time>
      </trkpt>
      <trkpt lat="44.14508" lon="6.32701">
        <ele>975.20001220703</ele>
        <time>2022-04-28T15:52:09.477Z</time>
      </trkpt>
      <trkpt lat="44.14499" lon="6.32701">
        <ele>974</ele>
        <time>2022-04-28T15:52:12.089Z</time>
      </trkpt>
      <trkpt lat="44.14495" lon="6.327">
        <ele>973.20001220703</ele>
        <time>2022-04-28T15:52:14.703Z</time>
      </trkpt>
      <trkpt lat="44.14491" lon="6.32701">
        <ele>972.59997558594</ele>
        <time>2022-04-28T15:52:17.318Z</time>
      </trkpt>
      <trkpt lat="44.14483" lon="6.32706">
        <ele>971.20001220703</ele>
        <time>2022-04-28T15:52:19.936Z</time>
      </trkpt>
      <trkpt lat="44.1448" lon="6.32707">
        <ele>970.40002441406</ele>
        <time>2022-04-28T15:52:22.555Z</time>
      </trkpt>
      <trkpt lat="44.14475" lon="6.32709">
        <ele>970</ele>
        <time>2022-04-28T15:52:25.175Z</time>
      </trkpt>
      <trkpt lat="44.14467" lon="6.32712">
        <ele>968.79998779297</ele>
        <time>2022-04-28T15:52:27.798Z</time>
      </trkpt>
      <trkpt lat="44.14457" lon="6.32714">
        <ele>967.79998779297</ele>
        <time>2022-04-28T15:52:30.424Z</time>
      </trkpt>
      <trkpt lat="44.14447" lon="6.32715">
        <ele>967.20001220703</ele>
        <time>2022-04-28T15:52:33.053Z</time>
      </trkpt>
      <trkpt lat="44.14442" lon="6.32715">
        <ele>966.20001220703</ele>
        <time>2022-04-28T15:52:35.684Z</time>
      </trkpt>
      <trkpt lat="44.14435" lon="6.32719">
        <ele>965</ele>
        <time>2022-04-28T15:52:38.318Z</time>
      </trkpt>
      <trkpt lat="44.14425" lon="6.32733">
        <ele>964.20001220703</ele>
        <time>2022-04-28T15:52:40.956Z</time>
      </trkpt>
      <trkpt lat="44.14422" lon="6.32737">
        <ele>964</ele>
        <time>2022-04-28T15:52:43.595Z</time>
      </trkpt>
      <trkpt lat="44.14415" lon="6.32738">
        <ele>963.79998779297</ele>
        <time>2022-04-28T15:52:46.236Z</time>
      </trkpt>
      <trkpt lat="44.14405" lon="6.32745">
        <ele>963</ele>
        <time>2022-04-28T15:52:48.881Z</time>
      </trkpt>
      <trkpt lat="44.14399" lon="6.32749">
        <ele>962.40002441406</ele>
        <time>2022-04-28T15:52:51.528Z</time>
      </trkpt>
      <trkpt lat="44.14391" lon="6.32753">
        <ele>961.59997558594</ele>
        <time>2022-04-28T15:52:54.178Z</time>
      </trkpt>
      <trkpt lat="44.1438" lon="6.32756">
        <ele>960.40002441406</ele>
        <time>2022-04-28T15:52:56.831Z</time>
      </trkpt>
      <trkpt lat="44.1437" lon="6.32761">
        <ele>959.40002441406</ele>
        <time>2022-04-28T15:52:59.488Z</time>
      </trkpt>
      <trkpt lat="44.14363" lon="6.32765">
        <ele>958.40002441406</ele>
        <time>2022-04-28T15:53:02.147Z</time>
      </trkpt>
      <trkpt lat="44.14355" lon="6.32766">
        <ele>957.40002441406</ele>
        <time>2022-04-28T15:53:04.809Z</time>
      </trkpt>
      <trkpt lat="44.14349" lon="6.32771">
        <ele>956.20001220703</ele>
        <time>2022-04-28T15:53:07.473Z</time>
      </trkpt>
      <trkpt lat="44.14341" lon="6.32773">
        <ele>955.20001220703</ele>
        <time>2022-04-28T15:53:10.139Z</time>
      </trkpt>
      <trkpt lat="44.1433" lon="6.32775">
        <ele>954</ele>
        <time>2022-04-28T15:53:12.809Z</time>
      </trkpt>
      <trkpt lat="44.14323" lon="6.32777">
        <ele>953.59997558594</ele>
        <time>2022-04-28T15:53:15.481Z</time>
      </trkpt>
      <trkpt lat="44.14302" lon="6.32784">
        <ele>953.40002441406</ele>
        <time>2022-04-28T15:53:18.160Z</time>
      </trkpt>
      <trkpt lat="44.1429" lon="6.32787">
        <ele>953.79998779297</ele>
        <time>2022-04-28T15:53:20.843Z</time>
      </trkpt>
      <trkpt lat="44.14277" lon="6.32792">
        <ele>954.20001220703</ele>
        <time>2022-04-28T15:53:23.530Z</time>
      </trkpt>
      <trkpt lat="44.14268" lon="6.32797">
        <ele>954.40002441406</ele>
        <time>2022-04-28T15:53:26.220Z</time>
      </trkpt>
      <trkpt lat="44.1426" lon="6.32802">
        <ele>955.40002441406</ele>
        <time>2022-04-28T15:53:28.913Z</time>
      </trkpt>
      <trkpt lat="44.14257" lon="6.32805">
        <ele>955.79998779297</ele>
        <time>2022-04-28T15:53:31.607Z</time>
      </trkpt>
      <trkpt lat="44.14244" lon="6.32807">
        <ele>957</ele>
        <time>2022-04-28T15:53:34.305Z</time>
      </trkpt>
      <trkpt lat="44.14235" lon="6.32808">
        <ele>958.20001220703</ele>
        <time>2022-04-28T15:53:37.006Z</time>
      </trkpt>
      <trkpt lat="44.14227" lon="6.32809">
        <ele>959.40002441406</ele>
        <time>2022-04-28T15:53:39.710Z</time>
      </trkpt>
      <trkpt lat="44.14218" lon="6.32812">
        <ele>960.59997558594</ele>
        <time>2022-04-28T15:53:42.416Z</time>
      </trkpt>
      <trkpt lat="44.14213" lon="6.32811">
        <ele>961</ele>
        <time>2022-04-28T15:53:45.124Z</time>
      </trkpt>
      <trkpt lat="44.14204" lon="6.32814">
        <ele>962</ele>
        <time>2022-04-28T15:53:47.835Z</time>
      </trkpt>
      <trkpt lat="44.14191" lon="6.32816">
        <ele>963.40002441406</ele>
        <time>2022-04-28T15:53:50.550Z</time>
      </trkpt>
      <trkpt lat="44.1418" lon="6.32818">
        <ele>964.40002441406</ele>
        <time>2022-04-28T15:53:53.269Z</time>
      </trkpt>
      <trkpt lat="44.14177" lon="6.32819">
        <ele>965</ele>
        <time>2022-04-28T15:53:55.989Z</time>
      </trkpt>
      <trkpt lat="44.14175" lon="6.32821">
        <ele>965.79998779297</ele>
        <time>2022-04-28T15:53:58.709Z</time>
      </trkpt>
      <trkpt lat="44.14172" lon="6.32821">
        <ele>966.40002441406</ele>
        <time>2022-04-28T15:54:01.430Z</time>
      </trkpt>
      <trkpt lat="44.14166" lon="6.32822">
        <ele>967.40002441406</ele>
        <time>2022-04-28T15:54:04.153Z</time>
      </trkpt>
      <trkpt lat="44.1416" lon="6.32824">
        <ele>968.40002441406</ele>
        <time>2022-04-28T15:54:06.878Z</time>
      </trkpt>
      <trkpt lat="44.14155" lon="6.32826">
        <ele>969.79998779297</ele>
        <time>2022-04-28T15:54:09.605Z</time>
      </trkpt>
      <trkpt lat="44.14153" lon="6.32827">
        <ele>970.20001220703</ele>
        <time>2022-04-28T15:54:12.333Z</time>
      </trkpt>
      <trkpt lat="44.14144" lon="6.32828">
        <ele>971.20001220703</ele>
        <time>2022-04-28T15:54:15.063Z</time>
      </trkpt>
      <trkpt lat="44.14142" lon="6.32828">
        <ele>971.40002441406</ele>
        <time>2022-04-28T15:54:17.794Z</time>
      </trkpt>
      <trkpt lat="44.14137" lon="6.32831">
        <ele>972.40002441406</ele>
        <time>2022-04-28T15:54:20.527Z</time>
      </trkpt>
      <trkpt lat="44.14131" lon="6.32833">
        <ele>973</ele>
        <time>2022-04-28T15:54:23.262Z</time>
      </trkpt>
      <trkpt lat="44.14128" lon="6.32834">
        <ele>973.20001220703</ele>
        <time>2022-04-28T15:54:25.998Z</time>
      </trkpt>
      <trkpt lat="44.14112" lon="6.32832">
        <ele>974</ele>
        <time>2022-04-28T15:54:28.739Z</time>
      </trkpt>
      <trkpt lat="44.14109" lon="6.32831">
        <ele>974.20001220703</ele>
        <time>2022-04-28T15:54:31.481Z</time>
      </trkpt>
      <trkpt lat="44.14104" lon="6.32831">
        <ele>975.40002441406</ele>
        <time>2022-04-28T15:54:34.225Z</time>
      </trkpt>
      <trkpt lat="44.14098" lon="6.32831">
        <ele>976.59997558594</ele>
        <time>2022-04-28T15:54:36.970Z</time>
      </trkpt>
      <trkpt lat="44.14094" lon="6.32831">
        <ele>977.20001220703</ele>
        <time>2022-04-28T15:54:39.717Z</time>
      </trkpt>
      <trkpt lat="44.14089" lon="6.3283">
        <ele>977.79998779297</ele>
        <time>2022-04-28T15:54:42.465Z</time>
      </trkpt>
      <trkpt lat="44.14087" lon="6.3283">
        <ele>979</ele>
        <time>2022-04-28T15:54:45.214Z</time>
      </trkpt>
      <trkpt lat="44.14087" lon="6.32829">
        <ele>979.20001220703</ele>
        <time>2022-04-28T15:54:47.963Z</time>
      </trkpt>
      <trkpt lat="44.14087" lon="6.32832">
        <ele>979.59997558594</ele>
        <time>2022-04-28T15:54:50.713Z</time>
      </trkpt>
      <trkpt lat="44.14089" lon="6.32834">
        <ele>979.20001220703</ele>
        <time>2022-04-28T15:54:53.464Z</time>
      </trkpt>
      <trkpt lat="44.14089" lon="6.32833">
        <ele>979</ele>
        <time>2022-04-28T15:54:56.215Z</time>
      </trkpt>
      <trkpt lat="44.14087" lon="6.32838">
        <ele>978.59997558594</ele>
        <time>2022-04-28T15:54:58.967Z</time>
      </trkpt>
      <trkpt lat="44.14085" lon="6.32841">
        <ele>978.40002441406</ele>
        <time>2022-04-28T15:55:01.720Z</time>
      </trkpt>
      <trkpt lat="44.14075" lon="6.32848">
        <ele>977.40002441406</ele>
        <time>2022-04-28T15:55:04.477Z</time>
      </trkpt>
      <trkpt lat="44.14068" lon="6.32852">
        <ele>975.59997558594</ele>
        <time>2022-04-28T15:55:07.236Z</time>
      </trkpt>
      <trkpt lat="44.14065" lon="6.32854">
        <ele>974.40002441406</ele>
        <time>2022-04-28T15:55:09.996Z</time>
      </trkpt>
      <trkpt lat="44.14062" lon="6.32856">
        <ele>973.20001220703</ele>
        <time>2022-04-28T15:55:12.757Z</time>
      </trkpt>
      <trkpt lat="44.1406" lon="6.3286">
        <ele>972</ele>
        <time>2022-04-28T15:55:15.519Z</time>
      </trkpt>
      <trkpt lat="44.14059" lon="6.32865">
        <ele>971</ele>
        <time>2022-04-28T15:55:18.283Z</time>
      </trkpt>
      <trkpt lat="44.14058" lon="6.3287">
        <ele>970</ele>
        <time>2022-04-28T15:55:21.048Z</time>
      </trkpt>
      <trkpt lat="44.14057" lon="6.32875">
        <ele>968.79998779297</ele>
        <time>2022-04-28T15:55:23.814Z</time>
      </trkpt>
      <trkpt lat="44.14057" lon="6.32882">
        <ele>968</ele>
        <time>2022-04-28T15:55:26.581Z</time>
      </trkpt>
      <trkpt lat="44.14057" lon="6.32888">
        <ele>967.40002441406</ele>
        <time>2022-04-28T15:55:29.350Z</time>
      </trkpt>
      <trkpt lat="44.14057" lon="6.32901">
        <ele>966.20001220703</ele>
        <time>2022-04-28T15:55:32.122Z</time>
      </trkpt>
      <trkpt lat="44.14058" lon="6.32907">
        <ele>965.59997558594</ele>
        <time>2022-04-28T15:55:34.895Z</time>
      </trkpt>
      <trkpt lat="44.14059" lon="6.32912">
        <ele>965</ele>
        <time>2022-04-28T15:55:37.670Z</time>
      </trkpt>
      <trkpt lat="44.14056" lon="6.32924">
        <ele>963.59997558594</ele>
        <time>2022-04-28T15:55:40.447Z</time>
      </trkpt>
      <trkpt lat="44.14054" lon="6.32931">
        <ele>963.40002441406</ele>
        <time>2022-04-28T15:55:43.226Z</time>
      </trkpt>
      <trkpt lat="44.14052" lon="6.32937">
        <ele>962.79998779297</ele>
        <time>2022-04-28T15:55:46.007Z</time>
      </trkpt>
      <trkpt lat="44.14051" lon="6.32941">
        <ele>960.59997558594</ele>
        <time>2022-04-28T15:55:48.789Z</time>
      </trkpt>
      <trkpt lat="44.14049" lon="6.32942">
        <ele>959.40002441406</ele>
        <time>2022-04-28T15:55:51.571Z</time>
      </trkpt>
      <trkpt lat="44.14047" lon="6.3295">
        <ele>958</ele>
        <time>2022-04-28T15:55:54.355Z</time>
      </trkpt>
      <trkpt lat="44.14046" lon="6.32963">
        <ele>956.79998779297</ele>
        <time>2022-04-28T15:55:57.142Z</time>
      </trkpt>
      <trkpt lat="44.14046" lon="6.32968">
        <ele>956.20001220703</ele>
        <time>2022-04-28T15:55:59.930Z</time>
      </trkpt>
      <trkpt lat="44.14044" lon="6.32971">
        <ele>955</ele>
        <time>2022-04-28T15:56:02.719Z</time>
      </trkpt>
      <trkpt lat="44.14044" lon="6.32976">
        <ele>953.79998779297</ele>
        <time>2022-04-28T15:56:05.509Z</time>
      </trkpt>
      <trkpt lat="44.14043" lon="6.32988">
        <ele>952.59997558594</ele>
        <time>2022-04-28T15:56:08.302Z</time>
      </trkpt>
      <trkpt lat="44.14042" lon="6.33002">
        <ele>950.79998779297</ele>
        <time>2022-04-28T15:56:11.098Z</time>
      </trkpt>
      <trkpt lat="44.1404" lon="6.33008">
        <ele>950.20001220703</ele>
        <time>2022-04-28T15:56:13.896Z</time>
      </trkpt>
      <trkpt lat="44.14039" lon="6.33015">
        <ele>949.20001220703</ele>
        <time>2022-04-28T15:56:16.695Z</time>
      </trkpt>
      <trkpt lat="44.14038" lon="6.3302">
        <ele>948.40002441406</ele>
        <time>2022-04-28T15:56:19.496Z</time>
      </trkpt>
      <trkpt lat="44.14037" lon="6.33025">
        <ele>947</ele>
        <time>2022-04-28T15:56:22.298Z</time>
      </trkpt>
      <trkpt lat="44.14035" lon="6.33036">
        <ele>945.40002441406</ele>
        <time>2022-04-28T15:56:25.102Z</time>
      </trkpt>
      <trkpt lat="44.14035" lon="6.3304">
        <ele>944.40002441406</ele>
        <time>2022-04-28T15:56:27.907Z</time>
      </trkpt>
      <trkpt lat="44.14035" lon="6.33044">
        <ele>943.40002441406</ele>
        <time>2022-04-28T15:56:30.713Z</time>
      </trkpt>
      <trkpt lat="44.14035" lon="6.33048">
        <ele>942.40002441406</ele>
        <time>2022-04-28T15:56:33.520Z</time>
      </trkpt>
      <trkpt lat="44.14035" lon="6.33051">
        <ele>941.79998779297</ele>
        <time>2022-04-28T15:56:36.328Z</time>
      </trkpt>
      <trkpt lat="44.14036" lon="6.33058">
        <ele>939.79998779297</ele>
        <time>2022-04-28T15:56:39.137Z</time>
      </trkpt>
      <trkpt lat="44.14037" lon="6.33066">
        <ele>938</ele>
        <time>2022-04-28T15:56:41.948Z</time>
      </trkpt>
      <trkpt lat="44.14033" lon="6.33065">
        <ele>936.79998779297</ele>
        <time>2022-04-28T15:56:44.761Z</time>
      </trkpt>
      <trkpt lat="44.14024" lon="6.3307">
        <ele>936.40002441406</ele>
        <time>2022-04-28T15:56:47.577Z</time>
      </trkpt>
      <trkpt lat="44.14021" lon="6.3307">
        <ele>936.40002441406</ele>
        <time>2022-04-28T15:56:50.394Z</time>
      </trkpt>
      <trkpt lat="44.14021" lon="6.33077">
        <ele>936.20001220703</ele>
        <time>2022-04-28T15:56:53.212Z</time>
      </trkpt>
      <trkpt lat="44.14016" lon="6.33083">
        <ele>936.20001220703</ele>
        <time>2022-04-28T15:56:56.032Z</time>
      </trkpt>
      <trkpt lat="44.14015" lon="6.33084">
        <ele>936.40002441406</ele>
        <time>2022-04-28T15:56:58.853Z</time>
      </trkpt>
      <trkpt lat="44.14013" lon="6.33083">
        <ele>936.40002441406</ele>
        <time>2022-04-28T15:57:01.674Z</time>
      </trkpt>
      <trkpt lat="44.14008" lon="6.33087">
        <ele>936.79998779297</ele>
        <time>2022-04-28T15:57:04.497Z</time>
      </trkpt>
      <trkpt lat="44.13998" lon="6.33093">
        <ele>936.79998779297</ele>
        <time>2022-04-28T15:57:07.323Z</time>
      </trkpt>
      <trkpt lat="44.13994" lon="6.33104">
        <ele>936.79998779297</ele>
        <time>2022-04-28T15:57:10.152Z</time>
      </trkpt>
      <trkpt lat="44.1399" lon="6.33119">
        <ele>936.40002441406</ele>
        <time>2022-04-28T15:57:12.985Z</time>
      </trkpt>
      <trkpt lat="44.13988" lon="6.33122">
        <ele>936.20001220703</ele>
        <time>2022-04-28T15:57:15.819Z</time>
      </trkpt>
      <trkpt lat="44.13986" lon="6.33133">
        <ele>936.20001220703</ele>
        <time>2022-04-28T15:57:18.655Z</time>
      </trkpt>
      <trkpt lat="44.13986" lon="6.33137">
        <ele>936.40002441406</ele>
        <time>2022-04-28T15:57:21.492Z</time>
      </trkpt>
      <trkpt lat="44.13985" lon="6.33144">
        <ele>936.79998779297</ele>
        <time>2022-04-28T15:57:24.331Z</time>
      </trkpt>
      <trkpt lat="44.13983" lon="6.33166">
        <ele>937.40002441406</ele>
        <time>2022-04-28T15:57:27.175Z</time>
      </trkpt>
      <trkpt lat="44.13982" lon="6.33172">
        <ele>937.40002441406</ele>
        <time>2022-04-28T15:57:30.020Z</time>
      </trkpt>
      <trkpt lat="44.13982" lon="6.33188">
        <ele>938</ele>
        <time>2022-04-28T15:57:32.869Z</time>
      </trkpt>
      <trkpt lat="44.13982" lon="6.33214">
        <ele>938</ele>
        <time>2022-04-28T15:57:35.724Z</time>
      </trkpt>
      <trkpt lat="44.13984" lon="6.3323">
        <ele>937.40002441406</ele>
        <time>2022-04-28T15:57:38.583Z</time>
      </trkpt>
      <trkpt lat="44.13984" lon="6.33234">
        <ele>937.40002441406</ele>
        <time>2022-04-28T15:57:41.443Z</time>
      </trkpt>
      <trkpt lat="44.13988" lon="6.33251">
        <ele>937</ele>
        <time>2022-04-28T15:57:44.306Z</time>
      </trkpt>
      <trkpt lat="44.13992" lon="6.33263">
        <ele>936.40002441406</ele>
        <time>2022-04-28T15:57:47.173Z</time>
      </trkpt>
      <trkpt lat="44.13995" lon="6.33276">
        <ele>935.59997558594</ele>
        <time>2022-04-28T15:57:50.043Z</time>
      </trkpt>
      <trkpt lat="44.13993" lon="6.33281">
        <ele>935.20001220703</ele>
        <time>2022-04-28T15:57:52.914Z</time>
      </trkpt>
      <trkpt lat="44.13988" lon="6.33289">
        <ele>935.20001220703</ele>
        <time>2022-04-28T15:57:55.787Z</time>
      </trkpt>
      <trkpt lat="44.13986" lon="6.33293">
        <ele>935</ele>
        <time>2022-04-28T15:57:58.662Z</time>
      </trkpt>
      <trkpt lat="44.13986" lon="6.33305">
        <ele>935</ele>
        <time>2022-04-28T15:58:01.539Z</time>
      </trkpt>
      <trkpt lat="44.13989" lon="6.33315">
        <ele>935.20001220703</ele>
        <time>2022-04-28T15:58:04.419Z</time>
      </trkpt>
      <trkpt lat="44.13993" lon="6.33325">
        <ele>935.59997558594</ele>
        <time>2022-04-28T15:58:07.301Z</time>
      </trkpt>
      <trkpt lat="44.13994" lon="6.33336">
        <ele>935.79998779297</ele>
        <time>2022-04-28T15:58:10.186Z</time>
      </trkpt>
      <trkpt lat="44.13993" lon="6.33349">
        <ele>935.79998779297</ele>
        <time>2022-04-28T15:58:13.074Z</time>
      </trkpt>
      <trkpt lat="44.13993" lon="6.33355">
        <ele>935.79998779297</ele>
        <time>2022-04-28T15:58:15.963Z</time>
      </trkpt>
      <trkpt lat="44.1399" lon="6.33366">
        <ele>935.59997558594</ele>
        <time>2022-04-28T15:58:18.855Z</time>
      </trkpt>
      <trkpt lat="44.13988" lon="6.33375">
        <ele>935.59997558594</ele>
        <time>2022-04-28T15:58:21.749Z</time>
      </trkpt>
      <trkpt lat="44.13988" lon="6.33382">
        <ele>935.40002441406</ele>
        <time>2022-04-28T15:58:24.645Z</time>
      </trkpt>
      <trkpt lat="44.13986" lon="6.33403">
        <ele>934.79998779297</ele>
        <time>2022-04-28T15:58:27.545Z</time>
      </trkpt>
      <trkpt lat="44.13986" lon="6.3341">
        <ele>934.59997558594</ele>
        <time>2022-04-28T15:58:30.447Z</time>
      </trkpt>
      <trkpt lat="44.13989" lon="6.33423">
        <ele>933.59997558594</ele>
        <time>2022-04-28T15:58:33.352Z</time>
      </trkpt>
      <trkpt lat="44.13992" lon="6.33429">
        <ele>932.59997558594</ele>
        <time>2022-04-28T15:58:36.259Z</time>
      </trkpt>
      <trkpt lat="44.14001" lon="6.33442">
        <ele>931.79998779297</ele>
        <time>2022-04-28T15:58:39.170Z</time>
      </trkpt>
      <trkpt lat="44.14006" lon="6.33454">
        <ele>931.40002441406</ele>
        <time>2022-04-28T15:58:42.084Z</time>
      </trkpt>
      <trkpt lat="44.14009" lon="6.33459">
        <ele>931</ele>
        <time>2022-04-28T15:58:45.000Z</time>
      </trkpt>
      <trkpt lat="44.14012" lon="6.33464">
        <ele>930.79998779297</ele>
        <time>2022-04-28T15:58:47.917Z</time>
      </trkpt>
      <trkpt lat="44.14015" lon="6.33471">
        <ele>929.59997558594</ele>
        <time>2022-04-28T15:58:50.836Z</time>
      </trkpt>
      <trkpt lat="44.14019" lon="6.33477">
        <ele>928.79998779297</ele>
        <time>2022-04-28T15:58:53.757Z</time>
      </trkpt>
      <trkpt lat="44.14024" lon="6.33483">
        <ele>927.79998779297</ele>
        <time>2022-04-28T15:58:56.680Z</time>
      </trkpt>
      <trkpt lat="44.14027" lon="6.33489">
        <ele>926.79998779297</ele>
        <time>2022-04-28T15:58:59.605Z</time>
      </trkpt>
      <trkpt lat="44.14034" lon="6.33501">
        <ele>925</ele>
        <time>2022-04-28T15:59:02.533Z</time>
      </trkpt>
      <trkpt lat="44.14038" lon="6.33505">
        <ele>924</ele>
        <time>2022-04-28T15:59:05.463Z</time>
      </trkpt>
      <trkpt lat="44.14043" lon="6.33509">
        <ele>923</ele>
        <time>2022-04-28T15:59:08.394Z</time>
      </trkpt>
      <trkpt lat="44.14047" lon="6.33512">
        <ele>922</ele>
        <time>2022-04-28T15:59:11.327Z</time>
      </trkpt>
      <trkpt lat="44.14053" lon="6.33519">
        <ele>920.59997558594</ele>
        <time>2022-04-28T15:59:14.263Z</time>
      </trkpt>
      <trkpt lat="44.14057" lon="6.3353">
        <ele>919.20001220703</ele>
        <time>2022-04-28T15:59:17.201Z</time>
      </trkpt>
      <trkpt lat="44.14064" lon="6.33539">
        <ele>917.59997558594</ele>
        <time>2022-04-28T15:59:20.142Z</time>
      </trkpt>
      <trkpt lat="44.14068" lon="6.33543">
        <ele>916.59997558594</ele>
        <time>2022-04-28T15:59:23.085Z</time>
      </trkpt>
      <trkpt lat="44.14074" lon="6.33546">
        <ele>915</ele>
        <time>2022-04-28T15:59:26.030Z</time>
      </trkpt>
      <trkpt lat="44.14078" lon="6.33549">
        <ele>914.20001220703</ele>
        <time>2022-04-28T15:59:28.976Z</time>
      </trkpt>
      <trkpt lat="44.14082" lon="6.33554">
        <ele>913.20001220703</ele>
        <time>2022-04-28T15:59:31.924Z</time>
      </trkpt>
      <trkpt lat="44.14086" lon="6.33558">
        <ele>912.40002441406</ele>
        <time>2022-04-28T15:59:34.874Z</time>
      </trkpt>
      <trkpt lat="44.1409" lon="6.33563">
        <ele>911.40002441406</ele>
        <time>2022-04-28T15:59:37.825Z</time>
      </trkpt>
      <trkpt lat="44.14093" lon="6.33567">
        <ele>910.20001220703</ele>
        <time>2022-04-28T15:59:40.778Z</time>
      </trkpt>
      <trkpt lat="44.14096" lon="6.3357">
        <ele>909</ele>
        <time>2022-04-28T15:59:43.732Z</time>
      </trkpt>
      <trkpt lat="44.14098" lon="6.33573">
        <ele>908</ele>
        <time>2022-04-28T15:59:46.687Z</time>
      </trkpt>
      <trkpt lat="44.14099" lon="6.33578">
        <ele>906.59997558594</ele>
        <time>2022-04-28T15:59:49.643Z</time>
      </trkpt>
      <trkpt lat="44.14102" lon="6.33587">
        <ele>905</ele>
        <time>2022-04-28T15:59:52.601Z</time>
      </trkpt>
      <trkpt lat="44.14103" lon="6.33589">
        <ele>904</ele>
        <time>2022-04-28T15:59:55.560Z</time>
      </trkpt>
      <trkpt lat="44.14103" lon="6.33589">
        <ele>903</ele>
        <time>2022-04-28T15:59:58.519Z</time>
      </trkpt>
      <trkpt lat="44.14103" lon="6.33588">
        <ele>902</ele>
        <time>2022-04-28T16:00:01.478Z</time>
      </trkpt>
      <trkpt lat="44.14103" lon="6.33586">
        <ele>901.59997558594</ele>
        <time>2022-04-28T16:00:04.437Z</time>
      </trkpt>
      <trkpt lat="44.14101" lon="6.33585">
        <ele>900.40002441406</ele>
        <time>2022-04-28T16:00:07.397Z</time>
      </trkpt>
      <trkpt lat="44.141" lon="6.33584">
        <ele>900.40002441406</ele>
        <time>2022-04-28T16:00:10.357Z</time>
      </trkpt>
      <trkpt lat="44.14111" lon="6.33587">
        <ele>899.59997558594</ele>
        <time>2022-04-28T16:00:13.321Z</time>
      </trkpt>
      <trkpt lat="44.14115" lon="6.33589">
        <ele>898.79998779297</ele>
        <time>2022-04-28T16:00:16.286Z</time>
      </trkpt>
      <trkpt lat="44.14117" lon="6.3359">
        <ele>898.40002441406</ele>
        <time>2022-04-28T16:00:19.252Z</time>
      </trkpt>
      <trkpt lat="44.14118" lon="6.33591">
        <ele>898</ele>
        <time>2022-04-28T16:00:22.218Z</time>
      </trkpt>
      <trkpt lat="44.14118" lon="6.33593">
        <ele>897.59997558594</ele>
        <time>2022-04-28T16:00:25.184Z</time>
      </trkpt>
      <trkpt lat="44.14116" lon="6.33597">
        <ele>897.20001220703</ele>
        <time>2022-04-28T16:00:28.152Z</time>
      </trkpt>
      <trkpt lat="44.14108" lon="6.33609">
        <ele>897.40002441406</ele>
        <time>2022-04-28T16:00:31.123Z</time>
      </trkpt>
      <trkpt lat="44.14106" lon="6.33616">
        <ele>898</ele>
        <time>2022-04-28T16:00:34.096Z</time>
      </trkpt>
      <trkpt lat="44.14099" lon="6.3362">
        <ele>898.59997558594</ele>
        <time>2022-04-28T16:00:37.071Z</time>
      </trkpt>
      <trkpt lat="44.14085" lon="6.33624">
        <ele>898.20001220703</ele>
        <time>2022-04-28T16:00:40.051Z</time>
      </trkpt>
      <trkpt lat="44.14067" lon="6.33629">
        <ele>897.20001220703</ele>
        <time>2022-04-28T16:00:43.037Z</time>
      </trkpt>
      <trkpt lat="44.14063" lon="6.33631">
        <ele>896.79998779297</ele>
        <time>2022-04-28T16:00:46.024Z</time>
      </trkpt>
      <trkpt lat="44.14054" lon="6.33637">
        <ele>896.20001220703</ele>
        <time>2022-04-28T16:00:49.014Z</time>
      </trkpt>
      <trkpt lat="44.14043" lon="6.3364">
        <ele>895</ele>
        <time>2022-04-28T16:00:52.008Z</time>
      </trkpt>
      <trkpt lat="44.14033" lon="6.33639">
        <ele>894.40002441406</ele>
        <time>2022-04-28T16:00:55.005Z</time>
      </trkpt>
      <trkpt lat="44.14032" lon="6.33647">
        <ele>894</ele>
        <time>2022-04-28T16:00:58.004Z</time>
      </trkpt>
      <trkpt lat="44.14031" lon="6.3365">
        <ele>894</ele>
        <time>2022-04-28T16:01:01.004Z</time>
      </trkpt>
      <trkpt lat="44.1403" lon="6.33654">
        <ele>893.59997558594</ele>
        <time>2022-04-28T16:01:04.005Z</time>
      </trkpt>
      <trkpt lat="44.14028" lon="6.33665">
        <ele>892.79998779297</ele>
        <time>2022-04-28T16:01:07.008Z</time>
      </trkpt>
      <trkpt lat="44.14027" lon="6.33671">
        <ele>892.20001220703</ele>
        <time>2022-04-28T16:01:10.012Z</time>
      </trkpt>
      <trkpt lat="44.14026" lon="6.33678">
        <ele>891.79998779297</ele>
        <time>2022-04-28T16:01:13.018Z</time>
      </trkpt>
      <trkpt lat="44.1402" lon="6.33694">
        <ele>890.40002441406</ele>
        <time>2022-04-28T16:01:16.028Z</time>
      </trkpt>
      <trkpt lat="44.14021" lon="6.33703">
        <ele>889</ele>
        <time>2022-04-28T16:01:19.040Z</time>
      </trkpt>
      <trkpt lat="44.14022" lon="6.33709">
        <ele>888.20001220703</ele>
        <time>2022-04-28T16:01:22.054Z</time>
      </trkpt>
      <trkpt lat="44.14024" lon="6.33714">
        <ele>887.59997558594</ele>
        <time>2022-04-28T16:01:25.069Z</time>
      </trkpt>
      <trkpt lat="44.14027" lon="6.33718">
        <ele>887</ele>
        <time>2022-04-28T16:01:28.085Z</time>
      </trkpt>
      <trkpt lat="44.14029" lon="6.33723">
        <ele>886.40002441406</ele>
        <time>2022-04-28T16:01:31.103Z</time>
      </trkpt>
      <trkpt lat="44.1403" lon="6.33727">
        <ele>885.79998779297</ele>
        <time>2022-04-28T16:01:34.122Z</time>
      </trkpt>
      <trkpt lat="44.1403" lon="6.33732">
        <ele>884.79998779297</ele>
        <time>2022-04-28T16:01:37.142Z</time>
      </trkpt>
      <trkpt lat="44.14029" lon="6.33736">
        <ele>883.79998779297</ele>
        <time>2022-04-28T16:01:40.163Z</time>
      </trkpt>
      <trkpt lat="44.14028" lon="6.33745">
        <ele>882.59997558594</ele>
        <time>2022-04-28T16:01:43.186Z</time>
      </trkpt>
      <trkpt lat="44.14027" lon="6.33753">
        <ele>881.40002441406</ele>
        <time>2022-04-28T16:01:46.211Z</time>
      </trkpt>
      <trkpt lat="44.1403" lon="6.33762">
        <ele>880.20001220703</ele>
        <time>2022-04-28T16:01:49.238Z</time>
      </trkpt>
      <trkpt lat="44.14032" lon="6.33772">
        <ele>879</ele>
        <time>2022-04-28T16:01:52.267Z</time>
      </trkpt>
      <trkpt lat="44.14038" lon="6.33781">
        <ele>878.40002441406</ele>
        <time>2022-04-28T16:01:55.299Z</time>
      </trkpt>
      <trkpt lat="44.14041" lon="6.33785">
        <ele>878</ele>
        <time>2022-04-28T16:01:58.332Z</time>
      </trkpt>
      <trkpt lat="44.14042" lon="6.3379">
        <ele>877.59997558594</ele>
        <time>2022-04-28T16:02:01.367Z</time>
      </trkpt>
      <trkpt lat="44.14044" lon="6.33796">
        <ele>877.20001220703</ele>
        <time>2022-04-28T16:02:04.403Z</time>
      </trkpt>
      <trkpt lat="44.14046" lon="6.33802">
        <ele>877</ele>
        <time>2022-04-28T16:02:07.441Z</time>
      </trkpt>
      <trkpt lat="44.14054" lon="6.3381">
        <ele>875.79998779297</ele>
        <time>2022-04-28T16:02:10.482Z</time>
      </trkpt>
      <trkpt lat="44.14059" lon="6.33813">
        <ele>875.20001220703</ele>
        <time>2022-04-28T16:02:13.524Z</time>
      </trkpt>
      <trkpt lat="44.14064" lon="6.33816">
        <ele>874.79998779297</ele>
        <time>2022-04-28T16:02:16.568Z</time>
      </trkpt>
      <trkpt lat="44.14076" lon="6.33819">
        <ele>873.20001220703</ele>
        <time>2022-04-28T16:02:19.616Z</time>
      </trkpt>
      <trkpt lat="44.14082" lon="6.33821">
        <ele>872.59997558594</ele>
        <time>2022-04-28T16:02:22.666Z</time>
      </trkpt>
      <trkpt lat="44.14086" lon="6.33823">
        <ele>871.79998779297</ele>
        <time>2022-04-28T16:02:25.717Z</time>
      </trkpt>
      <trkpt lat="44.14091" lon="6.3383">
        <ele>870</ele>
        <time>2022-04-28T16:02:28.770Z</time>
      </trkpt>
      <trkpt lat="44.14089" lon="6.33837">
        <ele>869.20001220703</ele>
        <time>2022-04-28T16:02:31.825Z</time>
      </trkpt>
      <trkpt lat="44.14087" lon="6.33839">
        <ele>868.79998779297</ele>
        <time>2022-04-28T16:02:34.881Z</time>
      </trkpt>
      <trkpt lat="44.14078" lon="6.33844">
        <ele>868.20001220703</ele>
        <time>2022-04-28T16:02:37.940Z</time>
      </trkpt>
      <trkpt lat="44.14073" lon="6.33847">
        <ele>867.59997558594</ele>
        <time>2022-04-28T16:02:41.001Z</time>
      </trkpt>
      <trkpt lat="44.14064" lon="6.33853">
        <ele>865.40002441406</ele>
        <time>2022-04-28T16:02:44.065Z</time>
      </trkpt>
      <trkpt lat="44.1406" lon="6.33857">
        <ele>864.40002441406</ele>
        <time>2022-04-28T16:02:47.131Z</time>
      </trkpt>
      <trkpt lat="44.14055" lon="6.33862">
        <ele>863.59997558594</ele>
        <time>2022-04-28T16:02:50.198Z</time>
      </trkpt>
      <trkpt lat="44.1405" lon="6.33866">
        <ele>863</ele>
        <time>2022-04-28T16:02:53.267Z</time>
      </trkpt>
      <trkpt lat="44.14046" lon="6.33871">
        <ele>862.20001220703</ele>
        <time>2022-04-28T16:02:56.338Z</time>
      </trkpt>
      <trkpt lat="44.14042" lon="6.33876">
        <ele>861.20001220703</ele>
        <time>2022-04-28T16:02:59.411Z</time>
      </trkpt>
      <trkpt lat="44.14038" lon="6.33881">
        <ele>860.40002441406</ele>
        <time>2022-04-28T16:03:02.485Z</time>
      </trkpt>
      <trkpt lat="44.14035" lon="6.33889">
        <ele>859.79998779297</ele>
        <time>2022-04-28T16:03:05.561Z</time>
      </trkpt>
      <trkpt lat="44.14032" lon="6.33902">
        <ele>858.59997558594</ele>
        <time>2022-04-28T16:03:08.641Z</time>
      </trkpt>
      <trkpt lat="44.14029" lon="6.33918">
        <ele>857.40002441406</ele>
        <time>2022-04-28T16:03:11.724Z</time>
      </trkpt>
      <trkpt lat="44.14028" lon="6.33923">
        <ele>856.59997558594</ele>
        <time>2022-04-28T16:03:14.808Z</time>
      </trkpt>
      <trkpt lat="44.14026" lon="6.33928">
        <ele>855.59997558594</ele>
        <time>2022-04-28T16:03:17.894Z</time>
      </trkpt>
      <trkpt lat="44.14025" lon="6.33938">
        <ele>854</ele>
        <time>2022-04-28T16:03:20.982Z</time>
      </trkpt>
      <trkpt lat="44.14028" lon="6.33948">
        <ele>852.40002441406</ele>
        <time>2022-04-28T16:03:24.073Z</time>
      </trkpt>
      <trkpt lat="44.14034" lon="6.33957">
        <ele>851</ele>
        <time>2022-04-28T16:03:27.166Z</time>
      </trkpt>
      <trkpt lat="44.14037" lon="6.33961">
        <ele>850.40002441406</ele>
        <time>2022-04-28T16:03:30.261Z</time>
      </trkpt>
      <trkpt lat="44.1404" lon="6.33965">
        <ele>849.59997558594</ele>
        <time>2022-04-28T16:03:33.357Z</time>
      </trkpt>
      <trkpt lat="44.14052" lon="6.33976">
        <ele>848.59997558594</ele>
        <time>2022-04-28T16:03:36.458Z</time>
      </trkpt>
      <trkpt lat="44.14056" lon="6.33979">
        <ele>848.40002441406</ele>
        <time>2022-04-28T16:03:39.560Z</time>
      </trkpt>
      <trkpt lat="44.14066" lon="6.3399">
        <ele>847.59997558594</ele>
        <time>2022-04-28T16:03:42.666Z</time>
      </trkpt>
      <trkpt lat="44.14072" lon="6.34003">
        <ele>847</ele>
        <time>2022-04-28T16:03:45.776Z</time>
      </trkpt>
      <trkpt lat="44.14078" lon="6.34016">
        <ele>845.79998779297</ele>
        <time>2022-04-28T16:03:48.889Z</time>
      </trkpt>
      <trkpt lat="44.14086" lon="6.34036">
        <ele>844.20001220703</ele>
        <time>2022-04-28T16:03:52.007Z</time>
      </trkpt>
      <trkpt lat="44.1409" lon="6.34038">
        <ele>843.59997558594</ele>
        <time>2022-04-28T16:03:55.127Z</time>
      </trkpt>
      <trkpt lat="44.14094" lon="6.34039">
        <ele>843.20001220703</ele>
        <time>2022-04-28T16:03:58.248Z</time>
      </trkpt>
      <trkpt lat="44.14103" lon="6.34047">
        <ele>842</ele>
        <time>2022-04-28T16:04:01.372Z</time>
      </trkpt>
      <trkpt lat="44.14104" lon="6.3405">
        <ele>841.40002441406</ele>
        <time>2022-04-28T16:04:04.497Z</time>
      </trkpt>
      <trkpt lat="44.14105" lon="6.34052">
        <ele>841</ele>
        <time>2022-04-28T16:04:07.622Z</time>
      </trkpt>
      <trkpt lat="44.14105" lon="6.34053">
        <ele>841</ele>
        <time>2022-04-28T16:04:10.748Z</time>
      </trkpt>
      <trkpt lat="44.14101" lon="6.34055">
        <ele>840</ele>
        <time>2022-04-28T16:04:13.875Z</time>
      </trkpt>
      <trkpt lat="44.14099" lon="6.34056">
        <ele>839.79998779297</ele>
        <time>2022-04-28T16:04:17.003Z</time>
      </trkpt>
      <trkpt lat="44.1409" lon="6.34062">
        <ele>840</ele>
        <time>2022-04-28T16:04:20.134Z</time>
      </trkpt>
      <trkpt lat="44.1408" lon="6.34068">
        <ele>840.40002441406</ele>
        <time>2022-04-28T16:04:23.268Z</time>
      </trkpt>
      <trkpt lat="44.14081" lon="6.34072">
        <ele>840.79998779297</ele>
        <time>2022-04-28T16:04:26.403Z</time>
      </trkpt>
      <trkpt lat="44.14081" lon="6.34072">
        <ele>840.79998779297</ele>
        <time>2022-04-28T16:04:29.538Z</time>
      </trkpt>
      <trkpt lat="44.14082" lon="6.34077">
        <ele>840.79998779297</ele>
        <time>2022-04-28T16:04:32.674Z</time>
      </trkpt>
      <trkpt lat="44.14084" lon="6.3408">
        <ele>840.79998779297</ele>
        <time>2022-04-28T16:04:35.811Z</time>
      </trkpt>
      <trkpt lat="44.1409" lon="6.34093">
        <ele>840.59997558594</ele>
        <time>2022-04-28T16:04:38.952Z</time>
      </trkpt>
      <trkpt lat="44.14091" lon="6.34094">
        <ele>840.59997558594</ele>
        <time>2022-04-28T16:04:42.093Z</time>
      </trkpt>
      <trkpt lat="44.14092" lon="6.34095">
        <ele>840.79998779297</ele>
        <time>2022-04-28T16:04:45.234Z</time>
      </trkpt>
      <trkpt lat="44.14095" lon="6.34098">
        <ele>840.79998779297</ele>
        <time>2022-04-28T16:04:48.377Z</time>
      </trkpt>
      <trkpt lat="44.14097" lon="6.34099">
        <ele>840.79998779297</ele>
        <time>2022-04-28T16:04:51.520Z</time>
      </trkpt>
      <trkpt lat="44.14102" lon="6.34108">
        <ele>840.59997558594</ele>
        <time>2022-04-28T16:04:54.666Z</time>
      </trkpt>
      <trkpt lat="44.14102" lon="6.34111">
        <ele>840.59997558594</ele>
        <time>2022-04-28T16:04:57.813Z</time>
      </trkpt>
      <trkpt lat="44.14098" lon="6.34118">
        <ele>840</ele>
        <time>2022-04-28T16:05:00.962Z</time>
      </trkpt>
      <trkpt lat="44.14096" lon="6.34123">
        <ele>839.40002441406</ele>
        <time>2022-04-28T16:05:04.112Z</time>
      </trkpt>
      <trkpt lat="44.14094" lon="6.34128">
        <ele>838.79998779297</ele>
        <time>2022-04-28T16:05:07.263Z</time>
      </trkpt>
      <trkpt lat="44.14094" lon="6.34135">
        <ele>838.20001220703</ele>
        <time>2022-04-28T16:05:10.416Z</time>
      </trkpt>
      <trkpt lat="44.14093" lon="6.34144">
        <ele>837.59997558594</ele>
        <time>2022-04-28T16:05:13.571Z</time>
      </trkpt>
      <trkpt lat="44.14092" lon="6.34148">
        <ele>836.79998779297</ele>
        <time>2022-04-28T16:05:16.727Z</time>
      </trkpt>
      <trkpt lat="44.14091" lon="6.34152">
        <ele>835.79998779297</ele>
        <time>2022-04-28T16:05:19.884Z</time>
      </trkpt>
      <trkpt lat="44.14091" lon="6.3416">
        <ele>834</ele>
        <time>2022-04-28T16:05:23.043Z</time>
      </trkpt>
      <trkpt lat="44.1409" lon="6.34164">
        <ele>833</ele>
        <time>2022-04-28T16:05:26.203Z</time>
      </trkpt>
      <trkpt lat="44.14087" lon="6.34169">
        <ele>831.59997558594</ele>
        <time>2022-04-28T16:05:29.364Z</time>
      </trkpt>
      <trkpt lat="44.14084" lon="6.34177">
        <ele>831</ele>
        <time>2022-04-28T16:05:32.527Z</time>
      </trkpt>
      <trkpt lat="44.14083" lon="6.34181">
        <ele>830.59997558594</ele>
        <time>2022-04-28T16:05:35.691Z</time>
      </trkpt>
      <trkpt lat="44.1408" lon="6.34183">
        <ele>830</ele>
        <time>2022-04-28T16:05:38.856Z</time>
      </trkpt>
      <trkpt lat="44.14077" lon="6.34185">
        <ele>829.40002441406</ele>
        <time>2022-04-28T16:05:42.022Z</time>
      </trkpt>
      <trkpt lat="44.14074" lon="6.34186">
        <ele>828.59997558594</ele>
        <time>2022-04-28T16:05:45.189Z</time>
      </trkpt>
      <trkpt lat="44.14071" lon="6.34187">
        <ele>828.20001220703</ele>
        <time>2022-04-28T16:05:48.357Z</time>
      </trkpt>
      <trkpt lat="44.14063" lon="6.34191">
        <ele>827.20001220703</ele>
        <time>2022-04-28T16:05:51.528Z</time>
      </trkpt>
      <trkpt lat="44.14056" lon="6.34198">
        <ele>826</ele>
        <time>2022-04-28T16:05:54.702Z</time>
      </trkpt>
      <trkpt lat="44.1405" lon="6.34207">
        <ele>824.79998779297</ele>
        <time>2022-04-28T16:05:57.878Z</time>
      </trkpt>
      <trkpt lat="44.14048" lon="6.3421">
        <ele>824.40002441406</ele>
        <time>2022-04-28T16:06:01.056Z</time>
      </trkpt>
      <trkpt lat="44.14044" lon="6.34216">
        <ele>823.40002441406</ele>
        <time>2022-04-28T16:06:04.235Z</time>
      </trkpt>
      <trkpt lat="44.1404" lon="6.34222">
        <ele>821.59997558594</ele>
        <time>2022-04-28T16:06:07.416Z</time>
      </trkpt>
      <trkpt lat="44.14038" lon="6.34225">
        <ele>821.20001220703</ele>
        <time>2022-04-28T16:06:10.598Z</time>
      </trkpt>
      <trkpt lat="44.14037" lon="6.34228">
        <ele>820.40002441406</ele>
        <time>2022-04-28T16:06:13.781Z</time>
      </trkpt>
      <trkpt lat="44.14036" lon="6.34232">
        <ele>819.20001220703</ele>
        <time>2022-04-28T16:06:16.965Z</time>
      </trkpt>
      <trkpt lat="44.14036" lon="6.34234">
        <ele>818.79998779297</ele>
        <time>2022-04-28T16:06:20.149Z</time>
      </trkpt>
      <trkpt lat="44.14036" lon="6.34236">
        <ele>818</ele>
        <time>2022-04-28T16:06:23.334Z</time>
      </trkpt>
      <trkpt lat="44.14036" lon="6.3424">
        <ele>816.59997558594</ele>
        <time>2022-04-28T16:06:26.520Z</time>
      </trkpt>
      <trkpt lat="44.14036" lon="6.34244">
        <ele>815.40002441406</ele>
        <time>2022-04-28T16:06:29.707Z</time>
      </trkpt>
      <trkpt lat="44.14036" lon="6.34247">
        <ele>815</ele>
        <time>2022-04-28T16:06:32.894Z</time>
      </trkpt>
      <trkpt lat="44.14035" lon="6.34249">
        <ele>814.59997558594</ele>
        <time>2022-04-28T16:06:36.082Z</time>
      </trkpt>
      <trkpt lat="44.14033" lon="6.34251">
        <ele>814.20001220703</ele>
        <time>2022-04-28T16:06:39.271Z</time>
      </trkpt>
      <trkpt lat="44.1403" lon="6.34258">
        <ele>812.59997558594</ele>
        <time>2022-04-28T16:06:42.461Z</time>
      </trkpt>
      <trkpt lat="44.14029" lon="6.34261">
        <ele>811.40002441406</ele>
        <time>2022-04-28T16:06:45.652Z</time>
      </trkpt>
      <trkpt lat="44.14027" lon="6.34264">
        <ele>810.79998779297</ele>
        <time>2022-04-28T16:06:48.844Z</time>
      </trkpt>
      <trkpt lat="44.14023" lon="6.34267">
        <ele>809.40002441406</ele>
        <time>2022-04-28T16:06:52.037Z</time>
      </trkpt>
      <trkpt lat="44.1402" lon="6.34268">
        <ele>808</ele>
        <time>2022-04-28T16:06:55.232Z</time>
      </trkpt>
      <trkpt lat="44.14019" lon="6.34267">
        <ele>806.79998779297</ele>
        <time>2022-04-28T16:06:58.427Z</time>
      </trkpt>
      <trkpt lat="44.14019" lon="6.34265">
        <ele>805.40002441406</ele>
        <time>2022-04-28T16:07:01.622Z</time>
      </trkpt>
      <trkpt lat="44.14018" lon="6.3426">
        <ele>804.79998779297</ele>
        <time>2022-04-28T16:07:04.819Z</time>
      </trkpt>
      <trkpt lat="44.14016" lon="6.34257">
        <ele>804.59997558594</ele>
        <time>2022-04-28T16:07:08.016Z</time>
      </trkpt>
      <trkpt lat="44.14011" lon="6.34246">
        <ele>803.79998779297</ele>
        <time>2022-04-28T16:07:11.216Z</time>
      </trkpt>
      <trkpt lat="44.14008" lon="6.34242">
        <ele>803.20001220703</ele>
        <time>2022-04-28T16:07:14.418Z</time>
      </trkpt>
      <trkpt lat="44.14004" lon="6.34239">
        <ele>802.59997558594</ele>
        <time>2022-04-28T16:07:17.621Z</time>
      </trkpt>
      <trkpt lat="44.13996" lon="6.34234">
        <ele>801.20001220703</ele>
        <time>2022-04-28T16:07:20.827Z</time>
      </trkpt>
      <trkpt lat="44.13987" lon="6.34231">
        <ele>800.59997558594</ele>
        <time>2022-04-28T16:07:24.036Z</time>
      </trkpt>
      <trkpt lat="44.13984" lon="6.3423">
        <ele>800.59997558594</ele>
        <time>2022-04-28T16:07:27.246Z</time>
      </trkpt>
      <trkpt lat="44.13972" lon="6.34234">
        <ele>800.59997558594</ele>
        <time>2022-04-28T16:07:30.460Z</time>
      </trkpt>
      <trkpt lat="44.13965" lon="6.34246">
        <ele>802.40002441406</ele>
        <time>2022-04-28T16:07:33.677Z</time>
      </trkpt>
      <trkpt lat="44.13962" lon="6.34254">
        <ele>803.40002441406</ele>
        <time>2022-04-28T16:07:36.896Z</time>
      </trkpt>
      <trkpt lat="44.13962" lon="6.3426">
        <ele>804</ele>
        <time>2022-04-28T16:07:40.117Z</time>
      </trkpt>
      <trkpt lat="44.1396" lon="6.34269">
        <ele>804.79998779297</ele>
        <time>2022-04-28T16:07:43.340Z</time>
      </trkpt>
      <trkpt lat="44.13956" lon="6.34277">
        <ele>805.59997558594</ele>
        <time>2022-04-28T16:07:46.565Z</time>
      </trkpt>
      <trkpt lat="44.13954" lon="6.34279">
        <ele>806</ele>
        <time>2022-04-28T16:07:49.791Z</time>
      </trkpt>
      <trkpt lat="44.13945" lon="6.34283">
        <ele>807.20001220703</ele>
        <time>2022-04-28T16:07:53.020Z</time>
      </trkpt>
      <trkpt lat="44.13941" lon="6.34285">
        <ele>807.79998779297</ele>
        <time>2022-04-28T16:07:56.250Z</time>
      </trkpt>
      <trkpt lat="44.13939" lon="6.34285">
        <ele>808.20001220703</ele>
        <time>2022-04-28T16:07:59.481Z</time>
      </trkpt>
      <trkpt lat="44.13936" lon="6.34286">
        <ele>809</ele>
        <time>2022-04-28T16:08:02.713Z</time>
      </trkpt>
      <trkpt lat="44.13935" lon="6.34287">
        <ele>809.20001220703</ele>
        <time>2022-04-28T16:08:05.945Z</time>
      </trkpt>
      <trkpt lat="44.13928" lon="6.3429">
        <ele>810.40002441406</ele>
        <time>2022-04-28T16:08:09.179Z</time>
      </trkpt>
      <trkpt lat="44.13927" lon="6.34291">
        <ele>810.59997558594</ele>
        <time>2022-04-28T16:08:12.414Z</time>
      </trkpt>
      <trkpt lat="44.13921" lon="6.3429">
        <ele>811.40002441406</ele>
        <time>2022-04-28T16:08:15.651Z</time>
      </trkpt>
      <trkpt lat="44.13916" lon="6.34291">
        <ele>811.79998779297</ele>
        <time>2022-04-28T16:08:18.889Z</time>
      </trkpt>
      <trkpt lat="44.13911" lon="6.34292">
        <ele>812.40002441406</ele>
        <time>2022-04-28T16:08:22.129Z</time>
      </trkpt>
      <trkpt lat="44.13902" lon="6.34295">
        <ele>813.59997558594</ele>
        <time>2022-04-28T16:08:25.372Z</time>
      </trkpt>
      <trkpt lat="44.139" lon="6.34296">
        <ele>814.59997558594</ele>
        <time>2022-04-28T16:08:28.616Z</time>
      </trkpt>
      <trkpt lat="44.13897" lon="6.34294">
        <ele>815.40002441406</ele>
        <time>2022-04-28T16:08:31.861Z</time>
      </trkpt>
      <trkpt lat="44.13887" lon="6.34289">
        <ele>816.40002441406</ele>
        <time>2022-04-28T16:08:35.109Z</time>
      </trkpt>
      <trkpt lat="44.13878" lon="6.34288">
        <ele>817.79998779297</ele>
        <time>2022-04-28T16:08:38.360Z</time>
      </trkpt>
      <trkpt lat="44.13873" lon="6.34286">
        <ele>818.79998779297</ele>
        <time>2022-04-28T16:08:41.612Z</time>
      </trkpt>
      <trkpt lat="44.13871" lon="6.34285">
        <ele>819</ele>
        <time>2022-04-28T16:08:44.865Z</time>
      </trkpt>
      <trkpt lat="44.13864" lon="6.34285">
        <ele>820.59997558594</ele>
        <time>2022-04-28T16:08:48.120Z</time>
      </trkpt>
      <trkpt lat="44.13862" lon="6.34285">
        <ele>821</ele>
        <time>2022-04-28T16:08:51.376Z</time>
      </trkpt>
      <trkpt lat="44.13858" lon="6.34285">
        <ele>821.79998779297</ele>
        <time>2022-04-28T16:08:54.633Z</time>
      </trkpt>
      <trkpt lat="44.1385" lon="6.34287">
        <ele>823</ele>
        <time>2022-04-28T16:08:57.893Z</time>
      </trkpt>
      <trkpt lat="44.13845" lon="6.34287">
        <ele>823.79998779297</ele>
        <time>2022-04-28T16:09:01.154Z</time>
      </trkpt>
      <trkpt lat="44.13844" lon="6.34287">
        <ele>824</ele>
        <time>2022-04-28T16:09:04.416Z</time>
      </trkpt>
      <trkpt lat="44.13843" lon="6.34287">
        <ele>824.20001220703</ele>
        <time>2022-04-28T16:09:07.678Z</time>
      </trkpt>
      <trkpt lat="44.1384" lon="6.34288">
        <ele>824.79998779297</ele>
        <time>2022-04-28T16:09:10.941Z</time>
      </trkpt>
      <trkpt lat="44.13839" lon="6.34288">
        <ele>825</ele>
        <time>2022-04-28T16:09:14.204Z</time>
      </trkpt>
      <trkpt lat="44.13839" lon="6.34289">
        <ele>825.20001220703</ele>
        <time>2022-04-28T16:09:17.467Z</time>
      </trkpt>
      <trkpt lat="44.13832" lon="6.34289">
        <ele>825.20001220703</ele>
        <time>2022-04-28T16:09:20.733Z</time>
      </trkpt>
      <trkpt lat="44.1383" lon="6.34289">
        <ele>825.20001220703</ele>
        <time>2022-04-28T16:09:23.999Z</time>
      </trkpt>
      <trkpt lat="44.13823" lon="6.34288">
        <ele>825.79998779297</ele>
        <time>2022-04-28T16:09:27.267Z</time>
      </trkpt>
      <trkpt lat="44.13817" lon="6.34286">
        <ele>826.59997558594</ele>
        <time>2022-04-28T16:09:30.537Z</time>
      </trkpt>
      <trkpt lat="44.13815" lon="6.34286">
        <ele>826.79998779297</ele>
        <time>2022-04-28T16:09:33.808Z</time>
      </trkpt>
      <trkpt lat="44.13801" lon="6.34285">
        <ele>827.59997558594</ele>
        <time>2022-04-28T16:09:37.083Z</time>
      </trkpt>
      <trkpt lat="44.13799" lon="6.34285">
        <ele>827.79998779297</ele>
        <time>2022-04-28T16:09:40.359Z</time>
      </trkpt>
      <trkpt lat="44.13789" lon="6.34285">
        <ele>829</ele>
        <time>2022-04-28T16:09:43.638Z</time>
      </trkpt>
      <trkpt lat="44.1378" lon="6.34284">
        <ele>830</ele>
        <time>2022-04-28T16:09:46.920Z</time>
      </trkpt>
      <trkpt lat="44.13774" lon="6.34282">
        <ele>830.59997558594</ele>
        <time>2022-04-28T16:09:50.204Z</time>
      </trkpt>
      <trkpt lat="44.1377" lon="6.3428">
        <ele>831.20001220703</ele>
        <time>2022-04-28T16:09:53.490Z</time>
      </trkpt>
      <trkpt lat="44.13761" lon="6.34277">
        <ele>832.40002441406</ele>
        <time>2022-04-28T16:09:56.778Z</time>
      </trkpt>
      <trkpt lat="44.13757" lon="6.34275">
        <ele>832.79998779297</ele>
        <time>2022-04-28T16:10:00.068Z</time>
      </trkpt>
      <trkpt lat="44.13754" lon="6.34274">
        <ele>833.40002441406</ele>
        <time>2022-04-28T16:10:03.359Z</time>
      </trkpt>
      <trkpt lat="44.13747" lon="6.3427">
        <ele>834.79998779297</ele>
        <time>2022-04-28T16:10:06.652Z</time>
      </trkpt>
      <trkpt lat="44.13742" lon="6.34268">
        <ele>835.59997558594</ele>
        <time>2022-04-28T16:10:09.947Z</time>
      </trkpt>
      <trkpt lat="44.13739" lon="6.34267">
        <ele>835.79998779297</ele>
        <time>2022-04-28T16:10:13.243Z</time>
      </trkpt>
      <trkpt lat="44.13732" lon="6.34264">
        <ele>836.79998779297</ele>
        <time>2022-04-28T16:10:16.541Z</time>
      </trkpt>
      <trkpt lat="44.13729" lon="6.34262">
        <ele>837.40002441406</ele>
        <time>2022-04-28T16:10:19.840Z</time>
      </trkpt>
      <trkpt lat="44.13724" lon="6.34261">
        <ele>838</ele>
        <time>2022-04-28T16:10:23.141Z</time>
      </trkpt>
      <trkpt lat="44.13715" lon="6.3426">
        <ele>839.20001220703</ele>
        <time>2022-04-28T16:10:26.445Z</time>
      </trkpt>
      <trkpt lat="44.13712" lon="6.3426">
        <ele>839.59997558594</ele>
        <time>2022-04-28T16:10:29.749Z</time>
      </trkpt>
      <trkpt lat="44.13706" lon="6.34259">
        <ele>840.59997558594</ele>
        <time>2022-04-28T16:10:33.055Z</time>
      </trkpt>
      <trkpt lat="44.137" lon="6.3426">
        <ele>841.79998779297</ele>
        <time>2022-04-28T16:10:36.363Z</time>
      </trkpt>
      <trkpt lat="44.13691" lon="6.34261">
        <ele>843.20001220703</ele>
        <time>2022-04-28T16:10:39.674Z</time>
      </trkpt>
      <trkpt lat="44.13685" lon="6.34263">
        <ele>844.40002441406</ele>
        <time>2022-04-28T16:10:42.987Z</time>
      </trkpt>
      <trkpt lat="44.13681" lon="6.34264">
        <ele>845.40002441406</ele>
        <time>2022-04-28T16:10:46.301Z</time>
      </trkpt>
      <trkpt lat="44.13674" lon="6.34267">
        <ele>846.59997558594</ele>
        <time>2022-04-28T16:10:49.618Z</time>
      </trkpt>
      <trkpt lat="44.13669" lon="6.3427">
        <ele>847.59997558594</ele>
        <time>2022-04-28T16:10:52.937Z</time>
      </trkpt>
      <trkpt lat="44.13664" lon="6.34272">
        <ele>848.59997558594</ele>
        <time>2022-04-28T16:10:56.257Z</time>
      </trkpt>
      <trkpt lat="44.13663" lon="6.34273">
        <ele>849</ele>
        <time>2022-04-28T16:10:59.578Z</time>
      </trkpt>
      <trkpt lat="44.13657" lon="6.34278">
        <ele>850</ele>
        <time>2022-04-28T16:11:02.901Z</time>
      </trkpt>
      <trkpt lat="44.13651" lon="6.34281">
        <ele>850.79998779297</ele>
        <time>2022-04-28T16:11:06.226Z</time>
      </trkpt>
      <trkpt lat="44.13649" lon="6.34282">
        <ele>851</ele>
        <time>2022-04-28T16:11:09.551Z</time>
      </trkpt>
      <trkpt lat="44.13639" lon="6.3429">
        <ele>851.79998779297</ele>
        <time>2022-04-28T16:11:12.880Z</time>
      </trkpt>
      <trkpt lat="44.13632" lon="6.34297">
        <ele>852.79998779297</ele>
        <time>2022-04-28T16:11:16.212Z</time>
      </trkpt>
      <trkpt lat="44.1363" lon="6.34299">
        <ele>853.20001220703</ele>
        <time>2022-04-28T16:11:19.544Z</time>
      </trkpt>
      <trkpt lat="44.13624" lon="6.34306">
        <ele>854.20001220703</ele>
        <time>2022-04-28T16:11:22.879Z</time>
      </trkpt>
      <trkpt lat="44.13619" lon="6.34314">
        <ele>855.20001220703</ele>
        <time>2022-04-28T16:11:26.216Z</time>
      </trkpt>
      <trkpt lat="44.13604" lon="6.34331">
        <ele>856.20001220703</ele>
        <time>2022-04-28T16:11:29.560Z</time>
      </trkpt>
      <trkpt lat="44.13602" lon="6.34333">
        <ele>856.40002441406</ele>
        <time>2022-04-28T16:11:32.904Z</time>
      </trkpt>
      <trkpt lat="44.13586" lon="6.34345">
        <ele>857</ele>
        <time>2022-04-28T16:11:36.254Z</time>
      </trkpt>
      <trkpt lat="44.13583" lon="6.34346">
        <ele>857</ele>
        <time>2022-04-28T16:11:39.605Z</time>
      </trkpt>
      <trkpt lat="44.13579" lon="6.34345">
        <ele>857</ele>
        <time>2022-04-28T16:11:42.957Z</time>
      </trkpt>
      <trkpt lat="44.13569" lon="6.34344">
        <ele>857.20001220703</ele>
        <time>2022-04-28T16:11:46.313Z</time>
      </trkpt>
      <trkpt lat="44.13556" lon="6.34335">
        <ele>856.79998779297</ele>
        <time>2022-04-28T16:11:49.673Z</time>
      </trkpt>
      <trkpt lat="44.13552" lon="6.34329">
        <ele>857</ele>
        <time>2022-04-28T16:11:53.035Z</time>
      </trkpt>
      <trkpt lat="44.13542" lon="6.34316">
        <ele>857.59997558594</ele>
        <time>2022-04-28T16:11:56.401Z</time>
      </trkpt>
      <trkpt lat="44.13534" lon="6.34311">
        <ele>858</ele>
        <time>2022-04-28T16:11:59.770Z</time>
      </trkpt>
      <trkpt lat="44.13527" lon="6.34308">
        <ele>859</ele>
        <time>2022-04-28T16:12:03.141Z</time>
      </trkpt>
      <trkpt lat="44.13515" lon="6.34302">
        <ele>860.40002441406</ele>
        <time>2022-04-28T16:12:06.517Z</time>
      </trkpt>
      <trkpt lat="44.13508" lon="6.34298">
        <ele>861.40002441406</ele>
        <time>2022-04-28T16:12:09.895Z</time>
      </trkpt>
      <trkpt lat="44.13504" lon="6.34294">
        <ele>862</ele>
        <time>2022-04-28T16:12:13.274Z</time>
      </trkpt>
      <trkpt lat="44.13501" lon="6.3429">
        <ele>862.59997558594</ele>
        <time>2022-04-28T16:12:16.655Z</time>
      </trkpt>
      <trkpt lat="44.13494" lon="6.34284">
        <ele>863.59997558594</ele>
        <time>2022-04-28T16:12:20.038Z</time>
      </trkpt>
      <trkpt lat="44.13489" lon="6.3428">
        <ele>864.20001220703</ele>
        <time>2022-04-28T16:12:23.423Z</time>
      </trkpt>
      <trkpt lat="44.13482" lon="6.34274">
        <ele>864.79998779297</ele>
        <time>2022-04-28T16:12:26.811Z</time>
      </trkpt>
      <trkpt lat="44.13474" lon="6.34271">
        <ele>865.59997558594</ele>
        <time>2022-04-28T16:12:30.201Z</time>
      </trkpt>
      <trkpt lat="44.13471" lon="6.3427">
        <ele>866</ele>
        <time>2022-04-28T16:12:33.592Z</time>
      </trkpt>
      <trkpt lat="44.13462" lon="6.34269">
        <ele>866</ele>
        <time>2022-04-28T16:12:36.986Z</time>
      </trkpt>
      <trkpt lat="44.13458" lon="6.34268">
        <ele>865.79998779297</ele>
        <time>2022-04-28T16:12:40.381Z</time>
      </trkpt>
      <trkpt lat="44.13448" lon="6.34259">
        <ele>865.20001220703</ele>
        <time>2022-04-28T16:12:43.780Z</time>
      </trkpt>
      <trkpt lat="44.13444" lon="6.34256">
        <ele>865</ele>
        <time>2022-04-28T16:12:47.181Z</time>
      </trkpt>
      <trkpt lat="44.13439" lon="6.34253">
        <ele>864.40002441406</ele>
        <time>2022-04-28T16:12:50.583Z</time>
      </trkpt>
      <trkpt lat="44.13425" lon="6.34239">
        <ele>863.20001220703</ele>
        <time>2022-04-28T16:12:53.991Z</time>
      </trkpt>
      <trkpt lat="44.13419" lon="6.34235">
        <ele>863</ele>
        <time>2022-04-28T16:12:57.401Z</time>
      </trkpt>
      <trkpt lat="44.13407" lon="6.34227">
        <ele>861.79998779297</ele>
        <time>2022-04-28T16:13:00.815Z</time>
      </trkpt>
      <trkpt lat="44.13389" lon="6.34218">
        <ele>860.59997558594</ele>
        <time>2022-04-28T16:13:04.235Z</time>
      </trkpt>
      <trkpt lat="44.13383" lon="6.34215">
        <ele>860</ele>
        <time>2022-04-28T16:13:07.657Z</time>
      </trkpt>
      <trkpt lat="44.1337" lon="6.3421">
        <ele>858.79998779297</ele>
        <time>2022-04-28T16:13:11.084Z</time>
      </trkpt>
      <trkpt lat="44.13365" lon="6.34206">
        <ele>858.20001220703</ele>
        <time>2022-04-28T16:13:14.512Z</time>
      </trkpt>
      <trkpt lat="44.13361" lon="6.34201">
        <ele>857.59997558594</ele>
        <time>2022-04-28T16:13:17.942Z</time>
      </trkpt>
      <trkpt lat="44.13357" lon="6.34195">
        <ele>857.20001220703</ele>
        <time>2022-04-28T16:13:21.374Z</time>
      </trkpt>
      <trkpt lat="44.13352" lon="6.34179">
        <ele>856.20001220703</ele>
        <time>2022-04-28T16:13:24.810Z</time>
      </trkpt>
      <trkpt lat="44.13351" lon="6.34164">
        <ele>855.59997558594</ele>
        <time>2022-04-28T16:13:28.249Z</time>
      </trkpt>
      <trkpt lat="44.13354" lon="6.34153">
        <ele>855.20001220703</ele>
        <time>2022-04-28T16:13:31.691Z</time>
      </trkpt>
      <trkpt lat="44.13357" lon="6.34148">
        <ele>855.20001220703</ele>
        <time>2022-04-28T16:13:35.135Z</time>
      </trkpt>
      <trkpt lat="44.13359" lon="6.34143">
        <ele>855.20001220703</ele>
        <time>2022-04-28T16:13:38.580Z</time>
      </trkpt>
      <trkpt lat="44.13377" lon="6.3411">
        <ele>856</ele>
        <time>2022-04-28T16:13:42.034Z</time>
      </trkpt>
      <trkpt lat="44.13381" lon="6.34103">
        <ele>856.20001220703</ele>
        <time>2022-04-28T16:13:45.490Z</time>
      </trkpt>
      <trkpt lat="44.13397" lon="6.34084">
        <ele>856.79998779297</ele>
        <time>2022-04-28T16:13:48.953Z</time>
      </trkpt>
      <trkpt lat="44.13403" lon="6.34077">
        <ele>857</ele>
        <time>2022-04-28T16:13:52.418Z</time>
      </trkpt>
      <trkpt lat="44.13418" lon="6.34062">
        <ele>858.20001220703</ele>
        <time>2022-04-28T16:13:55.889Z</time>
      </trkpt>
      <trkpt lat="44.1342" lon="6.34059">
        <ele>858.40002441406</ele>
        <time>2022-04-28T16:13:59.361Z</time>
      </trkpt>
      <trkpt lat="44.13438" lon="6.34042">
        <ele>859.20001220703</ele>
        <time>2022-04-28T16:14:02.840Z</time>
      </trkpt>
      <trkpt lat="44.13441" lon="6.34039">
        <ele>859.40002441406</ele>
        <time>2022-04-28T16:14:06.320Z</time>
      </trkpt>
      <trkpt lat="44.13449" lon="6.3403">
        <ele>860.40002441406</ele>
        <time>2022-04-28T16:14:09.804Z</time>
      </trkpt>
      <trkpt lat="44.1346" lon="6.34018">
        <ele>861.40002441406</ele>
        <time>2022-04-28T16:14:13.292Z</time>
      </trkpt>
      <trkpt lat="44.13467" lon="6.3401">
        <ele>862.20001220703</ele>
        <time>2022-04-28T16:14:16.783Z</time>
      </trkpt>
      <trkpt lat="44.13473" lon="6.34002">
        <ele>862.59997558594</ele>
        <time>2022-04-28T16:14:20.277Z</time>
      </trkpt>
      <trkpt lat="44.13483" lon="6.33988">
        <ele>863.20001220703</ele>
        <time>2022-04-28T16:14:23.775Z</time>
      </trkpt>
      <trkpt lat="44.13491" lon="6.33973">
        <ele>863.79998779297</ele>
        <time>2022-04-28T16:14:27.277Z</time>
      </trkpt>
      <trkpt lat="44.13497" lon="6.33961">
        <ele>864.40002441406</ele>
        <time>2022-04-28T16:14:30.783Z</time>
      </trkpt>
      <trkpt lat="44.135" lon="6.33952">
        <ele>865</ele>
        <time>2022-04-28T16:14:34.291Z</time>
      </trkpt>
      <trkpt lat="44.13505" lon="6.33934">
        <ele>866</ele>
        <time>2022-04-28T16:14:37.803Z</time>
      </trkpt>
      <trkpt lat="44.13517" lon="6.33915">
        <ele>867</ele>
        <time>2022-04-28T16:14:41.321Z</time>
      </trkpt>
      <trkpt lat="44.13519" lon="6.33911">
        <ele>867.20001220703</ele>
        <time>2022-04-28T16:14:44.840Z</time>
      </trkpt>
      <trkpt lat="44.13528" lon="6.33895">
        <ele>868.20001220703</ele>
        <time>2022-04-28T16:14:48.364Z</time>
      </trkpt>
      <trkpt lat="44.13539" lon="6.33878">
        <ele>868.20001220703</ele>
        <time>2022-04-28T16:14:51.893Z</time>
      </trkpt>
      <trkpt lat="44.13542" lon="6.33875">
        <ele>868.20001220703</ele>
        <time>2022-04-28T16:14:55.423Z</time>
      </trkpt>
      <trkpt lat="44.13556" lon="6.33862">
        <ele>868.20001220703</ele>
        <time>2022-04-28T16:14:58.959Z</time>
      </trkpt>
      <trkpt lat="44.13582" lon="6.33846">
        <ele>867.79998779297</ele>
        <time>2022-04-28T16:15:02.504Z</time>
      </trkpt>
      <trkpt lat="44.13604" lon="6.33824">
        <ele>867.59997558594</ele>
        <time>2022-04-28T16:15:06.057Z</time>
      </trkpt>
      <trkpt lat="44.13631" lon="6.33788">
        <ele>867.40002441406</ele>
        <time>2022-04-28T16:15:09.622Z</time>
      </trkpt>
      <trkpt lat="44.1366" lon="6.33762">
        <ele>866.79998779297</ele>
        <time>2022-04-28T16:15:13.198Z</time>
      </trkpt>
      <trkpt lat="44.13665" lon="6.33743">
        <ele>867</ele>
        <time>2022-04-28T16:15:16.779Z</time>
      </trkpt>
      <trkpt lat="44.1366" lon="6.33723">
        <ele>867.40002441406</ele>
        <time>2022-04-28T16:15:20.365Z</time>
      </trkpt>
      <trkpt lat="44.13658" lon="6.33717">
        <ele>867.40002441406</ele>
        <time>2022-04-28T16:15:23.952Z</time>
      </trkpt>
      <trkpt lat="44.13652" lon="6.33706">
        <ele>867.59997558594</ele>
        <time>2022-04-28T16:15:27.542Z</time>
      </trkpt>
      <trkpt lat="44.13641" lon="6.33693">
        <ele>867.79998779297</ele>
        <time>2022-04-28T16:15:31.137Z</time>
      </trkpt>
      <trkpt lat="44.13631" lon="6.33687">
        <ele>867.59997558594</ele>
        <time>2022-04-28T16:15:34.735Z</time>
      </trkpt>
      <trkpt lat="44.13612" lon="6.33678">
        <ele>867</ele>
        <time>2022-04-28T16:15:38.340Z</time>
      </trkpt>
      <trkpt lat="44.13604" lon="6.33665">
        <ele>867</ele>
        <time>2022-04-28T16:15:41.949Z</time>
      </trkpt>
      <trkpt lat="44.13604" lon="6.33653">
        <ele>867.20001220703</ele>
        <time>2022-04-28T16:15:45.560Z</time>
      </trkpt>
      <trkpt lat="44.13605" lon="6.33641">
        <ele>867.40002441406</ele>
        <time>2022-04-28T16:15:49.174Z</time>
      </trkpt>
      <trkpt lat="44.13605" lon="6.33613">
        <ele>868.59997558594</ele>
        <time>2022-04-28T16:15:52.795Z</time>
      </trkpt>
      <trkpt lat="44.13604" lon="6.33596">
        <ele>869.79998779297</ele>
        <time>2022-04-28T16:15:56.419Z</time>
      </trkpt>
      <trkpt lat="44.13601" lon="6.33575">
        <ele>871</ele>
        <time>2022-04-28T16:16:00.048Z</time>
      </trkpt>
      <trkpt lat="44.13597" lon="6.3356">
        <ele>871.59997558594</ele>
        <time>2022-04-28T16:16:03.681Z</time>
      </trkpt>
      <trkpt lat="44.13595" lon="6.33555">
        <ele>871.79998779297</ele>
        <time>2022-04-28T16:16:07.315Z</time>
      </trkpt>
      <trkpt lat="44.13587" lon="6.33546">
        <ele>872.79998779297</ele>
        <time>2022-04-28T16:16:10.953Z</time>
      </trkpt>
      <trkpt lat="44.13584" lon="6.33544">
        <ele>873</ele>
        <time>2022-04-28T16:16:14.592Z</time>
      </trkpt>
      <trkpt lat="44.13563" lon="6.33538">
        <ele>874</ele>
        <time>2022-04-28T16:16:18.238Z</time>
      </trkpt>
      <trkpt lat="44.13559" lon="6.33538">
        <ele>874.40002441406</ele>
        <time>2022-04-28T16:16:21.885Z</time>
      </trkpt>
      <trkpt lat="44.13543" lon="6.33539">
        <ele>875.40002441406</ele>
        <time>2022-04-28T16:16:25.537Z</time>
      </trkpt>
      <trkpt lat="44.1354" lon="6.33539">
        <ele>876</ele>
        <time>2022-04-28T16:16:29.190Z</time>
      </trkpt>
      <trkpt lat="44.13534" lon="6.33536">
        <ele>876.79998779297</ele>
        <time>2022-04-28T16:16:32.845Z</time>
      </trkpt>
      <trkpt lat="44.13525" lon="6.33533">
        <ele>878</ele>
        <time>2022-04-28T16:16:36.503Z</time>
      </trkpt>
      <trkpt lat="44.13519" lon="6.33532">
        <ele>878.79998779297</ele>
        <time>2022-04-28T16:16:40.162Z</time>
      </trkpt>
      <trkpt lat="44.13517" lon="6.33532">
        <ele>879.40002441406</ele>
        <time>2022-04-28T16:16:43.822Z</time>
      </trkpt>
      <trkpt lat="44.13505" lon="6.33532">
        <ele>880.59997558594</ele>
        <time>2022-04-28T16:16:47.486Z</time>
      </trkpt>
      <trkpt lat="44.13499" lon="6.33532">
        <ele>881.40002441406</ele>
        <time>2022-04-28T16:16:51.152Z</time>
      </trkpt>
      <trkpt lat="44.13496" lon="6.33533">
        <ele>881.79998779297</ele>
        <time>2022-04-28T16:16:54.819Z</time>
      </trkpt>
      <trkpt lat="44.13487" lon="6.33534">
        <ele>883</ele>
        <time>2022-04-28T16:16:58.489Z</time>
      </trkpt>
      <trkpt lat="44.13475" lon="6.33535">
        <ele>883.79998779297</ele>
        <time>2022-04-28T16:17:02.163Z</time>
      </trkpt>
      <trkpt lat="44.13472" lon="6.33536">
        <ele>884.20001220703</ele>
        <time>2022-04-28T16:17:05.837Z</time>
      </trkpt>
      <trkpt lat="44.13464" lon="6.33537">
        <ele>885.40002441406</ele>
        <time>2022-04-28T16:17:09.514Z</time>
      </trkpt>
      <trkpt lat="44.13455" lon="6.33537">
        <ele>886.20001220703</ele>
        <time>2022-04-28T16:17:13.194Z</time>
      </trkpt>
      <trkpt lat="44.13452" lon="6.33537">
        <ele>886.59997558594</ele>
        <time>2022-04-28T16:17:16.875Z</time>
      </trkpt>
      <trkpt lat="44.13441" lon="6.33536">
        <ele>888</ele>
        <time>2022-04-28T16:17:20.559Z</time>
      </trkpt>
      <trkpt lat="44.13432" lon="6.33537">
        <ele>889.20001220703</ele>
        <time>2022-04-28T16:17:24.246Z</time>
      </trkpt>
      <trkpt lat="44.13424" lon="6.33539">
        <ele>890.20001220703</ele>
        <time>2022-04-28T16:17:27.936Z</time>
      </trkpt>
      <trkpt lat="44.13416" lon="6.33543">
        <ele>891.20001220703</ele>
        <time>2022-04-28T16:17:31.628Z</time>
      </trkpt>
      <trkpt lat="44.13414" lon="6.33544">
        <ele>891.59997558594</ele>
        <time>2022-04-28T16:17:35.321Z</time>
      </trkpt>
      <trkpt lat="44.13407" lon="6.33549">
        <ele>892.59997558594</ele>
        <time>2022-04-28T16:17:39.017Z</time>
      </trkpt>
      <trkpt lat="44.13401" lon="6.33551">
        <ele>893.40002441406</ele>
        <time>2022-04-28T16:17:42.714Z</time>
      </trkpt>
      <trkpt lat="44.13399" lon="6.33552">
        <ele>893.79998779297</ele>
        <time>2022-04-28T16:17:46.412Z</time>
      </trkpt>
      <trkpt lat="44.13388" lon="6.33557">
        <ele>895.20001220703</ele>
        <time>2022-04-28T16:17:50.114Z</time>
      </trkpt>
      <trkpt lat="44.13379" lon="6.3356">
        <ele>896.20001220703</ele>
        <time>2022-04-28T16:17:53.819Z</time>
      </trkpt>
      <trkpt lat="44.13372" lon="6.33564">
        <ele>897.40002441406</ele>
        <time>2022-04-28T16:17:57.526Z</time>
      </trkpt>
      <trkpt lat="44.13363" lon="6.33567">
        <ele>898.20001220703</ele>
        <time>2022-04-28T16:18:01.236Z</time>
      </trkpt>
      <trkpt lat="44.13361" lon="6.33567">
        <ele>898.59997558594</ele>
        <time>2022-04-28T16:18:04.947Z</time>
      </trkpt>
      <trkpt lat="44.1335" lon="6.33565">
        <ele>900</ele>
        <time>2022-04-28T16:18:08.661Z</time>
      </trkpt>
      <trkpt lat="44.13344" lon="6.33563">
        <ele>900.59997558594</ele>
        <time>2022-04-28T16:18:12.377Z</time>
      </trkpt>
      <trkpt lat="44.13342" lon="6.33562">
        <ele>900.79998779297</ele>
        <time>2022-04-28T16:18:16.094Z</time>
      </trkpt>
      <trkpt lat="44.13332" lon="6.33557">
        <ele>902.20001220703</ele>
        <time>2022-04-28T16:18:19.814Z</time>
      </trkpt>
      <trkpt lat="44.13327" lon="6.33556">
        <ele>902.79998779297</ele>
        <time>2022-04-28T16:18:23.536Z</time>
      </trkpt>
      <trkpt lat="44.13324" lon="6.33555">
        <ele>903.20001220703</ele>
        <time>2022-04-28T16:18:27.259Z</time>
      </trkpt>
      <trkpt lat="44.13322" lon="6.33555">
        <ele>903.59997558594</ele>
        <time>2022-04-28T16:18:30.983Z</time>
      </trkpt>
      <trkpt lat="44.13316" lon="6.33556">
        <ele>904.20001220703</ele>
        <time>2022-04-28T16:18:34.709Z</time>
      </trkpt>
      <trkpt lat="44.13313" lon="6.33557">
        <ele>904.79998779297</ele>
        <time>2022-04-28T16:18:38.435Z</time>
      </trkpt>
      <trkpt lat="44.13308" lon="6.33558">
        <ele>905.40002441406</ele>
        <time>2022-04-28T16:18:42.163Z</time>
      </trkpt>
      <trkpt lat="44.13296" lon="6.33559">
        <ele>906.40002441406</ele>
        <time>2022-04-28T16:18:45.895Z</time>
      </trkpt>
      <trkpt lat="44.13288" lon="6.33552">
        <ele>907.40002441406</ele>
        <time>2022-04-28T16:18:49.630Z</time>
      </trkpt>
      <trkpt lat="44.13282" lon="6.3354">
        <ele>908.59997558594</ele>
        <time>2022-04-28T16:18:53.368Z</time>
      </trkpt>
      <trkpt lat="44.13278" lon="6.33536">
        <ele>909.20001220703</ele>
        <time>2022-04-28T16:18:57.108Z</time>
      </trkpt>
      <trkpt lat="44.13274" lon="6.33539">
        <ele>910</ele>
        <time>2022-04-28T16:19:00.849Z</time>
      </trkpt>
      <trkpt lat="44.13273" lon="6.33543">
        <ele>910.20001220703</ele>
        <time>2022-04-28T16:19:04.591Z</time>
      </trkpt>
      <trkpt lat="44.13276" lon="6.3356">
        <ele>911</ele>
        <time>2022-04-28T16:19:08.337Z</time>
      </trkpt>
      <trkpt lat="44.13277" lon="6.33564">
        <ele>911.40002441406</ele>
        <time>2022-04-28T16:19:12.084Z</time>
      </trkpt>
      <trkpt lat="44.13286" lon="6.3358">
        <ele>912.20001220703</ele>
        <time>2022-04-28T16:19:15.836Z</time>
      </trkpt>
      <trkpt lat="44.13288" lon="6.33582">
        <ele>912.59997558594</ele>
        <time>2022-04-28T16:19:19.588Z</time>
      </trkpt>
      <trkpt lat="44.13296" lon="6.33587">
        <ele>913.40002441406</ele>
        <time>2022-04-28T16:19:23.343Z</time>
      </trkpt>
      <trkpt lat="44.13304" lon="6.33591">
        <ele>914</ele>
        <time>2022-04-28T16:19:27.101Z</time>
      </trkpt>
      <trkpt lat="44.13309" lon="6.33593">
        <ele>914.59997558594</ele>
        <time>2022-04-28T16:19:30.861Z</time>
      </trkpt>
      <trkpt lat="44.13318" lon="6.33596">
        <ele>915.79998779297</ele>
        <time>2022-04-28T16:19:34.623Z</time>
      </trkpt>
      <trkpt lat="44.13323" lon="6.33599">
        <ele>916.40002441406</ele>
        <time>2022-04-28T16:19:38.387Z</time>
      </trkpt>
      <trkpt lat="44.13327" lon="6.33605">
        <ele>916.79998779297</ele>
        <time>2022-04-28T16:19:42.153Z</time>
      </trkpt>
      <trkpt lat="44.13333" lon="6.33613">
        <ele>917.79998779297</ele>
        <time>2022-04-28T16:19:45.922Z</time>
      </trkpt>
      <trkpt lat="44.13339" lon="6.33621">
        <ele>918.40002441406</ele>
        <time>2022-04-28T16:19:49.693Z</time>
      </trkpt>
      <trkpt lat="44.13344" lon="6.33626">
        <ele>919.20001220703</ele>
        <time>2022-04-28T16:19:53.466Z</time>
      </trkpt>
      <trkpt lat="44.13351" lon="6.33632">
        <ele>920.40002441406</ele>
        <time>2022-04-28T16:19:57.242Z</time>
      </trkpt>
      <trkpt lat="44.13356" lon="6.33635">
        <ele>921</ele>
        <time>2022-04-28T16:20:01.020Z</time>
      </trkpt>
      <trkpt lat="44.13362" lon="6.33637">
        <ele>921.79998779297</ele>
        <time>2022-04-28T16:20:04.800Z</time>
      </trkpt>
      <trkpt lat="44.13372" lon="6.33642">
        <ele>922.79998779297</ele>
        <time>2022-04-28T16:20:08.583Z</time>
      </trkpt>
      <trkpt lat="44.1338" lon="6.33645">
        <ele>923.59997558594</ele>
        <time>2022-04-28T16:20:12.369Z</time>
      </trkpt>
      <trkpt lat="44.13383" lon="6.33646">
        <ele>923.79998779297</ele>
        <time>2022-04-28T16:20:16.156Z</time>
      </trkpt>
      <trkpt lat="44.13393" lon="6.3365">
        <ele>925.20001220703</ele>
        <time>2022-04-28T16:20:19.946Z</time>
      </trkpt>
      <trkpt lat="44.13404" lon="6.33653">
        <ele>926.40002441406</ele>
        <time>2022-04-28T16:20:23.739Z</time>
      </trkpt>
      <trkpt lat="44.13412" lon="6.33655">
        <ele>927.40002441406</ele>
        <time>2022-04-28T16:20:27.535Z</time>
      </trkpt>
      <trkpt lat="44.1342" lon="6.33656">
        <ele>928.40002441406</ele>
        <time>2022-04-28T16:20:31.333Z</time>
      </trkpt>
      <trkpt lat="44.13427" lon="6.33658">
        <ele>929.20001220703</ele>
        <time>2022-04-28T16:20:35.134Z</time>
      </trkpt>
      <trkpt lat="44.1343" lon="6.33658">
        <ele>929.40002441406</ele>
        <time>2022-04-28T16:20:38.936Z</time>
      </trkpt>
      <trkpt lat="44.13438" lon="6.3366">
        <ele>930.40002441406</ele>
        <time>2022-04-28T16:20:42.740Z</time>
      </trkpt>
      <trkpt lat="44.13446" lon="6.33663">
        <ele>931.59997558594</ele>
        <time>2022-04-28T16:20:46.547Z</time>
      </trkpt>
      <trkpt lat="44.13453" lon="6.33672">
        <ele>932.79998779297</ele>
        <time>2022-04-28T16:20:50.357Z</time>
      </trkpt>
      <trkpt lat="44.13454" lon="6.33675">
        <ele>933</ele>
        <time>2022-04-28T16:20:54.168Z</time>
      </trkpt>
      <trkpt lat="44.13452" lon="6.33686">
        <ele>933.40002441406</ele>
        <time>2022-04-28T16:20:57.981Z</time>
      </trkpt>
      <trkpt lat="44.1345" lon="6.33688">
        <ele>933.59997558594</ele>
        <time>2022-04-28T16:21:01.795Z</time>
      </trkpt>
      <trkpt lat="44.13445" lon="6.3369">
        <ele>933.79998779297</ele>
        <time>2022-04-28T16:21:05.611Z</time>
      </trkpt>
      <trkpt lat="44.13443" lon="6.3369">
        <ele>934.40002441406</ele>
        <time>2022-04-28T16:21:09.428Z</time>
      </trkpt>
      <trkpt lat="44.13437" lon="6.33691">
        <ele>934.79998779297</ele>
        <time>2022-04-28T16:21:13.246Z</time>
      </trkpt>
      <trkpt lat="44.13435" lon="6.33691">
        <ele>935</ele>
        <time>2022-04-28T16:21:17.065Z</time>
      </trkpt>
      <trkpt lat="44.13423" lon="6.33692">
        <ele>936.20001220703</ele>
        <time>2022-04-28T16:21:20.888Z</time>
      </trkpt>
      <trkpt lat="44.13413" lon="6.33691">
        <ele>937.40002441406</ele>
        <time>2022-04-28T16:21:24.714Z</time>
      </trkpt>
      <trkpt lat="44.13399" lon="6.3369">
        <ele>938.59997558594</ele>
        <time>2022-04-28T16:21:28.544Z</time>
      </trkpt>
      <trkpt lat="44.13391" lon="6.3369">
        <ele>939.59997558594</ele>
        <time>2022-04-28T16:21:32.377Z</time>
      </trkpt>
      <trkpt lat="44.13388" lon="6.3369">
        <ele>939.79998779297</ele>
        <time>2022-04-28T16:21:36.211Z</time>
      </trkpt>
      <trkpt lat="44.1338" lon="6.3369">
        <ele>941</ele>
        <time>2022-04-28T16:21:40.048Z</time>
      </trkpt>
      <trkpt lat="44.13372" lon="6.3369">
        <ele>941.79998779297</ele>
        <time>2022-04-28T16:21:43.887Z</time>
      </trkpt>
      <trkpt lat="44.13369" lon="6.3369">
        <ele>942</ele>
        <time>2022-04-28T16:21:47.727Z</time>
      </trkpt>
      <trkpt lat="44.13356" lon="6.3369">
        <ele>943.20001220703</ele>
        <time>2022-04-28T16:21:51.571Z</time>
      </trkpt>
      <trkpt lat="44.13341" lon="6.33689">
        <ele>944.20001220703</ele>
        <time>2022-04-28T16:21:55.420Z</time>
      </trkpt>
      <trkpt lat="44.13324" lon="6.33687">
        <ele>945.40002441406</ele>
        <time>2022-04-28T16:21:59.274Z</time>
      </trkpt>
      <trkpt lat="44.13318" lon="6.33686">
        <ele>945.79998779297</ele>
        <time>2022-04-28T16:22:03.130Z</time>
      </trkpt>
      <trkpt lat="44.13306" lon="6.33685">
        <ele>946.40002441406</ele>
        <time>2022-04-28T16:22:06.990Z</time>
      </trkpt>
      <trkpt lat="44.13288" lon="6.33685">
        <ele>947.20001220703</ele>
        <time>2022-04-28T16:22:10.856Z</time>
      </trkpt>
      <trkpt lat="44.13285" lon="6.33686">
        <ele>947.59997558594</ele>
        <time>2022-04-28T16:22:14.723Z</time>
      </trkpt>
      <trkpt lat="44.13267" lon="6.33691">
        <ele>948.40002441406</ele>
        <time>2022-04-28T16:22:18.596Z</time>
      </trkpt>
      <trkpt lat="44.13264" lon="6.33692">
        <ele>948.59997558594</ele>
        <time>2022-04-28T16:22:22.470Z</time>
      </trkpt>
      <trkpt lat="44.13253" lon="6.33695">
        <ele>949.40002441406</ele>
        <time>2022-04-28T16:22:26.347Z</time>
      </trkpt>
      <trkpt lat="44.13244" lon="6.33697">
        <ele>950.20001220703</ele>
        <time>2022-04-28T16:22:30.227Z</time>
      </trkpt>
      <trkpt lat="44.13242" lon="6.33698">
        <ele>950.59997558594</ele>
        <time>2022-04-28T16:22:34.108Z</time>
      </trkpt>
      <trkpt lat="44.13231" lon="6.33701">
        <ele>951.79998779297</ele>
        <time>2022-04-28T16:22:37.992Z</time>
      </trkpt>
      <trkpt lat="44.13224" lon="6.33703">
        <ele>952.40002441406</ele>
        <time>2022-04-28T16:22:41.879Z</time>
      </trkpt>
      <trkpt lat="44.13221" lon="6.33704">
        <ele>952.59997558594</ele>
        <time>2022-04-28T16:22:45.766Z</time>
      </trkpt>
      <trkpt lat="44.13208" lon="6.33704">
        <ele>953.59997558594</ele>
        <time>2022-04-28T16:22:49.658Z</time>
      </trkpt>
      <trkpt lat="44.13198" lon="6.33699">
        <ele>954.79998779297</ele>
        <time>2022-04-28T16:22:53.553Z</time>
      </trkpt>
      <trkpt lat="44.1319" lon="6.33696">
        <ele>955.59997558594</ele>
        <time>2022-04-28T16:22:57.451Z</time>
      </trkpt>
      <trkpt lat="44.13181" lon="6.33692">
        <ele>956</ele>
        <time>2022-04-28T16:23:01.352Z</time>
      </trkpt>
      <trkpt lat="44.13168" lon="6.33683">
        <ele>956.59997558594</ele>
        <time>2022-04-28T16:23:05.257Z</time>
      </trkpt>
      <trkpt lat="44.13165" lon="6.3368">
        <ele>956.79998779297</ele>
        <time>2022-04-28T16:23:09.163Z</time>
      </trkpt>
      <trkpt lat="44.13154" lon="6.33669">
        <ele>957.79998779297</ele>
        <time>2022-04-28T16:23:13.074Z</time>
      </trkpt>
      <trkpt lat="44.13149" lon="6.33664">
        <ele>958.40002441406</ele>
        <time>2022-04-28T16:23:16.987Z</time>
      </trkpt>
      <trkpt lat="44.13144" lon="6.3366">
        <ele>959</ele>
        <time>2022-04-28T16:23:20.901Z</time>
      </trkpt>
      <trkpt lat="44.13134" lon="6.33651">
        <ele>960</ele>
        <time>2022-04-28T16:23:24.819Z</time>
      </trkpt>
      <trkpt lat="44.13131" lon="6.33649">
        <ele>960.40002441406</ele>
        <time>2022-04-28T16:23:28.738Z</time>
      </trkpt>
      <trkpt lat="44.13118" lon="6.33645">
        <ele>961</ele>
        <time>2022-04-28T16:23:32.661Z</time>
      </trkpt>
      <trkpt lat="44.13111" lon="6.33645">
        <ele>961.40002441406</ele>
        <time>2022-04-28T16:23:36.587Z</time>
      </trkpt>
      <trkpt lat="44.13104" lon="6.33648">
        <ele>961.40002441406</ele>
        <time>2022-04-28T16:23:40.515Z</time>
      </trkpt>
      <trkpt lat="44.13091" lon="6.33653">
        <ele>961.40002441406</ele>
        <time>2022-04-28T16:23:44.447Z</time>
      </trkpt>
      <trkpt lat="44.13075" lon="6.33651">
        <ele>961.20001220703</ele>
        <time>2022-04-28T16:23:48.384Z</time>
      </trkpt>
      <trkpt lat="44.13063" lon="6.33639">
        <ele>961.59997558594</ele>
        <time>2022-04-28T16:23:52.326Z</time>
      </trkpt>
      <trkpt lat="44.1306" lon="6.33636">
        <ele>961.79998779297</ele>
        <time>2022-04-28T16:23:56.269Z</time>
      </trkpt>
      <trkpt lat="44.13058" lon="6.33633">
        <ele>962</ele>
        <time>2022-04-28T16:24:00.213Z</time>
      </trkpt>
      <trkpt lat="44.13048" lon="6.33624">
        <ele>963.40002441406</ele>
        <time>2022-04-28T16:24:04.161Z</time>
      </trkpt>
      <trkpt lat="44.13043" lon="6.3362">
        <ele>964.20001220703</ele>
        <time>2022-04-28T16:24:08.111Z</time>
      </trkpt>
      <trkpt lat="44.1304" lon="6.33618">
        <ele>964.59997558594</ele>
        <time>2022-04-28T16:24:12.062Z</time>
      </trkpt>
      <trkpt lat="44.13031" lon="6.33612">
        <ele>965.79998779297</ele>
        <time>2022-04-28T16:24:16.016Z</time>
      </trkpt>
      <trkpt lat="44.13028" lon="6.33611">
        <ele>966.20001220703</ele>
        <time>2022-04-28T16:24:19.971Z</time>
      </trkpt>
      <trkpt lat="44.13022" lon="6.33611">
        <ele>966.79998779297</ele>
        <time>2022-04-28T16:24:23.928Z</time>
      </trkpt>
      <trkpt lat="44.13009" lon="6.33611">
        <ele>967.59997558594</ele>
        <time>2022-04-28T16:24:27.889Z</time>
      </trkpt>
      <trkpt lat="44.13001" lon="6.33611">
        <ele>967.79998779297</ele>
        <time>2022-04-28T16:24:31.852Z</time>
      </trkpt>
      <trkpt lat="44.12985" lon="6.33609">
        <ele>967.40002441406</ele>
        <time>2022-04-28T16:24:35.821Z</time>
      </trkpt>
      <trkpt lat="44.12968" lon="6.33616">
        <ele>967.20001220703</ele>
        <time>2022-04-28T16:24:39.795Z</time>
      </trkpt>
      <trkpt lat="44.12958" lon="6.33631">
        <ele>967.40002441406</ele>
        <time>2022-04-28T16:24:43.774Z</time>
      </trkpt>
      <trkpt lat="44.12951" lon="6.33637">
        <ele>967.59997558594</ele>
        <time>2022-04-28T16:24:47.755Z</time>
      </trkpt>
      <trkpt lat="44.12944" lon="6.33643">
        <ele>967.79998779297</ele>
        <time>2022-04-28T16:24:51.739Z</time>
      </trkpt>
      <trkpt lat="44.12933" lon="6.33654">
        <ele>967.59997558594</ele>
        <time>2022-04-28T16:24:55.727Z</time>
      </trkpt>
      <trkpt lat="44.12924" lon="6.33648">
        <ele>967</ele>
        <time>2022-04-28T16:24:59.719Z</time>
      </trkpt>
      <trkpt lat="44.12921" lon="6.33643">
        <ele>967</ele>
        <time>2022-04-28T16:25:03.712Z</time>
      </trkpt>
      <trkpt lat="44.12916" lon="6.33638">
        <ele>968</ele>
        <time>2022-04-28T16:25:07.707Z</time>
      </trkpt>
      <trkpt lat="44.12906" lon="6.33632">
        <ele>968.40002441406</ele>
        <time>2022-04-28T16:25:11.705Z</time>
      </trkpt>
      <trkpt lat="44.12902" lon="6.33632">
        <ele>968.40002441406</ele>
        <time>2022-04-28T16:25:15.705Z</time>
      </trkpt>
      <trkpt lat="44.12879" lon="6.33642">
        <ele>967</ele>
        <time>2022-04-28T16:25:19.712Z</time>
      </trkpt>
      <trkpt lat="44.12875" lon="6.33646">
        <ele>966.20001220703</ele>
        <time>2022-04-28T16:25:23.721Z</time>
      </trkpt>
      <trkpt lat="44.1287" lon="6.33649">
        <ele>965.20001220703</ele>
        <time>2022-04-28T16:25:27.732Z</time>
      </trkpt>
      <trkpt lat="44.12865" lon="6.33652">
        <ele>964.59997558594</ele>
        <time>2022-04-28T16:25:31.744Z</time>
      </trkpt>
      <trkpt lat="44.12861" lon="6.33656">
        <ele>964</ele>
        <time>2022-04-28T16:25:35.758Z</time>
      </trkpt>
      <trkpt lat="44.12852" lon="6.33666">
        <ele>962.59997558594</ele>
        <time>2022-04-28T16:25:39.776Z</time>
      </trkpt>
      <trkpt lat="44.12846" lon="6.33671">
        <ele>962</ele>
        <time>2022-04-28T16:25:43.796Z</time>
      </trkpt>
      <trkpt lat="44.1284" lon="6.33675">
        <ele>961.40002441406</ele>
        <time>2022-04-28T16:25:47.818Z</time>
      </trkpt>
      <trkpt lat="44.12827" lon="6.33684">
        <ele>959.59997558594</ele>
        <time>2022-04-28T16:25:51.845Z</time>
      </trkpt>
      <trkpt lat="44.12822" lon="6.33689">
        <ele>959</ele>
        <time>2022-04-28T16:25:55.874Z</time>
      </trkpt>
      <trkpt lat="44.12816" lon="6.33694">
        <ele>958</ele>
        <time>2022-04-28T16:25:59.905Z</time>
      </trkpt>
      <trkpt lat="44.12809" lon="6.33698">
        <ele>956.79998779297</ele>
        <time>2022-04-28T16:26:03.938Z</time>
      </trkpt>
      <trkpt lat="44.12802" lon="6.33703">
        <ele>955.79998779297</ele>
        <time>2022-04-28T16:26:07.974Z</time>
      </trkpt>
      <trkpt lat="44.12788" lon="6.33712">
        <ele>954</ele>
        <time>2022-04-28T16:26:12.015Z</time>
      </trkpt>
      <trkpt lat="44.1278" lon="6.33716">
        <ele>953.20001220703</ele>
        <time>2022-04-28T16:26:16.058Z</time>
      </trkpt>
      <trkpt lat="44.12771" lon="6.33719">
        <ele>951.79998779297</ele>
        <time>2022-04-28T16:26:20.104Z</time>
      </trkpt>
      <trkpt lat="44.12763" lon="6.33721">
        <ele>950.79998779297</ele>
        <time>2022-04-28T16:26:24.153Z</time>
      </trkpt>
      <trkpt lat="44.12754" lon="6.33722">
        <ele>949.20001220703</ele>
        <time>2022-04-28T16:26:28.205Z</time>
      </trkpt>
      <trkpt lat="44.12748" lon="6.33724">
        <ele>948.20001220703</ele>
        <time>2022-04-28T16:26:32.259Z</time>
      </trkpt>
      <trkpt lat="44.12736" lon="6.33729">
        <ele>947</ele>
        <time>2022-04-28T16:26:36.317Z</time>
      </trkpt>
      <trkpt lat="44.12725" lon="6.33735">
        <ele>945.20001220703</ele>
        <time>2022-04-28T16:26:40.378Z</time>
      </trkpt>
      <trkpt lat="44.12721" lon="6.33738">
        <ele>944.20001220703</ele>
        <time>2022-04-28T16:26:44.441Z</time>
      </trkpt>
      <trkpt lat="44.12718" lon="6.33741">
        <ele>942.59997558594</ele>
        <time>2022-04-28T16:26:48.505Z</time>
      </trkpt>
      <trkpt lat="44.12715" lon="6.33743">
        <ele>941.59997558594</ele>
        <time>2022-04-28T16:26:52.570Z</time>
      </trkpt>
      <trkpt lat="44.12708" lon="6.33745">
        <ele>940.40002441406</ele>
        <time>2022-04-28T16:26:56.637Z</time>
      </trkpt>
      <trkpt lat="44.12706" lon="6.33744">
        <ele>940.20001220703</ele>
        <time>2022-04-28T16:27:00.705Z</time>
      </trkpt>
      <trkpt lat="44.12705" lon="6.3374">
        <ele>940</ele>
        <time>2022-04-28T16:27:04.774Z</time>
      </trkpt>
      <trkpt lat="44.12706" lon="6.33728">
        <ele>941.79998779297</ele>
        <time>2022-04-28T16:27:08.846Z</time>
      </trkpt>
      <trkpt lat="44.12708" lon="6.33717">
        <ele>943.20001220703</ele>
        <time>2022-04-28T16:27:12.920Z</time>
      </trkpt>
      <trkpt lat="44.12707" lon="6.33713">
        <ele>943.20001220703</ele>
        <time>2022-04-28T16:27:16.995Z</time>
      </trkpt>
      <trkpt lat="44.127" lon="6.33697">
        <ele>944</ele>
        <time>2022-04-28T16:27:21.075Z</time>
      </trkpt>
      <trkpt lat="44.12695" lon="6.33688">
        <ele>944.20001220703</ele>
        <time>2022-04-28T16:27:25.157Z</time>
      </trkpt>
      <trkpt lat="44.12691" lon="6.33684">
        <ele>944.59997558594</ele>
        <time>2022-04-28T16:27:29.241Z</time>
      </trkpt>
      <trkpt lat="44.12687" lon="6.33681">
        <ele>945.59997558594</ele>
        <time>2022-04-28T16:27:33.326Z</time>
      </trkpt>
      <trkpt lat="44.12683" lon="6.33678">
        <ele>946.40002441406</ele>
        <time>2022-04-28T16:27:37.413Z</time>
      </trkpt>
      <trkpt lat="44.12681" lon="6.33677">
        <ele>946.79998779297</ele>
        <time>2022-04-28T16:27:41.500Z</time>
      </trkpt>
      <trkpt lat="44.12676" lon="6.33675">
        <ele>947.20001220703</ele>
        <time>2022-04-28T16:27:45.589Z</time>
      </trkpt>
      <trkpt lat="44.12671" lon="6.33673">
        <ele>947.79998779297</ele>
        <time>2022-04-28T16:27:49.680Z</time>
      </trkpt>
      <trkpt lat="44.12669" lon="6.33671">
        <ele>948.20001220703</ele>
        <time>2022-04-28T16:27:53.771Z</time>
      </trkpt>
      <trkpt lat="44.12665" lon="6.33667">
        <ele>949</ele>
        <time>2022-04-28T16:27:57.864Z</time>
      </trkpt>
      <trkpt lat="44.12663" lon="6.33664">
        <ele>949.59997558594</ele>
        <time>2022-04-28T16:28:01.958Z</time>
      </trkpt>
      <trkpt lat="44.12659" lon="6.33658">
        <ele>950.20001220703</ele>
        <time>2022-04-28T16:28:06.054Z</time>
      </trkpt>
      <trkpt lat="44.12649" lon="6.33646">
        <ele>951.20001220703</ele>
        <time>2022-04-28T16:28:10.154Z</time>
      </trkpt>
      <trkpt lat="44.12646" lon="6.33644">
        <ele>951.40002441406</ele>
        <time>2022-04-28T16:28:14.255Z</time>
      </trkpt>
      <trkpt lat="44.12643" lon="6.33641">
        <ele>951.59997558594</ele>
        <time>2022-04-28T16:28:18.357Z</time>
      </trkpt>
      <trkpt lat="44.12626" lon="6.33626">
        <ele>951.79998779297</ele>
        <time>2022-04-28T16:28:22.466Z</time>
      </trkpt>
      <trkpt lat="44.12615" lon="6.33616">
        <ele>951.20001220703</ele>
        <time>2022-04-28T16:28:26.579Z</time>
      </trkpt>
      <trkpt lat="44.12605" lon="6.33612">
        <ele>951</ele>
        <time>2022-04-28T16:28:30.695Z</time>
      </trkpt>
      <trkpt lat="44.12582" lon="6.33603">
        <ele>950.40002441406</ele>
        <time>2022-04-28T16:28:34.819Z</time>
      </trkpt>
      <trkpt lat="44.12574" lon="6.336">
        <ele>950</ele>
        <time>2022-04-28T16:28:38.945Z</time>
      </trkpt>
      <trkpt lat="44.12562" lon="6.33597">
        <ele>949.79998779297</ele>
        <time>2022-04-28T16:28:43.075Z</time>
      </trkpt>
      <trkpt lat="44.12552" lon="6.33596">
        <ele>949.20001220703</ele>
        <time>2022-04-28T16:28:47.208Z</time>
      </trkpt>
      <trkpt lat="44.12548" lon="6.33597">
        <ele>948.79998779297</ele>
        <time>2022-04-28T16:28:51.343Z</time>
      </trkpt>
      <trkpt lat="44.12545" lon="6.33596">
        <ele>948.59997558594</ele>
        <time>2022-04-28T16:28:55.479Z</time>
      </trkpt>
      <trkpt lat="44.12542" lon="6.33593">
        <ele>948.59997558594</ele>
        <time>2022-04-28T16:28:59.616Z</time>
      </trkpt>
      <trkpt lat="44.12539" lon="6.33589">
        <ele>949</ele>
        <time>2022-04-28T16:29:03.754Z</time>
      </trkpt>
      <trkpt lat="44.1253" lon="6.33576">
        <ele>949.79998779297</ele>
        <time>2022-04-28T16:29:07.896Z</time>
      </trkpt>
      <trkpt lat="44.12523" lon="6.33567">
        <ele>950.20001220703</ele>
        <time>2022-04-28T16:29:12.041Z</time>
      </trkpt>
      <trkpt lat="44.12518" lon="6.33559">
        <ele>950.40002441406</ele>
        <time>2022-04-28T16:29:16.189Z</time>
      </trkpt>
      <trkpt lat="44.12501" lon="6.33539">
        <ele>951.20001220703</ele>
        <time>2022-04-28T16:29:20.343Z</time>
      </trkpt>
      <trkpt lat="44.12496" lon="6.33533">
        <ele>951.40002441406</ele>
        <time>2022-04-28T16:29:24.500Z</time>
      </trkpt>
      <trkpt lat="44.12485" lon="6.3352">
        <ele>952</ele>
        <time>2022-04-28T16:29:28.661Z</time>
      </trkpt>
      <trkpt lat="44.12479" lon="6.33508">
        <ele>952.59997558594</ele>
        <time>2022-04-28T16:29:32.826Z</time>
      </trkpt>
      <trkpt lat="44.12476" lon="6.335">
        <ele>953</ele>
        <time>2022-04-28T16:29:36.993Z</time>
      </trkpt>
      <trkpt lat="44.12473" lon="6.3349">
        <ele>953.59997558594</ele>
        <time>2022-04-28T16:29:41.162Z</time>
      </trkpt>
      <trkpt lat="44.1247" lon="6.33483">
        <ele>954.20001220703</ele>
        <time>2022-04-28T16:29:45.333Z</time>
      </trkpt>
      <trkpt lat="44.12467" lon="6.33476">
        <ele>955</ele>
        <time>2022-04-28T16:29:49.506Z</time>
      </trkpt>
      <trkpt lat="44.12464" lon="6.33466">
        <ele>956</ele>
        <time>2022-04-28T16:29:53.681Z</time>
      </trkpt>
      <trkpt lat="44.12463" lon="6.33463">
        <ele>956.20001220703</ele>
        <time>2022-04-28T16:29:57.857Z</time>
      </trkpt>
      <trkpt lat="44.12459" lon="6.33456">
        <ele>957.40002441406</ele>
        <time>2022-04-28T16:30:02.035Z</time>
      </trkpt>
      <trkpt lat="44.12457" lon="6.33454">
        <ele>957.40002441406</ele>
        <time>2022-04-28T16:30:06.214Z</time>
      </trkpt>
      <trkpt lat="44.1245" lon="6.33448">
        <ele>957.79998779297</ele>
        <time>2022-04-28T16:30:10.396Z</time>
      </trkpt>
      <trkpt lat="44.12444" lon="6.33447">
        <ele>959.59997558594</ele>
        <time>2022-04-28T16:30:14.580Z</time>
      </trkpt>
      <trkpt lat="44.12443" lon="6.33449">
        <ele>959.59997558594</ele>
        <time>2022-04-28T16:30:18.764Z</time>
      </trkpt>
      <trkpt lat="44.12442" lon="6.3345">
        <ele>959.40002441406</ele>
        <time>2022-04-28T16:30:22.948Z</time>
      </trkpt>
      <trkpt lat="44.12442" lon="6.33449">
        <ele>959.40002441406</ele>
        <time>2022-04-28T16:30:27.132Z</time>
      </trkpt>
      <trkpt lat="44.12434" lon="6.33444">
        <ele>960</ele>
        <time>2022-04-28T16:30:31.319Z</time>
      </trkpt>
      <trkpt lat="44.12433" lon="6.33443">
        <ele>960</ele>
        <time>2022-04-28T16:30:35.507Z</time>
      </trkpt>
      <trkpt lat="44.1242" lon="6.33436">
        <ele>959.20001220703</ele>
        <time>2022-04-28T16:30:39.699Z</time>
      </trkpt>
      <trkpt lat="44.12404" lon="6.33429">
        <ele>958.40002441406</ele>
        <time>2022-04-28T16:30:43.896Z</time>
      </trkpt>
      <trkpt lat="44.124" lon="6.33427">
        <ele>958.20001220703</ele>
        <time>2022-04-28T16:30:48.095Z</time>
      </trkpt>
      <trkpt lat="44.12389" lon="6.33418">
        <ele>957.40002441406</ele>
        <time>2022-04-28T16:30:52.298Z</time>
      </trkpt>
      <trkpt lat="44.12383" lon="6.33414">
        <ele>957.20001220703</ele>
        <time>2022-04-28T16:30:56.503Z</time>
      </trkpt>
      <trkpt lat="44.12369" lon="6.33411">
        <ele>958.20001220703</ele>
        <time>2022-04-28T16:31:00.712Z</time>
      </trkpt>
      <trkpt lat="44.1236" lon="6.33414">
        <ele>959.20001220703</ele>
        <time>2022-04-28T16:31:04.924Z</time>
      </trkpt>
      <trkpt lat="44.12352" lon="6.33416">
        <ele>959.79998779297</ele>
        <time>2022-04-28T16:31:09.139Z</time>
      </trkpt>
      <trkpt lat="44.12343" lon="6.33418">
        <ele>960.20001220703</ele>
        <time>2022-04-28T16:31:13.357Z</time>
      </trkpt>
      <trkpt lat="44.12333" lon="6.33423">
        <ele>960.20001220703</ele>
        <time>2022-04-28T16:31:17.578Z</time>
      </trkpt>
      <trkpt lat="44.12317" lon="6.33432">
        <ele>960</ele>
        <time>2022-04-28T16:31:21.805Z</time>
      </trkpt>
      <trkpt lat="44.12303" lon="6.33432">
        <ele>960</ele>
        <time>2022-04-28T16:31:26.036Z</time>
      </trkpt>
      <trkpt lat="44.12272" lon="6.33437">
        <ele>959.20001220703</ele>
        <time>2022-04-28T16:31:30.277Z</time>
      </trkpt>
      <trkpt lat="44.12257" lon="6.33439">
        <ele>958.59997558594</ele>
        <time>2022-04-28T16:31:34.523Z</time>
      </trkpt>
      <trkpt lat="44.12252" lon="6.33438">
        <ele>958.59997558594</ele>
        <time>2022-04-28T16:31:38.770Z</time>
      </trkpt>
      <trkpt lat="44.12243" lon="6.33435">
        <ele>958</ele>
        <time>2022-04-28T16:31:43.020Z</time>
      </trkpt>
      <trkpt lat="44.12222" lon="6.33427">
        <ele>957</ele>
        <time>2022-04-28T16:31:47.277Z</time>
      </trkpt>
      <trkpt lat="44.12202" lon="6.33419">
        <ele>956.20001220703</ele>
        <time>2022-04-28T16:31:51.541Z</time>
      </trkpt>
      <trkpt lat="44.12194" lon="6.33418">
        <ele>955.79998779297</ele>
        <time>2022-04-28T16:31:55.807Z</time>
      </trkpt>
      <trkpt lat="44.12187" lon="6.33416">
        <ele>954.79998779297</ele>
        <time>2022-04-28T16:32:00.076Z</time>
      </trkpt>
      <trkpt lat="44.12186" lon="6.33416">
        <ele>954.59997558594</ele>
        <time>2022-04-28T16:32:04.345Z</time>
      </trkpt>
      <trkpt lat="44.12185" lon="6.33416">
        <ele>954.40002441406</ele>
        <time>2022-04-28T16:32:08.614Z</time>
      </trkpt>
      <trkpt lat="44.12183" lon="6.33416">
        <ele>953.79998779297</ele>
        <time>2022-04-28T16:32:12.884Z</time>
      </trkpt>
      <trkpt lat="44.12163" lon="6.33406">
        <ele>950.40002441406</ele>
        <time>2022-04-28T16:32:17.161Z</time>
      </trkpt>
      <trkpt lat="44.12158" lon="6.33404">
        <ele>950</ele>
        <time>2022-04-28T16:32:21.439Z</time>
      </trkpt>
      <trkpt lat="44.12153" lon="6.33403">
        <ele>949.20001220703</ele>
        <time>2022-04-28T16:32:25.719Z</time>
      </trkpt>
      <trkpt lat="44.12148" lon="6.33402">
        <ele>948</ele>
        <time>2022-04-28T16:32:30.000Z</time>
      </trkpt>
      <trkpt lat="44.12143" lon="6.33399">
        <ele>946.79998779297</ele>
        <time>2022-04-28T16:32:34.283Z</time>
      </trkpt>
      <trkpt lat="44.12142" lon="6.33394">
        <ele>946.40002441406</ele>
        <time>2022-04-28T16:32:38.567Z</time>
      </trkpt>
      <trkpt lat="44.12144" lon="6.3339">
        <ele>946.40002441406</ele>
        <time>2022-04-28T16:32:42.852Z</time>
      </trkpt>
      <trkpt lat="44.12153" lon="6.3338">
        <ele>945.40002441406</ele>
        <time>2022-04-28T16:32:47.141Z</time>
      </trkpt>
      <trkpt lat="44.12158" lon="6.33378">
        <ele>945.20001220703</ele>
        <time>2022-04-28T16:32:51.432Z</time>
      </trkpt>
      <trkpt lat="44.1217" lon="6.33377">
        <ele>944.40002441406</ele>
        <time>2022-04-28T16:32:55.727Z</time>
      </trkpt>
      <trkpt lat="44.12177" lon="6.33377">
        <ele>944.20001220703</ele>
        <time>2022-04-28T16:33:00.024Z</time>
      </trkpt>
      <trkpt lat="44.12195" lon="6.3338">
        <ele>943.40002441406</ele>
        <time>2022-04-28T16:33:04.326Z</time>
      </trkpt>
      <trkpt lat="44.12203" lon="6.33381">
        <ele>942.79998779297</ele>
        <time>2022-04-28T16:33:08.631Z</time>
      </trkpt>
      <trkpt lat="44.12221" lon="6.33385">
        <ele>941.59997558594</ele>
        <time>2022-04-28T16:33:12.942Z</time>
      </trkpt>
      <trkpt lat="44.12223" lon="6.33384">
        <ele>941.59997558594</ele>
        <time>2022-04-28T16:33:17.253Z</time>
      </trkpt>
      <trkpt lat="44.12223" lon="6.33384">
        <ele>941.40002441406</ele>
        <time>2022-04-28T16:33:21.564Z</time>
      </trkpt>
      <trkpt lat="44.12229" lon="6.33387">
        <ele>941.20001220703</ele>
        <time>2022-04-28T16:33:25.877Z</time>
      </trkpt>
      <trkpt lat="44.12231" lon="6.33387">
        <ele>941.20001220703</ele>
        <time>2022-04-28T16:33:30.191Z</time>
      </trkpt>
      <trkpt lat="44.12242" lon="6.33387">
        <ele>940.59997558594</ele>
        <time>2022-04-28T16:33:34.509Z</time>
      </trkpt>
      <trkpt lat="44.12245" lon="6.33386">
        <ele>940.59997558594</ele>
        <time>2022-04-28T16:33:38.827Z</time>
      </trkpt>
      <trkpt lat="44.12259" lon="6.33377">
        <ele>939.79998779297</ele>
        <time>2022-04-28T16:33:43.151Z</time>
      </trkpt>
      <trkpt lat="44.12269" lon="6.33373">
        <ele>939.40002441406</ele>
        <time>2022-04-28T16:33:47.478Z</time>
      </trkpt>
      <trkpt lat="44.12277" lon="6.33371">
        <ele>938.40002441406</ele>
        <time>2022-04-28T16:33:51.807Z</time>
      </trkpt>
      <trkpt lat="44.12281" lon="6.3337">
        <ele>938.20001220703</ele>
        <time>2022-04-28T16:33:56.138Z</time>
      </trkpt>
      <trkpt lat="44.12303" lon="6.33363">
        <ele>937</ele>
        <time>2022-04-28T16:34:00.476Z</time>
      </trkpt>
      <trkpt lat="44.12324" lon="6.33353">
        <ele>935.79998779297</ele>
        <time>2022-04-28T16:34:04.821Z</time>
      </trkpt>
      <trkpt lat="44.12329" lon="6.33351">
        <ele>935.59997558594</ele>
        <time>2022-04-28T16:34:09.167Z</time>
      </trkpt>
      <trkpt lat="44.12335" lon="6.3335">
        <ele>935.20001220703</ele>
        <time>2022-04-28T16:34:13.515Z</time>
      </trkpt>
      <trkpt lat="44.12353" lon="6.33349">
        <ele>934.40002441406</ele>
        <time>2022-04-28T16:34:17.869Z</time>
      </trkpt>
      <trkpt lat="44.12363" lon="6.3335">
        <ele>933.79998779297</ele>
        <time>2022-04-28T16:34:22.226Z</time>
      </trkpt>
      <trkpt lat="44.12371" lon="6.3335">
        <ele>933.40002441406</ele>
        <time>2022-04-28T16:34:26.586Z</time>
      </trkpt>
      <trkpt lat="44.12376" lon="6.33349">
        <ele>933.20001220703</ele>
        <time>2022-04-28T16:34:30.947Z</time>
      </trkpt>
      <trkpt lat="44.12384" lon="6.33345">
        <ele>932.79998779297</ele>
        <time>2022-04-28T16:34:35.311Z</time>
      </trkpt>
      <trkpt lat="44.12387" lon="6.33342">
        <ele>932.59997558594</ele>
        <time>2022-04-28T16:34:39.676Z</time>
      </trkpt>
      <trkpt lat="44.12395" lon="6.33335">
        <ele>932.40002441406</ele>
        <time>2022-04-28T16:34:44.044Z</time>
      </trkpt>
      <trkpt lat="44.12401" lon="6.33326">
        <ele>932</ele>
        <time>2022-04-28T16:34:48.415Z</time>
      </trkpt>
      <trkpt lat="44.12406" lon="6.3331">
        <ele>931</ele>
        <time>2022-04-28T16:34:52.790Z</time>
      </trkpt>
      <trkpt lat="44.12407" lon="6.33304">
        <ele>930.59997558594</ele>
        <time>2022-04-28T16:34:57.166Z</time>
      </trkpt>
      <trkpt lat="44.12409" lon="6.33297">
        <ele>930.59997558594</ele>
        <time>2022-04-28T16:35:01.544Z</time>
      </trkpt>
      <trkpt lat="44.12417" lon="6.33259">
        <ele>929.79998779297</ele>
        <time>2022-04-28T16:35:05.931Z</time>
      </trkpt>
      <trkpt lat="44.1242" lon="6.33244">
        <ele>929</ele>
        <time>2022-04-28T16:35:10.322Z</time>
      </trkpt>
      <trkpt lat="44.12422" lon="6.3323">
        <ele>928.59997558594</ele>
        <time>2022-04-28T16:35:14.716Z</time>
      </trkpt>
      <trkpt lat="44.12422" lon="6.33207">
        <ele>927.79998779297</ele>
        <time>2022-04-28T16:35:19.115Z</time>
      </trkpt>
      <trkpt lat="44.12422" lon="6.33199">
        <ele>927.40002441406</ele>
        <time>2022-04-28T16:35:23.516Z</time>
      </trkpt>
      <trkpt lat="44.12422" lon="6.33192">
        <ele>927</ele>
        <time>2022-04-28T16:35:27.918Z</time>
      </trkpt>
      <trkpt lat="44.12424" lon="6.33179">
        <ele>926.59997558594</ele>
        <time>2022-04-28T16:35:32.324Z</time>
      </trkpt>
      <trkpt lat="44.12431" lon="6.33171">
        <ele>926</ele>
        <time>2022-04-28T16:35:36.733Z</time>
      </trkpt>
      <trkpt lat="44.1244" lon="6.33164">
        <ele>925.59997558594</ele>
        <time>2022-04-28T16:35:41.145Z</time>
      </trkpt>
      <trkpt lat="44.12456" lon="6.3315">
        <ele>924.59997558594</ele>
        <time>2022-04-28T16:35:45.563Z</time>
      </trkpt>
      <trkpt lat="44.12459" lon="6.3314">
        <ele>923.40002441406</ele>
        <time>2022-04-28T16:35:49.983Z</time>
      </trkpt>
      <trkpt lat="44.12458" lon="6.33134">
        <ele>923.20001220703</ele>
        <time>2022-04-28T16:35:54.404Z</time>
      </trkpt>
      <trkpt lat="44.12458" lon="6.33123">
        <ele>922.20001220703</ele>
        <time>2022-04-28T16:35:58.828Z</time>
      </trkpt>
      <trkpt lat="44.1246" lon="6.33118">
        <ele>921.59997558594</ele>
        <time>2022-04-28T16:36:03.253Z</time>
      </trkpt>
      <trkpt lat="44.12466" lon="6.33109">
        <ele>921.20001220703</ele>
        <time>2022-04-28T16:36:07.681Z</time>
      </trkpt>
      <trkpt lat="44.12469" lon="6.33105">
        <ele>921.20001220703</ele>
        <time>2022-04-28T16:36:12.110Z</time>
      </trkpt>
      <trkpt lat="44.12473" lon="6.33101">
        <ele>920.79998779297</ele>
        <time>2022-04-28T16:36:16.541Z</time>
      </trkpt>
      <trkpt lat="44.12477" lon="6.33098">
        <ele>920.59997558594</ele>
        <time>2022-04-28T16:36:20.973Z</time>
      </trkpt>
      <trkpt lat="44.12485" lon="6.3309">
        <ele>919.79998779297</ele>
        <time>2022-04-28T16:36:25.409Z</time>
      </trkpt>
      <trkpt lat="44.12501" lon="6.33073">
        <ele>918.79998779297</ele>
        <time>2022-04-28T16:36:29.851Z</time>
      </trkpt>
      <trkpt lat="44.12506" lon="6.33068">
        <ele>918.59997558594</ele>
        <time>2022-04-28T16:36:34.295Z</time>
      </trkpt>
      <trkpt lat="44.12522" lon="6.33053">
        <ele>917</ele>
        <time>2022-04-28T16:36:38.745Z</time>
      </trkpt>
      <trkpt lat="44.12527" lon="6.33051">
        <ele>916.59997558594</ele>
        <time>2022-04-28T16:36:43.197Z</time>
      </trkpt>
      <trkpt lat="44.12538" lon="6.33053">
        <ele>916</ele>
        <time>2022-04-28T16:36:47.652Z</time>
      </trkpt>
      <trkpt lat="44.12543" lon="6.33054">
        <ele>915.59997558594</ele>
        <time>2022-04-28T16:36:52.109Z</time>
      </trkpt>
      <trkpt lat="44.12552" lon="6.3305">
        <ele>915</ele>
        <time>2022-04-28T16:36:56.569Z</time>
      </trkpt>
      <trkpt lat="44.12556" lon="6.33046">
        <ele>914.79998779297</ele>
        <time>2022-04-28T16:37:01.030Z</time>
      </trkpt>
      <trkpt lat="44.1256" lon="6.33042">
        <ele>914.40002441406</ele>
        <time>2022-04-28T16:37:05.493Z</time>
      </trkpt>
      <trkpt lat="44.12578" lon="6.33024">
        <ele>914</ele>
        <time>2022-04-28T16:37:09.963Z</time>
      </trkpt>
      <trkpt lat="44.12586" lon="6.33016">
        <ele>913.59997558594</ele>
        <time>2022-04-28T16:37:14.436Z</time>
      </trkpt>
      <trkpt lat="44.12591" lon="6.33008">
        <ele>912.40002441406</ele>
        <time>2022-04-28T16:37:18.911Z</time>
      </trkpt>
      <trkpt lat="44.12593" lon="6.33003">
        <ele>912.20001220703</ele>
        <time>2022-04-28T16:37:23.388Z</time>
      </trkpt>
      <trkpt lat="44.12584" lon="6.33001">
        <ele>911.40002441406</ele>
        <time>2022-04-28T16:37:27.867Z</time>
      </trkpt>
      <trkpt lat="44.12581" lon="6.33003">
        <ele>911</ele>
        <time>2022-04-28T16:37:32.347Z</time>
      </trkpt>
      <trkpt lat="44.12575" lon="6.33003">
        <ele>910</ele>
        <time>2022-04-28T16:37:36.830Z</time>
      </trkpt>
      <trkpt lat="44.12571" lon="6.33001">
        <ele>909.59997558594</ele>
        <time>2022-04-28T16:37:41.314Z</time>
      </trkpt>
      <trkpt lat="44.12562" lon="6.32998">
        <ele>908.79998779297</ele>
        <time>2022-04-28T16:37:45.801Z</time>
      </trkpt>
      <trkpt lat="44.12551" lon="6.32991">
        <ele>908</ele>
        <time>2022-04-28T16:37:50.292Z</time>
      </trkpt>
      <trkpt lat="44.12546" lon="6.32985">
        <ele>907.40002441406</ele>
        <time>2022-04-28T16:37:54.785Z</time>
      </trkpt>
      <trkpt lat="44.12544" lon="6.32978">
        <ele>907</ele>
        <time>2022-04-28T16:37:59.279Z</time>
      </trkpt>
      <trkpt lat="44.12538" lon="6.32966">
        <ele>906.40002441406</ele>
        <time>2022-04-28T16:38:03.777Z</time>
      </trkpt>
      <trkpt lat="44.12535" lon="6.32961">
        <ele>906.20001220703</ele>
        <time>2022-04-28T16:38:08.276Z</time>
      </trkpt>
      <trkpt lat="44.12518" lon="6.3293">
        <ele>905.40002441406</ele>
        <time>2022-04-28T16:38:12.784Z</time>
      </trkpt>
      <trkpt lat="44.1251" lon="6.32912">
        <ele>905</ele>
        <time>2022-04-28T16:38:17.297Z</time>
      </trkpt>
      <trkpt lat="44.12506" lon="6.32908">
        <ele>904.59997558594</ele>
        <time>2022-04-28T16:38:21.811Z</time>
      </trkpt>
      <trkpt lat="44.12503" lon="6.32904">
        <ele>904.40002441406</ele>
        <time>2022-04-28T16:38:26.327Z</time>
      </trkpt>
      <trkpt lat="44.125" lon="6.32896">
        <ele>903.79998779297</ele>
        <time>2022-04-28T16:38:30.845Z</time>
      </trkpt>
      <trkpt lat="44.12499" lon="6.32893">
        <ele>903.40002441406</ele>
        <time>2022-04-28T16:38:35.364Z</time>
      </trkpt>
      <trkpt lat="44.125" lon="6.32887">
        <ele>902</ele>
        <time>2022-04-28T16:38:39.884Z</time>
      </trkpt>
      <trkpt lat="44.12494" lon="6.32881">
        <ele>900.79998779297</ele>
        <time>2022-04-28T16:38:44.406Z</time>
      </trkpt>
      <trkpt lat="44.12489" lon="6.32878">
        <ele>899.59997558594</ele>
        <time>2022-04-28T16:38:48.930Z</time>
      </trkpt>
      <trkpt lat="44.12485" lon="6.32877">
        <ele>897.40002441406</ele>
        <time>2022-04-28T16:38:53.455Z</time>
      </trkpt>
      <trkpt lat="44.1248" lon="6.32874">
        <ele>896</ele>
        <time>2022-04-28T16:38:57.982Z</time>
      </trkpt>
      <trkpt lat="44.12475" lon="6.3287">
        <ele>894.59997558594</ele>
        <time>2022-04-28T16:39:02.511Z</time>
      </trkpt>
      <trkpt lat="44.1247" lon="6.32865">
        <ele>893.40002441406</ele>
        <time>2022-04-28T16:39:07.042Z</time>
      </trkpt>
      <trkpt lat="44.12465" lon="6.3286">
        <ele>892.40002441406</ele>
        <time>2022-04-28T16:39:11.575Z</time>
      </trkpt>
      <trkpt lat="44.12461" lon="6.32857">
        <ele>890.79998779297</ele>
        <time>2022-04-28T16:39:16.109Z</time>
      </trkpt>
      <trkpt lat="44.12459" lon="6.32854">
        <ele>889.20001220703</ele>
        <time>2022-04-28T16:39:20.644Z</time>
      </trkpt>
      <trkpt lat="44.12458" lon="6.32851">
        <ele>888</ele>
        <time>2022-04-28T16:39:25.180Z</time>
      </trkpt>
      <trkpt lat="44.12457" lon="6.32848">
        <ele>886.40002441406</ele>
        <time>2022-04-28T16:39:29.717Z</time>
      </trkpt>
      <trkpt lat="44.12447" lon="6.32851">
        <ele>885.59997558594</ele>
        <time>2022-04-28T16:39:34.257Z</time>
      </trkpt>
      <trkpt lat="44.12441" lon="6.32855">
        <ele>885.40002441406</ele>
        <time>2022-04-28T16:39:38.799Z</time>
      </trkpt>
      <trkpt lat="44.12433" lon="6.32859">
        <ele>885</ele>
        <time>2022-04-28T16:39:43.344Z</time>
      </trkpt>
      <trkpt lat="44.12424" lon="6.32864">
        <ele>884.20001220703</ele>
        <time>2022-04-28T16:39:47.892Z</time>
      </trkpt>
      <trkpt lat="44.12419" lon="6.32867">
        <ele>883.20001220703</ele>
        <time>2022-04-28T16:39:52.441Z</time>
      </trkpt>
      <trkpt lat="44.12416" lon="6.3287">
        <ele>882.20001220703</ele>
        <time>2022-04-28T16:39:56.992Z</time>
      </trkpt>
      <trkpt lat="44.12415" lon="6.32872">
        <ele>882.20001220703</ele>
        <time>2022-04-28T16:40:01.543Z</time>
      </trkpt>
      <trkpt lat="44.12414" lon="6.32876">
        <ele>882</ele>
        <time>2022-04-28T16:40:06.095Z</time>
      </trkpt>
      <trkpt lat="44.12412" lon="6.32881">
        <ele>882</ele>
        <time>2022-04-28T16:40:10.649Z</time>
      </trkpt>
      <trkpt lat="44.12405" lon="6.32885">
        <ele>882.20001220703</ele>
        <time>2022-04-28T16:40:15.205Z</time>
      </trkpt>
      <trkpt lat="44.12401" lon="6.32886">
        <ele>882.79998779297</ele>
        <time>2022-04-28T16:40:19.762Z</time>
      </trkpt>
      <trkpt lat="44.124" lon="6.32885">
        <ele>882.79998779297</ele>
        <time>2022-04-28T16:40:24.320Z</time>
      </trkpt>
      <trkpt lat="44.12399" lon="6.32882">
        <ele>882</ele>
        <time>2022-04-28T16:40:28.878Z</time>
      </trkpt>
      <trkpt lat="44.12398" lon="6.32879">
        <ele>881.79998779297</ele>
        <time>2022-04-28T16:40:33.437Z</time>
      </trkpt>
      <trkpt lat="44.12398" lon="6.32878">
        <ele>882.40002441406</ele>
        <time>2022-04-28T16:40:37.997Z</time>
      </trkpt>
      <trkpt lat="44.12399" lon="6.32874">
        <ele>882.59997558594</ele>
        <time>2022-04-28T16:40:42.558Z</time>
      </trkpt>
      <trkpt lat="44.124" lon="6.32869">
        <ele>883</ele>
        <time>2022-04-28T16:40:47.120Z</time>
      </trkpt>
      <trkpt lat="44.12402" lon="6.32859">
        <ele>883.59997558594</ele>
        <time>2022-04-28T16:40:51.684Z</time>
      </trkpt>
      <trkpt lat="44.12403" lon="6.32853">
        <ele>883.59997558594</ele>
        <time>2022-04-28T16:40:56.249Z</time>
      </trkpt>
      <trkpt lat="44.12404" lon="6.3285">
        <ele>883.79998779297</ele>
        <time>2022-04-28T16:41:00.815Z</time>
      </trkpt>
      <trkpt lat="44.12405" lon="6.32846">
        <ele>884</ele>
        <time>2022-04-28T16:41:05.382Z</time>
      </trkpt>
      <trkpt lat="44.12406" lon="6.32844">
        <ele>884.40002441406</ele>
        <time>2022-04-28T16:41:09.950Z</time>
      </trkpt>
      <trkpt lat="44.12407" lon="6.32841">
        <ele>885</ele>
        <time>2022-04-28T16:41:14.518Z</time>
      </trkpt>
      <trkpt lat="44.12409" lon="6.32838">
        <ele>885.40002441406</ele>
        <time>2022-04-28T16:41:19.087Z</time>
      </trkpt>
      <trkpt lat="44.12411" lon="6.32831">
        <ele>885.79998779297</ele>
        <time>2022-04-28T16:41:23.658Z</time>
      </trkpt>
      <trkpt lat="44.12409" lon="6.3283">
        <ele>885.79998779297</ele>
        <time>2022-04-28T16:41:28.230Z</time>
      </trkpt>
      <trkpt lat="44.12402" lon="6.32832">
        <ele>886.20001220703</ele>
        <time>2022-04-28T16:41:32.804Z</time>
      </trkpt>
      <trkpt lat="44.12398" lon="6.32835">
        <ele>886.59997558594</ele>
        <time>2022-04-28T16:41:37.379Z</time>
      </trkpt>
      <trkpt lat="44.1239" lon="6.32841">
        <ele>887.20001220703</ele>
        <time>2022-04-28T16:41:41.957Z</time>
      </trkpt>
      <trkpt lat="44.12377" lon="6.32851">
        <ele>887.59997558594</ele>
        <time>2022-04-28T16:41:46.540Z</time>
      </trkpt>
      <trkpt lat="44.1237" lon="6.32856">
        <ele>888.40002441406</ele>
        <time>2022-04-28T16:41:51.126Z</time>
      </trkpt>
      <trkpt lat="44.12368" lon="6.32858">
        <ele>888.59997558594</ele>
        <time>2022-04-28T16:41:55.712Z</time>
      </trkpt>
      <trkpt lat="44.12365" lon="6.32862">
        <ele>889</ele>
        <time>2022-04-28T16:42:00.300Z</time>
      </trkpt>
      <trkpt lat="44.12362" lon="6.32859">
        <ele>889.59997558594</ele>
        <time>2022-04-28T16:42:04.889Z</time>
      </trkpt>
      <trkpt lat="44.12353" lon="6.32844">
        <ele>888</ele>
        <time>2022-04-28T16:42:09.482Z</time>
      </trkpt>
      <trkpt lat="44.12347" lon="6.32832">
        <ele>887.59997558594</ele>
        <time>2022-04-28T16:42:14.079Z</time>
      </trkpt>
      <trkpt lat="44.1234" lon="6.32821">
        <ele>886.40002441406</ele>
        <time>2022-04-28T16:42:18.679Z</time>
      </trkpt>
      <trkpt lat="44.12338" lon="6.3282">
        <ele>885.79998779297</ele>
        <time>2022-04-28T16:42:23.280Z</time>
      </trkpt>
      <trkpt lat="44.12338" lon="6.32818">
        <ele>885.20001220703</ele>
        <time>2022-04-28T16:42:27.881Z</time>
      </trkpt>
      <trkpt lat="44.12338" lon="6.32816">
        <ele>884.40002441406</ele>
        <time>2022-04-28T16:42:32.482Z</time>
      </trkpt>
      <trkpt lat="44.12338" lon="6.32815">
        <ele>884</ele>
        <time>2022-04-28T16:42:37.084Z</time>
      </trkpt>
      <trkpt lat="44.12339" lon="6.32801">
        <ele>883</ele>
        <time>2022-04-28T16:42:41.689Z</time>
      </trkpt>
      <trkpt lat="44.1234" lon="6.32797">
        <ele>882.79998779297</ele>
        <time>2022-04-28T16:42:46.295Z</time>
      </trkpt>
      <trkpt lat="44.12338" lon="6.32791">
        <ele>881.79998779297</ele>
        <time>2022-04-28T16:42:50.902Z</time>
      </trkpt>
      <trkpt lat="44.12337" lon="6.32789">
        <ele>881.59997558594</ele>
        <time>2022-04-28T16:42:55.510Z</time>
      </trkpt>
      <trkpt lat="44.12337" lon="6.32779">
        <ele>881.20001220703</ele>
        <time>2022-04-28T16:43:00.120Z</time>
      </trkpt>
      <trkpt lat="44.12337" lon="6.32777">
        <ele>881</ele>
        <time>2022-04-28T16:43:04.731Z</time>
      </trkpt>
      <trkpt lat="44.12336" lon="6.32775">
        <ele>880.79998779297</ele>
        <time>2022-04-28T16:43:09.342Z</time>
      </trkpt>
      <trkpt lat="44.12336" lon="6.32773">
        <ele>880.59997558594</ele>
        <time>2022-04-28T16:43:13.954Z</time>
      </trkpt>
      <trkpt lat="44.12334" lon="6.3277">
        <ele>880.59997558594</ele>
        <time>2022-04-28T16:43:18.566Z</time>
      </trkpt>
      <trkpt lat="44.12331" lon="6.32754">
        <ele>881</ele>
        <time>2022-04-28T16:43:23.182Z</time>
      </trkpt>
      <trkpt lat="44.12328" lon="6.32741">
        <ele>881.59997558594</ele>
        <time>2022-04-28T16:43:27.801Z</time>
      </trkpt>
      <trkpt lat="44.12327" lon="6.32737">
        <ele>881.59997558594</ele>
        <time>2022-04-28T16:43:32.421Z</time>
      </trkpt>
      <trkpt lat="44.12325" lon="6.32725">
        <ele>882</ele>
        <time>2022-04-28T16:43:37.044Z</time>
      </trkpt>
      <trkpt lat="44.12323" lon="6.32712">
        <ele>882.59997558594</ele>
        <time>2022-04-28T16:43:41.670Z</time>
      </trkpt>
      <trkpt lat="44.12322" lon="6.32711">
        <ele>882.59997558594</ele>
        <time>2022-04-28T16:43:46.296Z</time>
      </trkpt>
      <trkpt lat="44.12317" lon="6.32703">
        <ele>883</ele>
        <time>2022-04-28T16:43:50.925Z</time>
      </trkpt>
      <trkpt lat="44.12313" lon="6.32701">
        <ele>883.40002441406</ele>
        <time>2022-04-28T16:43:55.555Z</time>
      </trkpt>
      <trkpt lat="44.12307" lon="6.32699">
        <ele>883.79998779297</ele>
        <time>2022-04-28T16:44:00.187Z</time>
      </trkpt>
      <trkpt lat="44.12304" lon="6.32701">
        <ele>884.20001220703</ele>
        <time>2022-04-28T16:44:04.820Z</time>
      </trkpt>
      <trkpt lat="44.12303" lon="6.32703">
        <ele>885</ele>
        <time>2022-04-28T16:44:09.454Z</time>
      </trkpt>
      <trkpt lat="44.12302" lon="6.32704">
        <ele>885.20001220703</ele>
        <time>2022-04-28T16:44:14.088Z</time>
      </trkpt>
      <trkpt lat="44.12297" lon="6.3271">
        <ele>885.40002441406</ele>
        <time>2022-04-28T16:44:18.724Z</time>
      </trkpt>
      <trkpt lat="44.12294" lon="6.32712">
        <ele>885.59997558594</ele>
        <time>2022-04-28T16:44:23.361Z</time>
      </trkpt>
      <trkpt lat="44.12292" lon="6.32708">
        <ele>886.59997558594</ele>
        <time>2022-04-28T16:44:28.000Z</time>
      </trkpt>
      <trkpt lat="44.12289" lon="6.32704">
        <ele>887.79998779297</ele>
        <time>2022-04-28T16:44:32.640Z</time>
      </trkpt>
      <trkpt lat="44.12288" lon="6.32703">
        <ele>888.20001220703</ele>
        <time>2022-04-28T16:44:37.280Z</time>
      </trkpt>
      <trkpt lat="44.12288" lon="6.32703">
        <ele>889</ele>
        <time>2022-04-28T16:44:41.920Z</time>
      </trkpt>
      <trkpt lat="44.12279" lon="6.32698">
        <ele>890.20001220703</ele>
        <time>2022-04-28T16:44:46.563Z</time>
      </trkpt>
      <trkpt lat="44.12278" lon="6.32697">
        <ele>890.40002441406</ele>
        <time>2022-04-28T16:44:51.207Z</time>
      </trkpt>
      <trkpt lat="44.12276" lon="6.32693">
        <ele>890.79998779297</ele>
        <time>2022-04-28T16:44:55.852Z</time>
      </trkpt>
      <trkpt lat="44.12274" lon="6.32689">
        <ele>891.79998779297</ele>
        <time>2022-04-28T16:45:00.498Z</time>
      </trkpt>
      <trkpt lat="44.12271" lon="6.32685">
        <ele>892.59997558594</ele>
        <time>2022-04-28T16:45:05.145Z</time>
      </trkpt>
      <trkpt lat="44.1227" lon="6.32684">
        <ele>892.79998779297</ele>
        <time>2022-04-28T16:45:09.793Z</time>
      </trkpt>
      <trkpt lat="44.12269" lon="6.32683">
        <ele>893</ele>
        <time>2022-04-28T16:45:14.441Z</time>
      </trkpt>
      <trkpt lat="44.12266" lon="6.32675">
        <ele>893.59997558594</ele>
        <time>2022-04-28T16:45:19.091Z</time>
      </trkpt>
      <trkpt lat="44.12261" lon="6.32672">
        <ele>893.20001220703</ele>
        <time>2022-04-28T16:45:23.743Z</time>
      </trkpt>
      <trkpt lat="44.12259" lon="6.32671">
        <ele>893</ele>
        <time>2022-04-28T16:45:28.395Z</time>
      </trkpt>
      <trkpt lat="44.12254" lon="6.32671">
        <ele>892.20001220703</ele>
        <time>2022-04-28T16:45:33.049Z</time>
      </trkpt>
      <trkpt lat="44.12249" lon="6.3267">
        <ele>891.59997558594</ele>
        <time>2022-04-28T16:45:37.705Z</time>
      </trkpt>
      <trkpt lat="44.12246" lon="6.3267">
        <ele>890.20001220703</ele>
        <time>2022-04-28T16:45:42.362Z</time>
      </trkpt>
      <trkpt lat="44.12245" lon="6.32668">
        <ele>889.79998779297</ele>
        <time>2022-04-28T16:45:47.019Z</time>
      </trkpt>
      <trkpt lat="44.12246" lon="6.32665">
        <ele>889.20001220703</ele>
        <time>2022-04-28T16:45:51.677Z</time>
      </trkpt>
      <trkpt lat="44.12247" lon="6.32658">
        <ele>890</ele>
        <time>2022-04-28T16:45:56.336Z</time>
      </trkpt>
      <trkpt lat="44.12246" lon="6.32655">
        <ele>890.40002441406</ele>
        <time>2022-04-28T16:46:00.996Z</time>
      </trkpt>
      <trkpt lat="44.12246" lon="6.32652">
        <ele>891</ele>
        <time>2022-04-28T16:46:05.657Z</time>
      </trkpt>
      <trkpt lat="44.12246" lon="6.3265">
        <ele>891.40002441406</ele>
        <time>2022-04-28T16:46:10.318Z</time>
      </trkpt>
      <trkpt lat="44.12245" lon="6.32642">
        <ele>892.79998779297</ele>
        <time>2022-04-28T16:46:14.981Z</time>
      </trkpt>
      <trkpt lat="44.12244" lon="6.32639">
        <ele>893</ele>
        <time>2022-04-28T16:46:19.645Z</time>
      </trkpt>
      <trkpt lat="44.12241" lon="6.32628">
        <ele>893.79998779297</ele>
        <time>2022-04-28T16:46:24.312Z</time>
      </trkpt>
      <trkpt lat="44.12241" lon="6.32622">
        <ele>894.20001220703</ele>
        <time>2022-04-28T16:46:28.980Z</time>
      </trkpt>
      <trkpt lat="44.12242" lon="6.32619">
        <ele>894.40002441406</ele>
        <time>2022-04-28T16:46:33.648Z</time>
      </trkpt>
      <trkpt lat="44.12244" lon="6.32609">
        <ele>895</ele>
        <time>2022-04-28T16:46:38.319Z</time>
      </trkpt>
      <trkpt lat="44.12244" lon="6.32602">
        <ele>896</ele>
        <time>2022-04-28T16:46:42.991Z</time>
      </trkpt>
      <trkpt lat="44.12243" lon="6.32599">
        <ele>896.40002441406</ele>
        <time>2022-04-28T16:46:47.664Z</time>
      </trkpt>
      <trkpt lat="44.12241" lon="6.32593">
        <ele>897.59997558594</ele>
        <time>2022-04-28T16:46:52.339Z</time>
      </trkpt>
      <trkpt lat="44.12239" lon="6.32585">
        <ele>898.40002441406</ele>
        <time>2022-04-28T16:46:57.016Z</time>
      </trkpt>
      <trkpt lat="44.12238" lon="6.32577">
        <ele>899.59997558594</ele>
        <time>2022-04-28T16:47:01.695Z</time>
      </trkpt>
      <trkpt lat="44.12234" lon="6.32568">
        <ele>900.59997558594</ele>
        <time>2022-04-28T16:47:06.376Z</time>
      </trkpt>
      <trkpt lat="44.12233" lon="6.32565">
        <ele>901</ele>
        <time>2022-04-28T16:47:11.058Z</time>
      </trkpt>
      <trkpt lat="44.1223" lon="6.32558">
        <ele>901.79998779297</ele>
        <time>2022-04-28T16:47:15.741Z</time>
      </trkpt>
      <trkpt lat="44.12228" lon="6.32551">
        <ele>902.79998779297</ele>
        <time>2022-04-28T16:47:20.426Z</time>
      </trkpt>
      <trkpt lat="44.12228" lon="6.32543">
        <ele>904</ele>
        <time>2022-04-28T16:47:25.113Z</time>
      </trkpt>
      <trkpt lat="44.12228" lon="6.32535">
        <ele>904.79998779297</ele>
        <time>2022-04-28T16:47:29.802Z</time>
      </trkpt>
      <trkpt lat="44.12229" lon="6.32533">
        <ele>905.20001220703</ele>
        <time>2022-04-28T16:47:34.491Z</time>
      </trkpt>
      <trkpt lat="44.12231" lon="6.32526">
        <ele>906.40002441406</ele>
        <time>2022-04-28T16:47:39.182Z</time>
      </trkpt>
      <trkpt lat="44.12234" lon="6.32521">
        <ele>907</ele>
        <time>2022-04-28T16:47:43.875Z</time>
      </trkpt>
      <trkpt lat="44.12237" lon="6.32518">
        <ele>907.59997558594</ele>
        <time>2022-04-28T16:47:48.569Z</time>
      </trkpt>
      <trkpt lat="44.12242" lon="6.32512">
        <ele>908.59997558594</ele>
        <time>2022-04-28T16:47:53.265Z</time>
      </trkpt>
      <trkpt lat="44.12245" lon="6.32509">
        <ele>909.59997558594</ele>
        <time>2022-04-28T16:47:57.962Z</time>
      </trkpt>
      <trkpt lat="44.12248" lon="6.32507">
        <ele>909.79998779297</ele>
        <time>2022-04-28T16:48:02.660Z</time>
      </trkpt>
      <trkpt lat="44.12253" lon="6.32504">
        <ele>910.40002441406</ele>
        <time>2022-04-28T16:48:07.360Z</time>
      </trkpt>
      <trkpt lat="44.12257" lon="6.32498">
        <ele>911</ele>
        <time>2022-04-28T16:48:12.062Z</time>
      </trkpt>
      <trkpt lat="44.12261" lon="6.32495">
        <ele>912.40002441406</ele>
        <time>2022-04-28T16:48:16.765Z</time>
      </trkpt>
      <trkpt lat="44.12264" lon="6.3249">
        <ele>913.79998779297</ele>
        <time>2022-04-28T16:48:21.469Z</time>
      </trkpt>
      <trkpt lat="44.12267" lon="6.32485">
        <ele>914.40002441406</ele>
        <time>2022-04-28T16:48:26.175Z</time>
      </trkpt>
      <trkpt lat="44.1227" lon="6.3248">
        <ele>914.79998779297</ele>
        <time>2022-04-28T16:48:30.882Z</time>
      </trkpt>
      <trkpt lat="44.12273" lon="6.32471">
        <ele>915.79998779297</ele>
        <time>2022-04-28T16:48:35.592Z</time>
      </trkpt>
      <trkpt lat="44.12273" lon="6.32467">
        <ele>916</ele>
        <time>2022-04-28T16:48:40.303Z</time>
      </trkpt>
      <trkpt lat="44.12273" lon="6.32457">
        <ele>916.59997558594</ele>
        <time>2022-04-28T16:48:45.016Z</time>
      </trkpt>
      <trkpt lat="44.12271" lon="6.32455">
        <ele>917</ele>
        <time>2022-04-28T16:48:49.730Z</time>
      </trkpt>
      <trkpt lat="44.12269" lon="6.32446">
        <ele>918.40002441406</ele>
        <time>2022-04-28T16:48:54.446Z</time>
      </trkpt>
      <trkpt lat="44.12266" lon="6.32441">
        <ele>919.20001220703</ele>
        <time>2022-04-28T16:48:59.163Z</time>
      </trkpt>
      <trkpt lat="44.12265" lon="6.32438">
        <ele>919.59997558594</ele>
        <time>2022-04-28T16:49:03.881Z</time>
      </trkpt>
      <trkpt lat="44.12264" lon="6.32435">
        <ele>920</ele>
        <time>2022-04-28T16:49:08.600Z</time>
      </trkpt>
      <trkpt lat="44.12265" lon="6.32429">
        <ele>920.79998779297</ele>
        <time>2022-04-28T16:49:13.320Z</time>
      </trkpt>
      <trkpt lat="44.12264" lon="6.32409">
        <ele>922</ele>
        <time>2022-04-28T16:49:18.045Z</time>
      </trkpt>
      <trkpt lat="44.12262" lon="6.324">
        <ele>923.20001220703</ele>
        <time>2022-04-28T16:49:22.772Z</time>
      </trkpt>
      <trkpt lat="44.1226" lon="6.32391">
        <ele>924.40002441406</ele>
        <time>2022-04-28T16:49:27.501Z</time>
      </trkpt>
      <trkpt lat="44.1226" lon="6.32388">
        <ele>925</ele>
        <time>2022-04-28T16:49:32.231Z</time>
      </trkpt>
      <trkpt lat="44.12259" lon="6.32386">
        <ele>925.59997558594</ele>
        <time>2022-04-28T16:49:36.961Z</time>
      </trkpt>
      <trkpt lat="44.12258" lon="6.3238">
        <ele>926.59997558594</ele>
        <time>2022-04-28T16:49:41.692Z</time>
      </trkpt>
      <trkpt lat="44.12259" lon="6.32373">
        <ele>928</ele>
        <time>2022-04-28T16:49:46.425Z</time>
      </trkpt>
      <trkpt lat="44.12262" lon="6.32368">
        <ele>929.20001220703</ele>
        <time>2022-04-28T16:49:51.160Z</time>
      </trkpt>
      <trkpt lat="44.12264" lon="6.32365">
        <ele>929.59997558594</ele>
        <time>2022-04-28T16:49:55.896Z</time>
      </trkpt>
      <trkpt lat="44.12267" lon="6.32362">
        <ele>930.20001220703</ele>
        <time>2022-04-28T16:50:00.633Z</time>
      </trkpt>
      <trkpt lat="44.12268" lon="6.32358">
        <ele>931.40002441406</ele>
        <time>2022-04-28T16:50:05.371Z</time>
      </trkpt>
      <trkpt lat="44.12268" lon="6.32355">
        <ele>931.79998779297</ele>
        <time>2022-04-28T16:50:10.109Z</time>
      </trkpt>
      <trkpt lat="44.12266" lon="6.32352">
        <ele>932</ele>
        <time>2022-04-28T16:50:14.848Z</time>
      </trkpt>
      <trkpt lat="44.12259" lon="6.32353">
        <ele>931.20001220703</ele>
        <time>2022-04-28T16:50:19.590Z</time>
      </trkpt>
      <trkpt lat="44.12255" lon="6.32354">
        <ele>930.79998779297</ele>
        <time>2022-04-28T16:50:24.333Z</time>
      </trkpt>
      <trkpt lat="44.12251" lon="6.32355">
        <ele>929.79998779297</ele>
        <time>2022-04-28T16:50:29.077Z</time>
      </trkpt>
      <trkpt lat="44.12248" lon="6.32356">
        <ele>928.20001220703</ele>
        <time>2022-04-28T16:50:33.822Z</time>
      </trkpt>
      <trkpt lat="44.12245" lon="6.32357">
        <ele>926.79998779297</ele>
        <time>2022-04-28T16:50:38.568Z</time>
      </trkpt>
      <trkpt lat="44.12243" lon="6.32359">
        <ele>925.59997558594</ele>
        <time>2022-04-28T16:50:43.315Z</time>
      </trkpt>
      <trkpt lat="44.12238" lon="6.32362">
        <ele>923.59997558594</ele>
        <time>2022-04-28T16:50:48.063Z</time>
      </trkpt>
      <trkpt lat="44.12236" lon="6.32364">
        <ele>922.40002441406</ele>
        <time>2022-04-28T16:50:52.812Z</time>
      </trkpt>
      <trkpt lat="44.12232" lon="6.32369">
        <ele>920.59997558594</ele>
        <time>2022-04-28T16:50:57.563Z</time>
      </trkpt>
      <trkpt lat="44.12231" lon="6.3237">
        <ele>919.40002441406</ele>
        <time>2022-04-28T16:51:02.314Z</time>
      </trkpt>
      <trkpt lat="44.12229" lon="6.32372">
        <ele>918.20001220703</ele>
        <time>2022-04-28T16:51:07.066Z</time>
      </trkpt>
      <trkpt lat="44.12228" lon="6.32371">
        <ele>917.79998779297</ele>
        <time>2022-04-28T16:51:11.818Z</time>
      </trkpt>
      <trkpt lat="44.12227" lon="6.3236">
        <ele>919.40002441406</ele>
        <time>2022-04-28T16:51:16.573Z</time>
      </trkpt>
      <trkpt lat="44.12228" lon="6.32355">
        <ele>920.59997558594</ele>
        <time>2022-04-28T16:51:21.329Z</time>
      </trkpt>
      <trkpt lat="44.12228" lon="6.3235">
        <ele>921.59997558594</ele>
        <time>2022-04-28T16:51:26.086Z</time>
      </trkpt>
      <trkpt lat="44.12228" lon="6.32347">
        <ele>922</ele>
        <time>2022-04-28T16:51:30.844Z</time>
      </trkpt>
      <trkpt lat="44.12227" lon="6.32342">
        <ele>922.79998779297</ele>
        <time>2022-04-28T16:51:35.603Z</time>
      </trkpt>
      <trkpt lat="44.12227" lon="6.3234">
        <ele>923.59997558594</ele>
        <time>2022-04-28T16:51:40.363Z</time>
      </trkpt>
      <trkpt lat="44.12226" lon="6.32338">
        <ele>924.20001220703</ele>
        <time>2022-04-28T16:51:45.123Z</time>
      </trkpt>
      <trkpt lat="44.12225" lon="6.32337">
        <ele>924.59997558594</ele>
        <time>2022-04-28T16:51:49.884Z</time>
      </trkpt>
      <trkpt lat="44.12225" lon="6.32337">
        <ele>924.59997558594</ele>
        <time>2022-04-28T16:51:54.645Z</time>
      </trkpt>
      <trkpt lat="44.12221" lon="6.32335">
        <ele>925.20001220703</ele>
        <time>2022-04-28T16:51:59.407Z</time>
      </trkpt>
      <trkpt lat="44.12219" lon="6.32331">
        <ele>924.79998779297</ele>
        <time>2022-04-28T16:52:04.170Z</time>
      </trkpt>
      <trkpt lat="44.12216" lon="6.32321">
        <ele>925.59997558594</ele>
        <time>2022-04-28T16:52:08.935Z</time>
      </trkpt>
      <trkpt lat="44.12214" lon="6.32316">
        <ele>927.40002441406</ele>
        <time>2022-04-28T16:52:13.702Z</time>
      </trkpt>
      <trkpt lat="44.12212" lon="6.32311">
        <ele>928.40002441406</ele>
        <time>2022-04-28T16:52:18.470Z</time>
      </trkpt>
      <trkpt lat="44.12208" lon="6.32305">
        <ele>929.59997558594</ele>
        <time>2022-04-28T16:52:23.240Z</time>
      </trkpt>
      <trkpt lat="44.12206" lon="6.32304">
        <ele>930</ele>
        <time>2022-04-28T16:52:28.011Z</time>
      </trkpt>
      <trkpt lat="44.12205" lon="6.32301">
        <ele>931</ele>
        <time>2022-04-28T16:52:32.782Z</time>
      </trkpt>
      <trkpt lat="44.12205" lon="6.32302">
        <ele>931.79998779297</ele>
        <time>2022-04-28T16:52:37.553Z</time>
      </trkpt>
      <trkpt lat="44.12204" lon="6.32299">
        <ele>932.20001220703</ele>
        <time>2022-04-28T16:52:42.325Z</time>
      </trkpt>
      <trkpt lat="44.12204" lon="6.32294">
        <ele>932.59997558594</ele>
        <time>2022-04-28T16:52:47.098Z</time>
      </trkpt>
      <trkpt lat="44.12203" lon="6.32287">
        <ele>934</ele>
        <time>2022-04-28T16:52:51.873Z</time>
      </trkpt>
      <trkpt lat="44.12195" lon="6.32281">
        <ele>935</ele>
        <time>2022-04-28T16:52:56.651Z</time>
      </trkpt>
      <trkpt lat="44.12186" lon="6.32277">
        <ele>935</ele>
        <time>2022-04-28T16:53:01.432Z</time>
      </trkpt>
      <trkpt lat="44.12186" lon="6.32272">
        <ele>935</ele>
        <time>2022-04-28T16:53:06.214Z</time>
      </trkpt>
      <trkpt lat="44.12185" lon="6.32263">
        <ele>936</ele>
        <time>2022-04-28T16:53:10.998Z</time>
      </trkpt>
      <trkpt lat="44.12185" lon="6.32255">
        <ele>937</ele>
        <time>2022-04-28T16:53:15.784Z</time>
      </trkpt>
      <trkpt lat="44.12186" lon="6.3225">
        <ele>938.59997558594</ele>
        <time>2022-04-28T16:53:20.571Z</time>
      </trkpt>
      <trkpt lat="44.12188" lon="6.32244">
        <ele>939.59997558594</ele>
        <time>2022-04-28T16:53:25.359Z</time>
      </trkpt>
      <trkpt lat="44.12189" lon="6.32241">
        <ele>940</ele>
        <time>2022-04-28T16:53:30.148Z</time>
      </trkpt>
      <trkpt lat="44.12189" lon="6.32238">
        <ele>940.59997558594</ele>
        <time>2022-04-28T16:53:34.938Z</time>
      </trkpt>
      <trkpt lat="44.12191" lon="6.3223">
        <ele>942.20001220703</ele>
        <time>2022-04-28T16:53:39.730Z</time>
      </trkpt>
      <trkpt lat="44.12191" lon="6.32228">
        <ele>942.79998779297</ele>
        <time>2022-04-28T16:53:44.522Z</time>
      </trkpt>
      <trkpt lat="44.12191" lon="6.32225">
        <ele>943.59997558594</ele>
        <time>2022-04-28T16:53:49.315Z</time>
      </trkpt>
      <trkpt lat="44.12187" lon="6.32219">
        <ele>944.59997558594</ele>
        <time>2022-04-28T16:53:54.110Z</time>
      </trkpt>
      <trkpt lat="44.12186" lon="6.32216">
        <ele>945</ele>
        <time>2022-04-28T16:53:58.905Z</time>
      </trkpt>
      <trkpt lat="44.12184" lon="6.32211">
        <ele>946</ele>
        <time>2022-04-28T16:54:03.702Z</time>
      </trkpt>
      <trkpt lat="44.12183" lon="6.32208">
        <ele>946.79998779297</ele>
        <time>2022-04-28T16:54:08.499Z</time>
      </trkpt>
      <trkpt lat="44.12182" lon="6.32207">
        <ele>947.40002441406</ele>
        <time>2022-04-28T16:54:13.297Z</time>
      </trkpt>
      <trkpt lat="44.1218" lon="6.32205">
        <ele>947.79998779297</ele>
        <time>2022-04-28T16:54:18.096Z</time>
      </trkpt>
      <trkpt lat="44.1218" lon="6.32202">
        <ele>948.59997558594</ele>
        <time>2022-04-28T16:54:22.895Z</time>
      </trkpt>
      <trkpt lat="44.1218" lon="6.32199">
        <ele>949.20001220703</ele>
        <time>2022-04-28T16:54:27.695Z</time>
      </trkpt>
      <trkpt lat="44.1218" lon="6.32198">
        <ele>949.79998779297</ele>
        <time>2022-04-28T16:54:32.495Z</time>
      </trkpt>
      <trkpt lat="44.1218" lon="6.32198">
        <ele>950.79998779297</ele>
        <time>2022-04-28T16:54:37.295Z</time>
      </trkpt>
      <trkpt lat="44.12179" lon="6.32193">
        <ele>951.20001220703</ele>
        <time>2022-04-28T16:54:42.097Z</time>
      </trkpt>
      <trkpt lat="44.12171" lon="6.32184">
        <ele>950.40002441406</ele>
        <time>2022-04-28T16:54:46.902Z</time>
      </trkpt>
      <trkpt lat="44.1217" lon="6.32183">
        <ele>950.40002441406</ele>
        <time>2022-04-28T16:54:51.707Z</time>
      </trkpt>
      <trkpt lat="44.12164" lon="6.32174">
        <ele>951</ele>
        <time>2022-04-28T16:54:56.515Z</time>
      </trkpt>
      <trkpt lat="44.12163" lon="6.32172">
        <ele>951.20001220703</ele>
        <time>2022-04-28T16:55:01.323Z</time>
      </trkpt>
      <trkpt lat="44.12161" lon="6.32169">
        <ele>951.40002441406</ele>
        <time>2022-04-28T16:55:06.132Z</time>
      </trkpt>
      <trkpt lat="44.1216" lon="6.32167">
        <ele>951.20001220703</ele>
        <time>2022-04-28T16:55:10.942Z</time>
      </trkpt>
      <trkpt lat="44.12155" lon="6.32151">
        <ele>950.20001220703</ele>
        <time>2022-04-28T16:55:15.756Z</time>
      </trkpt>
      <trkpt lat="44.12152" lon="6.32143">
        <ele>949.59997558594</ele>
        <time>2022-04-28T16:55:20.572Z</time>
      </trkpt>
      <trkpt lat="44.12146" lon="6.32132">
        <ele>949</ele>
        <time>2022-04-28T16:55:25.391Z</time>
      </trkpt>
      <trkpt lat="44.12143" lon="6.32126">
        <ele>948.59997558594</ele>
        <time>2022-04-28T16:55:30.212Z</time>
      </trkpt>
      <trkpt lat="44.12141" lon="6.3212">
        <ele>948.20001220703</ele>
        <time>2022-04-28T16:55:35.034Z</time>
      </trkpt>
      <trkpt lat="44.12138" lon="6.32115">
        <ele>947.59997558594</ele>
        <time>2022-04-28T16:55:39.858Z</time>
      </trkpt>
      <trkpt lat="44.12135" lon="6.3211">
        <ele>947.20001220703</ele>
        <time>2022-04-28T16:55:44.683Z</time>
      </trkpt>
      <trkpt lat="44.12132" lon="6.32105">
        <ele>947</ele>
        <time>2022-04-28T16:55:49.510Z</time>
      </trkpt>
      <trkpt lat="44.12127" lon="6.32092">
        <ele>946</ele>
        <time>2022-04-28T16:55:54.340Z</time>
      </trkpt>
      <trkpt lat="44.12124" lon="6.32087">
        <ele>945.59997558594</ele>
        <time>2022-04-28T16:55:59.172Z</time>
      </trkpt>
      <trkpt lat="44.12118" lon="6.32077">
        <ele>945.20001220703</ele>
        <time>2022-04-28T16:56:04.007Z</time>
      </trkpt>
      <trkpt lat="44.12113" lon="6.32066">
        <ele>944.59997558594</ele>
        <time>2022-04-28T16:56:08.844Z</time>
      </trkpt>
      <trkpt lat="44.12109" lon="6.32058">
        <ele>943.20001220703</ele>
        <time>2022-04-28T16:56:13.684Z</time>
      </trkpt>
      <trkpt lat="44.12105" lon="6.32047">
        <ele>942.40002441406</ele>
        <time>2022-04-28T16:56:18.527Z</time>
      </trkpt>
      <trkpt lat="44.12104" lon="6.3204">
        <ele>942</ele>
        <time>2022-04-28T16:56:23.371Z</time>
      </trkpt>
      <trkpt lat="44.12103" lon="6.32034">
        <ele>941.79998779297</ele>
        <time>2022-04-28T16:56:28.217Z</time>
      </trkpt>
      <trkpt lat="44.12098" lon="6.32014">
        <ele>941</ele>
        <time>2022-04-28T16:56:33.068Z</time>
      </trkpt>
      <trkpt lat="44.12089" lon="6.31988">
        <ele>942</ele>
        <time>2022-04-28T16:56:37.925Z</time>
      </trkpt>
      <trkpt lat="44.12086" lon="6.31979">
        <ele>943.40002441406</ele>
        <time>2022-04-28T16:56:42.785Z</time>
      </trkpt>
      <trkpt lat="44.12082" lon="6.31969">
        <ele>944.59997558594</ele>
        <time>2022-04-28T16:56:47.647Z</time>
      </trkpt>
      <trkpt lat="44.1208" lon="6.31966">
        <ele>944.79998779297</ele>
        <time>2022-04-28T16:56:52.510Z</time>
      </trkpt>
      <trkpt lat="44.12075" lon="6.31952">
        <ele>946</ele>
        <time>2022-04-28T16:56:57.376Z</time>
      </trkpt>
      <trkpt lat="44.12071" lon="6.31946">
        <ele>946.59997558594</ele>
        <time>2022-04-28T16:57:02.244Z</time>
      </trkpt>
      <trkpt lat="44.12069" lon="6.31944">
        <ele>946.79998779297</ele>
        <time>2022-04-28T16:57:07.113Z</time>
      </trkpt>
      <trkpt lat="44.12064" lon="6.31945">
        <ele>946.79998779297</ele>
        <time>2022-04-28T16:57:11.984Z</time>
      </trkpt>
      <trkpt lat="44.12058" lon="6.31943">
        <ele>946.20001220703</ele>
        <time>2022-04-28T16:57:16.857Z</time>
      </trkpt>
      <trkpt lat="44.12055" lon="6.31941">
        <ele>945.79998779297</ele>
        <time>2022-04-28T16:57:21.731Z</time>
      </trkpt>
      <trkpt lat="44.12051" lon="6.31939">
        <ele>945.79998779297</ele>
        <time>2022-04-28T16:57:26.606Z</time>
      </trkpt>
      <trkpt lat="44.12045" lon="6.31935">
        <ele>944.59997558594</ele>
        <time>2022-04-28T16:57:31.483Z</time>
      </trkpt>
      <trkpt lat="44.12041" lon="6.31933">
        <ele>944</ele>
        <time>2022-04-28T16:57:36.362Z</time>
      </trkpt>
      <trkpt lat="44.12037" lon="6.31931">
        <ele>943.40002441406</ele>
        <time>2022-04-28T16:57:41.242Z</time>
      </trkpt>
      <trkpt lat="44.12031" lon="6.31924">
        <ele>941.79998779297</ele>
        <time>2022-04-28T16:57:46.124Z</time>
      </trkpt>
      <trkpt lat="44.12029" lon="6.3192">
        <ele>941</ele>
        <time>2022-04-28T16:57:51.007Z</time>
      </trkpt>
      <trkpt lat="44.12028" lon="6.31916">
        <ele>940.40002441406</ele>
        <time>2022-04-28T16:57:55.891Z</time>
      </trkpt>
      <trkpt lat="44.12018" lon="6.31899">
        <ele>940.40002441406</ele>
        <time>2022-04-28T16:58:00.780Z</time>
      </trkpt>
      <trkpt lat="44.12008" lon="6.31881">
        <ele>940.79998779297</ele>
        <time>2022-04-28T16:58:05.675Z</time>
      </trkpt>
      <trkpt lat="44.11999" lon="6.3187">
        <ele>941.20001220703</ele>
        <time>2022-04-28T16:58:10.573Z</time>
      </trkpt>
      <trkpt lat="44.11986" lon="6.31854">
        <ele>940.79998779297</ele>
        <time>2022-04-28T16:58:15.477Z</time>
      </trkpt>
      <trkpt lat="44.11986" lon="6.3185">
        <ele>940.79998779297</ele>
        <time>2022-04-28T16:58:20.382Z</time>
      </trkpt>
      <trkpt lat="44.11987" lon="6.31843">
        <ele>941</ele>
        <time>2022-04-28T16:58:25.288Z</time>
      </trkpt>
      <trkpt lat="44.1199" lon="6.31829">
        <ele>941.20001220703</ele>
        <time>2022-04-28T16:58:30.198Z</time>
      </trkpt>
      <trkpt lat="44.11992" lon="6.31808">
        <ele>941.20001220703</ele>
        <time>2022-04-28T16:58:35.113Z</time>
      </trkpt>
      <trkpt lat="44.11991" lon="6.31792">
        <ele>941.59997558594</ele>
        <time>2022-04-28T16:58:40.031Z</time>
      </trkpt>
      <trkpt lat="44.1199" lon="6.31784">
        <ele>942.40002441406</ele>
        <time>2022-04-28T16:58:44.951Z</time>
      </trkpt>
      <trkpt lat="44.11989" lon="6.3178">
        <ele>942.79998779297</ele>
        <time>2022-04-28T16:58:49.872Z</time>
      </trkpt>
      <trkpt lat="44.11987" lon="6.31769">
        <ele>943.59997558594</ele>
        <time>2022-04-28T16:58:54.796Z</time>
      </trkpt>
      <trkpt lat="44.11983" lon="6.3176">
        <ele>944.40002441406</ele>
        <time>2022-04-28T16:58:59.722Z</time>
      </trkpt>
      <trkpt lat="44.11966" lon="6.31738">
        <ele>943.59997558594</ele>
        <time>2022-04-28T16:59:04.655Z</time>
      </trkpt>
      <trkpt lat="44.11954" lon="6.31728">
        <ele>942.59997558594</ele>
        <time>2022-04-28T16:59:09.593Z</time>
      </trkpt>
      <trkpt lat="44.1195" lon="6.31727">
        <ele>942.20001220703</ele>
        <time>2022-04-28T16:59:14.532Z</time>
      </trkpt>
      <trkpt lat="44.11945" lon="6.31725">
        <ele>941.59997558594</ele>
        <time>2022-04-28T16:59:19.473Z</time>
      </trkpt>
      <trkpt lat="44.11942" lon="6.31722">
        <ele>941</ele>
        <time>2022-04-28T16:59:24.415Z</time>
      </trkpt>
      <trkpt lat="44.11935" lon="6.31714">
        <ele>939.40002441406</ele>
        <time>2022-04-28T16:59:29.360Z</time>
      </trkpt>
      <trkpt lat="44.11927" lon="6.31707">
        <ele>938.20001220703</ele>
        <time>2022-04-28T16:59:34.308Z</time>
      </trkpt>
      <trkpt lat="44.11925" lon="6.31706">
        <ele>937.20001220703</ele>
        <time>2022-04-28T16:59:39.257Z</time>
      </trkpt>
      <trkpt lat="44.11922" lon="6.31705">
        <ele>936</ele>
        <time>2022-04-28T16:59:44.207Z</time>
      </trkpt>
      <trkpt lat="44.11912" lon="6.31709">
        <ele>934.59997558594</ele>
        <time>2022-04-28T16:59:49.160Z</time>
      </trkpt>
      <trkpt lat="44.11907" lon="6.31711">
        <ele>933.20001220703</ele>
        <time>2022-04-28T16:59:54.114Z</time>
      </trkpt>
      <trkpt lat="44.11904" lon="6.31709">
        <ele>931.59997558594</ele>
        <time>2022-04-28T16:59:59.070Z</time>
      </trkpt>
      <trkpt lat="44.11901" lon="6.31713">
        <ele>931.40002441406</ele>
        <time>2022-04-28T17:00:04.027Z</time>
      </trkpt>
      <trkpt lat="44.11901" lon="6.31722">
        <ele>932.20001220703</ele>
        <time>2022-04-28T17:00:08.986Z</time>
      </trkpt>
      <trkpt lat="44.11898" lon="6.31724">
        <ele>932.40002441406</ele>
        <time>2022-04-28T17:00:13.946Z</time>
      </trkpt>
      <trkpt lat="44.11896" lon="6.31725">
        <ele>932.79998779297</ele>
        <time>2022-04-28T17:00:18.907Z</time>
      </trkpt>
      <trkpt lat="44.11894" lon="6.31725">
        <ele>933.20001220703</ele>
        <time>2022-04-28T17:00:23.868Z</time>
      </trkpt>
      <trkpt lat="44.11893" lon="6.31722">
        <ele>933.79998779297</ele>
        <time>2022-04-28T17:00:28.830Z</time>
      </trkpt>
      <trkpt lat="44.11892" lon="6.31718">
        <ele>934.40002441406</ele>
        <time>2022-04-28T17:00:33.793Z</time>
      </trkpt>
      <trkpt lat="44.11892" lon="6.31713">
        <ele>934.79998779297</ele>
        <time>2022-04-28T17:00:38.757Z</time>
      </trkpt>
      <trkpt lat="44.11891" lon="6.31708">
        <ele>935.20001220703</ele>
        <time>2022-04-28T17:00:43.722Z</time>
      </trkpt>
      <trkpt lat="44.11889" lon="6.31702">
        <ele>935.59997558594</ele>
        <time>2022-04-28T17:00:48.689Z</time>
      </trkpt>
      <trkpt lat="44.11889" lon="6.31696">
        <ele>936.40002441406</ele>
        <time>2022-04-28T17:00:53.657Z</time>
      </trkpt>
      <trkpt lat="44.11891" lon="6.31691">
        <ele>937.59997558594</ele>
        <time>2022-04-28T17:00:58.626Z</time>
      </trkpt>
      <trkpt lat="44.1189" lon="6.31688">
        <ele>938</ele>
        <time>2022-04-28T17:01:03.596Z</time>
      </trkpt>
      <trkpt lat="44.1189" lon="6.31684">
        <ele>938.59997558594</ele>
        <time>2022-04-28T17:01:08.567Z</time>
      </trkpt>
      <trkpt lat="44.1189" lon="6.31676">
        <ele>939.79998779297</ele>
        <time>2022-04-28T17:01:13.540Z</time>
      </trkpt>
      <trkpt lat="44.11886" lon="6.31669">
        <ele>940.79998779297</ele>
        <time>2022-04-28T17:01:18.515Z</time>
      </trkpt>
      <trkpt lat="44.11881" lon="6.31664">
        <ele>942.20001220703</ele>
        <time>2022-04-28T17:01:23.492Z</time>
      </trkpt>
      <trkpt lat="44.11877" lon="6.31661">
        <ele>943.40002441406</ele>
        <time>2022-04-28T17:01:28.470Z</time>
      </trkpt>
      <trkpt lat="44.11875" lon="6.31657">
        <ele>944</ele>
        <time>2022-04-28T17:01:33.449Z</time>
      </trkpt>
      <trkpt lat="44.11872" lon="6.31655">
        <ele>944.40002441406</ele>
        <time>2022-04-28T17:01:38.429Z</time>
      </trkpt>
      <trkpt lat="44.11868" lon="6.31656">
        <ele>945</ele>
        <time>2022-04-28T17:01:43.410Z</time>
      </trkpt>
      <trkpt lat="44.11866" lon="6.31654">
        <ele>945.79998779297</ele>
        <time>2022-04-28T17:01:48.392Z</time>
      </trkpt>
      <trkpt lat="44.11866" lon="6.31652">
        <ele>946.20001220703</ele>
        <time>2022-04-28T17:01:53.375Z</time>
      </trkpt>
      <trkpt lat="44.11867" lon="6.31648">
        <ele>946.79998779297</ele>
        <time>2022-04-28T17:01:58.359Z</time>
      </trkpt>
      <trkpt lat="44.11868" lon="6.31638">
        <ele>947.59997558594</ele>
        <time>2022-04-28T17:02:03.345Z</time>
      </trkpt>
      <trkpt lat="44.11869" lon="6.31634">
        <ele>948.20001220703</ele>
        <time>2022-04-28T17:02:08.332Z</time>
      </trkpt>
      <trkpt lat="44.1187" lon="6.3163">
        <ele>949.40002441406</ele>
        <time>2022-04-28T17:02:13.320Z</time>
      </trkpt>
      <trkpt lat="44.1187" lon="6.3163">
        <ele>949.59997558594</ele>
        <time>2022-04-28T17:02:18.308Z</time>
      </trkpt>
      <trkpt lat="44.11872" lon="6.31626">
        <ele>950.59997558594</ele>
        <time>2022-04-28T17:02:23.297Z</time>
      </trkpt>
      <trkpt lat="44.11874" lon="6.31622">
        <ele>950.59997558594</ele>
        <time>2022-04-28T17:02:28.287Z</time>
      </trkpt>
      <trkpt lat="44.11875" lon="6.31615">
        <ele>951.79998779297</ele>
        <time>2022-04-28T17:02:33.279Z</time>
      </trkpt>
      <trkpt lat="44.11875" lon="6.3161">
        <ele>952.40002441406</ele>
        <time>2022-04-28T17:02:38.272Z</time>
      </trkpt>
      <trkpt lat="44.11874" lon="6.31606">
        <ele>952.59997558594</ele>
        <time>2022-04-28T17:02:43.266Z</time>
      </trkpt>
      <trkpt lat="44.11873" lon="6.31603">
        <ele>953</ele>
        <time>2022-04-28T17:02:48.260Z</time>
      </trkpt>
      <trkpt lat="44.11872" lon="6.31599">
        <ele>954.40002441406</ele>
        <time>2022-04-28T17:02:53.255Z</time>
      </trkpt>
      <trkpt lat="44.1187" lon="6.31595">
        <ele>955.40002441406</ele>
        <time>2022-04-28T17:02:58.252Z</time>
      </trkpt>
      <trkpt lat="44.11866" lon="6.31589">
        <ele>955.79998779297</ele>
        <time>2022-04-28T17:03:03.251Z</time>
      </trkpt>
      <trkpt lat="44.11854" lon="6.31581">
        <ele>955.79998779297</ele>
        <time>2022-04-28T17:03:08.254Z</time>
      </trkpt>
      <trkpt lat="44.11838" lon="6.31572">
        <ele>955</ele>
        <time>2022-04-28T17:03:13.262Z</time>
      </trkpt>
      <trkpt lat="44.11823" lon="6.3157">
        <ele>954</ele>
        <time>2022-04-28T17:03:18.275Z</time>
      </trkpt>
      <trkpt lat="44.11819" lon="6.31568">
        <ele>953.20001220703</ele>
        <time>2022-04-28T17:03:23.289Z</time>
      </trkpt>
      <trkpt lat="44.11816" lon="6.31565">
        <ele>952.79998779297</ele>
        <time>2022-04-28T17:03:28.305Z</time>
      </trkpt>
      <trkpt lat="44.11815" lon="6.3156">
        <ele>952.59997558594</ele>
        <time>2022-04-28T17:03:33.322Z</time>
      </trkpt>
      <trkpt lat="44.11813" lon="6.31547">
        <ele>952.40002441406</ele>
        <time>2022-04-28T17:03:38.342Z</time>
      </trkpt>
      <trkpt lat="44.11812" lon="6.31543">
        <ele>952.40002441406</ele>
        <time>2022-04-28T17:03:43.363Z</time>
      </trkpt>
      <trkpt lat="44.11813" lon="6.31523">
        <ele>952.79998779297</ele>
        <time>2022-04-28T17:03:48.388Z</time>
      </trkpt>
      <trkpt lat="44.11815" lon="6.31501">
        <ele>953.20001220703</ele>
        <time>2022-04-28T17:03:53.418Z</time>
      </trkpt>
      <trkpt lat="44.11806" lon="6.31482">
        <ele>953.59997558594</ele>
        <time>2022-04-28T17:03:58.453Z</time>
      </trkpt>
      <trkpt lat="44.11791" lon="6.31473">
        <ele>952.79998779297</ele>
        <time>2022-04-28T17:04:03.494Z</time>
      </trkpt>
      <trkpt lat="44.11781" lon="6.31463">
        <ele>951.79998779297</ele>
        <time>2022-04-28T17:04:08.539Z</time>
      </trkpt>
      <trkpt lat="44.11776" lon="6.31457">
        <ele>951.20001220703</ele>
        <time>2022-04-28T17:04:13.586Z</time>
      </trkpt>
      <trkpt lat="44.11773" lon="6.3145">
        <ele>950.59997558594</ele>
        <time>2022-04-28T17:04:18.634Z</time>
      </trkpt>
      <trkpt lat="44.11773" lon="6.3143">
        <ele>949.79998779297</ele>
        <time>2022-04-28T17:04:23.687Z</time>
      </trkpt>
      <trkpt lat="44.11767" lon="6.31401">
        <ele>949.40002441406</ele>
        <time>2022-04-28T17:04:28.747Z</time>
      </trkpt>
      <trkpt lat="44.11759" lon="6.3139">
        <ele>949.59997558594</ele>
        <time>2022-04-28T17:04:33.811Z</time>
      </trkpt>
      <trkpt lat="44.11753" lon="6.31384">
        <ele>949.79998779297</ele>
        <time>2022-04-28T17:04:38.877Z</time>
      </trkpt>
      <trkpt lat="44.11748" lon="6.31378">
        <ele>949.40002441406</ele>
        <time>2022-04-28T17:04:43.945Z</time>
      </trkpt>
      <trkpt lat="44.11748" lon="6.31377">
        <ele>949.40002441406</ele>
        <time>2022-04-28T17:04:49.013Z</time>
      </trkpt>
      <trkpt lat="44.11744" lon="6.31375">
        <ele>949</ele>
        <time>2022-04-28T17:04:54.083Z</time>
      </trkpt>
      <trkpt lat="44.11741" lon="6.31374">
        <ele>949</ele>
        <time>2022-04-28T17:04:59.153Z</time>
      </trkpt>
      <trkpt lat="44.11738" lon="6.31373">
        <ele>949</ele>
        <time>2022-04-28T17:05:04.224Z</time>
      </trkpt>
      <trkpt lat="44.11726" lon="6.31375">
        <ele>948.59997558594</ele>
        <time>2022-04-28T17:05:09.299Z</time>
      </trkpt>
      <trkpt lat="44.11713" lon="6.31375">
        <ele>948.40002441406</ele>
        <time>2022-04-28T17:05:14.379Z</time>
      </trkpt>
      <trkpt lat="44.11702" lon="6.3137">
        <ele>948.79998779297</ele>
        <time>2022-04-28T17:05:19.462Z</time>
      </trkpt>
      <trkpt lat="44.11687" lon="6.31377">
        <ele>949</ele>
        <time>2022-04-28T17:05:24.550Z</time>
      </trkpt>
      <trkpt lat="44.11674" lon="6.31399">
        <ele>949.59997558594</ele>
        <time>2022-04-28T17:05:29.644Z</time>
      </trkpt>
      <trkpt lat="44.1166" lon="6.31431">
        <ele>949.59997558594</ele>
        <time>2022-04-28T17:05:34.747Z</time>
      </trkpt>
      <trkpt lat="44.11636" lon="6.3146">
        <ele>950.20001220703</ele>
        <time>2022-04-28T17:05:39.860Z</time>
      </trkpt>
      <trkpt lat="44.11621" lon="6.31464">
        <ele>950</ele>
        <time>2022-04-28T17:05:44.978Z</time>
      </trkpt>
      <trkpt lat="44.11601" lon="6.31447">
        <ele>949.79998779297</ele>
        <time>2022-04-28T17:05:50.103Z</time>
      </trkpt>
      <trkpt lat="44.11591" lon="6.31432">
        <ele>950.40002441406</ele>
        <time>2022-04-28T17:05:55.233Z</time>
      </trkpt>
      <trkpt lat="44.11584" lon="6.31421">
        <ele>950.59997558594</ele>
        <time>2022-04-28T17:06:00.366Z</time>
      </trkpt>
      <trkpt lat="44.11564" lon="6.314">
        <ele>951.40002441406</ele>
        <time>2022-04-28T17:06:05.507Z</time>
      </trkpt>
      <trkpt lat="44.1154" lon="6.31392">
        <ele>952</ele>
        <time>2022-04-28T17:06:10.656Z</time>
      </trkpt>
      <trkpt lat="44.11521" lon="6.31391">
        <ele>952.40002441406</ele>
        <time>2022-04-28T17:06:15.811Z</time>
      </trkpt>
      <trkpt lat="44.11514" lon="6.31389">
        <ele>952.59997558594</ele>
        <time>2022-04-28T17:06:20.968Z</time>
      </trkpt>
      <trkpt lat="44.11496" lon="6.31391">
        <ele>952.79998779297</ele>
        <time>2022-04-28T17:06:26.131Z</time>
      </trkpt>
      <trkpt lat="44.11484" lon="6.31404">
        <ele>953.40002441406</ele>
        <time>2022-04-28T17:06:31.299Z</time>
      </trkpt>
      <trkpt lat="44.11482" lon="6.31408">
        <ele>953.59997558594</ele>
        <time>2022-04-28T17:06:36.468Z</time>
      </trkpt>
      <trkpt lat="44.11469" lon="6.31435">
        <ele>954.20001220703</ele>
        <time>2022-04-28T17:06:41.645Z</time>
      </trkpt>
      <trkpt lat="44.11462" lon="6.31448">
        <ele>954.59997558594</ele>
        <time>2022-04-28T17:06:46.825Z</time>
      </trkpt>
      <trkpt lat="44.11456" lon="6.3146">
        <ele>955</ele>
        <time>2022-04-28T17:06:52.009Z</time>
      </trkpt>
      <trkpt lat="44.1144" lon="6.31479">
        <ele>955.79998779297</ele>
        <time>2022-04-28T17:06:57.199Z</time>
      </trkpt>
      <trkpt lat="44.11427" lon="6.31496">
        <ele>957.20001220703</ele>
        <time>2022-04-28T17:07:02.395Z</time>
      </trkpt>
      <trkpt lat="44.11419" lon="6.31504">
        <ele>957.59997558594</ele>
        <time>2022-04-28T17:07:07.594Z</time>
      </trkpt>
      <trkpt lat="44.1141" lon="6.31511">
        <ele>958.20001220703</ele>
        <time>2022-04-28T17:07:12.796Z</time>
      </trkpt>
      <trkpt lat="44.11398" lon="6.31521">
        <ele>958.79998779297</ele>
        <time>2022-04-28T17:07:18.003Z</time>
      </trkpt>
      <trkpt lat="44.11389" lon="6.3153">
        <ele>959.20001220703</ele>
        <time>2022-04-28T17:07:23.213Z</time>
      </trkpt>
      <trkpt lat="44.11376" lon="6.31537">
        <ele>959.59997558594</ele>
        <time>2022-04-28T17:07:28.428Z</time>
      </trkpt>
      <trkpt lat="44.11352" lon="6.31533">
        <ele>959.40002441406</ele>
        <time>2022-04-28T17:07:33.650Z</time>
      </trkpt>
      <trkpt lat="44.1133" lon="6.31529">
        <ele>958.59997558594</ele>
        <time>2022-04-28T17:07:38.879Z</time>
      </trkpt>
      <trkpt lat="44.11325" lon="6.3153">
        <ele>958.20001220703</ele>
        <time>2022-04-28T17:07:44.110Z</time>
      </trkpt>
      <trkpt lat="44.11319" lon="6.31531">
        <ele>958</ele>
        <time>2022-04-28T17:07:49.343Z</time>
      </trkpt>
      <trkpt lat="44.11308" lon="6.31538">
        <ele>957.40002441406</ele>
        <time>2022-04-28T17:07:54.579Z</time>
      </trkpt>
      <trkpt lat="44.11303" lon="6.3154">
        <ele>957.20001220703</ele>
        <time>2022-04-28T17:07:59.817Z</time>
      </trkpt>
      <trkpt lat="44.11298" lon="6.3154">
        <ele>957.20001220703</ele>
        <time>2022-04-28T17:08:05.057Z</time>
      </trkpt>
      <trkpt lat="44.11284" lon="6.3153">
        <ele>956.59997558594</ele>
        <time>2022-04-28T17:08:10.302Z</time>
      </trkpt>
      <trkpt lat="44.11275" lon="6.31517">
        <ele>956.79998779297</ele>
        <time>2022-04-28T17:08:15.551Z</time>
      </trkpt>
      <trkpt lat="44.11269" lon="6.3151">
        <ele>957.40002441406</ele>
        <time>2022-04-28T17:08:20.802Z</time>
      </trkpt>
      <trkpt lat="44.11264" lon="6.31504">
        <ele>958</ele>
        <time>2022-04-28T17:08:26.056Z</time>
      </trkpt>
      <trkpt lat="44.11249" lon="6.31498">
        <ele>959.20001220703</ele>
        <time>2022-04-28T17:08:31.314Z</time>
      </trkpt>
      <trkpt lat="44.11231" lon="6.31496">
        <ele>959</ele>
        <time>2022-04-28T17:08:36.578Z</time>
      </trkpt>
      <trkpt lat="44.11226" lon="6.31494">
        <ele>958.79998779297</ele>
        <time>2022-04-28T17:08:41.844Z</time>
      </trkpt>
      <trkpt lat="44.11221" lon="6.31484">
        <ele>958.40002441406</ele>
        <time>2022-04-28T17:08:47.112Z</time>
      </trkpt>
      <trkpt lat="44.11222" lon="6.31478">
        <ele>958.20001220703</ele>
        <time>2022-04-28T17:08:52.382Z</time>
      </trkpt>
      <trkpt lat="44.11227" lon="6.3147">
        <ele>958</ele>
        <time>2022-04-28T17:08:57.654Z</time>
      </trkpt>
      <trkpt lat="44.11235" lon="6.31448">
        <ele>958.79998779297</ele>
        <time>2022-04-28T17:09:02.932Z</time>
      </trkpt>
      <trkpt lat="44.11233" lon="6.31439">
        <ele>959.20001220703</ele>
        <time>2022-04-28T17:09:08.212Z</time>
      </trkpt>
      <trkpt lat="44.11229" lon="6.31432">
        <ele>960</ele>
        <time>2022-04-28T17:09:13.494Z</time>
      </trkpt>
      <trkpt lat="44.11226" lon="6.31429">
        <ele>960.20001220703</ele>
        <time>2022-04-28T17:09:18.777Z</time>
      </trkpt>
      <trkpt lat="44.11214" lon="6.31418">
        <ele>961.40002441406</ele>
        <time>2022-04-28T17:09:24.065Z</time>
      </trkpt>
      <trkpt lat="44.11209" lon="6.31412">
        <ele>961.79998779297</ele>
        <time>2022-04-28T17:09:29.355Z</time>
      </trkpt>
      <trkpt lat="44.11201" lon="6.31403">
        <ele>962.59997558594</ele>
        <time>2022-04-28T17:09:34.648Z</time>
      </trkpt>
      <trkpt lat="44.11191" lon="6.31388">
        <ele>963.79998779297</ele>
        <time>2022-04-28T17:09:39.946Z</time>
      </trkpt>
      <trkpt lat="44.1119" lon="6.31384">
        <ele>964</ele>
        <time>2022-04-28T17:09:45.245Z</time>
      </trkpt>
      <trkpt lat="44.11185" lon="6.31372">
        <ele>964.79998779297</ele>
        <time>2022-04-28T17:09:50.547Z</time>
      </trkpt>
      <trkpt lat="44.11179" lon="6.31361">
        <ele>966.40002441406</ele>
        <time>2022-04-28T17:09:55.852Z</time>
      </trkpt>
      <trkpt lat="44.11177" lon="6.31358">
        <ele>966.59997558594</ele>
        <time>2022-04-28T17:10:01.158Z</time>
      </trkpt>
      <trkpt lat="44.11169" lon="6.3135">
        <ele>967.79998779297</ele>
        <time>2022-04-28T17:10:06.467Z</time>
      </trkpt>
      <trkpt lat="44.11164" lon="6.31346">
        <ele>968.40002441406</ele>
        <time>2022-04-28T17:10:11.778Z</time>
      </trkpt>
      <trkpt lat="44.11158" lon="6.31345">
        <ele>969</ele>
        <time>2022-04-28T17:10:17.091Z</time>
      </trkpt>
      <trkpt lat="44.11147" lon="6.31342">
        <ele>970</ele>
        <time>2022-04-28T17:10:22.408Z</time>
      </trkpt>
      <trkpt lat="44.11144" lon="6.31341">
        <ele>970.40002441406</ele>
        <time>2022-04-28T17:10:27.726Z</time>
      </trkpt>
      <trkpt lat="44.11137" lon="6.31337">
        <ele>971.40002441406</ele>
        <time>2022-04-28T17:10:33.046Z</time>
      </trkpt>
      <trkpt lat="44.11133" lon="6.31331">
        <ele>972.20001220703</ele>
        <time>2022-04-28T17:10:38.368Z</time>
      </trkpt>
      <trkpt lat="44.11131" lon="6.31328">
        <ele>972.40002441406</ele>
        <time>2022-04-28T17:10:43.691Z</time>
      </trkpt>
      <trkpt lat="44.11125" lon="6.31316">
        <ele>973.40002441406</ele>
        <time>2022-04-28T17:10:49.017Z</time>
      </trkpt>
      <trkpt lat="44.11119" lon="6.31302">
        <ele>974.40002441406</ele>
        <time>2022-04-28T17:10:54.347Z</time>
      </trkpt>
      <trkpt lat="44.11117" lon="6.31298">
        <ele>974.59997558594</ele>
        <time>2022-04-28T17:10:59.678Z</time>
      </trkpt>
      <trkpt lat="44.11112" lon="6.31278">
        <ele>975.20001220703</ele>
        <time>2022-04-28T17:11:05.014Z</time>
      </trkpt>
      <trkpt lat="44.11112" lon="6.31271">
        <ele>975.59997558594</ele>
        <time>2022-04-28T17:11:10.352Z</time>
      </trkpt>
      <trkpt lat="44.11113" lon="6.31259">
        <ele>976.59997558594</ele>
        <time>2022-04-28T17:11:15.692Z</time>
      </trkpt>
      <trkpt lat="44.11112" lon="6.31247">
        <ele>977.79998779297</ele>
        <time>2022-04-28T17:11:21.035Z</time>
      </trkpt>
      <trkpt lat="44.1111" lon="6.31226">
        <ele>979</ele>
        <time>2022-04-28T17:11:26.383Z</time>
      </trkpt>
      <trkpt lat="44.11109" lon="6.31222">
        <ele>979.20001220703</ele>
        <time>2022-04-28T17:11:31.732Z</time>
      </trkpt>
      <trkpt lat="44.11106" lon="6.31211">
        <ele>980</ele>
        <time>2022-04-28T17:11:37.084Z</time>
      </trkpt>
      <trkpt lat="44.11102" lon="6.31201">
        <ele>981</ele>
        <time>2022-04-28T17:11:42.438Z</time>
      </trkpt>
      <trkpt lat="44.11099" lon="6.31199">
        <ele>981.20001220703</ele>
        <time>2022-04-28T17:11:47.793Z</time>
      </trkpt>
      <trkpt lat="44.11088" lon="6.31195">
        <ele>982</ele>
        <time>2022-04-28T17:11:53.152Z</time>
      </trkpt>
      <trkpt lat="44.11082" lon="6.31197">
        <ele>982.40002441406</ele>
        <time>2022-04-28T17:11:58.513Z</time>
      </trkpt>
      <trkpt lat="44.11075" lon="6.31203">
        <ele>982.79998779297</ele>
        <time>2022-04-28T17:12:03.876Z</time>
      </trkpt>
      <trkpt lat="44.11071" lon="6.31208">
        <ele>983.40002441406</ele>
        <time>2022-04-28T17:12:09.241Z</time>
      </trkpt>
      <trkpt lat="44.11063" lon="6.31219">
        <ele>984.59997558594</ele>
        <time>2022-04-28T17:12:14.609Z</time>
      </trkpt>
      <trkpt lat="44.11061" lon="6.31222">
        <ele>984.79998779297</ele>
        <time>2022-04-28T17:12:19.978Z</time>
      </trkpt>
      <trkpt lat="44.11051" lon="6.3123">
        <ele>985.79998779297</ele>
        <time>2022-04-28T17:12:25.351Z</time>
      </trkpt>
      <trkpt lat="44.11045" lon="6.31235">
        <ele>986.59997558594</ele>
        <time>2022-04-28T17:12:30.726Z</time>
      </trkpt>
      <trkpt lat="44.11042" lon="6.31236">
        <ele>987</ele>
        <time>2022-04-28T17:12:36.102Z</time>
      </trkpt>
      <trkpt lat="44.11033" lon="6.31241">
        <ele>988</ele>
        <time>2022-04-28T17:12:41.481Z</time>
      </trkpt>
      <trkpt lat="44.11028" lon="6.31243">
        <ele>988.59997558594</ele>
        <time>2022-04-28T17:12:46.862Z</time>
      </trkpt>
      <trkpt lat="44.11023" lon="6.31245">
        <ele>989.20001220703</ele>
        <time>2022-04-28T17:12:52.245Z</time>
      </trkpt>
      <trkpt lat="44.11011" lon="6.31249">
        <ele>990.40002441406</ele>
        <time>2022-04-28T17:12:57.631Z</time>
      </trkpt>
      <trkpt lat="44.11" lon="6.31252">
        <ele>991.40002441406</ele>
        <time>2022-04-28T17:13:03.021Z</time>
      </trkpt>
      <trkpt lat="44.10997" lon="6.31251">
        <ele>991.59997558594</ele>
        <time>2022-04-28T17:13:08.412Z</time>
      </trkpt>
      <trkpt lat="44.10988" lon="6.31246">
        <ele>992.59997558594</ele>
        <time>2022-04-28T17:13:13.806Z</time>
      </trkpt>
      <trkpt lat="44.10983" lon="6.31243">
        <ele>993</ele>
        <time>2022-04-28T17:13:19.202Z</time>
      </trkpt>
      <trkpt lat="44.10979" lon="6.31239">
        <ele>993.59997558594</ele>
        <time>2022-04-28T17:13:24.599Z</time>
      </trkpt>
      <trkpt lat="44.10971" lon="6.31231">
        <ele>994.59997558594</ele>
        <time>2022-04-28T17:13:30.000Z</time>
      </trkpt>
      <trkpt lat="44.10962" lon="6.31218">
        <ele>996</ele>
        <time>2022-04-28T17:13:35.405Z</time>
      </trkpt>
      <trkpt lat="44.10959" lon="6.31213">
        <ele>996.59997558594</ele>
        <time>2022-04-28T17:13:40.811Z</time>
      </trkpt>
      <trkpt lat="44.10956" lon="6.31207">
        <ele>997</ele>
        <time>2022-04-28T17:13:46.219Z</time>
      </trkpt>
      <trkpt lat="44.10952" lon="6.31199">
        <ele>997.79998779297</ele>
        <time>2022-04-28T17:13:51.629Z</time>
      </trkpt>
      <trkpt lat="44.1095" lon="6.31197">
        <ele>998</ele>
        <time>2022-04-28T17:13:57.040Z</time>
      </trkpt>
      <trkpt lat="44.10945" lon="6.31188">
        <ele>999</ele>
        <time>2022-04-28T17:14:02.453Z</time>
      </trkpt>
      <trkpt lat="44.10944" lon="6.31185">
        <ele>999.20001220703</ele>
        <time>2022-04-28T17:14:07.867Z</time>
      </trkpt>
      <trkpt lat="44.10936" lon="6.31171">
        <ele>1000.4000244141</ele>
        <time>2022-04-28T17:14:13.285Z</time>
      </trkpt>
      <trkpt lat="44.10933" lon="6.31165">
        <ele>1001</ele>
        <time>2022-04-28T17:14:18.705Z</time>
      </trkpt>
      <trkpt lat="44.1093" lon="6.31156">
        <ele>1001.4000244141</ele>
        <time>2022-04-28T17:14:24.127Z</time>
      </trkpt>
      <trkpt lat="44.10923" lon="6.31141">
        <ele>1002.5999755859</ele>
        <time>2022-04-28T17:14:29.553Z</time>
      </trkpt>
      <trkpt lat="44.10922" lon="6.31138">
        <ele>1002.5999755859</ele>
        <time>2022-04-28T17:14:34.980Z</time>
      </trkpt>
      <trkpt lat="44.10917" lon="6.31125">
        <ele>1003.5999755859</ele>
        <time>2022-04-28T17:14:40.410Z</time>
      </trkpt>
      <trkpt lat="44.10909" lon="6.3111">
        <ele>1004.5999755859</ele>
        <time>2022-04-28T17:14:45.845Z</time>
      </trkpt>
      <trkpt lat="44.10907" lon="6.31107">
        <ele>1004.799987793</ele>
        <time>2022-04-28T17:14:51.280Z</time>
      </trkpt>
      <trkpt lat="44.10901" lon="6.31096">
        <ele>1006</ele>
        <time>2022-04-28T17:14:56.719Z</time>
      </trkpt>
      <trkpt lat="44.10896" lon="6.31087">
        <ele>1006.5999755859</ele>
        <time>2022-04-28T17:15:02.160Z</time>
      </trkpt>
      <trkpt lat="44.10893" lon="6.31081">
        <ele>1007.200012207</ele>
        <time>2022-04-28T17:15:07.603Z</time>
      </trkpt>
      <trkpt lat="44.10887" lon="6.31066">
        <ele>1008.200012207</ele>
        <time>2022-04-28T17:15:13.050Z</time>
      </trkpt>
      <trkpt lat="44.10886" lon="6.31063">
        <ele>1008.200012207</ele>
        <time>2022-04-28T17:15:18.498Z</time>
      </trkpt>
      <trkpt lat="44.10879" lon="6.31042">
        <ele>1009</ele>
        <time>2022-04-28T17:15:23.951Z</time>
      </trkpt>
      <trkpt lat="44.10877" lon="6.31039">
        <ele>1009.4000244141</ele>
        <time>2022-04-28T17:15:29.405Z</time>
      </trkpt>
      <trkpt lat="44.10864" lon="6.31029">
        <ele>1010</ele>
        <time>2022-04-28T17:15:34.863Z</time>
      </trkpt>
      <trkpt lat="44.10859" lon="6.31031">
        <ele>1010</ele>
        <time>2022-04-28T17:15:40.323Z</time>
      </trkpt>
      <trkpt lat="44.10856" lon="6.31034">
        <ele>1010.200012207</ele>
        <time>2022-04-28T17:15:45.784Z</time>
      </trkpt>
      <trkpt lat="44.10854" lon="6.31051">
        <ele>1010.4000244141</ele>
        <time>2022-04-28T17:15:51.249Z</time>
      </trkpt>
      <trkpt lat="44.10855" lon="6.31055">
        <ele>1010.4000244141</ele>
        <time>2022-04-28T17:15:56.715Z</time>
      </trkpt>
      <trkpt lat="44.10859" lon="6.31076">
        <ele>1011.4000244141</ele>
        <time>2022-04-28T17:16:02.186Z</time>
      </trkpt>
      <trkpt lat="44.10861" lon="6.31087">
        <ele>1012.5999755859</ele>
        <time>2022-04-28T17:16:07.660Z</time>
      </trkpt>
      <trkpt lat="44.10862" lon="6.31101">
        <ele>1013.799987793</ele>
        <time>2022-04-28T17:16:13.137Z</time>
      </trkpt>
      <trkpt lat="44.10862" lon="6.31105">
        <ele>1014</ele>
        <time>2022-04-28T17:16:18.615Z</time>
      </trkpt>
      <trkpt lat="44.10862" lon="6.31116">
        <ele>1014.799987793</ele>
        <time>2022-04-28T17:16:24.095Z</time>
      </trkpt>
      <trkpt lat="44.10861" lon="6.31129">
        <ele>1016</ele>
        <time>2022-04-28T17:16:29.578Z</time>
      </trkpt>
      <trkpt lat="44.10861" lon="6.31136">
        <ele>1016.4000244141</ele>
        <time>2022-04-28T17:16:35.063Z</time>
      </trkpt>
      <trkpt lat="44.1086" lon="6.31147">
        <ele>1017</ele>
        <time>2022-04-28T17:16:40.550Z</time>
      </trkpt>
      <trkpt lat="44.1086" lon="6.31154">
        <ele>1018</ele>
        <time>2022-04-28T17:16:46.039Z</time>
      </trkpt>
      <trkpt lat="44.1086" lon="6.31165">
        <ele>1019</ele>
        <time>2022-04-28T17:16:51.530Z</time>
      </trkpt>
      <trkpt lat="44.10862" lon="6.31179">
        <ele>1020.200012207</ele>
        <time>2022-04-28T17:16:57.025Z</time>
      </trkpt>
      <trkpt lat="44.10867" lon="6.31191">
        <ele>1021.4000244141</ele>
        <time>2022-04-28T17:17:02.523Z</time>
      </trkpt>
      <trkpt lat="44.10874" lon="6.31206">
        <ele>1022.4000244141</ele>
        <time>2022-04-28T17:17:08.025Z</time>
      </trkpt>
      <trkpt lat="44.10876" lon="6.31216">
        <ele>1023.4000244141</ele>
        <time>2022-04-28T17:17:13.529Z</time>
      </trkpt>
      <trkpt lat="44.10877" lon="6.3122">
        <ele>1023.4000244141</ele>
        <time>2022-04-28T17:17:19.034Z</time>
      </trkpt>
      <trkpt lat="44.10876" lon="6.31237">
        <ele>1024.4000244141</ele>
        <time>2022-04-28T17:17:24.543Z</time>
      </trkpt>
      <trkpt lat="44.10876" lon="6.31244">
        <ele>1025</ele>
        <time>2022-04-28T17:17:30.054Z</time>
      </trkpt>
      <trkpt lat="44.10877" lon="6.31258">
        <ele>1025.8000488281</ele>
        <time>2022-04-28T17:17:35.568Z</time>
      </trkpt>
      <trkpt lat="44.10879" lon="6.31272">
        <ele>1026.8000488281</ele>
        <time>2022-04-28T17:17:41.085Z</time>
      </trkpt>
      <trkpt lat="44.10879" lon="6.3129">
        <ele>1028</ele>
        <time>2022-04-28T17:17:46.606Z</time>
      </trkpt>
      <trkpt lat="44.10879" lon="6.31303">
        <ele>1029</ele>
        <time>2022-04-28T17:17:52.130Z</time>
      </trkpt>
      <trkpt lat="44.10879" lon="6.3131">
        <ele>1029.4000244141</ele>
        <time>2022-04-28T17:17:57.656Z</time>
      </trkpt>
      <trkpt lat="44.10878" lon="6.31325">
        <ele>1030</ele>
        <time>2022-04-28T17:18:03.185Z</time>
      </trkpt>
      <trkpt lat="44.10878" lon="6.31342">
        <ele>1031.1999511719</ele>
        <time>2022-04-28T17:18:08.718Z</time>
      </trkpt>
      <trkpt lat="44.10877" lon="6.31349">
        <ele>1031.5999755859</ele>
        <time>2022-04-28T17:18:14.253Z</time>
      </trkpt>
      <trkpt lat="44.10877" lon="6.31356">
        <ele>1032.1999511719</ele>
        <time>2022-04-28T17:18:19.790Z</time>
      </trkpt>
      <trkpt lat="44.10874" lon="6.31374">
        <ele>1033</ele>
        <time>2022-04-28T17:18:25.331Z</time>
      </trkpt>
      <trkpt lat="44.10873" lon="6.31377">
        <ele>1033.1999511719</ele>
        <time>2022-04-28T17:18:30.872Z</time>
      </trkpt>
      <trkpt lat="44.10871" lon="6.3139">
        <ele>1034.4000244141</ele>
        <time>2022-04-28T17:18:36.417Z</time>
      </trkpt>
      <trkpt lat="44.1087" lon="6.31408">
        <ele>1035.5999755859</ele>
        <time>2022-04-28T17:18:41.966Z</time>
      </trkpt>
      <trkpt lat="44.1087" lon="6.31425">
        <ele>1036.5999755859</ele>
        <time>2022-04-28T17:18:47.519Z</time>
      </trkpt>
      <trkpt lat="44.1087" lon="6.31436">
        <ele>1037.5999755859</ele>
        <time>2022-04-28T17:18:53.074Z</time>
      </trkpt>
      <trkpt lat="44.1087" lon="6.31439">
        <ele>1037.8000488281</ele>
        <time>2022-04-28T17:18:58.630Z</time>
      </trkpt>
      <trkpt lat="44.10871" lon="6.31456">
        <ele>1038.8000488281</ele>
        <time>2022-04-28T17:19:04.190Z</time>
      </trkpt>
      <trkpt lat="44.10869" lon="6.3147">
        <ele>1039.5999755859</ele>
        <time>2022-04-28T17:19:09.753Z</time>
      </trkpt>
      <trkpt lat="44.10869" lon="6.31474">
        <ele>1039.8000488281</ele>
        <time>2022-04-28T17:19:15.317Z</time>
      </trkpt>
      <trkpt lat="44.10866" lon="6.31491">
        <ele>1041.1999511719</ele>
        <time>2022-04-28T17:19:20.885Z</time>
      </trkpt>
      <trkpt lat="44.10865" lon="6.31494">
        <ele>1041.5999755859</ele>
        <time>2022-04-28T17:19:26.454Z</time>
      </trkpt>
      <trkpt lat="44.10863" lon="6.31496">
        <ele>1041.8000488281</ele>
        <time>2022-04-28T17:19:32.023Z</time>
      </trkpt>
      <trkpt lat="44.10858" lon="6.31497">
        <ele>1042.4000244141</ele>
        <time>2022-04-28T17:19:37.594Z</time>
      </trkpt>
      <trkpt lat="44.10856" lon="6.31495">
        <ele>1042.5999755859</ele>
        <time>2022-04-28T17:19:43.165Z</time>
      </trkpt>
      <trkpt lat="44.10851" lon="6.31487">
        <ele>1043.1999511719</ele>
        <time>2022-04-28T17:19:48.739Z</time>
      </trkpt>
      <trkpt lat="44.10846" lon="6.31479">
        <ele>1043.4000244141</ele>
        <time>2022-04-28T17:19:54.315Z</time>
      </trkpt>
      <trkpt lat="44.10836" lon="6.31473">
        <ele>1044.5999755859</ele>
        <time>2022-04-28T17:19:59.895Z</time>
      </trkpt>
      <trkpt lat="44.10833" lon="6.31473">
        <ele>1045</ele>
        <time>2022-04-28T17:20:05.476Z</time>
      </trkpt>
      <trkpt lat="44.10821" lon="6.31476">
        <ele>1045.5999755859</ele>
        <time>2022-04-28T17:20:11.061Z</time>
      </trkpt>
      <trkpt lat="44.10816" lon="6.3148">
        <ele>1046</ele>
        <time>2022-04-28T17:20:16.647Z</time>
      </trkpt>
      <trkpt lat="44.10805" lon="6.31499">
        <ele>1046.5999755859</ele>
        <time>2022-04-28T17:20:22.239Z</time>
      </trkpt>
      <trkpt lat="44.10803" lon="6.31503">
        <ele>1046.8000488281</ele>
        <time>2022-04-28T17:20:27.832Z</time>
      </trkpt>
      <trkpt lat="44.10797" lon="6.31522">
        <ele>1047.8000488281</ele>
        <time>2022-04-28T17:20:33.430Z</time>
      </trkpt>
      <trkpt lat="44.10788" lon="6.31544">
        <ele>1048.8000488281</ele>
        <time>2022-04-28T17:20:39.034Z</time>
      </trkpt>
      <trkpt lat="44.10787" lon="6.31548">
        <ele>1049</ele>
        <time>2022-04-28T17:20:44.639Z</time>
      </trkpt>
      <trkpt lat="44.10781" lon="6.31566">
        <ele>1050</ele>
        <time>2022-04-28T17:20:50.248Z</time>
      </trkpt>
      <trkpt lat="44.10777" lon="6.31578">
        <ele>1050.5999755859</ele>
        <time>2022-04-28T17:20:55.860Z</time>
      </trkpt>
      <trkpt lat="44.10774" lon="6.31585">
        <ele>1051</ele>
        <time>2022-04-28T17:21:01.474Z</time>
      </trkpt>
      <trkpt lat="44.10766" lon="6.316">
        <ele>1052.4000244141</ele>
        <time>2022-04-28T17:21:07.092Z</time>
      </trkpt>
      <trkpt lat="44.10764" lon="6.31603">
        <ele>1052.5999755859</ele>
        <time>2022-04-28T17:21:12.711Z</time>
      </trkpt>
      <trkpt lat="44.10755" lon="6.31617">
        <ele>1053.8000488281</ele>
        <time>2022-04-28T17:21:18.335Z</time>
      </trkpt>
      <trkpt lat="44.1075" lon="6.31625">
        <ele>1054.5999755859</ele>
        <time>2022-04-28T17:21:23.961Z</time>
      </trkpt>
      <trkpt lat="44.10746" lon="6.31631">
        <ele>1054.8000488281</ele>
        <time>2022-04-28T17:21:29.589Z</time>
      </trkpt>
      <trkpt lat="44.10737" lon="6.31646">
        <ele>1056</ele>
        <time>2022-04-28T17:21:35.221Z</time>
      </trkpt>
      <trkpt lat="44.10736" lon="6.31649">
        <ele>1056.1999511719</ele>
        <time>2022-04-28T17:21:40.854Z</time>
      </trkpt>
      <trkpt lat="44.10727" lon="6.31665">
        <ele>1057</ele>
        <time>2022-04-28T17:21:46.491Z</time>
      </trkpt>
      <trkpt lat="44.10726" lon="6.31668">
        <ele>1057.1999511719</ele>
        <time>2022-04-28T17:21:52.129Z</time>
      </trkpt>
      <trkpt lat="44.1072" lon="6.31677">
        <ele>1058</ele>
        <time>2022-04-28T17:21:57.770Z</time>
      </trkpt>
      <trkpt lat="44.10715" lon="6.31686">
        <ele>1059</ele>
        <time>2022-04-28T17:22:03.414Z</time>
      </trkpt>
      <trkpt lat="44.10714" lon="6.31689">
        <ele>1059.4000244141</ele>
        <time>2022-04-28T17:22:09.059Z</time>
      </trkpt>
      <trkpt lat="44.10707" lon="6.31702">
        <ele>1060.4000244141</ele>
        <time>2022-04-28T17:22:14.707Z</time>
      </trkpt>
      <trkpt lat="44.10702" lon="6.31711">
        <ele>1060.8000488281</ele>
        <time>2022-04-28T17:22:20.358Z</time>
      </trkpt>
      <trkpt lat="44.10686" lon="6.31738">
        <ele>1060.4000244141</ele>
        <time>2022-04-28T17:22:26.017Z</time>
      </trkpt>
      <trkpt lat="44.10677" lon="6.31751">
        <ele>1059.1999511719</ele>
        <time>2022-04-28T17:22:31.680Z</time>
      </trkpt>
      <trkpt lat="44.10669" lon="6.31761">
        <ele>1058.4000244141</ele>
        <time>2022-04-28T17:22:37.346Z</time>
      </trkpt>
      <trkpt lat="44.10664" lon="6.31765">
        <ele>1057.8000488281</ele>
        <time>2022-04-28T17:22:43.014Z</time>
      </trkpt>
      <trkpt lat="44.10653" lon="6.31775">
        <ele>1056.1999511719</ele>
        <time>2022-04-28T17:22:48.686Z</time>
      </trkpt>
      <trkpt lat="44.10643" lon="6.31787">
        <ele>1055.4000244141</ele>
        <time>2022-04-28T17:22:54.362Z</time>
      </trkpt>
      <trkpt lat="44.10639" lon="6.31794">
        <ele>1055</ele>
        <time>2022-04-28T17:23:00.040Z</time>
      </trkpt>
      <trkpt lat="44.10626" lon="6.31811">
        <ele>1054.4000244141</ele>
        <time>2022-04-28T17:23:05.724Z</time>
      </trkpt>
      <trkpt lat="44.10611" lon="6.31821">
        <ele>1054.1999511719</ele>
        <time>2022-04-28T17:23:11.413Z</time>
      </trkpt>
      <trkpt lat="44.10607" lon="6.31825">
        <ele>1054</ele>
        <time>2022-04-28T17:23:17.104Z</time>
      </trkpt>
      <trkpt lat="44.10588" lon="6.31836">
        <ele>1053.5999755859</ele>
        <time>2022-04-28T17:23:22.801Z</time>
      </trkpt>
      <trkpt lat="44.10584" lon="6.31838">
        <ele>1053.4000244141</ele>
        <time>2022-04-28T17:23:28.500Z</time>
      </trkpt>
      <trkpt lat="44.10573" lon="6.3184">
        <ele>1053.1999511719</ele>
        <time>2022-04-28T17:23:34.202Z</time>
      </trkpt>
      <trkpt lat="44.10555" lon="6.31839">
        <ele>1051.8000488281</ele>
        <time>2022-04-28T17:23:39.910Z</time>
      </trkpt>
      <trkpt lat="44.10548" lon="6.31837">
        <ele>1051.1999511719</ele>
        <time>2022-04-28T17:23:45.620Z</time>
      </trkpt>
      <trkpt lat="44.10541" lon="6.31835">
        <ele>1050.5999755859</ele>
        <time>2022-04-28T17:23:51.333Z</time>
      </trkpt>
      <trkpt lat="44.10528" lon="6.3183">
        <ele>1049.5999755859</ele>
        <time>2022-04-28T17:23:57.050Z</time>
      </trkpt>
      <trkpt lat="44.10522" lon="6.31829">
        <ele>1049.4000244141</ele>
        <time>2022-04-28T17:24:02.769Z</time>
      </trkpt>
      <trkpt lat="44.10516" lon="6.31832">
        <ele>1048.5999755859</ele>
        <time>2022-04-28T17:24:08.490Z</time>
      </trkpt>
      <trkpt lat="44.10516" lon="6.31837">
        <ele>1048.4000244141</ele>
        <time>2022-04-28T17:24:14.212Z</time>
      </trkpt>
      <trkpt lat="44.10517" lon="6.31839">
        <ele>1048.4000244141</ele>
        <time>2022-04-28T17:24:19.935Z</time>
      </trkpt>
      <trkpt lat="44.10526" lon="6.31841">
        <ele>1049.8000488281</ele>
        <time>2022-04-28T17:24:25.661Z</time>
      </trkpt>
      <trkpt lat="44.10528" lon="6.31844">
        <ele>1050.4000244141</ele>
        <time>2022-04-28T17:24:31.387Z</time>
      </trkpt>
      <trkpt lat="44.10531" lon="6.3185">
        <ele>1051</ele>
        <time>2022-04-28T17:24:37.115Z</time>
      </trkpt>
      <trkpt lat="44.10536" lon="6.31853">
        <ele>1051.4000244141</ele>
        <time>2022-04-28T17:24:42.845Z</time>
      </trkpt>
      <trkpt lat="44.10544" lon="6.31853">
        <ele>1052.1999511719</ele>
        <time>2022-04-28T17:24:48.578Z</time>
      </trkpt>
      <trkpt lat="44.1055" lon="6.31852">
        <ele>1052.8000488281</ele>
        <time>2022-04-28T17:24:54.312Z</time>
      </trkpt>
      <trkpt lat="44.10558" lon="6.3185">
        <ele>1053.1999511719</ele>
        <time>2022-04-28T17:25:00.049Z</time>
      </trkpt>
      <trkpt lat="44.10566" lon="6.31852">
        <ele>1054</ele>
        <time>2022-04-28T17:25:05.788Z</time>
      </trkpt>
      <trkpt lat="44.10568" lon="6.31853">
        <ele>1054.1999511719</ele>
        <time>2022-04-28T17:25:11.528Z</time>
      </trkpt>
      <trkpt lat="44.10579" lon="6.31853">
        <ele>1055.1999511719</ele>
        <time>2022-04-28T17:25:17.272Z</time>
      </trkpt>
      <trkpt lat="44.10591" lon="6.31847">
        <ele>1056.4000244141</ele>
        <time>2022-04-28T17:25:23.020Z</time>
      </trkpt>
      <trkpt lat="44.10602" lon="6.31846">
        <ele>1057.5999755859</ele>
        <time>2022-04-28T17:25:28.771Z</time>
      </trkpt>
      <trkpt lat="44.10612" lon="6.31847">
        <ele>1058.5999755859</ele>
        <time>2022-04-28T17:25:34.526Z</time>
      </trkpt>
      <trkpt lat="44.10618" lon="6.31845">
        <ele>1059.5999755859</ele>
        <time>2022-04-28T17:25:40.282Z</time>
      </trkpt>
      <trkpt lat="44.1062" lon="6.31842">
        <ele>1060</ele>
        <time>2022-04-28T17:25:46.039Z</time>
      </trkpt>
      <trkpt lat="44.10625" lon="6.3184">
        <ele>1061</ele>
        <time>2022-04-28T17:25:51.798Z</time>
      </trkpt>
      <trkpt lat="44.10631" lon="6.3184">
        <ele>1062</ele>
        <time>2022-04-28T17:25:57.559Z</time>
      </trkpt>
      <trkpt lat="44.10633" lon="6.31839">
        <ele>1062.4000244141</ele>
        <time>2022-04-28T17:26:03.321Z</time>
      </trkpt>
      <trkpt lat="44.10641" lon="6.31836">
        <ele>1063.1999511719</ele>
        <time>2022-04-28T17:26:09.085Z</time>
      </trkpt>
      <trkpt lat="44.10649" lon="6.31834">
        <ele>1064.4000244141</ele>
        <time>2022-04-28T17:26:14.852Z</time>
      </trkpt>
      <trkpt lat="44.10655" lon="6.31829">
        <ele>1065.5999755859</ele>
        <time>2022-04-28T17:26:20.621Z</time>
      </trkpt>
      <trkpt lat="44.1066" lon="6.31825">
        <ele>1066.4000244141</ele>
        <time>2022-04-28T17:26:26.392Z</time>
      </trkpt>
      <trkpt lat="44.10662" lon="6.31823">
        <ele>1066.8000488281</ele>
        <time>2022-04-28T17:26:32.163Z</time>
      </trkpt>
      <trkpt lat="44.1067" lon="6.31815">
        <ele>1068</ele>
        <time>2022-04-28T17:26:37.938Z</time>
      </trkpt>
      <trkpt lat="44.10672" lon="6.31814">
        <ele>1068.1999511719</ele>
        <time>2022-04-28T17:26:43.713Z</time>
      </trkpt>
      <trkpt lat="44.10676" lon="6.31811">
        <ele>1069</ele>
        <time>2022-04-28T17:26:49.490Z</time>
      </trkpt>
      <trkpt lat="44.10685" lon="6.31805">
        <ele>1070.1999511719</ele>
        <time>2022-04-28T17:26:55.270Z</time>
      </trkpt>
      <trkpt lat="44.10687" lon="6.31805">
        <ele>1070.5999755859</ele>
        <time>2022-04-28T17:27:01.051Z</time>
      </trkpt>
      <trkpt lat="44.10693" lon="6.31808">
        <ele>1071.4000244141</ele>
        <time>2022-04-28T17:27:06.834Z</time>
      </trkpt>
      <trkpt lat="44.10697" lon="6.3181">
        <ele>1072</ele>
        <time>2022-04-28T17:27:12.618Z</time>
      </trkpt>
      <trkpt lat="44.10701" lon="6.31811">
        <ele>1072.5999755859</ele>
        <time>2022-04-28T17:27:18.403Z</time>
      </trkpt>
      <trkpt lat="44.10707" lon="6.31812">
        <ele>1073.8000488281</ele>
        <time>2022-04-28T17:27:24.190Z</time>
      </trkpt>
      <trkpt lat="44.10711" lon="6.31811">
        <ele>1074.8000488281</ele>
        <time>2022-04-28T17:27:29.978Z</time>
      </trkpt>
      <trkpt lat="44.10712" lon="6.31809">
        <ele>1074.8000488281</ele>
        <time>2022-04-28T17:27:35.767Z</time>
      </trkpt>
      <trkpt lat="44.10718" lon="6.31805">
        <ele>1075.8000488281</ele>
        <time>2022-04-28T17:27:41.558Z</time>
      </trkpt>
      <trkpt lat="44.10722" lon="6.31802">
        <ele>1076.4000244141</ele>
        <time>2022-04-28T17:27:47.350Z</time>
      </trkpt>
      <trkpt lat="44.10726" lon="6.31799">
        <ele>1077.1999511719</ele>
        <time>2022-04-28T17:27:53.144Z</time>
      </trkpt>
      <trkpt lat="44.10733" lon="6.31793">
        <ele>1078.4000244141</ele>
        <time>2022-04-28T17:27:58.940Z</time>
      </trkpt>
      <trkpt lat="44.10738" lon="6.31788">
        <ele>1079.5999755859</ele>
        <time>2022-04-28T17:28:04.738Z</time>
      </trkpt>
      <trkpt lat="44.1074" lon="6.31788">
        <ele>1080</ele>
        <time>2022-04-28T17:28:10.537Z</time>
      </trkpt>
      <trkpt lat="44.10743" lon="6.31786">
        <ele>1081</ele>
        <time>2022-04-28T17:28:16.337Z</time>
      </trkpt>
      <trkpt lat="44.10748" lon="6.31785">
        <ele>1081.8000488281</ele>
        <time>2022-04-28T17:28:22.139Z</time>
      </trkpt>
      <trkpt lat="44.10751" lon="6.31786">
        <ele>1082</ele>
        <time>2022-04-28T17:28:27.942Z</time>
      </trkpt>
      <trkpt lat="44.10757" lon="6.31791">
        <ele>1082.5999755859</ele>
        <time>2022-04-28T17:28:33.747Z</time>
      </trkpt>
      <trkpt lat="44.10761" lon="6.31793">
        <ele>1083</ele>
        <time>2022-04-28T17:28:39.553Z</time>
      </trkpt>
      <trkpt lat="44.1077" lon="6.31799">
        <ele>1083.4000244141</ele>
        <time>2022-04-28T17:28:45.362Z</time>
      </trkpt>
      <trkpt lat="44.10778" lon="6.31807">
        <ele>1084</ele>
        <time>2022-04-28T17:28:51.174Z</time>
      </trkpt>
      <trkpt lat="44.10783" lon="6.31814">
        <ele>1084.4000244141</ele>
        <time>2022-04-28T17:28:56.989Z</time>
      </trkpt>
      <trkpt lat="44.10788" lon="6.31819">
        <ele>1085</ele>
        <time>2022-04-28T17:29:02.806Z</time>
      </trkpt>
      <trkpt lat="44.10791" lon="6.31825">
        <ele>1085.4000244141</ele>
        <time>2022-04-28T17:29:08.624Z</time>
      </trkpt>
      <trkpt lat="44.10795" lon="6.31839">
        <ele>1086</ele>
        <time>2022-04-28T17:29:14.446Z</time>
      </trkpt>
      <trkpt lat="44.10796" lon="6.31847">
        <ele>1086.4000244141</ele>
        <time>2022-04-28T17:29:20.270Z</time>
      </trkpt>
      <trkpt lat="44.108" lon="6.31866">
        <ele>1087</ele>
        <time>2022-04-28T17:29:26.098Z</time>
      </trkpt>
      <trkpt lat="44.10801" lon="6.3187">
        <ele>1087</ele>
        <time>2022-04-28T17:29:31.927Z</time>
      </trkpt>
      <trkpt lat="44.10803" lon="6.31878">
        <ele>1087.4000244141</ele>
        <time>2022-04-28T17:29:37.758Z</time>
      </trkpt>
      <trkpt lat="44.10803" lon="6.31878">
        <ele>1087.5999755859</ele>
        <time>2022-04-28T17:29:43.589Z</time>
      </trkpt>
      <trkpt lat="44.10804" lon="6.31884">
        <ele>1087.5999755859</ele>
        <time>2022-04-28T17:29:49.422Z</time>
      </trkpt>
      <trkpt lat="44.10805" lon="6.31891">
        <ele>1087.5999755859</ele>
        <time>2022-04-28T17:29:55.256Z</time>
      </trkpt>
      <trkpt lat="44.10807" lon="6.31913">
        <ele>1087.8000488281</ele>
        <time>2022-04-28T17:30:01.095Z</time>
      </trkpt>
      <trkpt lat="44.10809" lon="6.31927">
        <ele>1087.8000488281</ele>
        <time>2022-04-28T17:30:06.938Z</time>
      </trkpt>
      <trkpt lat="44.1081" lon="6.31931">
        <ele>1087.8000488281</ele>
        <time>2022-04-28T17:30:12.782Z</time>
      </trkpt>
      <trkpt lat="44.10815" lon="6.31954">
        <ele>1089</ele>
        <time>2022-04-28T17:30:18.631Z</time>
      </trkpt>
      <trkpt lat="44.10815" lon="6.31957">
        <ele>1089</ele>
        <time>2022-04-28T17:30:24.481Z</time>
      </trkpt>
      <trkpt lat="44.10817" lon="6.31977">
        <ele>1089.8000488281</ele>
        <time>2022-04-28T17:30:30.335Z</time>
      </trkpt>
      <trkpt lat="44.10818" lon="6.31994">
        <ele>1090.1999511719</ele>
        <time>2022-04-28T17:30:36.193Z</time>
      </trkpt>
      <trkpt lat="44.10818" lon="6.31998">
        <ele>1090.4000244141</ele>
        <time>2022-04-28T17:30:42.052Z</time>
      </trkpt>
      <trkpt lat="44.1082" lon="6.32009">
        <ele>1090.4000244141</ele>
        <time>2022-04-28T17:30:47.914Z</time>
      </trkpt>
      <trkpt lat="44.10821" lon="6.32018">
        <ele>1090.8000488281</ele>
        <time>2022-04-28T17:30:53.778Z</time>
      </trkpt>
      <trkpt lat="44.10822" lon="6.32022">
        <ele>1091</ele>
        <time>2022-04-28T17:30:59.643Z</time>
      </trkpt>
      <trkpt lat="44.10823" lon="6.32034">
        <ele>1091.5999755859</ele>
        <time>2022-04-28T17:31:05.511Z</time>
      </trkpt>
      <trkpt lat="44.10825" lon="6.32055">
        <ele>1091.8000488281</ele>
        <time>2022-04-28T17:31:11.383Z</time>
      </trkpt>
      <trkpt lat="44.10825" lon="6.32059">
        <ele>1092</ele>
        <time>2022-04-28T17:31:17.256Z</time>
      </trkpt>
      <trkpt lat="44.10826" lon="6.32071">
        <ele>1092.8000488281</ele>
        <time>2022-04-28T17:31:23.132Z</time>
      </trkpt>
      <trkpt lat="44.10828" lon="6.32078">
        <ele>1093.1999511719</ele>
        <time>2022-04-28T17:31:29.010Z</time>
      </trkpt>
      <trkpt lat="44.10831" lon="6.32086">
        <ele>1093.8000488281</ele>
        <time>2022-04-28T17:31:34.890Z</time>
      </trkpt>
      <trkpt lat="44.10833" lon="6.32091">
        <ele>1093.8000488281</ele>
        <time>2022-04-28T17:31:40.771Z</time>
      </trkpt>
      <trkpt lat="44.10838" lon="6.32094">
        <ele>1093.8000488281</ele>
        <time>2022-04-28T17:31:46.654Z</time>
      </trkpt>
      <trkpt lat="44.10843" lon="6.32098">
        <ele>1094</ele>
        <time>2022-04-28T17:31:52.539Z</time>
      </trkpt>
      <trkpt lat="44.1085" lon="6.32102">
        <ele>1094.1999511719</ele>
        <time>2022-04-28T17:31:58.426Z</time>
      </trkpt>
      <trkpt lat="44.10866" lon="6.32106">
        <ele>1094.8000488281</ele>
        <time>2022-04-28T17:32:04.318Z</time>
      </trkpt>
      <trkpt lat="44.10871" lon="6.32105">
        <ele>1095</ele>
        <time>2022-04-28T17:32:10.212Z</time>
      </trkpt>
      <trkpt lat="44.10882" lon="6.32097">
        <ele>1094.8000488281</ele>
        <time>2022-04-28T17:32:16.110Z</time>
      </trkpt>
      <trkpt lat="44.10898" lon="6.32078">
        <ele>1094.8000488281</ele>
        <time>2022-04-28T17:32:22.014Z</time>
      </trkpt>
      <trkpt lat="44.10904" lon="6.3207">
        <ele>1094.8000488281</ele>
        <time>2022-04-28T17:32:27.921Z</time>
      </trkpt>
      <trkpt lat="44.10917" lon="6.32056">
        <ele>1094.8000488281</ele>
        <time>2022-04-28T17:32:33.833Z</time>
      </trkpt>
      <trkpt lat="44.1093" lon="6.32063">
        <ele>1094.4000244141</ele>
        <time>2022-04-28T17:32:39.750Z</time>
      </trkpt>
      <trkpt lat="44.10938" lon="6.32073">
        <ele>1093.4000244141</ele>
        <time>2022-04-28T17:32:45.670Z</time>
      </trkpt>
      <trkpt lat="44.10952" lon="6.32089">
        <ele>1092</ele>
        <time>2022-04-28T17:32:51.596Z</time>
      </trkpt>
      <trkpt lat="44.10961" lon="6.32099">
        <ele>1090.8000488281</ele>
        <time>2022-04-28T17:32:57.526Z</time>
      </trkpt>
      <trkpt lat="44.10966" lon="6.32103">
        <ele>1090.5999755859</ele>
        <time>2022-04-28T17:33:03.457Z</time>
      </trkpt>
      <trkpt lat="44.10973" lon="6.32106">
        <ele>1090.4000244141</ele>
        <time>2022-04-28T17:33:09.391Z</time>
      </trkpt>
      <trkpt lat="44.10986" lon="6.32113">
        <ele>1089.5999755859</ele>
        <time>2022-04-28T17:33:15.329Z</time>
      </trkpt>
      <trkpt lat="44.11003" lon="6.32119">
        <ele>1089.1999511719</ele>
        <time>2022-04-28T17:33:21.273Z</time>
      </trkpt>
      <trkpt lat="44.11019" lon="6.32122">
        <ele>1089.1999511719</ele>
        <time>2022-04-28T17:33:27.222Z</time>
      </trkpt>
      <trkpt lat="44.11024" lon="6.32121">
        <ele>1089.1999511719</ele>
        <time>2022-04-28T17:33:33.172Z</time>
      </trkpt>
      <trkpt lat="44.1104" lon="6.32114">
        <ele>1088.8000488281</ele>
        <time>2022-04-28T17:33:39.128Z</time>
      </trkpt>
      <trkpt lat="44.11045" lon="6.32111">
        <ele>1088.8000488281</ele>
        <time>2022-04-28T17:33:45.085Z</time>
      </trkpt>
      <trkpt lat="44.11049" lon="6.32109">
        <ele>1088.4000244141</ele>
        <time>2022-04-28T17:33:51.044Z</time>
      </trkpt>
      <trkpt lat="44.11056" lon="6.32112">
        <ele>1087.4000244141</ele>
        <time>2022-04-28T17:33:57.005Z</time>
      </trkpt>
      <trkpt lat="44.11058" lon="6.32115">
        <ele>1087</ele>
        <time>2022-04-28T17:34:02.967Z</time>
      </trkpt>
      <trkpt lat="44.11059" lon="6.32119">
        <ele>1086.8000488281</ele>
        <time>2022-04-28T17:34:08.930Z</time>
      </trkpt>
      <trkpt lat="44.11062" lon="6.32129">
        <ele>1086.1999511719</ele>
        <time>2022-04-28T17:34:14.896Z</time>
      </trkpt>
      <trkpt lat="44.11063" lon="6.32135">
        <ele>1085.8000488281</ele>
        <time>2022-04-28T17:34:20.863Z</time>
      </trkpt>
      <trkpt lat="44.11061" lon="6.32149">
        <ele>1085</ele>
        <time>2022-04-28T17:34:26.833Z</time>
      </trkpt>
      <trkpt lat="44.11058" lon="6.32155">
        <ele>1084.1999511719</ele>
        <time>2022-04-28T17:34:32.805Z</time>
      </trkpt>
      <trkpt lat="44.11056" lon="6.32172">
        <ele>1083</ele>
        <time>2022-04-28T17:34:38.781Z</time>
      </trkpt>
      <trkpt lat="44.11055" lon="6.32181">
        <ele>1082.5999755859</ele>
        <time>2022-04-28T17:34:44.759Z</time>
      </trkpt>
      <trkpt lat="44.11056" lon="6.322">
        <ele>1081.5999755859</ele>
        <time>2022-04-28T17:34:50.741Z</time>
      </trkpt>
      <trkpt lat="44.11056" lon="6.32209">
        <ele>1081</ele>
        <time>2022-04-28T17:34:56.725Z</time>
      </trkpt>
      <trkpt lat="44.11056" lon="6.32227">
        <ele>1079.4000244141</ele>
        <time>2022-04-28T17:35:02.713Z</time>
      </trkpt>
      <trkpt lat="44.11055" lon="6.32241">
        <ele>1077.8000488281</ele>
        <time>2022-04-28T17:35:08.704Z</time>
      </trkpt>
      <trkpt lat="44.11052" lon="6.32246">
        <ele>1077.1999511719</ele>
        <time>2022-04-28T17:35:14.697Z</time>
      </trkpt>
      <trkpt lat="44.1105" lon="6.32252">
        <ele>1076.8000488281</ele>
        <time>2022-04-28T17:35:20.691Z</time>
      </trkpt>
      <trkpt lat="44.11048" lon="6.32258">
        <ele>1076</ele>
        <time>2022-04-28T17:35:26.687Z</time>
      </trkpt>
      <trkpt lat="44.11049" lon="6.32263">
        <ele>1075</ele>
        <time>2022-04-28T17:35:32.684Z</time>
      </trkpt>
      <trkpt lat="44.11062" lon="6.32275">
        <ele>1074.1999511719</ele>
        <time>2022-04-28T17:35:38.686Z</time>
      </trkpt>
      <trkpt lat="44.11074" lon="6.32292">
        <ele>1074</ele>
        <time>2022-04-28T17:35:44.693Z</time>
      </trkpt>
      <trkpt lat="44.11087" lon="6.32298">
        <ele>1072.8000488281</ele>
        <time>2022-04-28T17:35:50.705Z</time>
      </trkpt>
      <trkpt lat="44.11106" lon="6.32294">
        <ele>1072</ele>
        <time>2022-04-28T17:35:56.723Z</time>
      </trkpt>
      <trkpt lat="44.11113" lon="6.32299">
        <ele>1072.1999511719</ele>
        <time>2022-04-28T17:36:02.743Z</time>
      </trkpt>
      <trkpt lat="44.11121" lon="6.32305">
        <ele>1072.5999755859</ele>
        <time>2022-04-28T17:36:08.766Z</time>
      </trkpt>
      <trkpt lat="44.11124" lon="6.32308">
        <ele>1073.8000488281</ele>
        <time>2022-04-28T17:36:14.790Z</time>
      </trkpt>
      <trkpt lat="44.1113" lon="6.32308">
        <ele>1073.8000488281</ele>
        <time>2022-04-28T17:36:20.816Z</time>
      </trkpt>
      <trkpt lat="44.11134" lon="6.32312">
        <ele>1073.4000244141</ele>
        <time>2022-04-28T17:36:26.844Z</time>
      </trkpt>
      <trkpt lat="44.11139" lon="6.32316">
        <ele>1072</ele>
        <time>2022-04-28T17:36:32.874Z</time>
      </trkpt>
      <trkpt lat="44.11145" lon="6.32324">
        <ele>1069.5999755859</ele>
        <time>2022-04-28T17:36:38.906Z</time>
      </trkpt>
      <trkpt lat="44.1115" lon="6.32335">
        <ele>1068.1999511719</ele>
        <time>2022-04-28T17:36:44.941Z</time>
      </trkpt>
      <trkpt lat="44.11154" lon="6.32345">
        <ele>1067.4000244141</ele>
        <time>2022-04-28T17:36:50.979Z</time>
      </trkpt>
      <trkpt lat="44.11158" lon="6.32368">
        <ele>1067</ele>
        <time>2022-04-28T17:36:57.022Z</time>
      </trkpt>
      <trkpt lat="44.11161" lon="6.32371">
        <ele>1066.8000488281</ele>
        <time>2022-04-28T17:37:03.066Z</time>
      </trkpt>
      <trkpt lat="44.11167" lon="6.32374">
        <ele>1065.5999755859</ele>
        <time>2022-04-28T17:37:09.113Z</time>
      </trkpt>
      <trkpt lat="44.1118" lon="6.32373">
        <ele>1064.8000488281</ele>
        <time>2022-04-28T17:37:15.164Z</time>
      </trkpt>
      <trkpt lat="44.11184" lon="6.32373">
        <ele>1065.1999511719</ele>
        <time>2022-04-28T17:37:21.216Z</time>
      </trkpt>
      <trkpt lat="44.11189" lon="6.32377">
        <ele>1065.5999755859</ele>
        <time>2022-04-28T17:37:27.270Z</time>
      </trkpt>
      <trkpt lat="44.11191" lon="6.32379">
        <ele>1065.8000488281</ele>
        <time>2022-04-28T17:37:33.325Z</time>
      </trkpt>
      <trkpt lat="44.11202" lon="6.32381">
        <ele>1065.5999755859</ele>
        <time>2022-04-28T17:37:39.383Z</time>
      </trkpt>
      <trkpt lat="44.11213" lon="6.3238">
        <ele>1065.5999755859</ele>
        <time>2022-04-28T17:37:45.444Z</time>
      </trkpt>
      <trkpt lat="44.11227" lon="6.32379">
        <ele>1066</ele>
        <time>2022-04-28T17:37:51.510Z</time>
      </trkpt>
      <trkpt lat="44.11243" lon="6.32377">
        <ele>1066.4000244141</ele>
        <time>2022-04-28T17:37:57.581Z</time>
      </trkpt>
      <trkpt lat="44.11246" lon="6.32374">
        <ele>1066.5999755859</ele>
        <time>2022-04-28T17:38:03.653Z</time>
      </trkpt>
      <trkpt lat="44.11259" lon="6.32365">
        <ele>1067</ele>
        <time>2022-04-28T17:38:09.730Z</time>
      </trkpt>
      <trkpt lat="44.11263" lon="6.32365">
        <ele>1067</ele>
        <time>2022-04-28T17:38:15.808Z</time>
      </trkpt>
      <trkpt lat="44.11269" lon="6.32366">
        <ele>1067</ele>
        <time>2022-04-28T17:38:21.888Z</time>
      </trkpt>
      <trkpt lat="44.11279" lon="6.32364">
        <ele>1067.5999755859</ele>
        <time>2022-04-28T17:38:27.971Z</time>
      </trkpt>
      <trkpt lat="44.11282" lon="6.32364">
        <ele>1068</ele>
        <time>2022-04-28T17:38:34.055Z</time>
      </trkpt>
      <trkpt lat="44.11286" lon="6.32358">
        <ele>1068.8000488281</ele>
        <time>2022-04-28T17:38:40.141Z</time>
      </trkpt>
      <trkpt lat="44.11292" lon="6.32353">
        <ele>1069</ele>
        <time>2022-04-28T17:38:46.229Z</time>
      </trkpt>
      <trkpt lat="44.11305" lon="6.32352">
        <ele>1068.5999755859</ele>
        <time>2022-04-28T17:38:52.321Z</time>
      </trkpt>
      <trkpt lat="44.11309" lon="6.32351">
        <ele>1068.5999755859</ele>
        <time>2022-04-28T17:38:58.414Z</time>
      </trkpt>
      <trkpt lat="44.11313" lon="6.32345">
        <ele>1068.8000488281</ele>
        <time>2022-04-28T17:39:04.509Z</time>
      </trkpt>
      <trkpt lat="44.11322" lon="6.32337">
        <ele>1069.5999755859</ele>
        <time>2022-04-28T17:39:10.608Z</time>
      </trkpt>
      <trkpt lat="44.11325" lon="6.32334">
        <ele>1069.8000488281</ele>
        <time>2022-04-28T17:39:16.708Z</time>
      </trkpt>
      <trkpt lat="44.11332" lon="6.32328">
        <ele>1070.8000488281</ele>
        <time>2022-04-28T17:39:22.811Z</time>
      </trkpt>
      <trkpt lat="44.11338" lon="6.32322">
        <ele>1071.4000244141</ele>
        <time>2022-04-28T17:39:28.916Z</time>
      </trkpt>
      <trkpt lat="44.11342" lon="6.32312">
        <ele>1071.5999755859</ele>
        <time>2022-04-28T17:39:35.024Z</time>
      </trkpt>
      <trkpt lat="44.11345" lon="6.32311">
        <ele>1071.8000488281</ele>
        <time>2022-04-28T17:39:41.132Z</time>
      </trkpt>
      <trkpt lat="44.1135" lon="6.32312">
        <ele>1072.8000488281</ele>
        <time>2022-04-28T17:39:47.242Z</time>
      </trkpt>
      <trkpt lat="44.11353" lon="6.32312">
        <ele>1073.1999511719</ele>
        <time>2022-04-28T17:39:53.353Z</time>
      </trkpt>
      <trkpt lat="44.11359" lon="6.32311">
        <ele>1073.8000488281</ele>
        <time>2022-04-28T17:39:59.466Z</time>
      </trkpt>
      <trkpt lat="44.11364" lon="6.3231">
        <ele>1074.1999511719</ele>
        <time>2022-04-28T17:40:05.581Z</time>
      </trkpt>
      <trkpt lat="44.11367" lon="6.3231">
        <ele>1074.8000488281</ele>
        <time>2022-04-28T17:40:11.696Z</time>
      </trkpt>
      <trkpt lat="44.11369" lon="6.3231">
        <ele>1075.4000244141</ele>
        <time>2022-04-28T17:40:17.812Z</time>
      </trkpt>
      <trkpt lat="44.11374" lon="6.3231">
        <ele>1076.4000244141</ele>
        <time>2022-04-28T17:40:23.930Z</time>
      </trkpt>
      <trkpt lat="44.11376" lon="6.32304">
        <ele>1077.4000244141</ele>
        <time>2022-04-28T17:40:30.049Z</time>
      </trkpt>
      <trkpt lat="44.11378" lon="6.32295">
        <ele>1078.5999755859</ele>
        <time>2022-04-28T17:40:36.170Z</time>
      </trkpt>
      <trkpt lat="44.11388" lon="6.32292">
        <ele>1078.1999511719</ele>
        <time>2022-04-28T17:40:42.295Z</time>
      </trkpt>
      <trkpt lat="44.11391" lon="6.32294">
        <ele>1077.8000488281</ele>
        <time>2022-04-28T17:40:48.421Z</time>
      </trkpt>
      <trkpt lat="44.11393" lon="6.32296">
        <ele>1077.4000244141</ele>
        <time>2022-04-28T17:40:54.548Z</time>
      </trkpt>
      <trkpt lat="44.11395" lon="6.323">
        <ele>1077</ele>
        <time>2022-04-28T17:41:00.676Z</time>
      </trkpt>
      <trkpt lat="44.11396" lon="6.32304">
        <ele>1076.4000244141</ele>
        <time>2022-04-28T17:41:06.805Z</time>
      </trkpt>
      <trkpt lat="44.11397" lon="6.32308">
        <ele>1076</ele>
        <time>2022-04-28T17:41:12.935Z</time>
      </trkpt>
      <trkpt lat="44.11397" lon="6.32317">
        <ele>1074.8000488281</ele>
        <time>2022-04-28T17:41:19.067Z</time>
      </trkpt>
      <trkpt lat="44.11396" lon="6.32327">
        <ele>1073.4000244141</ele>
        <time>2022-04-28T17:41:25.201Z</time>
      </trkpt>
      <trkpt lat="44.11396" lon="6.32331">
        <ele>1072.5999755859</ele>
        <time>2022-04-28T17:41:31.336Z</time>
      </trkpt>
      <trkpt lat="44.11395" lon="6.32335">
        <ele>1071.5999755859</ele>
        <time>2022-04-28T17:41:37.472Z</time>
      </trkpt>
      <trkpt lat="44.11394" lon="6.32339">
        <ele>1070.5999755859</ele>
        <time>2022-04-28T17:41:43.609Z</time>
      </trkpt>
      <trkpt lat="44.11391" lon="6.32346">
        <ele>1068.8000488281</ele>
        <time>2022-04-28T17:41:49.748Z</time>
      </trkpt>
      <trkpt lat="44.11389" lon="6.32348">
        <ele>1067.8000488281</ele>
        <time>2022-04-28T17:41:55.887Z</time>
      </trkpt>
      <trkpt lat="44.11388" lon="6.32351">
        <ele>1066.4000244141</ele>
        <time>2022-04-28T17:42:02.027Z</time>
      </trkpt>
      <trkpt lat="44.11388" lon="6.32358">
        <ele>1065</ele>
        <time>2022-04-28T17:42:08.169Z</time>
      </trkpt>
      <trkpt lat="44.11388" lon="6.32361">
        <ele>1064.4000244141</ele>
        <time>2022-04-28T17:42:14.311Z</time>
      </trkpt>
      <trkpt lat="44.1139" lon="6.32367">
        <ele>1063.8000488281</ele>
        <time>2022-04-28T17:42:20.455Z</time>
      </trkpt>
      <trkpt lat="44.11396" lon="6.32379">
        <ele>1061.8000488281</ele>
        <time>2022-04-28T17:42:26.602Z</time>
      </trkpt>
      <trkpt lat="44.11398" lon="6.32383">
        <ele>1061</ele>
        <time>2022-04-28T17:42:32.751Z</time>
      </trkpt>
      <trkpt lat="44.11401" lon="6.32387">
        <ele>1060.1999511719</ele>
        <time>2022-04-28T17:42:38.901Z</time>
      </trkpt>
      <trkpt lat="44.11404" lon="6.3239">
        <ele>1059.1999511719</ele>
        <time>2022-04-28T17:42:45.052Z</time>
      </trkpt>
      <trkpt lat="44.11404" lon="6.3239">
        <ele>1059</ele>
        <time>2022-04-28T17:42:51.203Z</time>
      </trkpt>
      <trkpt lat="44.11404" lon="6.32391">
        <ele>1059</ele>
        <time>2022-04-28T17:42:57.354Z</time>
      </trkpt>
      <trkpt lat="44.11873" lon="6.32215">
        <ele>995.59997558594</ele>
        <time>2022-04-28T17:43:03.659Z</time>
      </trkpt>
      <trkpt lat="44.11875" lon="6.32214">
        <ele>996.20001220703</ele>
        <time>2022-04-28T17:43:09.965Z</time>
      </trkpt>
      <trkpt lat="44.11877" lon="6.32213">
        <ele>996.79998779297</ele>
        <time>2022-04-28T17:43:16.271Z</time>
      </trkpt>
      <trkpt lat="44.1188" lon="6.3221">
        <ele>998</ele>
        <time>2022-04-28T17:43:22.579Z</time>
      </trkpt>
      <trkpt lat="44.11884" lon="6.32208">
        <ele>999</ele>
        <time>2022-04-28T17:43:28.888Z</time>
      </trkpt>
      <trkpt lat="44.11888" lon="6.32205">
        <ele>999.40002441406</ele>
        <time>2022-04-28T17:43:35.198Z</time>
      </trkpt>
      <trkpt lat="44.11892" lon="6.322">
        <ele>999.79998779297</ele>
        <time>2022-04-28T17:43:41.510Z</time>
      </trkpt>
      <trkpt lat="44.11891" lon="6.32197">
        <ele>999.79998779297</ele>
        <time>2022-04-28T17:43:47.822Z</time>
      </trkpt>
      <trkpt lat="44.11891" lon="6.32195">
        <ele>1000</ele>
        <time>2022-04-28T17:43:54.135Z</time>
      </trkpt>
      <trkpt lat="44.11885" lon="6.32186">
        <ele>1000.4000244141</ele>
        <time>2022-04-28T17:44:00.451Z</time>
      </trkpt>
      <trkpt lat="44.11873" lon="6.32168">
        <ele>999.59997558594</ele>
        <time>2022-04-28T17:44:06.772Z</time>
      </trkpt>
      <trkpt lat="44.11868" lon="6.32149">
        <ele>999</ele>
        <time>2022-04-28T17:44:13.098Z</time>
      </trkpt>
      <trkpt lat="44.11862" lon="6.32128">
        <ele>1000.200012207</ele>
        <time>2022-04-28T17:44:19.429Z</time>
      </trkpt>
      <trkpt lat="44.11861" lon="6.32126">
        <ele>1001.200012207</ele>
        <time>2022-04-28T17:44:25.761Z</time>
      </trkpt>
      <trkpt lat="44.11862" lon="6.32127">
        <ele>1001.4000244141</ele>
        <time>2022-04-28T17:44:32.093Z</time>
      </trkpt>
      <trkpt lat="44.11867" lon="6.32134">
        <ele>1001</ele>
        <time>2022-04-28T17:44:38.427Z</time>
      </trkpt>
      <trkpt lat="44.11875" lon="6.32135">
        <ele>1000.200012207</ele>
        <time>2022-04-28T17:44:44.764Z</time>
      </trkpt>
      <trkpt lat="44.1188" lon="6.32134">
        <ele>998.59997558594</ele>
        <time>2022-04-28T17:44:51.102Z</time>
      </trkpt>
      <trkpt lat="44.11883" lon="6.32138">
        <ele>997.59997558594</ele>
        <time>2022-04-28T17:44:57.442Z</time>
      </trkpt>
      <trkpt lat="44.11888" lon="6.32144">
        <ele>996.20001220703</ele>
        <time>2022-04-28T17:45:03.784Z</time>
      </trkpt>
      <trkpt lat="44.11894" lon="6.32139">
        <ele>995.20001220703</ele>
        <time>2022-04-28T17:45:10.128Z</time>
      </trkpt>
      <trkpt lat="44.11898" lon="6.32137">
        <ele>995</ele>
        <time>2022-04-28T17:45:16.473Z</time>
      </trkpt>
      <trkpt lat="44.11906" lon="6.32134">
        <ele>992.40002441406</ele>
        <time>2022-04-28T17:45:22.821Z</time>
      </trkpt>
      <trkpt lat="44.11909" lon="6.32133">
        <ele>990.79998779297</ele>
        <time>2022-04-28T17:45:29.170Z</time>
      </trkpt>
      <trkpt lat="44.11912" lon="6.32133">
        <ele>989.59997558594</ele>
        <time>2022-04-28T17:45:35.520Z</time>
      </trkpt>
      <trkpt lat="44.11918" lon="6.32134">
        <ele>987.40002441406</ele>
        <time>2022-04-28T17:45:41.872Z</time>
      </trkpt>
      <trkpt lat="44.11923" lon="6.32132">
        <ele>986.40002441406</ele>
        <time>2022-04-28T17:45:48.225Z</time>
      </trkpt>
      <trkpt lat="44.11925" lon="6.32131">
        <ele>985.59997558594</ele>
        <time>2022-04-28T17:45:54.579Z</time>
      </trkpt>
      <trkpt lat="44.11926" lon="6.32129">
        <ele>984.79998779297</ele>
        <time>2022-04-28T17:46:00.934Z</time>
      </trkpt>
      <trkpt lat="44.11925" lon="6.32123">
        <ele>983.20001220703</ele>
        <time>2022-04-28T17:46:07.290Z</time>
      </trkpt>
      <trkpt lat="44.11919" lon="6.32119">
        <ele>981.40002441406</ele>
        <time>2022-04-28T17:46:13.648Z</time>
      </trkpt>
      <trkpt lat="44.11915" lon="6.32117">
        <ele>980.40002441406</ele>
        <time>2022-04-28T17:46:20.007Z</time>
      </trkpt>
      <trkpt lat="44.11909" lon="6.32109">
        <ele>978.59997558594</ele>
        <time>2022-04-28T17:46:26.369Z</time>
      </trkpt>
      <trkpt lat="44.11906" lon="6.32105">
        <ele>977.40002441406</ele>
        <time>2022-04-28T17:46:32.732Z</time>
      </trkpt>
      <trkpt lat="44.11903" lon="6.32101">
        <ele>976.79998779297</ele>
        <time>2022-04-28T17:46:39.097Z</time>
      </trkpt>
      <trkpt lat="44.11901" lon="6.32096">
        <ele>976.40002441406</ele>
        <time>2022-04-28T17:46:45.463Z</time>
      </trkpt>
      <trkpt lat="44.11902" lon="6.32093">
        <ele>976.20001220703</ele>
        <time>2022-04-28T17:46:51.830Z</time>
      </trkpt>
      <trkpt lat="44.11902" lon="6.32081">
        <ele>976.40002441406</ele>
        <time>2022-04-28T17:46:58.199Z</time>
      </trkpt>
      <trkpt lat="44.11901" lon="6.32077">
        <ele>977.20001220703</ele>
        <time>2022-04-28T17:47:04.570Z</time>
      </trkpt>
      <trkpt lat="44.119" lon="6.32074">
        <ele>977.59997558594</ele>
        <time>2022-04-28T17:47:10.941Z</time>
      </trkpt>
      <trkpt lat="44.11897" lon="6.32069">
        <ele>977.79998779297</ele>
        <time>2022-04-28T17:47:17.314Z</time>
      </trkpt>
      <trkpt lat="44.11887" lon="6.32066">
        <ele>977.40002441406</ele>
        <time>2022-04-28T17:47:23.690Z</time>
      </trkpt>
      <trkpt lat="44.11887" lon="6.32057">
        <ele>977.40002441406</ele>
        <time>2022-04-28T17:47:30.068Z</time>
      </trkpt>
      <trkpt lat="44.11885" lon="6.3205">
        <ele>978.20001220703</ele>
        <time>2022-04-28T17:47:36.448Z</time>
      </trkpt>
      <trkpt lat="44.11884" lon="6.32047">
        <ele>978.59997558594</ele>
        <time>2022-04-28T17:47:42.828Z</time>
      </trkpt>
      <trkpt lat="44.11883" lon="6.32044">
        <ele>978.79998779297</ele>
        <time>2022-04-28T17:47:49.209Z</time>
      </trkpt>
      <trkpt lat="44.1188" lon="6.32038">
        <ele>979.79998779297</ele>
        <time>2022-04-28T17:47:55.592Z</time>
      </trkpt>
      <trkpt lat="44.1188" lon="6.32038">
        <ele>980</ele>
        <time>2022-04-28T17:48:01.975Z</time>
      </trkpt>
      <trkpt lat="44.11885" lon="6.32046">
        <ele>979.59997558594</ele>
        <time>2022-04-28T17:48:08.360Z</time>
      </trkpt>
      <trkpt lat="44.11889" lon="6.3205">
        <ele>979.59997558594</ele>
        <time>2022-04-28T17:48:14.747Z</time>
      </trkpt>
      <trkpt lat="44.11894" lon="6.32059">
        <ele>978.59997558594</ele>
        <time>2022-04-28T17:48:21.136Z</time>
      </trkpt>
      <trkpt lat="44.11896" lon="6.32064">
        <ele>977.79998779297</ele>
        <time>2022-04-28T17:48:27.527Z</time>
      </trkpt>
      <trkpt lat="44.11898" lon="6.32069">
        <ele>977.40002441406</ele>
        <time>2022-04-28T17:48:33.919Z</time>
      </trkpt>
      <trkpt lat="44.119" lon="6.32074">
        <ele>977.20001220703</ele>
        <time>2022-04-28T17:48:40.312Z</time>
      </trkpt>
      <trkpt lat="44.11902" lon="6.32082">
        <ele>977.59997558594</ele>
        <time>2022-04-28T17:48:46.707Z</time>
      </trkpt>
      <trkpt lat="44.11904" lon="6.32083">
        <ele>977.59997558594</ele>
        <time>2022-04-28T17:48:53.103Z</time>
      </trkpt>
      <trkpt lat="44.11908" lon="6.32085">
        <ele>977.20001220703</ele>
        <time>2022-04-28T17:48:59.500Z</time>
      </trkpt>
      <trkpt lat="44.1191" lon="6.32083">
        <ele>976.79998779297</ele>
        <time>2022-04-28T17:49:05.898Z</time>
      </trkpt>
      <trkpt lat="44.1191" lon="6.32082">
        <ele>976.40002441406</ele>
        <time>2022-04-28T17:49:12.296Z</time>
      </trkpt>
      <trkpt lat="44.1191" lon="6.3208">
        <ele>975.40002441406</ele>
        <time>2022-04-28T17:49:18.695Z</time>
      </trkpt>
      <trkpt lat="44.11911" lon="6.32076">
        <ele>975</ele>
        <time>2022-04-28T17:49:25.095Z</time>
      </trkpt>
      <trkpt lat="44.11914" lon="6.32071">
        <ele>974.59997558594</ele>
        <time>2022-04-28T17:49:31.496Z</time>
      </trkpt>
      <trkpt lat="44.11921" lon="6.32069">
        <ele>973.40002441406</ele>
        <time>2022-04-28T17:49:37.899Z</time>
      </trkpt>
      <trkpt lat="44.11925" lon="6.3207">
        <ele>972.40002441406</ele>
        <time>2022-04-28T17:49:44.304Z</time>
      </trkpt>
      <trkpt lat="44.11929" lon="6.32069">
        <ele>971.40002441406</ele>
        <time>2022-04-28T17:49:50.710Z</time>
      </trkpt>
      <trkpt lat="44.11932" lon="6.32069">
        <ele>969.59997558594</ele>
        <time>2022-04-28T17:49:57.117Z</time>
      </trkpt>
      <trkpt lat="44.11935" lon="6.3207">
        <ele>968.59997558594</ele>
        <time>2022-04-28T17:50:03.525Z</time>
      </trkpt>
      <trkpt lat="44.11938" lon="6.32072">
        <ele>968</ele>
        <time>2022-04-28T17:50:09.934Z</time>
      </trkpt>
      <trkpt lat="44.11942" lon="6.32075">
        <ele>967.40002441406</ele>
        <time>2022-04-28T17:50:16.344Z</time>
      </trkpt>
      <trkpt lat="44.11949" lon="6.32081">
        <ele>966.59997558594</ele>
        <time>2022-04-28T17:50:22.757Z</time>
      </trkpt>
      <trkpt lat="44.11961" lon="6.32087">
        <ele>965.79998779297</ele>
        <time>2022-04-28T17:50:29.174Z</time>
      </trkpt>
      <trkpt lat="44.11968" lon="6.32094">
        <ele>965.59997558594</ele>
        <time>2022-04-28T17:50:35.594Z</time>
      </trkpt>
      <trkpt lat="44.11974" lon="6.32101">
        <ele>965.59997558594</ele>
        <time>2022-04-28T17:50:42.016Z</time>
      </trkpt>
      <trkpt lat="44.1198" lon="6.32106">
        <ele>965.59997558594</ele>
        <time>2022-04-28T17:50:48.441Z</time>
      </trkpt>
      <trkpt lat="44.11994" lon="6.32113">
        <ele>965.79998779297</ele>
        <time>2022-04-28T17:50:54.870Z</time>
      </trkpt>
      <trkpt lat="44.12002" lon="6.32113">
        <ele>966.79998779297</ele>
        <time>2022-04-28T17:51:01.302Z</time>
      </trkpt>
      <trkpt lat="44.12006" lon="6.32111">
        <ele>968</ele>
        <time>2022-04-28T17:51:07.735Z</time>
      </trkpt>
      <trkpt lat="44.12013" lon="6.32111">
        <ele>969.20001220703</ele>
        <time>2022-04-28T17:51:14.170Z</time>
      </trkpt>
      <trkpt lat="44.12016" lon="6.32113">
        <ele>969.40002441406</ele>
        <time>2022-04-28T17:51:20.606Z</time>
      </trkpt>
      <trkpt lat="44.12019" lon="6.32115">
        <ele>969.20001220703</ele>
        <time>2022-04-28T17:51:27.043Z</time>
      </trkpt>
      <trkpt lat="44.12023" lon="6.32123">
        <ele>968.59997558594</ele>
        <time>2022-04-28T17:51:33.483Z</time>
      </trkpt>
      <trkpt lat="44.12025" lon="6.32128">
        <ele>968</ele>
        <time>2022-04-28T17:51:39.924Z</time>
      </trkpt>
      <trkpt lat="44.12029" lon="6.32138">
        <ele>966.20001220703</ele>
        <time>2022-04-28T17:51:46.368Z</time>
      </trkpt>
      <trkpt lat="44.12032" lon="6.32145">
        <ele>965.20001220703</ele>
        <time>2022-04-28T17:51:52.813Z</time>
      </trkpt>
      <trkpt lat="44.12033" lon="6.32147">
        <ele>964.79998779297</ele>
        <time>2022-04-28T17:51:59.259Z</time>
      </trkpt>
      <trkpt lat="44.12035" lon="6.32149">
        <ele>963.79998779297</ele>
        <time>2022-04-28T17:52:05.706Z</time>
      </trkpt>
      <trkpt lat="44.1204" lon="6.32152">
        <ele>962.20001220703</ele>
        <time>2022-04-28T17:52:12.155Z</time>
      </trkpt>
      <trkpt lat="44.12046" lon="6.32154">
        <ele>960.79998779297</ele>
        <time>2022-04-28T17:52:18.605Z</time>
      </trkpt>
      <trkpt lat="44.12049" lon="6.32154">
        <ele>960.20001220703</ele>
        <time>2022-04-28T17:52:25.056Z</time>
      </trkpt>
      <trkpt lat="44.12053" lon="6.32156">
        <ele>959.20001220703</ele>
        <time>2022-04-28T17:52:31.509Z</time>
      </trkpt>
      <trkpt lat="44.12059" lon="6.32164">
        <ele>957</ele>
        <time>2022-04-28T17:52:37.964Z</time>
      </trkpt>
      <trkpt lat="44.12068" lon="6.32173">
        <ele>955.40002441406</ele>
        <time>2022-04-28T17:52:44.423Z</time>
      </trkpt>
      <trkpt lat="44.12073" lon="6.32177">
        <ele>954.40002441406</ele>
        <time>2022-04-28T17:52:50.884Z</time>
      </trkpt>
      <trkpt lat="44.12078" lon="6.32179">
        <ele>953.79998779297</ele>
        <time>2022-04-28T17:52:57.346Z</time>
      </trkpt>
      <trkpt lat="44.12087" lon="6.32178">
        <ele>952.79998779297</ele>
        <time>2022-04-28T17:53:03.811Z</time>
      </trkpt>
      <trkpt lat="44.12091" lon="6.32178">
        <ele>952.59997558594</ele>
        <time>2022-04-28T17:53:10.277Z</time>
      </trkpt>
      <trkpt lat="44.12097" lon="6.32182">
        <ele>952.20001220703</ele>
        <time>2022-04-28T17:53:16.745Z</time>
      </trkpt>
      <trkpt lat="44.121" lon="6.32184">
        <ele>952.20001220703</ele>
        <time>2022-04-28T17:53:23.214Z</time>
      </trkpt>
      <trkpt lat="44.12108" lon="6.32184">
        <ele>952.59997558594</ele>
        <time>2022-04-28T17:53:29.686Z</time>
      </trkpt>
      <trkpt lat="44.12119" lon="6.32191">
        <ele>953</ele>
        <time>2022-04-28T17:53:36.162Z</time>
      </trkpt>
      <trkpt lat="44.12127" lon="6.3219">
        <ele>953</ele>
        <time>2022-04-28T17:53:42.641Z</time>
      </trkpt>
      <trkpt lat="44.12131" lon="6.32189">
        <ele>953</ele>
        <time>2022-04-28T17:53:49.121Z</time>
      </trkpt>
      <trkpt lat="44.12144" lon="6.3218">
        <ele>953.59997558594</ele>
        <time>2022-04-28T17:53:55.605Z</time>
      </trkpt>
      <trkpt lat="44.12156" lon="6.32171">
        <ele>953</ele>
        <time>2022-04-28T17:54:02.094Z</time>
      </trkpt>
      <trkpt lat="44.12158" lon="6.3217">
        <ele>952.79998779297</ele>
        <time>2022-04-28T17:54:08.583Z</time>
      </trkpt>
      <trkpt lat="44.1216" lon="6.32169">
        <ele>952.79998779297</ele>
        <time>2022-04-28T17:54:15.073Z</time>
      </trkpt>
      <trkpt lat="44.1216" lon="6.32167">
        <ele>953</ele>
        <time>2022-04-28T17:54:21.564Z</time>
      </trkpt>
      <trkpt lat="44.12156" lon="6.32161">
        <ele>952.79998779297</ele>
        <time>2022-04-28T17:54:28.056Z</time>
      </trkpt>
      <trkpt lat="44.12155" lon="6.32159">
        <ele>952.79998779297</ele>
        <time>2022-04-28T17:54:34.549Z</time>
      </trkpt>
      <trkpt lat="44.12153" lon="6.32151">
        <ele>952.40002441406</ele>
        <time>2022-04-28T17:54:41.044Z</time>
      </trkpt>
      <trkpt lat="44.12152" lon="6.32147">
        <ele>952.20001220703</ele>
        <time>2022-04-28T17:54:47.540Z</time>
      </trkpt>
      <trkpt lat="44.12149" lon="6.32138">
        <ele>951.79998779297</ele>
        <time>2022-04-28T17:54:54.038Z</time>
      </trkpt>
      <trkpt lat="44.12143" lon="6.32127">
        <ele>951.40002441406</ele>
        <time>2022-04-28T17:55:00.539Z</time>
      </trkpt>
      <trkpt lat="44.12138" lon="6.32113">
        <ele>950.20001220703</ele>
        <time>2022-04-28T17:55:07.044Z</time>
      </trkpt>
      <trkpt lat="44.1213" lon="6.32102">
        <ele>949.40002441406</ele>
        <time>2022-04-28T17:55:13.552Z</time>
      </trkpt>
      <trkpt lat="44.12128" lon="6.32095">
        <ele>948.79998779297</ele>
        <time>2022-04-28T17:55:20.062Z</time>
      </trkpt>
      <trkpt lat="44.1212" lon="6.32084">
        <ele>947.79998779297</ele>
        <time>2022-04-28T17:55:26.575Z</time>
      </trkpt>
      <trkpt lat="44.12116" lon="6.32079">
        <ele>947.40002441406</ele>
        <time>2022-04-28T17:55:33.090Z</time>
      </trkpt>
      <trkpt lat="44.12107" lon="6.32064">
        <ele>946</ele>
        <time>2022-04-28T17:55:39.610Z</time>
      </trkpt>
      <trkpt lat="44.12098" lon="6.32045">
        <ele>944.40002441406</ele>
        <time>2022-04-28T17:55:46.135Z</time>
      </trkpt>
      <trkpt lat="44.12096" lon="6.32038">
        <ele>944</ele>
        <time>2022-04-28T17:55:52.662Z</time>
      </trkpt>
      <trkpt lat="44.12095" lon="6.3203">
        <ele>943.40002441406</ele>
        <time>2022-04-28T17:55:59.191Z</time>
      </trkpt>
      <trkpt lat="44.12092" lon="6.32022">
        <ele>943</ele>
        <time>2022-04-28T17:56:05.721Z</time>
      </trkpt>
      <trkpt lat="44.12091" lon="6.32015">
        <ele>942.79998779297</ele>
        <time>2022-04-28T17:56:12.253Z</time>
      </trkpt>
      <trkpt lat="44.12084" lon="6.31991">
        <ele>943.79998779297</ele>
        <time>2022-04-28T17:56:18.791Z</time>
      </trkpt>
      <trkpt lat="44.12082" lon="6.31987">
        <ele>944.20001220703</ele>
        <time>2022-04-28T17:56:25.330Z</time>
      </trkpt>
      <trkpt lat="44.12079" lon="6.31978">
        <ele>945.40002441406</ele>
        <time>2022-04-28T17:56:31.871Z</time>
      </trkpt>
      <trkpt lat="44.12074" lon="6.31966">
        <ele>946.59997558594</ele>
        <time>2022-04-28T17:56:38.416Z</time>
      </trkpt>
      <trkpt lat="44.12069" lon="6.31958">
        <ele>947.40002441406</ele>
        <time>2022-04-28T17:56:44.963Z</time>
      </trkpt>
      <trkpt lat="44.12067" lon="6.31954">
        <ele>947.59997558594</ele>
        <time>2022-04-28T17:56:51.511Z</time>
      </trkpt>
      <trkpt lat="44.12056" lon="6.31945">
        <ele>948.20001220703</ele>
        <time>2022-04-28T17:56:58.063Z</time>
      </trkpt>
      <trkpt lat="44.12048" lon="6.3194">
        <ele>947.40002441406</ele>
        <time>2022-04-28T17:57:04.618Z</time>
      </trkpt>
      <trkpt lat="44.12045" lon="6.31937">
        <ele>946.79998779297</ele>
        <time>2022-04-28T17:57:11.174Z</time>
      </trkpt>
      <trkpt lat="44.12041" lon="6.31935">
        <ele>945.59997558594</ele>
        <time>2022-04-28T17:57:17.731Z</time>
      </trkpt>
      <trkpt lat="44.12037" lon="6.31932">
        <ele>944.79998779297</ele>
        <time>2022-04-28T17:57:24.290Z</time>
      </trkpt>
      <trkpt lat="44.12033" lon="6.31931">
        <ele>944.40002441406</ele>
        <time>2022-04-28T17:57:30.850Z</time>
      </trkpt>
      <trkpt lat="44.1203" lon="6.31929">
        <ele>944</ele>
        <time>2022-04-28T17:57:37.411Z</time>
      </trkpt>
      <trkpt lat="44.12027" lon="6.31925">
        <ele>943</ele>
        <time>2022-04-28T17:57:43.974Z</time>
      </trkpt>
      <trkpt lat="44.12023" lon="6.31916">
        <ele>941.79998779297</ele>
        <time>2022-04-28T17:57:50.539Z</time>
      </trkpt>
      <trkpt lat="44.1201" lon="6.31895">
        <ele>941.79998779297</ele>
        <time>2022-04-28T17:57:57.110Z</time>
      </trkpt>
      <trkpt lat="44.11999" lon="6.31874">
        <ele>942.40002441406</ele>
        <time>2022-04-28T17:58:03.687Z</time>
      </trkpt>
      <trkpt lat="44.11993" lon="6.31868">
        <ele>942.40002441406</ele>
        <time>2022-04-28T17:58:10.266Z</time>
      </trkpt>
      <trkpt lat="44.11986" lon="6.31862">
        <ele>942.40002441406</ele>
        <time>2022-04-28T17:58:16.848Z</time>
      </trkpt>
      <trkpt lat="44.11982" lon="6.31847">
        <ele>942</ele>
        <time>2022-04-28T17:58:23.434Z</time>
      </trkpt>
      <trkpt lat="44.11982" lon="6.31842">
        <ele>942.20001220703</ele>
        <time>2022-04-28T17:58:30.021Z</time>
      </trkpt>
      <trkpt lat="44.11985" lon="6.31827">
        <ele>942.20001220703</ele>
        <time>2022-04-28T17:58:36.612Z</time>
      </trkpt>
      <trkpt lat="44.11987" lon="6.31821">
        <ele>942.20001220703</ele>
        <time>2022-04-28T17:58:43.204Z</time>
      </trkpt>
      <trkpt lat="44.11988" lon="6.31804">
        <ele>942.20001220703</ele>
        <time>2022-04-28T17:58:49.800Z</time>
      </trkpt>
      <trkpt lat="44.11987" lon="6.31799">
        <ele>942.20001220703</ele>
        <time>2022-04-28T17:58:56.397Z</time>
      </trkpt>
      <trkpt lat="44.11986" lon="6.31785">
        <ele>943.20001220703</ele>
        <time>2022-04-28T17:59:02.997Z</time>
      </trkpt>
      <trkpt lat="44.11984" lon="6.31772">
        <ele>944.59997558594</ele>
        <time>2022-04-28T17:59:09.600Z</time>
      </trkpt>
      <trkpt lat="44.1198" lon="6.31761">
        <ele>945.79998779297</ele>
        <time>2022-04-28T17:59:16.206Z</time>
      </trkpt>
      <trkpt lat="44.11975" lon="6.31753">
        <ele>946</ele>
        <time>2022-04-28T17:59:22.815Z</time>
      </trkpt>
      <trkpt lat="44.11959" lon="6.31733">
        <ele>945</ele>
        <time>2022-04-28T17:59:29.430Z</time>
      </trkpt>
      <trkpt lat="44.11954" lon="6.31729">
        <ele>944.79998779297</ele>
        <time>2022-04-28T17:59:36.047Z</time>
      </trkpt>
      <trkpt lat="44.11948" lon="6.31726">
        <ele>944.40002441406</ele>
        <time>2022-04-28T17:59:42.666Z</time>
      </trkpt>
      <trkpt lat="44.11942" lon="6.31723">
        <ele>943.20001220703</ele>
        <time>2022-04-28T17:59:49.287Z</time>
      </trkpt>
      <trkpt lat="44.11937" lon="6.31719">
        <ele>942.40002441406</ele>
        <time>2022-04-28T17:59:55.910Z</time>
      </trkpt>
      <trkpt lat="44.11932" lon="6.31714">
        <ele>942</ele>
        <time>2022-04-28T18:00:02.535Z</time>
      </trkpt>
      <trkpt lat="44.11926" lon="6.31707">
        <ele>940.59997558594</ele>
        <time>2022-04-28T18:00:09.163Z</time>
      </trkpt>
      <trkpt lat="44.11923" lon="6.31705">
        <ele>939.79998779297</ele>
        <time>2022-04-28T18:00:15.792Z</time>
      </trkpt>
      <trkpt lat="44.11919" lon="6.31704">
        <ele>939</ele>
        <time>2022-04-28T18:00:22.422Z</time>
      </trkpt>
      <trkpt lat="44.11913" lon="6.31705">
        <ele>937.40002441406</ele>
        <time>2022-04-28T18:00:29.054Z</time>
      </trkpt>
      <trkpt lat="44.11911" lon="6.31706">
        <ele>936.79998779297</ele>
        <time>2022-04-28T18:00:35.687Z</time>
      </trkpt>
      <trkpt lat="44.11909" lon="6.31708">
        <ele>936.20001220703</ele>
        <time>2022-04-28T18:00:42.320Z</time>
      </trkpt>
      <trkpt lat="44.11908" lon="6.31709">
        <ele>934.59997558594</ele>
        <time>2022-04-28T18:00:48.954Z</time>
      </trkpt>
      <trkpt lat="44.11906" lon="6.3171">
        <ele>934</ele>
        <time>2022-04-28T18:00:55.588Z</time>
      </trkpt>
      <trkpt lat="44.11904" lon="6.3171">
        <ele>933.59997558594</ele>
        <time>2022-04-28T18:01:02.223Z</time>
      </trkpt>
      <trkpt lat="44.11902" lon="6.31709">
        <ele>933.40002441406</ele>
        <time>2022-04-28T18:01:08.859Z</time>
      </trkpt>
      <trkpt lat="44.11899" lon="6.31708">
        <ele>933</ele>
        <time>2022-04-28T18:01:15.496Z</time>
      </trkpt>
      <trkpt lat="44.11899" lon="6.31713">
        <ele>933.59997558594</ele>
        <time>2022-04-28T18:01:22.134Z</time>
      </trkpt>
      <trkpt lat="44.11897" lon="6.3172">
        <ele>934</ele>
        <time>2022-04-28T18:01:28.773Z</time>
      </trkpt>
      <trkpt lat="44.11894" lon="6.31722">
        <ele>934.40002441406</ele>
        <time>2022-04-28T18:01:35.413Z</time>
      </trkpt>
      <trkpt lat="44.11891" lon="6.31723">
        <ele>935.40002441406</ele>
        <time>2022-04-28T18:01:42.054Z</time>
      </trkpt>
      <trkpt lat="44.1189" lon="6.31721">
        <ele>935.79998779297</ele>
        <time>2022-04-28T18:01:48.696Z</time>
      </trkpt>
      <trkpt lat="44.11888" lon="6.3171">
        <ele>936.79998779297</ele>
        <time>2022-04-28T18:01:55.340Z</time>
      </trkpt>
      <trkpt lat="44.11886" lon="6.31696">
        <ele>938</ele>
        <time>2022-04-28T18:02:01.988Z</time>
      </trkpt>
      <trkpt lat="44.11887" lon="6.31691">
        <ele>939</ele>
        <time>2022-04-28T18:02:08.637Z</time>
      </trkpt>
      <trkpt lat="44.11887" lon="6.31685">
        <ele>939.79998779297</ele>
        <time>2022-04-28T18:02:15.287Z</time>
      </trkpt>
      <trkpt lat="44.11887" lon="6.31682">
        <ele>940.20001220703</ele>
        <time>2022-04-28T18:02:21.938Z</time>
      </trkpt>
      <trkpt lat="44.11886" lon="6.31676">
        <ele>941.40002441406</ele>
        <time>2022-04-28T18:02:28.590Z</time>
      </trkpt>
      <trkpt lat="44.11883" lon="6.31669">
        <ele>942.20001220703</ele>
        <time>2022-04-28T18:02:35.244Z</time>
      </trkpt>
      <trkpt lat="44.11881" lon="6.31667">
        <ele>942.79998779297</ele>
        <time>2022-04-28T18:02:41.899Z</time>
      </trkpt>
      <trkpt lat="44.11876" lon="6.31662">
        <ele>944.20001220703</ele>
        <time>2022-04-28T18:02:48.556Z</time>
      </trkpt>
      <trkpt lat="44.11872" lon="6.31658">
        <ele>945.20001220703</ele>
        <time>2022-04-28T18:02:55.215Z</time>
      </trkpt>
      <trkpt lat="44.11869" lon="6.31654">
        <ele>945.79998779297</ele>
        <time>2022-04-28T18:03:01.875Z</time>
      </trkpt>
      <trkpt lat="44.11866" lon="6.31654">
        <ele>946.59997558594</ele>
        <time>2022-04-28T18:03:08.536Z</time>
      </trkpt>
      <trkpt lat="44.11864" lon="6.31655">
        <ele>947</ele>
        <time>2022-04-28T18:03:15.198Z</time>
      </trkpt>
      <trkpt lat="44.11862" lon="6.31652">
        <ele>947.79998779297</ele>
        <time>2022-04-28T18:03:21.861Z</time>
      </trkpt>
      <trkpt lat="44.11862" lon="6.31649">
        <ele>948.20001220703</ele>
        <time>2022-04-28T18:03:28.524Z</time>
      </trkpt>
      <trkpt lat="44.11864" lon="6.31644">
        <ele>948.79998779297</ele>
        <time>2022-04-28T18:03:35.189Z</time>
      </trkpt>
      <trkpt lat="44.11864" lon="6.31641">
        <ele>949</ele>
        <time>2022-04-28T18:03:41.854Z</time>
      </trkpt>
      <trkpt lat="44.11865" lon="6.31633">
        <ele>950.20001220703</ele>
        <time>2022-04-28T18:03:48.521Z</time>
      </trkpt>
      <trkpt lat="44.11868" lon="6.31624">
        <ele>951.59997558594</ele>
        <time>2022-04-28T18:03:55.190Z</time>
      </trkpt>
      <trkpt lat="44.11868" lon="6.31624">
        <ele>952.20001220703</ele>
        <time>2022-04-28T18:04:01.860Z</time>
      </trkpt>
      <trkpt lat="44.11871" lon="6.3162">
        <ele>953</ele>
        <time>2022-04-28T18:04:08.531Z</time>
      </trkpt>
      <trkpt lat="44.11871" lon="6.31618">
        <ele>953.20001220703</ele>
        <time>2022-04-28T18:04:15.202Z</time>
      </trkpt>
      <trkpt lat="44.11872" lon="6.31616">
        <ele>953.40002441406</ele>
        <time>2022-04-28T18:04:21.874Z</time>
      </trkpt>
      <trkpt lat="44.11873" lon="6.3161">
        <ele>954.40002441406</ele>
        <time>2022-04-28T18:04:28.547Z</time>
      </trkpt>
      <trkpt lat="44.11872" lon="6.31605">
        <ele>955</ele>
        <time>2022-04-28T18:04:35.221Z</time>
      </trkpt>
      <trkpt lat="44.11871" lon="6.316">
        <ele>955.79998779297</ele>
        <time>2022-04-28T18:04:41.896Z</time>
      </trkpt>
      <trkpt lat="44.11869" lon="6.31591">
        <ele>957.20001220703</ele>
        <time>2022-04-28T18:04:48.573Z</time>
      </trkpt>
      <trkpt lat="44.11866" lon="6.31586">
        <ele>958</ele>
        <time>2022-04-28T18:04:55.252Z</time>
      </trkpt>
      <trkpt lat="44.11856" lon="6.3158">
        <ele>958.20001220703</ele>
        <time>2022-04-28T18:05:01.934Z</time>
      </trkpt>
      <trkpt lat="44.11849" lon="6.31579">
        <ele>958</ele>
        <time>2022-04-28T18:05:08.619Z</time>
      </trkpt>
      <trkpt lat="44.11839" lon="6.31576">
        <ele>957</ele>
        <time>2022-04-28T18:05:15.307Z</time>
      </trkpt>
      <trkpt lat="44.11825" lon="6.31569">
        <ele>956.40002441406</ele>
        <time>2022-04-28T18:05:22.000Z</time>
      </trkpt>
      <trkpt lat="44.1182" lon="6.31569">
        <ele>956.40002441406</ele>
        <time>2022-04-28T18:05:28.694Z</time>
      </trkpt>
      <trkpt lat="44.11814" lon="6.31567">
        <ele>955.79998779297</ele>
        <time>2022-04-28T18:05:35.390Z</time>
      </trkpt>
      <trkpt lat="44.1181" lon="6.31563">
        <ele>954.79998779297</ele>
        <time>2022-04-28T18:05:42.088Z</time>
      </trkpt>
      <trkpt lat="44.11808" lon="6.31557">
        <ele>954.40002441406</ele>
        <time>2022-04-28T18:05:48.787Z</time>
      </trkpt>
      <trkpt lat="44.11807" lon="6.31552">
        <ele>954</ele>
        <time>2022-04-28T18:05:55.487Z</time>
      </trkpt>
      <trkpt lat="44.11807" lon="6.31548">
        <ele>954</ele>
        <time>2022-04-28T18:06:02.188Z</time>
      </trkpt>
      <trkpt lat="44.11807" lon="6.31526">
        <ele>955</ele>
        <time>2022-04-28T18:06:08.895Z</time>
      </trkpt>
      <trkpt lat="44.1181" lon="6.315">
        <ele>955.20001220703</ele>
        <time>2022-04-28T18:06:15.607Z</time>
      </trkpt>
      <trkpt lat="44.11808" lon="6.31496">
        <ele>955.20001220703</ele>
        <time>2022-04-28T18:06:22.320Z</time>
      </trkpt>
      <trkpt lat="44.11801" lon="6.31483">
        <ele>955.40002441406</ele>
        <time>2022-04-28T18:06:29.037Z</time>
      </trkpt>
      <trkpt lat="44.11798" lon="6.31479">
        <ele>955.20001220703</ele>
        <time>2022-04-28T18:06:35.756Z</time>
      </trkpt>
      <trkpt lat="44.11788" lon="6.31472">
        <ele>954.79998779297</ele>
        <time>2022-04-28T18:06:42.478Z</time>
      </trkpt>
      <trkpt lat="44.11782" lon="6.31469">
        <ele>954.20001220703</ele>
        <time>2022-04-28T18:06:49.202Z</time>
      </trkpt>
      <trkpt lat="44.1177" lon="6.31458">
        <ele>953.20001220703</ele>
        <time>2022-04-28T18:06:55.930Z</time>
      </trkpt>
      <trkpt lat="44.11766" lon="6.31452">
        <ele>952.59997558594</ele>
        <time>2022-04-28T18:07:02.661Z</time>
      </trkpt>
      <trkpt lat="44.11764" lon="6.31444">
        <ele>952</ele>
        <time>2022-04-28T18:07:09.393Z</time>
      </trkpt>
      <trkpt lat="44.11765" lon="6.31437">
        <ele>951.59997558594</ele>
        <time>2022-04-28T18:07:16.127Z</time>
      </trkpt>
      <trkpt lat="44.11763" lon="6.31411">
        <ele>951.20001220703</ele>
        <time>2022-04-28T18:07:22.867Z</time>
      </trkpt>
      <trkpt lat="44.1176" lon="6.31401">
        <ele>951.20001220703</ele>
        <time>2022-04-28T18:07:29.609Z</time>
      </trkpt>
      <trkpt lat="44.11753" lon="6.31391">
        <ele>951.40002441406</ele>
        <time>2022-04-28T18:07:36.355Z</time>
      </trkpt>
      <trkpt lat="44.11743" lon="6.31377">
        <ele>951.40002441406</ele>
        <time>2022-04-28T18:07:43.105Z</time>
      </trkpt>
      <trkpt lat="44.11743" lon="6.31374">
        <ele>951.20001220703</ele>
        <time>2022-04-28T18:07:49.856Z</time>
      </trkpt>
      <trkpt lat="44.11744" lon="6.3137">
        <ele>951</ele>
        <time>2022-04-28T18:07:56.608Z</time>
      </trkpt>
      <trkpt lat="44.11748" lon="6.31359">
        <ele>950.20001220703</ele>
        <time>2022-04-28T18:08:03.362Z</time>
      </trkpt>
      <trkpt lat="44.11752" lon="6.31355">
        <ele>950</ele>
        <time>2022-04-28T18:08:10.118Z</time>
      </trkpt>
      <trkpt lat="44.11763" lon="6.31334">
        <ele>950.59997558594</ele>
        <time>2022-04-28T18:08:16.880Z</time>
      </trkpt>
      <trkpt lat="44.11769" lon="6.31312">
        <ele>951.79998779297</ele>
        <time>2022-04-28T18:08:23.647Z</time>
      </trkpt>
      <trkpt lat="44.11769" lon="6.31308">
        <ele>952</ele>
        <time>2022-04-28T18:08:30.415Z</time>
      </trkpt>
      <trkpt lat="44.1177" lon="6.31287">
        <ele>953</ele>
        <time>2022-04-28T18:08:37.188Z</time>
      </trkpt>
      <trkpt lat="44.11771" lon="6.31277">
        <ele>953.20001220703</ele>
        <time>2022-04-28T18:08:43.963Z</time>
      </trkpt>
      <trkpt lat="44.11775" lon="6.31265">
        <ele>954.20001220703</ele>
        <time>2022-04-28T18:08:50.741Z</time>
      </trkpt>
      <trkpt lat="44.11778" lon="6.3126">
        <ele>954.20001220703</ele>
        <time>2022-04-28T18:08:57.521Z</time>
      </trkpt>
      <trkpt lat="44.11786" lon="6.31252">
        <ele>954.20001220703</ele>
        <time>2022-04-28T18:09:04.304Z</time>
      </trkpt>
      <trkpt lat="44.11797" lon="6.31247">
        <ele>954.40002441406</ele>
        <time>2022-04-28T18:09:11.090Z</time>
      </trkpt>
      <trkpt lat="44.11811" lon="6.31251">
        <ele>955</ele>
        <time>2022-04-28T18:09:17.881Z</time>
      </trkpt>
      <trkpt lat="44.11821" lon="6.31256">
        <ele>955.40002441406</ele>
        <time>2022-04-28T18:09:24.675Z</time>
      </trkpt>
      <trkpt lat="44.11824" lon="6.31253">
        <ele>955.79998779297</ele>
        <time>2022-04-28T18:09:31.471Z</time>
      </trkpt>
      <trkpt lat="44.11824" lon="6.31251">
        <ele>956.20001220703</ele>
        <time>2022-04-28T18:09:38.267Z</time>
      </trkpt>
      <trkpt lat="44.11823" lon="6.31249">
        <ele>956</ele>
        <time>2022-04-28T18:09:45.064Z</time>
      </trkpt>
      <trkpt lat="44.11817" lon="6.31239">
        <ele>956.59997558594</ele>
        <time>2022-04-28T18:09:51.864Z</time>
      </trkpt>
      <trkpt lat="44.11815" lon="6.31232">
        <ele>957.40002441406</ele>
        <time>2022-04-28T18:09:58.665Z</time>
      </trkpt>
      <trkpt lat="44.11814" lon="6.31228">
        <ele>957.79998779297</ele>
        <time>2022-04-28T18:10:05.467Z</time>
      </trkpt>
      <trkpt lat="44.1181" lon="6.31215">
        <ele>958.79998779297</ele>
        <time>2022-04-28T18:10:12.273Z</time>
      </trkpt>
      <trkpt lat="44.1181" lon="6.31211">
        <ele>959</ele>
        <time>2022-04-28T18:10:19.079Z</time>
      </trkpt>
      <trkpt lat="44.11809" lon="6.31204">
        <ele>960</ele>
        <time>2022-04-28T18:10:25.887Z</time>
      </trkpt>
      <trkpt lat="44.11806" lon="6.31198">
        <ele>960.40002441406</ele>
        <time>2022-04-28T18:10:32.697Z</time>
      </trkpt>
      <trkpt lat="44.11804" lon="6.31192">
        <ele>961.20001220703</ele>
        <time>2022-04-28T18:10:39.508Z</time>
      </trkpt>
      <trkpt lat="44.11804" lon="6.31189">
        <ele>961.40002441406</ele>
        <time>2022-04-28T18:10:46.320Z</time>
      </trkpt>
      <trkpt lat="44.11804" lon="6.31181">
        <ele>962.20001220703</ele>
        <time>2022-04-28T18:10:53.134Z</time>
      </trkpt>
      <trkpt lat="44.11805" lon="6.31174">
        <ele>962.79998779297</ele>
        <time>2022-04-28T18:10:59.949Z</time>
      </trkpt>
      <trkpt lat="44.11808" lon="6.31164">
        <ele>963.40002441406</ele>
        <time>2022-04-28T18:11:06.767Z</time>
      </trkpt>
      <trkpt lat="44.11806" lon="6.31157">
        <ele>964.20001220703</ele>
        <time>2022-04-28T18:11:13.587Z</time>
      </trkpt>
      <trkpt lat="44.11807" lon="6.31156">
        <ele>964.40002441406</ele>
        <time>2022-04-28T18:11:20.407Z</time>
      </trkpt>
      <trkpt lat="44.11813" lon="6.31156">
        <ele>965</ele>
        <time>2022-04-28T18:11:27.229Z</time>
      </trkpt>
      <trkpt lat="44.11816" lon="6.31166">
        <ele>965.59997558594</ele>
        <time>2022-04-28T18:11:34.053Z</time>
      </trkpt>
      <trkpt lat="44.11817" lon="6.31169">
        <ele>965.79998779297</ele>
        <time>2022-04-28T18:11:40.878Z</time>
      </trkpt>
      <trkpt lat="44.11819" lon="6.31187">
        <ele>965.79998779297</ele>
        <time>2022-04-28T18:11:47.707Z</time>
      </trkpt>
      <trkpt lat="44.11823" lon="6.31199">
        <ele>965</ele>
        <time>2022-04-28T18:11:54.539Z</time>
      </trkpt>
      <trkpt lat="44.11834" lon="6.31208">
        <ele>965</ele>
        <time>2022-04-28T18:12:01.375Z</time>
      </trkpt>
      <trkpt lat="44.11841" lon="6.31216">
        <ele>965.20001220703</ele>
        <time>2022-04-28T18:12:08.214Z</time>
      </trkpt>
      <trkpt lat="44.11851" lon="6.31221">
        <ele>965.79998779297</ele>
        <time>2022-04-28T18:12:15.057Z</time>
      </trkpt>
      <trkpt lat="44.11861" lon="6.31226">
        <ele>966.40002441406</ele>
        <time>2022-04-28T18:12:21.903Z</time>
      </trkpt>
      <trkpt lat="44.11864" lon="6.31227">
        <ele>966.59997558594</ele>
        <time>2022-04-28T18:12:28.750Z</time>
      </trkpt>
      <trkpt lat="44.11871" lon="6.31233">
        <ele>967</ele>
        <time>2022-04-28T18:12:35.600Z</time>
      </trkpt>
      <trkpt lat="44.11882" lon="6.31238">
        <ele>967.59997558594</ele>
        <time>2022-04-28T18:12:42.453Z</time>
      </trkpt>
      <trkpt lat="44.11884" lon="6.31239">
        <ele>968</ele>
        <time>2022-04-28T18:12:49.307Z</time>
      </trkpt>
      <trkpt lat="44.11887" lon="6.3124">
        <ele>968.20001220703</ele>
        <time>2022-04-28T18:12:56.162Z</time>
      </trkpt>
      <trkpt lat="44.11891" lon="6.31243">
        <ele>968.79998779297</ele>
        <time>2022-04-28T18:13:03.018Z</time>
      </trkpt>
      <trkpt lat="44.11896" lon="6.31244">
        <ele>969.20001220703</ele>
        <time>2022-04-28T18:13:09.876Z</time>
      </trkpt>
      <trkpt lat="44.11904" lon="6.31245">
        <ele>969.79998779297</ele>
        <time>2022-04-28T18:13:16.736Z</time>
      </trkpt>
      <trkpt lat="44.1191" lon="6.31245">
        <ele>970.40002441406</ele>
        <time>2022-04-28T18:13:23.598Z</time>
      </trkpt>
      <trkpt lat="44.11919" lon="6.31246">
        <ele>970.59997558594</ele>
        <time>2022-04-28T18:13:30.463Z</time>
      </trkpt>
      <trkpt lat="44.11921" lon="6.31247">
        <ele>971.20001220703</ele>
        <time>2022-04-28T18:13:37.329Z</time>
      </trkpt>
      <trkpt lat="44.11923" lon="6.3125">
        <ele>971.20001220703</ele>
        <time>2022-04-28T18:13:44.196Z</time>
      </trkpt>
      <trkpt lat="44.11931" lon="6.31258">
        <ele>971.79998779297</ele>
        <time>2022-04-28T18:13:51.066Z</time>
      </trkpt>
      <trkpt lat="44.11939" lon="6.31265">
        <ele>972.40002441406</ele>
        <time>2022-04-28T18:13:57.939Z</time>
      </trkpt>
      <trkpt lat="44.11947" lon="6.31271">
        <ele>973.40002441406</ele>
        <time>2022-04-28T18:14:04.815Z</time>
      </trkpt>
      <trkpt lat="44.11952" lon="6.31272">
        <ele>974</ele>
        <time>2022-04-28T18:14:11.692Z</time>
      </trkpt>
      <trkpt lat="44.11962" lon="6.31274">
        <ele>974.59997558594</ele>
        <time>2022-04-28T18:14:18.572Z</time>
      </trkpt>
      <trkpt lat="44.11968" lon="6.31278">
        <ele>974.79998779297</ele>
        <time>2022-04-28T18:14:25.455Z</time>
      </trkpt>
      <trkpt lat="44.11983" lon="6.31284">
        <ele>975.20001220703</ele>
        <time>2022-04-28T18:14:32.343Z</time>
      </trkpt>
      <trkpt lat="44.11989" lon="6.31284">
        <ele>975.79998779297</ele>
        <time>2022-04-28T18:14:39.233Z</time>
      </trkpt>
      <trkpt lat="44.11997" lon="6.31285">
        <ele>977</ele>
        <time>2022-04-28T18:14:46.125Z</time>
      </trkpt>
      <trkpt lat="44.12009" lon="6.31294">
        <ele>977.59997558594</ele>
        <time>2022-04-28T18:14:53.021Z</time>
      </trkpt>
      <trkpt lat="44.12018" lon="6.31302">
        <ele>977.40002441406</ele>
        <time>2022-04-28T18:14:59.921Z</time>
      </trkpt>
      <trkpt lat="44.12021" lon="6.31302">
        <ele>977.20001220703</ele>
        <time>2022-04-28T18:15:06.822Z</time>
      </trkpt>
      <trkpt lat="44.12023" lon="6.31295">
        <ele>978.20001220703</ele>
        <time>2022-04-28T18:15:13.724Z</time>
      </trkpt>
      <trkpt lat="44.12023" lon="6.31289">
        <ele>979.40002441406</ele>
        <time>2022-04-28T18:15:20.628Z</time>
      </trkpt>
      <trkpt lat="44.12021" lon="6.31284">
        <ele>980.20001220703</ele>
        <time>2022-04-28T18:15:27.533Z</time>
      </trkpt>
      <trkpt lat="44.1202" lon="6.31282">
        <ele>980.59997558594</ele>
        <time>2022-04-28T18:15:34.439Z</time>
      </trkpt>
      <trkpt lat="44.12022" lon="6.3128">
        <ele>981.79998779297</ele>
        <time>2022-04-28T18:15:41.345Z</time>
      </trkpt>
      <trkpt lat="44.12024" lon="6.31282">
        <ele>982</ele>
        <time>2022-04-28T18:15:48.252Z</time>
      </trkpt>
      <trkpt lat="44.12031" lon="6.31286">
        <ele>982.59997558594</ele>
        <time>2022-04-28T18:15:55.162Z</time>
      </trkpt>
      <trkpt lat="44.12034" lon="6.31286">
        <ele>982.79998779297</ele>
        <time>2022-04-28T18:16:02.073Z</time>
      </trkpt>
      <trkpt lat="44.12036" lon="6.31286">
        <ele>982.79998779297</ele>
        <time>2022-04-28T18:16:08.984Z</time>
      </trkpt>
      <trkpt lat="44.12036" lon="6.31284">
        <ele>982.79998779297</ele>
        <time>2022-04-28T18:16:15.896Z</time>
      </trkpt>
      <trkpt lat="44.12035" lon="6.31278">
        <ele>983.79998779297</ele>
        <time>2022-04-28T18:16:22.809Z</time>
      </trkpt>
      <trkpt lat="44.12033" lon="6.31272">
        <ele>985.20001220703</ele>
        <time>2022-04-28T18:16:29.724Z</time>
      </trkpt>
      <trkpt lat="44.12025" lon="6.31261">
        <ele>985.79998779297</ele>
        <time>2022-04-28T18:16:36.642Z</time>
      </trkpt>
      <trkpt lat="44.12022" lon="6.31257">
        <ele>986</ele>
        <time>2022-04-28T18:16:43.561Z</time>
      </trkpt>
      <trkpt lat="44.1202" lon="6.31253">
        <ele>986.40002441406</ele>
        <time>2022-04-28T18:16:50.481Z</time>
      </trkpt>
      <trkpt lat="44.12012" lon="6.31242">
        <ele>987.20001220703</ele>
        <time>2022-04-28T18:16:57.405Z</time>
      </trkpt>
      <trkpt lat="44.1201" lon="6.31239">
        <ele>987.79998779297</ele>
        <time>2022-04-28T18:17:04.330Z</time>
      </trkpt>
      <trkpt lat="44.12014" lon="6.31234">
        <ele>988.59997558594</ele>
        <time>2022-04-28T18:17:11.257Z</time>
      </trkpt>
      <trkpt lat="44.12017" lon="6.31235">
        <ele>988.79998779297</ele>
        <time>2022-04-28T18:17:18.185Z</time>
      </trkpt>
      <trkpt lat="44.12025" lon="6.31239">
        <ele>989.40002441406</ele>
        <time>2022-04-28T18:17:25.115Z</time>
      </trkpt>
      <trkpt lat="44.12032" lon="6.31241">
        <ele>989.79998779297</ele>
        <time>2022-04-28T18:17:32.048Z</time>
      </trkpt>
      <trkpt lat="44.12043" lon="6.31247">
        <ele>990.79998779297</ele>
        <time>2022-04-28T18:17:38.984Z</time>
      </trkpt>
      <trkpt lat="44.1205" lon="6.3125">
        <ele>991.59997558594</ele>
        <time>2022-04-28T18:17:45.922Z</time>
      </trkpt>
      <trkpt lat="44.12052" lon="6.31248">
        <ele>991.79998779297</ele>
        <time>2022-04-28T18:17:52.861Z</time>
      </trkpt>
      <trkpt lat="44.12052" lon="6.31246">
        <ele>991.79998779297</ele>
        <time>2022-04-28T18:17:59.801Z</time>
      </trkpt>
      <trkpt lat="44.12049" lon="6.31239">
        <ele>993</ele>
        <time>2022-04-28T18:18:06.743Z</time>
      </trkpt>
      <trkpt lat="44.12046" lon="6.31229">
        <ele>994</ele>
        <time>2022-04-28T18:18:13.687Z</time>
      </trkpt>
      <trkpt lat="44.12042" lon="6.3122">
        <ele>994.79998779297</ele>
        <time>2022-04-28T18:18:20.633Z</time>
      </trkpt>
      <trkpt lat="44.12041" lon="6.31215">
        <ele>995.20001220703</ele>
        <time>2022-04-28T18:18:27.581Z</time>
      </trkpt>
      <trkpt lat="44.12036" lon="6.312">
        <ele>996.40002441406</ele>
        <time>2022-04-28T18:18:34.532Z</time>
      </trkpt>
      <trkpt lat="44.1203" lon="6.31192">
        <ele>997.20001220703</ele>
        <time>2022-04-28T18:18:41.486Z</time>
      </trkpt>
      <trkpt lat="44.12027" lon="6.31188">
        <ele>997.40002441406</ele>
        <time>2022-04-28T18:18:48.441Z</time>
      </trkpt>
      <trkpt lat="44.12023" lon="6.31186">
        <ele>997.59997558594</ele>
        <time>2022-04-28T18:18:55.398Z</time>
      </trkpt>
      <trkpt lat="44.12015" lon="6.31181">
        <ele>997.79998779297</ele>
        <time>2022-04-28T18:19:02.357Z</time>
      </trkpt>
      <trkpt lat="44.12" lon="6.31166">
        <ele>997.79998779297</ele>
        <time>2022-04-28T18:19:09.322Z</time>
      </trkpt>
      <trkpt lat="44.11985" lon="6.31152">
        <ele>998</ele>
        <time>2022-04-28T18:19:16.293Z</time>
      </trkpt>
      <trkpt lat="44.11977" lon="6.31138">
        <ele>998.20001220703</ele>
        <time>2022-04-28T18:19:23.268Z</time>
      </trkpt>
      <trkpt lat="44.11976" lon="6.3113">
        <ele>998.59997558594</ele>
        <time>2022-04-28T18:19:30.245Z</time>
      </trkpt>
      <trkpt lat="44.11974" lon="6.31122">
        <ele>999.20001220703</ele>
        <time>2022-04-28T18:19:37.224Z</time>
      </trkpt>
      <trkpt lat="44.11972" lon="6.31118">
        <ele>999.79998779297</ele>
        <time>2022-04-28T18:19:44.204Z</time>
      </trkpt>
      <trkpt lat="44.11963" lon="6.3111">
        <ele>1000.799987793</ele>
        <time>2022-04-28T18:19:51.187Z</time>
      </trkpt>
      <trkpt lat="44.1196" lon="6.31106">
        <ele>1001</ele>
        <time>2022-04-28T18:19:58.172Z</time>
      </trkpt>
      <trkpt lat="44.11945" lon="6.31092">
        <ele>1001.4000244141</ele>
        <time>2022-04-28T18:20:05.162Z</time>
      </trkpt>
      <trkpt lat="44.11941" lon="6.31088">
        <ele>1001.4000244141</ele>
        <time>2022-04-28T18:20:12.154Z</time>
      </trkpt>
      <trkpt lat="44.11929" lon="6.31073">
        <ele>1002</ele>
        <time>2022-04-28T18:20:19.151Z</time>
      </trkpt>
      <trkpt lat="44.11925" lon="6.31062">
        <ele>1002.4000244141</ele>
        <time>2022-04-28T18:20:26.151Z</time>
      </trkpt>
      <trkpt lat="44.11925" lon="6.3106">
        <ele>1002.5999755859</ele>
        <time>2022-04-28T18:20:33.152Z</time>
      </trkpt>
      <trkpt lat="44.11927" lon="6.31059">
        <ele>1003</ele>
        <time>2022-04-28T18:20:40.153Z</time>
      </trkpt>
      <trkpt lat="44.11929" lon="6.3106">
        <ele>1003.200012207</ele>
        <time>2022-04-28T18:20:47.155Z</time>
      </trkpt>
      <trkpt lat="44.11938" lon="6.31066">
        <ele>1004.200012207</ele>
        <time>2022-04-28T18:20:54.160Z</time>
      </trkpt>
      <trkpt lat="44.11942" lon="6.31066">
        <ele>1004.4000244141</ele>
        <time>2022-04-28T18:21:01.166Z</time>
      </trkpt>
      <trkpt lat="44.11956" lon="6.31069">
        <ele>1005.4000244141</ele>
        <time>2022-04-28T18:21:08.177Z</time>
      </trkpt>
      <trkpt lat="44.11962" lon="6.31071">
        <ele>1006.5999755859</ele>
        <time>2022-04-28T18:21:15.190Z</time>
      </trkpt>
      <trkpt lat="44.11976" lon="6.31081">
        <ele>1007.200012207</ele>
        <time>2022-04-28T18:21:22.208Z</time>
      </trkpt>
      <trkpt lat="44.11979" lon="6.31085">
        <ele>1007.4000244141</ele>
        <time>2022-04-28T18:21:29.227Z</time>
      </trkpt>
      <trkpt lat="44.11983" lon="6.31088">
        <ele>1007.5999755859</ele>
        <time>2022-04-28T18:21:36.248Z</time>
      </trkpt>
      <trkpt lat="44.11993" lon="6.31095">
        <ele>1008</ele>
        <time>2022-04-28T18:21:43.272Z</time>
      </trkpt>
      <trkpt lat="44.12002" lon="6.31095">
        <ele>1008.799987793</ele>
        <time>2022-04-28T18:21:50.299Z</time>
      </trkpt>
      <trkpt lat="44.12005" lon="6.31096">
        <ele>1009</ele>
        <time>2022-04-28T18:21:57.327Z</time>
      </trkpt>
      <trkpt lat="44.12016" lon="6.31098">
        <ele>1010</ele>
        <time>2022-04-28T18:22:04.358Z</time>
      </trkpt>
      <trkpt lat="44.12023" lon="6.31099">
        <ele>1010.5999755859</ele>
        <time>2022-04-28T18:22:11.392Z</time>
      </trkpt>
      <trkpt lat="44.12024" lon="6.31097">
        <ele>1011</ele>
        <time>2022-04-28T18:22:18.426Z</time>
      </trkpt>
      <trkpt lat="44.12024" lon="6.31094">
        <ele>1011.200012207</ele>
        <time>2022-04-28T18:22:25.461Z</time>
      </trkpt>
      <trkpt lat="44.12022" lon="6.31091">
        <ele>1011.5999755859</ele>
        <time>2022-04-28T18:22:32.497Z</time>
      </trkpt>
      <trkpt lat="44.12019" lon="6.31083">
        <ele>1012.5999755859</ele>
        <time>2022-04-28T18:22:39.535Z</time>
      </trkpt>
      <trkpt lat="44.12016" lon="6.3108">
        <ele>1012.799987793</ele>
        <time>2022-04-28T18:22:46.574Z</time>
      </trkpt>
      <trkpt lat="44.12011" lon="6.31075">
        <ele>1013.4000244141</ele>
        <time>2022-04-28T18:22:53.615Z</time>
      </trkpt>
      <trkpt lat="44.12009" lon="6.31067">
        <ele>1013.799987793</ele>
        <time>2022-04-28T18:23:00.658Z</time>
      </trkpt>
      <trkpt lat="44.12009" lon="6.31064">
        <ele>1014</ele>
        <time>2022-04-28T18:23:07.702Z</time>
      </trkpt>
      <trkpt lat="44.12013" lon="6.31063">
        <ele>1015</ele>
        <time>2022-04-28T18:23:14.747Z</time>
      </trkpt>
      <trkpt lat="44.12016" lon="6.31063">
        <ele>1015.200012207</ele>
        <time>2022-04-28T18:23:21.793Z</time>
      </trkpt>
      <trkpt lat="44.12025" lon="6.31062">
        <ele>1015.799987793</ele>
        <time>2022-04-28T18:23:28.842Z</time>
      </trkpt>
      <trkpt lat="44.12028" lon="6.31061">
        <ele>1016</ele>
        <time>2022-04-28T18:23:35.892Z</time>
      </trkpt>
      <trkpt lat="44.12027" lon="6.3105">
        <ele>1016.799987793</ele>
        <time>2022-04-28T18:23:42.944Z</time>
      </trkpt>
      <trkpt lat="44.12027" lon="6.31046">
        <ele>1017.200012207</ele>
        <time>2022-04-28T18:23:49.997Z</time>
      </trkpt>
      <trkpt lat="44.12025" lon="6.31042">
        <ele>1017.5999755859</ele>
        <time>2022-04-28T18:23:57.051Z</time>
      </trkpt>
      <trkpt lat="44.12021" lon="6.31039">
        <ele>1018.5999755859</ele>
        <time>2022-04-28T18:24:04.106Z</time>
      </trkpt>
      <trkpt lat="44.1201" lon="6.31032">
        <ele>1019.4000244141</ele>
        <time>2022-04-28T18:24:11.166Z</time>
      </trkpt>
      <trkpt lat="44.12005" lon="6.31026">
        <ele>1019.5999755859</ele>
        <time>2022-04-28T18:24:18.228Z</time>
      </trkpt>
      <trkpt lat="44.12001" lon="6.31017">
        <ele>1020</ele>
        <time>2022-04-28T18:24:25.292Z</time>
      </trkpt>
      <trkpt lat="44.11998" lon="6.31005">
        <ele>1020.799987793</ele>
        <time>2022-04-28T18:24:32.359Z</time>
      </trkpt>
      <trkpt lat="44.11995" lon="6.30997">
        <ele>1022</ele>
        <time>2022-04-28T18:24:39.428Z</time>
      </trkpt>
      <trkpt lat="44.11993" lon="6.30993">
        <ele>1022.4000244141</ele>
        <time>2022-04-28T18:24:46.498Z</time>
      </trkpt>
      <trkpt lat="44.11991" lon="6.30984">
        <ele>1023.200012207</ele>
        <time>2022-04-28T18:24:53.570Z</time>
      </trkpt>
      <trkpt lat="44.1199" lon="6.30981">
        <ele>1023.5999755859</ele>
        <time>2022-04-28T18:25:00.643Z</time>
      </trkpt>
      <trkpt lat="44.11989" lon="6.30973">
        <ele>1024.1999511719</ele>
        <time>2022-04-28T18:25:07.718Z</time>
      </trkpt>
      <trkpt lat="44.11991" lon="6.30965">
        <ele>1025.1999511719</ele>
        <time>2022-04-28T18:25:14.795Z</time>
      </trkpt>
      <trkpt lat="44.11991" lon="6.30962">
        <ele>1025.5999755859</ele>
        <time>2022-04-28T18:25:21.872Z</time>
      </trkpt>
      <trkpt lat="44.11988" lon="6.30952">
        <ele>1027</ele>
        <time>2022-04-28T18:25:28.952Z</time>
      </trkpt>
      <trkpt lat="44.11986" lon="6.30945">
        <ele>1027.5999755859</ele>
        <time>2022-04-28T18:25:36.034Z</time>
      </trkpt>
      <trkpt lat="44.11986" lon="6.30941">
        <ele>1028.1999511719</ele>
        <time>2022-04-28T18:25:43.117Z</time>
      </trkpt>
      <trkpt lat="44.11986" lon="6.30937">
        <ele>1028.4000244141</ele>
        <time>2022-04-28T18:25:50.201Z</time>
      </trkpt>
      <trkpt lat="44.11985" lon="6.30929">
        <ele>1029.1999511719</ele>
        <time>2022-04-28T18:25:57.286Z</time>
      </trkpt>
      <trkpt lat="44.1198" lon="6.30917">
        <ele>1030</ele>
        <time>2022-04-28T18:26:04.374Z</time>
      </trkpt>
      <trkpt lat="44.11977" lon="6.3091">
        <ele>1030.1999511719</ele>
        <time>2022-04-28T18:26:11.464Z</time>
      </trkpt>
      <trkpt lat="44.11973" lon="6.30898">
        <ele>1030.8000488281</ele>
        <time>2022-04-28T18:26:18.557Z</time>
      </trkpt>
      <trkpt lat="44.11967" lon="6.30887">
        <ele>1031.4000244141</ele>
        <time>2022-04-28T18:26:25.654Z</time>
      </trkpt>
      <trkpt lat="44.11962" lon="6.30874">
        <ele>1032.1999511719</ele>
        <time>2022-04-28T18:26:32.754Z</time>
      </trkpt>
      <trkpt lat="44.11961" lon="6.30871">
        <ele>1032.5999755859</ele>
        <time>2022-04-28T18:26:39.855Z</time>
      </trkpt>
      <trkpt lat="44.11953" lon="6.30862">
        <ele>1033.8000488281</ele>
        <time>2022-04-28T18:26:46.959Z</time>
      </trkpt>
      <trkpt lat="44.11941" lon="6.30842">
        <ele>1034</ele>
        <time>2022-04-28T18:26:54.069Z</time>
      </trkpt>
      <trkpt lat="44.11937" lon="6.30838">
        <ele>1033.8000488281</ele>
        <time>2022-04-28T18:27:01.180Z</time>
      </trkpt>
      <trkpt lat="44.11924" lon="6.30827">
        <ele>1033.8000488281</ele>
        <time>2022-04-28T18:27:08.296Z</time>
      </trkpt>
      <trkpt lat="44.11918" lon="6.30818">
        <ele>1034.4000244141</ele>
        <time>2022-04-28T18:27:15.415Z</time>
      </trkpt>
      <trkpt lat="44.11914" lon="6.30811">
        <ele>1034.8000488281</ele>
        <time>2022-04-28T18:27:22.536Z</time>
      </trkpt>
      <trkpt lat="44.11907" lon="6.30796">
        <ele>1036</ele>
        <time>2022-04-28T18:27:29.661Z</time>
      </trkpt>
      <trkpt lat="44.11903" lon="6.3079">
        <ele>1037.1999511719</ele>
        <time>2022-04-28T18:27:36.788Z</time>
      </trkpt>
      <trkpt lat="44.11894" lon="6.30781">
        <ele>1037.8000488281</ele>
        <time>2022-04-28T18:27:43.918Z</time>
      </trkpt>
      <trkpt lat="44.11888" lon="6.30769">
        <ele>1037.8000488281</ele>
        <time>2022-04-28T18:27:51.052Z</time>
      </trkpt>
      <trkpt lat="44.11879" lon="6.30749">
        <ele>1038</ele>
        <time>2022-04-28T18:27:58.191Z</time>
      </trkpt>
      <trkpt lat="44.11875" lon="6.30739">
        <ele>1038.1999511719</ele>
        <time>2022-04-28T18:28:05.333Z</time>
      </trkpt>
      <trkpt lat="44.11871" lon="6.3073">
        <ele>1038.5999755859</ele>
        <time>2022-04-28T18:28:12.477Z</time>
      </trkpt>
      <trkpt lat="44.11875" lon="6.30728">
        <ele>1038.8000488281</ele>
        <time>2022-04-28T18:28:19.623Z</time>
      </trkpt>
      <trkpt lat="44.1188" lon="6.30733">
        <ele>1039.4000244141</ele>
        <time>2022-04-28T18:28:26.770Z</time>
      </trkpt>
      <trkpt lat="44.11886" lon="6.30736">
        <ele>1040.1999511719</ele>
        <time>2022-04-28T18:28:33.919Z</time>
      </trkpt>
      <trkpt lat="44.11889" lon="6.30736">
        <ele>1040.4000244141</ele>
        <time>2022-04-28T18:28:41.069Z</time>
      </trkpt>
      <trkpt lat="44.11896" lon="6.30746">
        <ele>1041.5999755859</ele>
        <time>2022-04-28T18:28:48.222Z</time>
      </trkpt>
      <trkpt lat="44.11904" lon="6.30758">
        <ele>1041.8000488281</ele>
        <time>2022-04-28T18:28:55.379Z</time>
      </trkpt>
      <trkpt lat="44.11907" lon="6.30762">
        <ele>1041.8000488281</ele>
        <time>2022-04-28T18:29:02.538Z</time>
      </trkpt>
      <trkpt lat="44.11922" lon="6.30774">
        <ele>1042</ele>
        <time>2022-04-28T18:29:09.702Z</time>
      </trkpt>
      <trkpt lat="44.11932" lon="6.30782">
        <ele>1042.1999511719</ele>
        <time>2022-04-28T18:29:16.870Z</time>
      </trkpt>
      <trkpt lat="44.11936" lon="6.30784">
        <ele>1042.4000244141</ele>
        <time>2022-04-28T18:29:24.039Z</time>
      </trkpt>
      <trkpt lat="44.11939" lon="6.30786">
        <ele>1042.5999755859</ele>
        <time>2022-04-28T18:29:31.209Z</time>
      </trkpt>
      <trkpt lat="44.11953" lon="6.3079">
        <ele>1043.4000244141</ele>
        <time>2022-04-28T18:29:38.384Z</time>
      </trkpt>
      <trkpt lat="44.11956" lon="6.3079">
        <ele>1043.5999755859</ele>
        <time>2022-04-28T18:29:45.560Z</time>
      </trkpt>
      <trkpt lat="44.11959" lon="6.30789">
        <ele>1043.8000488281</ele>
        <time>2022-04-28T18:29:52.737Z</time>
      </trkpt>
      <trkpt lat="44.11964" lon="6.30786">
        <ele>1044.4000244141</ele>
        <time>2022-04-28T18:29:59.915Z</time>
      </trkpt>
      <trkpt lat="44.1197" lon="6.30784">
        <ele>1045.4000244141</ele>
        <time>2022-04-28T18:30:07.095Z</time>
      </trkpt>
      <trkpt lat="44.11975" lon="6.3078">
        <ele>1046.8000488281</ele>
        <time>2022-04-28T18:30:14.277Z</time>
      </trkpt>
      <trkpt lat="44.11977" lon="6.30776">
        <ele>1047.1999511719</ele>
        <time>2022-04-28T18:30:21.460Z</time>
      </trkpt>
      <trkpt lat="44.11978" lon="6.30773">
        <ele>1047.5999755859</ele>
        <time>2022-04-28T18:30:28.644Z</time>
      </trkpt>
      <trkpt lat="44.11977" lon="6.30769">
        <ele>1048</ele>
        <time>2022-04-28T18:30:35.829Z</time>
      </trkpt>
      <trkpt lat="44.11976" lon="6.30765">
        <ele>1048.4000244141</ele>
        <time>2022-04-28T18:30:43.015Z</time>
      </trkpt>
      <trkpt lat="44.11975" lon="6.30758">
        <ele>1049.8000488281</ele>
        <time>2022-04-28T18:30:50.202Z</time>
      </trkpt>
      <trkpt lat="44.11975" lon="6.30753">
        <ele>1050.4000244141</ele>
        <time>2022-04-28T18:30:57.390Z</time>
      </trkpt>
      <trkpt lat="44.11974" lon="6.30749">
        <ele>1051</ele>
        <time>2022-04-28T18:31:04.579Z</time>
      </trkpt>
      <trkpt lat="44.11973" lon="6.3074">
        <ele>1052.1999511719</ele>
        <time>2022-04-28T18:31:11.771Z</time>
      </trkpt>
      <trkpt lat="44.11972" lon="6.3073">
        <ele>1053.4000244141</ele>
        <time>2022-04-28T18:31:18.965Z</time>
      </trkpt>
      <trkpt lat="44.11971" lon="6.30722">
        <ele>1054.5999755859</ele>
        <time>2022-04-28T18:31:26.161Z</time>
      </trkpt>
      <trkpt lat="44.11969" lon="6.30718">
        <ele>1055.1999511719</ele>
        <time>2022-04-28T18:31:33.358Z</time>
      </trkpt>
      <trkpt lat="44.11964" lon="6.30712">
        <ele>1056.1999511719</ele>
        <time>2022-04-28T18:31:40.557Z</time>
      </trkpt>
      <trkpt lat="44.11957" lon="6.30707">
        <ele>1056.8000488281</ele>
        <time>2022-04-28T18:31:47.759Z</time>
      </trkpt>
      <trkpt lat="44.11954" lon="6.30703">
        <ele>1057.1999511719</ele>
        <time>2022-04-28T18:31:54.962Z</time>
      </trkpt>
      <trkpt lat="44.11946" lon="6.30692">
        <ele>1058</ele>
        <time>2022-04-28T18:32:02.168Z</time>
      </trkpt>
      <trkpt lat="44.11937" lon="6.30681">
        <ele>1058.1999511719</ele>
        <time>2022-04-28T18:32:09.378Z</time>
      </trkpt>
      <trkpt lat="44.11931" lon="6.30672">
        <ele>1057.8000488281</ele>
        <time>2022-04-28T18:32:16.591Z</time>
      </trkpt>
      <trkpt lat="44.11919" lon="6.30653">
        <ele>1057.8000488281</ele>
        <time>2022-04-28T18:32:23.810Z</time>
      </trkpt>
      <trkpt lat="44.11918" lon="6.30649">
        <ele>1058.1999511719</ele>
        <time>2022-04-28T18:32:31.030Z</time>
      </trkpt>
      <trkpt lat="44.1192" lon="6.30646">
        <ele>1058.5999755859</ele>
        <time>2022-04-28T18:32:38.250Z</time>
      </trkpt>
      <trkpt lat="44.11924" lon="6.30648">
        <ele>1059.8000488281</ele>
        <time>2022-04-28T18:32:45.472Z</time>
      </trkpt>
      <trkpt lat="44.1193" lon="6.30652">
        <ele>1060.8000488281</ele>
        <time>2022-04-28T18:32:52.696Z</time>
      </trkpt>
      <trkpt lat="44.11933" lon="6.30655">
        <ele>1061</ele>
        <time>2022-04-28T18:32:59.921Z</time>
      </trkpt>
      <trkpt lat="44.11944" lon="6.30661">
        <ele>1061.4000244141</ele>
        <time>2022-04-28T18:33:07.150Z</time>
      </trkpt>
      <trkpt lat="44.11952" lon="6.30665">
        <ele>1062.1999511719</ele>
        <time>2022-04-28T18:33:14.381Z</time>
      </trkpt>
      <trkpt lat="44.11955" lon="6.30664">
        <ele>1062.5999755859</ele>
        <time>2022-04-28T18:33:21.614Z</time>
      </trkpt>
      <trkpt lat="44.11958" lon="6.30663">
        <ele>1062.5999755859</ele>
        <time>2022-04-28T18:33:28.848Z</time>
      </trkpt>
      <trkpt lat="44.11961" lon="6.30656">
        <ele>1063.5999755859</ele>
        <time>2022-04-28T18:33:36.083Z</time>
      </trkpt>
      <trkpt lat="44.11957" lon="6.30649">
        <ele>1064.8000488281</ele>
        <time>2022-04-28T18:33:43.320Z</time>
      </trkpt>
      <trkpt lat="44.11958" lon="6.3064">
        <ele>1065.5999755859</ele>
        <time>2022-04-28T18:33:50.560Z</time>
      </trkpt>
      <trkpt lat="44.11961" lon="6.30638">
        <ele>1066</ele>
        <time>2022-04-28T18:33:57.801Z</time>
      </trkpt>
      <trkpt lat="44.11967" lon="6.30633">
        <ele>1067</ele>
        <time>2022-04-28T18:34:05.044Z</time>
      </trkpt>
      <trkpt lat="44.11969" lon="6.3063">
        <ele>1067.4000244141</ele>
        <time>2022-04-28T18:34:12.288Z</time>
      </trkpt>
      <trkpt lat="44.11971" lon="6.30622">
        <ele>1068.1999511719</ele>
        <time>2022-04-28T18:34:19.534Z</time>
      </trkpt>
      <trkpt lat="44.11973" lon="6.30614">
        <ele>1069.1999511719</ele>
        <time>2022-04-28T18:34:26.782Z</time>
      </trkpt>
      <trkpt lat="44.11967" lon="6.30609">
        <ele>1069.8000488281</ele>
        <time>2022-04-28T18:34:34.032Z</time>
      </trkpt>
      <trkpt lat="44.11964" lon="6.30608">
        <ele>1070</ele>
        <time>2022-04-28T18:34:41.283Z</time>
      </trkpt>
      <trkpt lat="44.11957" lon="6.30601">
        <ele>1070.4000244141</ele>
        <time>2022-04-28T18:34:48.536Z</time>
      </trkpt>
      <trkpt lat="44.11953" lon="6.30595">
        <ele>1071</ele>
        <time>2022-04-28T18:34:55.791Z</time>
      </trkpt>
      <trkpt lat="44.11949" lon="6.30589">
        <ele>1071.5999755859</ele>
        <time>2022-04-28T18:35:03.048Z</time>
      </trkpt>
      <trkpt lat="44.11945" lon="6.3058">
        <ele>1072.4000244141</ele>
        <time>2022-04-28T18:35:10.308Z</time>
      </trkpt>
      <trkpt lat="44.11946" lon="6.30577">
        <ele>1072.8000488281</ele>
        <time>2022-04-28T18:35:17.568Z</time>
      </trkpt>
      <trkpt lat="44.11951" lon="6.30572">
        <ele>1074</ele>
        <time>2022-04-28T18:35:24.830Z</time>
      </trkpt>
      <trkpt lat="44.11948" lon="6.30566">
        <ele>1074.8000488281</ele>
        <time>2022-04-28T18:35:32.094Z</time>
      </trkpt>
      <trkpt lat="44.11946" lon="6.30562">
        <ele>1075.1999511719</ele>
        <time>2022-04-28T18:35:39.359Z</time>
      </trkpt>
      <trkpt lat="44.11942" lon="6.30545">
        <ele>1076</ele>
        <time>2022-04-28T18:35:46.628Z</time>
      </trkpt>
      <trkpt lat="44.1194" lon="6.3054">
        <ele>1076.4000244141</ele>
        <time>2022-04-28T18:35:53.898Z</time>
      </trkpt>
      <trkpt lat="44.11938" lon="6.30528">
        <ele>1077</ele>
        <time>2022-04-28T18:36:01.171Z</time>
      </trkpt>
      <trkpt lat="44.11938" lon="6.30524">
        <ele>1077.4000244141</ele>
        <time>2022-04-28T18:36:08.445Z</time>
      </trkpt>
      <trkpt lat="44.11936" lon="6.30521">
        <ele>1077.5999755859</ele>
        <time>2022-04-28T18:36:15.720Z</time>
      </trkpt>
      <trkpt lat="44.11931" lon="6.30513">
        <ele>1077.8000488281</ele>
        <time>2022-04-28T18:36:22.997Z</time>
      </trkpt>
      <trkpt lat="44.11929" lon="6.30508">
        <ele>1077.8000488281</ele>
        <time>2022-04-28T18:36:30.275Z</time>
      </trkpt>
      <trkpt lat="44.11924" lon="6.30498">
        <ele>1078</ele>
        <time>2022-04-28T18:36:37.556Z</time>
      </trkpt>
      <trkpt lat="44.11917" lon="6.30488">
        <ele>1077.8000488281</ele>
        <time>2022-04-28T18:36:44.840Z</time>
      </trkpt>
      <trkpt lat="44.11903" lon="6.3047">
        <ele>1077.4000244141</ele>
        <time>2022-04-28T18:36:52.131Z</time>
      </trkpt>
      <trkpt lat="44.11901" lon="6.30463">
        <ele>1077.4000244141</ele>
        <time>2022-04-28T18:36:59.423Z</time>
      </trkpt>
      <trkpt lat="44.1191" lon="6.3046">
        <ele>1077.4000244141</ele>
        <time>2022-04-28T18:37:06.718Z</time>
      </trkpt>
      <trkpt lat="44.11917" lon="6.30462">
        <ele>1078.1999511719</ele>
        <time>2022-04-28T18:37:14.015Z</time>
      </trkpt>
      <trkpt lat="44.11921" lon="6.30464">
        <ele>1078.5999755859</ele>
        <time>2022-04-28T18:37:21.314Z</time>
      </trkpt>
      <trkpt lat="44.11924" lon="6.30465">
        <ele>1079</ele>
        <time>2022-04-28T18:37:28.614Z</time>
      </trkpt>
      <trkpt lat="44.11931" lon="6.30464">
        <ele>1079.5999755859</ele>
        <time>2022-04-28T18:37:35.916Z</time>
      </trkpt>
      <trkpt lat="44.11938" lon="6.30465">
        <ele>1080.5999755859</ele>
        <time>2022-04-28T18:37:43.220Z</time>
      </trkpt>
      <trkpt lat="44.11942" lon="6.30466">
        <ele>1081</ele>
        <time>2022-04-28T18:37:50.525Z</time>
      </trkpt>
      <trkpt lat="44.11951" lon="6.30469">
        <ele>1082</ele>
        <time>2022-04-28T18:37:57.833Z</time>
      </trkpt>
      <trkpt lat="44.11954" lon="6.3047">
        <ele>1082.5999755859</ele>
        <time>2022-04-28T18:38:05.142Z</time>
      </trkpt>
      <trkpt lat="44.11957" lon="6.3047">
        <ele>1083.1999511719</ele>
        <time>2022-04-28T18:38:12.452Z</time>
      </trkpt>
      <trkpt lat="44.11967" lon="6.30467">
        <ele>1084.4000244141</ele>
        <time>2022-04-28T18:38:19.766Z</time>
      </trkpt>
      <trkpt lat="44.1197" lon="6.30466">
        <ele>1084.5999755859</ele>
        <time>2022-04-28T18:38:27.081Z</time>
      </trkpt>
      <trkpt lat="44.11979" lon="6.30459">
        <ele>1085.4000244141</ele>
        <time>2022-04-28T18:38:34.399Z</time>
      </trkpt>
      <trkpt lat="44.11986" lon="6.30455">
        <ele>1085.5999755859</ele>
        <time>2022-04-28T18:38:41.719Z</time>
      </trkpt>
      <trkpt lat="44.11998" lon="6.30442">
        <ele>1086.5999755859</ele>
        <time>2022-04-28T18:38:49.044Z</time>
      </trkpt>
      <trkpt lat="44.12" lon="6.30436">
        <ele>1087.4000244141</ele>
        <time>2022-04-28T18:38:56.370Z</time>
      </trkpt>
      <trkpt lat="44.12" lon="6.30434">
        <ele>1087.5999755859</ele>
        <time>2022-04-28T18:39:03.697Z</time>
      </trkpt>
      <trkpt lat="44.12" lon="6.30431">
        <ele>1088</ele>
        <time>2022-04-28T18:39:11.025Z</time>
      </trkpt>
      <trkpt lat="44.11999" lon="6.30422">
        <ele>1088.8000488281</ele>
        <time>2022-04-28T18:39:18.355Z</time>
      </trkpt>
      <trkpt lat="44.12" lon="6.3042">
        <ele>1089</ele>
        <time>2022-04-28T18:39:25.685Z</time>
      </trkpt>
      <trkpt lat="44.12" lon="6.3042">
        <ele>1089.1999511719</ele>
        <time>2022-04-28T18:39:33.015Z</time>
      </trkpt>
      <trkpt lat="44.12002" lon="6.30416">
        <ele>1089.5999755859</ele>
        <time>2022-04-28T18:39:40.346Z</time>
      </trkpt>
      <trkpt lat="44.12001" lon="6.30413">
        <ele>1089.1999511719</ele>
        <time>2022-04-28T18:39:47.678Z</time>
      </trkpt>
      <trkpt lat="44.12001" lon="6.30411">
        <ele>1088.1999511719</ele>
        <time>2022-04-28T18:39:55.011Z</time>
      </trkpt>
      <trkpt lat="44.12" lon="6.30401">
        <ele>1087.4000244141</ele>
        <time>2022-04-28T18:40:02.346Z</time>
      </trkpt>
      <trkpt lat="44.11999" lon="6.30398">
        <ele>1087</ele>
        <time>2022-04-28T18:40:09.682Z</time>
      </trkpt>
      <trkpt lat="44.11997" lon="6.30389">
        <ele>1085.8000488281</ele>
        <time>2022-04-28T18:40:17.020Z</time>
      </trkpt>
      <trkpt lat="44.11997" lon="6.30386">
        <ele>1085.4000244141</ele>
        <time>2022-04-28T18:40:24.359Z</time>
      </trkpt>
      <trkpt lat="44.11996" lon="6.30383">
        <ele>1084.8000488281</ele>
        <time>2022-04-28T18:40:31.698Z</time>
      </trkpt>
      <trkpt lat="44.11995" lon="6.30377">
        <ele>1083.5999755859</ele>
        <time>2022-04-28T18:40:39.039Z</time>
      </trkpt>
      <trkpt lat="44.11993" lon="6.30374">
        <ele>1082.8000488281</ele>
        <time>2022-04-28T18:40:46.381Z</time>
      </trkpt>
      <trkpt lat="44.11992" lon="6.3037">
        <ele>1082.1999511719</ele>
        <time>2022-04-28T18:40:53.723Z</time>
      </trkpt>
      <trkpt lat="44.11992" lon="6.30363">
        <ele>1080.4000244141</ele>
        <time>2022-04-28T18:41:01.067Z</time>
      </trkpt>
      <trkpt lat="44.11994" lon="6.30359">
        <ele>1079.4000244141</ele>
        <time>2022-04-28T18:41:08.412Z</time>
      </trkpt>
      <trkpt lat="44.11995" lon="6.30356">
        <ele>1078.8000488281</ele>
        <time>2022-04-28T18:41:15.758Z</time>
      </trkpt>
      <trkpt lat="44.11998" lon="6.30347">
        <ele>1077.5999755859</ele>
        <time>2022-04-28T18:41:23.106Z</time>
      </trkpt>
      <trkpt lat="44.11999" lon="6.30342">
        <ele>1077.1999511719</ele>
        <time>2022-04-28T18:41:30.455Z</time>
      </trkpt>
      <trkpt lat="44.12005" lon="6.3033">
        <ele>1076.4000244141</ele>
        <time>2022-04-28T18:41:37.808Z</time>
      </trkpt>
      <trkpt lat="44.12007" lon="6.30326">
        <ele>1075.1999511719</ele>
        <time>2022-04-28T18:41:45.162Z</time>
      </trkpt>
      <trkpt lat="44.1201" lon="6.30316">
        <ele>1073.5999755859</ele>
        <time>2022-04-28T18:41:52.518Z</time>
      </trkpt>
      <trkpt lat="44.12009" lon="6.30306">
        <ele>1072.5999755859</ele>
        <time>2022-04-28T18:41:59.877Z</time>
      </trkpt>
      <trkpt lat="44.12008" lon="6.303">
        <ele>1072.1999511719</ele>
        <time>2022-04-28T18:42:07.237Z</time>
      </trkpt>
      <trkpt lat="44.12007" lon="6.30295">
        <ele>1071.8000488281</ele>
        <time>2022-04-28T18:42:14.598Z</time>
      </trkpt>
      <trkpt lat="44.12005" lon="6.30289">
        <ele>1071</ele>
        <time>2022-04-28T18:42:21.961Z</time>
      </trkpt>
      <trkpt lat="44.12003" lon="6.30282">
        <ele>1070.4000244141</ele>
        <time>2022-04-28T18:42:29.325Z</time>
      </trkpt>
      <trkpt lat="44.12001" lon="6.30276">
        <ele>1070</ele>
        <time>2022-04-28T18:42:36.691Z</time>
      </trkpt>
      <trkpt lat="44.12" lon="6.3027">
        <ele>1069.5999755859</ele>
        <time>2022-04-28T18:42:44.058Z</time>
      </trkpt>
      <trkpt lat="44.12001" lon="6.30261">
        <ele>1069.1999511719</ele>
        <time>2022-04-28T18:42:51.428Z</time>
      </trkpt>
      <trkpt lat="44.12002" lon="6.30252">
        <ele>1069.1999511719</ele>
        <time>2022-04-28T18:42:58.800Z</time>
      </trkpt>
      <trkpt lat="44.11996" lon="6.30228">
        <ele>1069.1999511719</ele>
        <time>2022-04-28T18:43:06.177Z</time>
      </trkpt>
      <trkpt lat="44.11994" lon="6.30214">
        <ele>1069</ele>
        <time>2022-04-28T18:43:13.558Z</time>
      </trkpt>
      <trkpt lat="44.11992" lon="6.3021">
        <ele>1069.1999511719</ele>
        <time>2022-04-28T18:43:20.940Z</time>
      </trkpt>
      <trkpt lat="44.11986" lon="6.30191">
        <ele>1069.1999511719</ele>
        <time>2022-04-28T18:43:28.326Z</time>
      </trkpt>
      <trkpt lat="44.11978" lon="6.30171">
        <ele>1069.1999511719</ele>
        <time>2022-04-28T18:43:35.718Z</time>
      </trkpt>
      <trkpt lat="44.1198" lon="6.30153">
        <ele>1069.4000244141</ele>
        <time>2022-04-28T18:43:43.114Z</time>
      </trkpt>
      <trkpt lat="44.1198" lon="6.30132">
        <ele>1070.1999511719</ele>
        <time>2022-04-28T18:43:50.514Z</time>
      </trkpt>
      <trkpt lat="44.1198" lon="6.30109">
        <ele>1070</ele>
        <time>2022-04-28T18:43:57.920Z</time>
      </trkpt>
      <trkpt lat="44.11972" lon="6.30091">
        <ele>1069.8000488281</ele>
        <time>2022-04-28T18:44:05.330Z</time>
      </trkpt>
      <trkpt lat="44.11963" lon="6.30079">
        <ele>1069.1999511719</ele>
        <time>2022-04-28T18:44:12.744Z</time>
      </trkpt>
      <trkpt lat="44.11962" lon="6.30075">
        <ele>1069</ele>
        <time>2022-04-28T18:44:20.160Z</time>
      </trkpt>
      <trkpt lat="44.11957" lon="6.3006">
        <ele>1068.1999511719</ele>
        <time>2022-04-28T18:44:27.579Z</time>
      </trkpt>
      <trkpt lat="44.1195" lon="6.30045">
        <ele>1068.8000488281</ele>
        <time>2022-04-28T18:44:35.002Z</time>
      </trkpt>
      <trkpt lat="44.11947" lon="6.30042">
        <ele>1069.1999511719</ele>
        <time>2022-04-28T18:44:42.426Z</time>
      </trkpt>
      <trkpt lat="44.11944" lon="6.30034">
        <ele>1069.4000244141</ele>
        <time>2022-04-28T18:44:49.852Z</time>
      </trkpt>
      <trkpt lat="44.11941" lon="6.30026">
        <ele>1070.1999511719</ele>
        <time>2022-04-28T18:44:57.281Z</time>
      </trkpt>
      <trkpt lat="44.11932" lon="6.30002">
        <ele>1070.4000244141</ele>
        <time>2022-04-28T18:45:04.716Z</time>
      </trkpt>
      <trkpt lat="44.11934" lon="6.29991">
        <ele>1070.4000244141</ele>
        <time>2022-04-28T18:45:12.153Z</time>
      </trkpt>
      <trkpt lat="44.11939" lon="6.29975">
        <ele>1069.5999755859</ele>
        <time>2022-04-28T18:45:19.594Z</time>
      </trkpt>
      <trkpt lat="44.11946" lon="6.29964">
        <ele>1069</ele>
        <time>2022-04-28T18:45:27.039Z</time>
      </trkpt>
      <trkpt lat="44.11948" lon="6.29961">
        <ele>1068.5999755859</ele>
        <time>2022-04-28T18:45:34.485Z</time>
      </trkpt>
      <trkpt lat="44.11949" lon="6.29957">
        <ele>1068</ele>
        <time>2022-04-28T18:45:41.932Z</time>
      </trkpt>
      <trkpt lat="44.11954" lon="6.29947">
        <ele>1066.5999755859</ele>
        <time>2022-04-28T18:45:49.381Z</time>
      </trkpt>
      <trkpt lat="44.11957" lon="6.29942">
        <ele>1066</ele>
        <time>2022-04-28T18:45:56.832Z</time>
      </trkpt>
      <trkpt lat="44.11959" lon="6.29936">
        <ele>1065.1999511719</ele>
        <time>2022-04-28T18:46:04.284Z</time>
      </trkpt>
      <trkpt lat="44.11963" lon="6.29925">
        <ele>1064</ele>
        <time>2022-04-28T18:46:11.739Z</time>
      </trkpt>
      <trkpt lat="44.11964" lon="6.2992">
        <ele>1063.4000244141</ele>
        <time>2022-04-28T18:46:19.195Z</time>
      </trkpt>
      <trkpt lat="44.11966" lon="6.29916">
        <ele>1062.8000488281</ele>
        <time>2022-04-28T18:46:26.652Z</time>
      </trkpt>
      <trkpt lat="44.11969" lon="6.29909">
        <ele>1061.4000244141</ele>
        <time>2022-04-28T18:46:34.111Z</time>
      </trkpt>
      <trkpt lat="44.11972" lon="6.29901">
        <ele>1060</ele>
        <time>2022-04-28T18:46:41.572Z</time>
      </trkpt>
      <trkpt lat="44.11974" lon="6.29893">
        <ele>1058.8000488281</ele>
        <time>2022-04-28T18:46:49.035Z</time>
      </trkpt>
      <trkpt lat="44.11977" lon="6.29884">
        <ele>1057.4000244141</ele>
        <time>2022-04-28T18:46:56.500Z</time>
      </trkpt>
      <trkpt lat="44.11984" lon="6.29871">
        <ele>1056.1999511719</ele>
        <time>2022-04-28T18:47:03.969Z</time>
      </trkpt>
      <trkpt lat="44.11984" lon="6.29861">
        <ele>1055.8000488281</ele>
        <time>2022-04-28T18:47:11.440Z</time>
      </trkpt>
      <trkpt lat="44.11984" lon="6.29849">
        <ele>1055.8000488281</ele>
        <time>2022-04-28T18:47:18.914Z</time>
      </trkpt>
      <trkpt lat="44.11985" lon="6.29835">
        <ele>1055.4000244141</ele>
        <time>2022-04-28T18:47:26.391Z</time>
      </trkpt>
      <trkpt lat="44.11983" lon="6.29821">
        <ele>1055</ele>
        <time>2022-04-28T18:47:33.871Z</time>
      </trkpt>
      <trkpt lat="44.11979" lon="6.29799">
        <ele>1054</ele>
        <time>2022-04-28T18:47:41.357Z</time>
      </trkpt>
      <trkpt lat="44.11979" lon="6.29792">
        <ele>1053.5999755859</ele>
        <time>2022-04-28T18:47:48.844Z</time>
      </trkpt>
      <trkpt lat="44.1198" lon="6.29773">
        <ele>1052.1999511719</ele>
        <time>2022-04-28T18:47:56.336Z</time>
      </trkpt>
      <trkpt lat="44.11977" lon="6.29749">
        <ele>1051.1999511719</ele>
        <time>2022-04-28T18:48:03.833Z</time>
      </trkpt>
      <trkpt lat="44.11976" lon="6.29743">
        <ele>1050.8000488281</ele>
        <time>2022-04-28T18:48:11.332Z</time>
      </trkpt>
      <trkpt lat="44.11972" lon="6.29728">
        <ele>1049.4000244141</ele>
        <time>2022-04-28T18:48:18.834Z</time>
      </trkpt>
      <trkpt lat="44.11971" lon="6.29724">
        <ele>1049</ele>
        <time>2022-04-28T18:48:26.337Z</time>
      </trkpt>
      <trkpt lat="44.11968" lon="6.29714">
        <ele>1047.5999755859</ele>
        <time>2022-04-28T18:48:33.843Z</time>
      </trkpt>
      <trkpt lat="44.11962" lon="6.2969">
        <ele>1046.4000244141</ele>
        <time>2022-04-28T18:48:41.354Z</time>
      </trkpt>
      <trkpt lat="44.11961" lon="6.29685">
        <ele>1046</ele>
        <time>2022-04-28T18:48:48.867Z</time>
      </trkpt>
      <trkpt lat="44.1196" lon="6.29678">
        <ele>1045.1999511719</ele>
        <time>2022-04-28T18:48:56.381Z</time>
      </trkpt>
      <trkpt lat="44.11959" lon="6.29665">
        <ele>1043.8000488281</ele>
        <time>2022-04-28T18:49:03.898Z</time>
      </trkpt>
      <trkpt lat="44.11963" lon="6.29659">
        <ele>1042.5999755859</ele>
        <time>2022-04-28T18:49:11.417Z</time>
      </trkpt>
      <trkpt lat="44.11966" lon="6.29657">
        <ele>1042.1999511719</ele>
        <time>2022-04-28T18:49:18.937Z</time>
      </trkpt>
      <trkpt lat="44.11974" lon="6.29641">
        <ele>1041.5999755859</ele>
        <time>2022-04-28T18:49:26.462Z</time>
      </trkpt>
      <trkpt lat="44.11973" lon="6.29634">
        <ele>1041.4000244141</ele>
        <time>2022-04-28T18:49:33.988Z</time>
      </trkpt>
      <trkpt lat="44.11969" lon="6.29621">
        <ele>1041.1999511719</ele>
        <time>2022-04-28T18:49:41.518Z</time>
      </trkpt>
      <trkpt lat="44.11965" lon="6.29611">
        <ele>1040</ele>
        <time>2022-04-28T18:49:49.050Z</time>
      </trkpt>
      <trkpt lat="44.11962" lon="6.29605">
        <ele>1039.1999511719</ele>
        <time>2022-04-28T18:49:56.584Z</time>
      </trkpt>
      <trkpt lat="44.1196" lon="6.29599">
        <ele>1038.5999755859</ele>
        <time>2022-04-28T18:50:04.119Z</time>
      </trkpt>
      <trkpt lat="44.11957" lon="6.29591">
        <ele>1037.4000244141</ele>
        <time>2022-04-28T18:50:11.656Z</time>
      </trkpt>
      <trkpt lat="44.11955" lon="6.29583">
        <ele>1036.1999511719</ele>
        <time>2022-04-28T18:50:19.195Z</time>
      </trkpt>
      <trkpt lat="44.11952" lon="6.29577">
        <ele>1035</ele>
        <time>2022-04-28T18:50:26.736Z</time>
      </trkpt>
      <trkpt lat="44.11948" lon="6.29568">
        <ele>1033.4000244141</ele>
        <time>2022-04-28T18:50:34.279Z</time>
      </trkpt>
      <trkpt lat="44.11944" lon="6.2956">
        <ele>1031.8000488281</ele>
        <time>2022-04-28T18:50:41.825Z</time>
      </trkpt>
      <trkpt lat="44.11941" lon="6.29555">
        <ele>1030.8000488281</ele>
        <time>2022-04-28T18:50:49.372Z</time>
      </trkpt>
      <trkpt lat="44.11936" lon="6.29547">
        <ele>1029</ele>
        <time>2022-04-28T18:50:56.921Z</time>
      </trkpt>
      <trkpt lat="44.11934" lon="6.29543">
        <ele>1028.4000244141</ele>
        <time>2022-04-28T18:51:04.472Z</time>
      </trkpt>
      <trkpt lat="44.11932" lon="6.29537">
        <ele>1027.8000488281</ele>
        <time>2022-04-28T18:51:12.024Z</time>
      </trkpt>
      <trkpt lat="44.1193" lon="6.29532">
        <ele>1027.1999511719</ele>
        <time>2022-04-28T18:51:19.578Z</time>
      </trkpt>
      <trkpt lat="44.1193" lon="6.29524">
        <ele>1026</ele>
        <time>2022-04-28T18:51:27.133Z</time>
      </trkpt>
      <trkpt lat="44.11931" lon="6.29519">
        <ele>1025.4000244141</ele>
        <time>2022-04-28T18:51:34.689Z</time>
      </trkpt>
      <trkpt lat="44.1193" lon="6.29515">
        <ele>1024.8000488281</ele>
        <time>2022-04-28T18:51:42.246Z</time>
      </trkpt>
      <trkpt lat="44.11929" lon="6.29511">
        <ele>1023.799987793</ele>
        <time>2022-04-28T18:51:49.804Z</time>
      </trkpt>
      <trkpt lat="44.11929" lon="6.29506">
        <ele>1023</ele>
        <time>2022-04-28T18:51:57.363Z</time>
      </trkpt>
      <trkpt lat="44.11928" lon="6.29497">
        <ele>1022</ele>
        <time>2022-04-28T18:52:04.925Z</time>
      </trkpt>
      <trkpt lat="44.11925" lon="6.29488">
        <ele>1020.200012207</ele>
        <time>2022-04-28T18:52:12.489Z</time>
      </trkpt>
      <trkpt lat="44.11923" lon="6.29479">
        <ele>1019</ele>
        <time>2022-04-28T18:52:20.055Z</time>
      </trkpt>
      <trkpt lat="44.11921" lon="6.29475">
        <ele>1017.799987793</ele>
        <time>2022-04-28T18:52:27.622Z</time>
      </trkpt>
      <trkpt lat="44.11919" lon="6.29473">
        <ele>1016.5999755859</ele>
        <time>2022-04-28T18:52:35.190Z</time>
      </trkpt>
      <trkpt lat="44.11918" lon="6.2947">
        <ele>1015.5999755859</ele>
        <time>2022-04-28T18:52:42.758Z</time>
      </trkpt>
      <trkpt lat="44.1192" lon="6.29467">
        <ele>1014.5999755859</ele>
        <time>2022-04-28T18:52:50.327Z</time>
      </trkpt>
      <trkpt lat="44.11921" lon="6.29466">
        <ele>1014.4000244141</ele>
        <time>2022-04-28T18:52:57.897Z</time>
      </trkpt>
      <trkpt lat="44.1192" lon="6.29462">
        <ele>1013.4000244141</ele>
        <time>2022-04-28T18:53:05.468Z</time>
      </trkpt>
      <trkpt lat="44.11918" lon="6.29461">
        <ele>1012.799987793</ele>
        <time>2022-04-28T18:53:13.040Z</time>
      </trkpt>
      <trkpt lat="44.11915" lon="6.29457">
        <ele>1011.5999755859</ele>
        <time>2022-04-28T18:53:20.613Z</time>
      </trkpt>
      <trkpt lat="44.1192" lon="6.29455">
        <ele>1010.5999755859</ele>
        <time>2022-04-28T18:53:28.188Z</time>
      </trkpt>
      <trkpt lat="44.11922" lon="6.29455">
        <ele>1010.4000244141</ele>
        <time>2022-04-28T18:53:35.763Z</time>
      </trkpt>
      <trkpt lat="44.11923" lon="6.29449">
        <ele>1009</ele>
        <time>2022-04-28T18:53:43.340Z</time>
      </trkpt>
      <trkpt lat="44.11921" lon="6.29447">
        <ele>1008.4000244141</ele>
        <time>2022-04-28T18:53:50.918Z</time>
      </trkpt>
      <trkpt lat="44.11919" lon="6.29444">
        <ele>1007.5999755859</ele>
        <time>2022-04-28T18:53:58.497Z</time>
      </trkpt>
      <trkpt lat="44.11916" lon="6.29442">
        <ele>1007.200012207</ele>
        <time>2022-04-28T18:54:06.076Z</time>
      </trkpt>
      <trkpt lat="44.11913" lon="6.2944">
        <ele>1006.4000244141</ele>
        <time>2022-04-28T18:54:13.657Z</time>
      </trkpt>
      <trkpt lat="44.1191" lon="6.29439">
        <ele>1005.4000244141</ele>
        <time>2022-04-28T18:54:21.238Z</time>
      </trkpt>
      <trkpt lat="44.11908" lon="6.2944">
        <ele>1004.4000244141</ele>
        <time>2022-04-28T18:54:28.820Z</time>
      </trkpt>
      <trkpt lat="44.11902" lon="6.29438">
        <ele>1003.4000244141</ele>
        <time>2022-04-28T18:54:36.404Z</time>
      </trkpt>
      <trkpt lat="44.11902" lon="6.29435">
        <ele>1003</ele>
        <time>2022-04-28T18:54:43.989Z</time>
      </trkpt>
      <trkpt lat="44.11902" lon="6.29432">
        <ele>1002.5999755859</ele>
        <time>2022-04-28T18:54:51.574Z</time>
      </trkpt>
      <trkpt lat="44.11904" lon="6.2943">
        <ele>1002</ele>
        <time>2022-04-28T18:54:59.160Z</time>
      </trkpt>
      <trkpt lat="44.11906" lon="6.29428">
        <ele>1001.4000244141</ele>
        <time>2022-04-28T18:55:06.747Z</time>
      </trkpt>
      <trkpt lat="44.11908" lon="6.29426">
        <ele>1000.4000244141</ele>
        <time>2022-04-28T18:55:14.335Z</time>
      </trkpt>
      <trkpt lat="44.1191" lon="6.29424">
        <ele>999.79998779297</ele>
        <time>2022-04-28T18:55:21.923Z</time>
      </trkpt>
      <trkpt lat="44.11912" lon="6.29423">
        <ele>999</ele>
        <time>2022-04-28T18:55:29.512Z</time>
      </trkpt>
      <trkpt lat="44.11915" lon="6.29422">
        <ele>998.40002441406</ele>
        <time>2022-04-28T18:55:37.102Z</time>
      </trkpt>
      <trkpt lat="44.11918" lon="6.29421">
        <ele>997.59997558594</ele>
        <time>2022-04-28T18:55:44.693Z</time>
      </trkpt>
      <trkpt lat="44.11923" lon="6.29422">
        <ele>996</ele>
        <time>2022-04-28T18:55:52.286Z</time>
      </trkpt>
      <trkpt lat="44.11926" lon="6.29423">
        <ele>995.40002441406</ele>
        <time>2022-04-28T18:55:59.880Z</time>
      </trkpt>
      <trkpt lat="44.11928" lon="6.29422">
        <ele>994.59997558594</ele>
        <time>2022-04-28T18:56:07.474Z</time>
      </trkpt>
      <trkpt lat="44.11928" lon="6.29418">
        <ele>993</ele>
        <time>2022-04-28T18:56:15.069Z</time>
      </trkpt>
      <trkpt lat="44.11925" lon="6.29416">
        <ele>992.20001220703</ele>
        <time>2022-04-28T18:56:22.665Z</time>
      </trkpt>
      <trkpt lat="44.11923" lon="6.29414">
        <ele>991.59997558594</ele>
        <time>2022-04-28T18:56:30.262Z</time>
      </trkpt>
      <trkpt lat="44.11922" lon="6.29412">
        <ele>990.79998779297</ele>
        <time>2022-04-28T18:56:37.860Z</time>
      </trkpt>
      <trkpt lat="44.11923" lon="6.29411">
        <ele>989.59997558594</ele>
        <time>2022-04-28T18:56:45.458Z</time>
      </trkpt>
      <trkpt lat="44.11928" lon="6.29409">
        <ele>988.40002441406</ele>
        <time>2022-04-28T18:56:53.057Z</time>
      </trkpt>
      <trkpt lat="44.11929" lon="6.29409">
        <ele>987.79998779297</ele>
        <time>2022-04-28T18:57:00.657Z</time>
      </trkpt>
      <trkpt lat="44.11931" lon="6.29409">
        <ele>986.59997558594</ele>
        <time>2022-04-28T18:57:08.258Z</time>
      </trkpt>
      <trkpt lat="44.11932" lon="6.29407">
        <ele>985.40002441406</ele>
        <time>2022-04-28T18:57:15.859Z</time>
      </trkpt>
      <trkpt lat="44.11931" lon="6.29405">
        <ele>984.79998779297</ele>
        <time>2022-04-28T18:57:23.461Z</time>
      </trkpt>
      <trkpt lat="44.11929" lon="6.29402">
        <ele>984</ele>
        <time>2022-04-28T18:57:31.064Z</time>
      </trkpt>
      <trkpt lat="44.11925" lon="6.29398">
        <ele>982.40002441406</ele>
        <time>2022-04-28T18:57:38.668Z</time>
      </trkpt>
      <trkpt lat="44.11923" lon="6.29396">
        <ele>981.79998779297</ele>
        <time>2022-04-28T18:57:46.273Z</time>
      </trkpt>
      <trkpt lat="44.1192" lon="6.29395">
        <ele>981.20001220703</ele>
        <time>2022-04-28T18:57:53.879Z</time>
      </trkpt>
      <trkpt lat="44.11918" lon="6.29393">
        <ele>980</ele>
        <time>2022-04-28T18:58:01.486Z</time>
      </trkpt>
      <trkpt lat="44.11914" lon="6.2939">
        <ele>978.59997558594</ele>
        <time>2022-04-28T18:58:09.094Z</time>
      </trkpt>
      <trkpt lat="44.11911" lon="6.29387">
        <ele>977.40002441406</ele>
        <time>2022-04-28T18:58:16.703Z</time>
      </trkpt>
      <trkpt lat="44.11912" lon="6.29385">
        <ele>976</ele>
        <time>2022-04-28T18:58:24.313Z</time>
      </trkpt>
      <trkpt lat="44.11916" lon="6.29385">
        <ele>974.79998779297</ele>
        <time>2022-04-28T18:58:31.924Z</time>
      </trkpt>
      <trkpt lat="44.11924" lon="6.29383">
        <ele>973.20001220703</ele>
        <time>2022-04-28T18:58:39.537Z</time>
      </trkpt>
      <trkpt lat="44.11929" lon="6.2938">
        <ele>971.59997558594</ele>
        <time>2022-04-28T18:58:47.152Z</time>
      </trkpt>
      <trkpt lat="44.11932" lon="6.29379">
        <ele>970.40002441406</ele>
        <time>2022-04-28T18:58:54.768Z</time>
      </trkpt>
      <trkpt lat="44.11937" lon="6.2938">
        <ele>969</ele>
        <time>2022-04-28T18:59:02.386Z</time>
      </trkpt>
      <trkpt lat="44.11941" lon="6.29381">
        <ele>967.40002441406</ele>
        <time>2022-04-28T18:59:10.005Z</time>
      </trkpt>
      <trkpt lat="44.11946" lon="6.29381">
        <ele>965.79998779297</ele>
        <time>2022-04-28T18:59:17.626Z</time>
      </trkpt>
      <trkpt lat="44.11948" lon="6.2938">
        <ele>965.40002441406</ele>
        <time>2022-04-28T18:59:25.247Z</time>
      </trkpt>
      <trkpt lat="44.11947" lon="6.29378">
        <ele>964</ele>
        <time>2022-04-28T18:59:32.869Z</time>
      </trkpt>
      <trkpt lat="44.11945" lon="6.29373">
        <ele>962.20001220703</ele>
        <time>2022-04-28T18:59:40.492Z</time>
      </trkpt>
      <trkpt lat="44.11942" lon="6.29367">
        <ele>960.79998779297</ele>
        <time>2022-04-28T18:59:48.117Z</time>
      </trkpt>
      <trkpt lat="44.11939" lon="6.29364">
        <ele>959</ele>
        <time>2022-04-28T18:59:55.743Z</time>
      </trkpt>
      <trkpt lat="44.1194" lon="6.29362">
        <ele>958.20001220703</ele>
        <time>2022-04-28T19:00:03.369Z</time>
      </trkpt>
      <trkpt lat="44.11941" lon="6.2936">
        <ele>957.20001220703</ele>
        <time>2022-04-28T19:00:10.996Z</time>
      </trkpt>
      <trkpt lat="44.11946" lon="6.29356">
        <ele>955.79998779297</ele>
        <time>2022-04-28T19:00:18.625Z</time>
      </trkpt>
      <trkpt lat="44.11949" lon="6.29355">
        <ele>954.59997558594</ele>
        <time>2022-04-28T19:00:26.255Z</time>
      </trkpt>
      <trkpt lat="44.11951" lon="6.29353">
        <ele>953.59997558594</ele>
        <time>2022-04-28T19:00:33.886Z</time>
      </trkpt>
      <trkpt lat="44.11952" lon="6.2935">
        <ele>952.59997558594</ele>
        <time>2022-04-28T19:00:41.517Z</time>
      </trkpt>
      <trkpt lat="44.11952" lon="6.29347">
        <ele>951.20001220703</ele>
        <time>2022-04-28T19:00:49.149Z</time>
      </trkpt>
      <trkpt lat="44.11952" lon="6.29344">
        <ele>950</ele>
        <time>2022-04-28T19:00:56.782Z</time>
      </trkpt>
      <trkpt lat="44.11952" lon="6.29341">
        <ele>948.79998779297</ele>
        <time>2022-04-28T19:01:04.415Z</time>
      </trkpt>
      <trkpt lat="44.1195" lon="6.29333">
        <ele>946.40002441406</ele>
        <time>2022-04-28T19:01:12.050Z</time>
      </trkpt>
      <trkpt lat="44.11948" lon="6.29329">
        <ele>945.20001220703</ele>
        <time>2022-04-28T19:01:19.687Z</time>
      </trkpt>
      <trkpt lat="44.11946" lon="6.29325">
        <ele>943.79998779297</ele>
        <time>2022-04-28T19:01:27.325Z</time>
      </trkpt>
      <trkpt lat="44.11944" lon="6.29322">
        <ele>942.59997558594</ele>
        <time>2022-04-28T19:01:34.964Z</time>
      </trkpt>
      <trkpt lat="44.11941" lon="6.29318">
        <ele>941.20001220703</ele>
        <time>2022-04-28T19:01:42.604Z</time>
      </trkpt>
      <trkpt lat="44.11939" lon="6.29313">
        <ele>940.40002441406</ele>
        <time>2022-04-28T19:01:50.245Z</time>
      </trkpt>
      <trkpt lat="44.11937" lon="6.29309">
        <ele>939.20001220703</ele>
        <time>2022-04-28T19:01:57.887Z</time>
      </trkpt>
      <trkpt lat="44.11936" lon="6.29304">
        <ele>938.20001220703</ele>
        <time>2022-04-28T19:02:05.530Z</time>
      </trkpt>
      <trkpt lat="44.11933" lon="6.293">
        <ele>937.20001220703</ele>
        <time>2022-04-28T19:02:13.175Z</time>
      </trkpt>
      <trkpt lat="44.1193" lon="6.29299">
        <ele>936.20001220703</ele>
        <time>2022-04-28T19:02:20.821Z</time>
      </trkpt>
      <trkpt lat="44.11924" lon="6.293">
        <ele>934.40002441406</ele>
        <time>2022-04-28T19:02:28.469Z</time>
      </trkpt>
      <trkpt lat="44.11922" lon="6.29301">
        <ele>933.59997558594</ele>
        <time>2022-04-28T19:02:36.117Z</time>
      </trkpt>
      <trkpt lat="44.11921" lon="6.293">
        <ele>933.20001220703</ele>
        <time>2022-04-28T19:02:43.766Z</time>
      </trkpt>
      <trkpt lat="44.11921" lon="6.293">
        <ele>933</ele>
        <time>2022-04-28T19:02:51.415Z</time>
      </trkpt>
      <trkpt lat="44.11917" lon="6.29297">
        <ele>932.59997558594</ele>
        <time>2022-04-28T19:02:59.065Z</time>
      </trkpt>
      <trkpt lat="44.11915" lon="6.29296">
        <ele>932.40002441406</ele>
        <time>2022-04-28T19:03:06.716Z</time>
      </trkpt>
      <trkpt lat="44.11914" lon="6.29296">
        <ele>932.20001220703</ele>
        <time>2022-04-28T19:03:14.367Z</time>
      </trkpt>
      <trkpt lat="44.11911" lon="6.29295">
        <ele>931.79998779297</ele>
        <time>2022-04-28T19:03:22.019Z</time>
      </trkpt>
      <trkpt lat="44.11909" lon="6.29292">
        <ele>931.20001220703</ele>
        <time>2022-04-28T19:03:29.672Z</time>
      </trkpt>
      <trkpt lat="44.11908" lon="6.29291">
        <ele>931</ele>
        <time>2022-04-28T19:03:37.325Z</time>
      </trkpt>
      <trkpt lat="44.11903" lon="6.29283">
        <ele>930.20001220703</ele>
        <time>2022-04-28T19:03:44.981Z</time>
      </trkpt>
      <trkpt lat="44.11902" lon="6.29281">
        <ele>929.59997558594</ele>
        <time>2022-04-28T19:03:52.637Z</time>
      </trkpt>
      <trkpt lat="44.11901" lon="6.29279">
        <ele>929.20001220703</ele>
        <time>2022-04-28T19:04:00.294Z</time>
      </trkpt>
      <trkpt lat="44.11899" lon="6.29276">
        <ele>928</ele>
        <time>2022-04-28T19:04:07.952Z</time>
      </trkpt>
      <trkpt lat="44.11897" lon="6.29271">
        <ele>927.59997558594</ele>
        <time>2022-04-28T19:04:15.611Z</time>
      </trkpt>
      <trkpt lat="44.11892" lon="6.29264">
        <ele>927</ele>
        <time>2022-04-28T19:04:23.272Z</time>
      </trkpt>
      <trkpt lat="44.11888" lon="6.29259">
        <ele>925.40002441406</ele>
        <time>2022-04-28T19:04:30.935Z</time>
      </trkpt>
      <trkpt lat="44.11883" lon="6.29257">
        <ele>923.79998779297</ele>
        <time>2022-04-28T19:04:38.600Z</time>
      </trkpt>
      <trkpt lat="44.11877" lon="6.29255">
        <ele>922.20001220703</ele>
        <time>2022-04-28T19:04:46.267Z</time>
      </trkpt>
      <trkpt lat="44.11872" lon="6.29252">
        <ele>921.20001220703</ele>
        <time>2022-04-28T19:04:53.935Z</time>
      </trkpt>
      <trkpt lat="44.11867" lon="6.2925">
        <ele>920</ele>
        <time>2022-04-28T19:05:01.605Z</time>
      </trkpt>
      <trkpt lat="44.11863" lon="6.29247">
        <ele>918.40002441406</ele>
        <time>2022-04-28T19:05:09.276Z</time>
      </trkpt>
      <trkpt lat="44.11857" lon="6.29246">
        <ele>917.40002441406</ele>
        <time>2022-04-28T19:05:16.949Z</time>
      </trkpt>
      <trkpt lat="44.11852" lon="6.29244">
        <ele>916.20001220703</ele>
        <time>2022-04-28T19:05:24.624Z</time>
      </trkpt>
      <trkpt lat="44.11848" lon="6.29243">
        <ele>915.20001220703</ele>
        <time>2022-04-28T19:05:32.300Z</time>
      </trkpt>
      <trkpt lat="44.11844" lon="6.2924">
        <ele>913.79998779297</ele>
        <time>2022-04-28T19:05:39.978Z</time>
      </trkpt>
      <trkpt lat="44.1184" lon="6.29237">
        <ele>912.79998779297</ele>
        <time>2022-04-28T19:05:47.657Z</time>
      </trkpt>
      <trkpt lat="44.11834" lon="6.29227">
        <ele>911.40002441406</ele>
        <time>2022-04-28T19:05:55.339Z</time>
      </trkpt>
      <trkpt lat="44.1183" lon="6.29222">
        <ele>909.59997558594</ele>
        <time>2022-04-28T19:06:03.023Z</time>
      </trkpt>
      <trkpt lat="44.11827" lon="6.29218">
        <ele>908.40002441406</ele>
        <time>2022-04-28T19:06:10.708Z</time>
      </trkpt>
      <trkpt lat="44.11819" lon="6.29213">
        <ele>906.20001220703</ele>
        <time>2022-04-28T19:06:18.396Z</time>
      </trkpt>
      <trkpt lat="44.11813" lon="6.29212">
        <ele>904.40002441406</ele>
        <time>2022-04-28T19:06:26.086Z</time>
      </trkpt>
      <trkpt lat="44.11809" lon="6.29207">
        <ele>903.40002441406</ele>
        <time>2022-04-28T19:06:33.777Z</time>
      </trkpt>
      <trkpt lat="44.11802" lon="6.29193">
        <ele>902</ele>
        <time>2022-04-28T19:06:41.472Z</time>
      </trkpt>
      <trkpt lat="44.11797" lon="6.2919">
        <ele>900.20001220703</ele>
        <time>2022-04-28T19:06:49.169Z</time>
      </trkpt>
      <trkpt lat="44.11795" lon="6.2919">
        <ele>898.79998779297</ele>
        <time>2022-04-28T19:06:56.867Z</time>
      </trkpt>
      <trkpt lat="44.11793" lon="6.29189">
        <ele>898</ele>
        <time>2022-04-28T19:07:04.565Z</time>
      </trkpt>
      <trkpt lat="44.11791" lon="6.29189">
        <ele>897.20001220703</ele>
        <time>2022-04-28T19:07:12.264Z</time>
      </trkpt>
      <trkpt lat="44.11786" lon="6.29188">
        <ele>895.79998779297</ele>
        <time>2022-04-28T19:07:19.965Z</time>
      </trkpt>
      <trkpt lat="44.11782" lon="6.29186">
        <ele>895</ele>
        <time>2022-04-28T19:07:27.667Z</time>
      </trkpt>
      <trkpt lat="44.1178" lon="6.29183">
        <ele>894.20001220703</ele>
        <time>2022-04-28T19:07:35.370Z</time>
      </trkpt>
      <trkpt lat="44.11777" lon="6.2918">
        <ele>892.20001220703</ele>
        <time>2022-04-28T19:07:43.074Z</time>
      </trkpt>
      <trkpt lat="44.11775" lon="6.29178">
        <ele>891.20001220703</ele>
        <time>2022-04-28T19:07:50.779Z</time>
      </trkpt>
      <trkpt lat="44.11772" lon="6.29176">
        <ele>889.79998779297</ele>
        <time>2022-04-28T19:07:58.485Z</time>
      </trkpt>
      <trkpt lat="44.11769" lon="6.29173">
        <ele>888.40002441406</ele>
        <time>2022-04-28T19:08:06.192Z</time>
      </trkpt>
      <trkpt lat="44.11767" lon="6.2917">
        <ele>887.40002441406</ele>
        <time>2022-04-28T19:08:13.900Z</time>
      </trkpt>
      <trkpt lat="44.11765" lon="6.29167">
        <ele>886.40002441406</ele>
        <time>2022-04-28T19:08:21.609Z</time>
      </trkpt>
      <trkpt lat="44.11765" lon="6.29164">
        <ele>885.59997558594</ele>
        <time>2022-04-28T19:08:29.319Z</time>
      </trkpt>
      <trkpt lat="44.11761" lon="6.29154">
        <ele>884.40002441406</ele>
        <time>2022-04-28T19:08:37.031Z</time>
      </trkpt>
      <trkpt lat="44.11759" lon="6.29147">
        <ele>884</ele>
        <time>2022-04-28T19:08:44.745Z</time>
      </trkpt>
      <trkpt lat="44.11755" lon="6.29141">
        <ele>883</ele>
        <time>2022-04-28T19:08:52.461Z</time>
      </trkpt>
      <trkpt lat="44.11751" lon="6.29137">
        <ele>881.20001220703</ele>
        <time>2022-04-28T19:09:00.178Z</time>
      </trkpt>
      <trkpt lat="44.11749" lon="6.29135">
        <ele>879.79998779297</ele>
        <time>2022-04-28T19:09:07.896Z</time>
      </trkpt>
      <trkpt lat="44.11749" lon="6.29134">
        <ele>878.59997558594</ele>
        <time>2022-04-28T19:09:15.614Z</time>
      </trkpt>
      <trkpt lat="44.11749" lon="6.29134">
        <ele>878.20001220703</ele>
        <time>2022-04-28T19:09:23.332Z</time>
      </trkpt>
      <trkpt lat="44.11746" lon="6.29133">
        <ele>877.79998779297</ele>
        <time>2022-04-28T19:09:31.051Z</time>
      </trkpt>
      <trkpt lat="44.11736" lon="6.29124">
        <ele>877</ele>
        <time>2022-04-28T19:09:38.774Z</time>
      </trkpt>
      <trkpt lat="44.11733" lon="6.2912">
        <ele>876.20001220703</ele>
        <time>2022-04-28T19:09:46.498Z</time>
      </trkpt>
      <trkpt lat="44.11731" lon="6.29115">
        <ele>875.59997558594</ele>
        <time>2022-04-28T19:09:54.224Z</time>
      </trkpt>
      <trkpt lat="44.11725" lon="6.29103">
        <ele>874.20001220703</ele>
        <time>2022-04-28T19:10:01.953Z</time>
      </trkpt>
      <trkpt lat="44.11721" lon="6.29096">
        <ele>873.59997558594</ele>
        <time>2022-04-28T19:10:09.684Z</time>
      </trkpt>
      <trkpt lat="44.11718" lon="6.2909">
        <ele>873</ele>
        <time>2022-04-28T19:10:17.416Z</time>
      </trkpt>
      <trkpt lat="44.11714" lon="6.29084">
        <ele>872.59997558594</ele>
        <time>2022-04-28T19:10:25.150Z</time>
      </trkpt>
      <trkpt lat="44.11706" lon="6.29071">
        <ele>870.79998779297</ele>
        <time>2022-04-28T19:10:32.888Z</time>
      </trkpt>
      <trkpt lat="44.11702" lon="6.29065">
        <ele>869.59997558594</ele>
        <time>2022-04-28T19:10:40.628Z</time>
      </trkpt>
      <trkpt lat="44.11698" lon="6.2906">
        <ele>869</ele>
        <time>2022-04-28T19:10:48.370Z</time>
      </trkpt>
      <trkpt lat="44.11694" lon="6.29057">
        <ele>868.40002441406</ele>
        <time>2022-04-28T19:10:56.113Z</time>
      </trkpt>
      <trkpt lat="44.11684" lon="6.29057">
        <ele>866.79998779297</ele>
        <time>2022-04-28T19:11:03.859Z</time>
      </trkpt>
      <trkpt lat="44.11675" lon="6.29057">
        <ele>865.59997558594</ele>
        <time>2022-04-28T19:11:11.608Z</time>
      </trkpt>
      <trkpt lat="44.11671" lon="6.29052">
        <ele>864.40002441406</ele>
        <time>2022-04-28T19:11:19.359Z</time>
      </trkpt>
      <trkpt lat="44.1167" lon="6.29042">
        <ele>864</ele>
        <time>2022-04-28T19:11:27.112Z</time>
      </trkpt>
      <trkpt lat="44.11669" lon="6.29031">
        <ele>863.79998779297</ele>
        <time>2022-04-28T19:11:34.868Z</time>
      </trkpt>
      <trkpt lat="44.11666" lon="6.29021">
        <ele>863</ele>
        <time>2022-04-28T19:11:42.627Z</time>
      </trkpt>
      <trkpt lat="44.11663" lon="6.29016">
        <ele>862.79998779297</ele>
        <time>2022-04-28T19:11:50.387Z</time>
      </trkpt>
      <trkpt lat="44.1166" lon="6.29012">
        <ele>862.59997558594</ele>
        <time>2022-04-28T19:11:58.148Z</time>
      </trkpt>
      <trkpt lat="44.11653" lon="6.29002">
        <ele>862</ele>
        <time>2022-04-28T19:12:05.912Z</time>
      </trkpt>
      <trkpt lat="44.11642" lon="6.28988">
        <ele>861</ele>
        <time>2022-04-28T19:12:13.681Z</time>
      </trkpt>
      <trkpt lat="44.11639" lon="6.28984">
        <ele>860.59997558594</ele>
        <time>2022-04-28T19:12:21.452Z</time>
      </trkpt>
      <trkpt lat="44.11635" lon="6.28979">
        <ele>860.20001220703</ele>
        <time>2022-04-28T19:12:29.224Z</time>
      </trkpt>
      <trkpt lat="44.11631" lon="6.2897">
        <ele>860.20001220703</ele>
        <time>2022-04-28T19:12:36.999Z</time>
      </trkpt>
      <trkpt lat="44.11623" lon="6.28948">
        <ele>860.20001220703</ele>
        <time>2022-04-28T19:12:44.779Z</time>
      </trkpt>
      <trkpt lat="44.11615" lon="6.28938">
        <ele>860.20001220703</ele>
        <time>2022-04-28T19:12:52.563Z</time>
      </trkpt>
      <trkpt lat="44.11612" lon="6.28925">
        <ele>860.20001220703</ele>
        <time>2022-04-28T19:13:00.350Z</time>
      </trkpt>
      <trkpt lat="44.1161" lon="6.2892">
        <ele>860.20001220703</ele>
        <time>2022-04-28T19:13:08.138Z</time>
      </trkpt>
      <trkpt lat="44.11604" lon="6.28899">
        <ele>860.20001220703</ele>
        <time>2022-04-28T19:13:15.931Z</time>
      </trkpt>
      <trkpt lat="44.11602" lon="6.28887">
        <ele>860.20001220703</ele>
        <time>2022-04-28T19:13:23.727Z</time>
      </trkpt>
      <trkpt lat="44.11599" lon="6.28876">
        <ele>859.79998779297</ele>
        <time>2022-04-28T19:13:31.526Z</time>
      </trkpt>
      <trkpt lat="44.11597" lon="6.28864">
        <ele>859.59997558594</ele>
        <time>2022-04-28T19:13:39.328Z</time>
      </trkpt>
      <trkpt lat="44.11591" lon="6.28841">
        <ele>859.59997558594</ele>
        <time>2022-04-28T19:13:47.135Z</time>
      </trkpt>
      <trkpt lat="44.11586" lon="6.28817">
        <ele>860.20001220703</ele>
        <time>2022-04-28T19:13:54.948Z</time>
      </trkpt>
      <trkpt lat="44.11586" lon="6.28807">
        <ele>860.59997558594</ele>
        <time>2022-04-28T19:14:02.763Z</time>
      </trkpt>
      <trkpt lat="44.11587" lon="6.288">
        <ele>861.40002441406</ele>
        <time>2022-04-28T19:14:10.580Z</time>
      </trkpt>
      <trkpt lat="44.11589" lon="6.28795">
        <ele>861.59997558594</ele>
        <time>2022-04-28T19:14:18.398Z</time>
      </trkpt>
      <trkpt lat="44.11587" lon="6.28782">
        <ele>861.59997558594</ele>
        <time>2022-04-28T19:14:26.219Z</time>
      </trkpt>
      <trkpt lat="44.11587" lon="6.28763">
        <ele>861.79998779297</ele>
        <time>2022-04-28T19:14:34.044Z</time>
      </trkpt>
      <trkpt lat="44.11587" lon="6.28759">
        <ele>861.79998779297</ele>
        <time>2022-04-28T19:14:41.870Z</time>
      </trkpt>
      <trkpt lat="44.11584" lon="6.28746">
        <ele>862.40002441406</ele>
        <time>2022-04-28T19:14:49.699Z</time>
      </trkpt>
      <trkpt lat="44.11584" lon="6.28741">
        <ele>862.79998779297</ele>
        <time>2022-04-28T19:14:57.530Z</time>
      </trkpt>
      <trkpt lat="44.11585" lon="6.28736">
        <ele>863</ele>
        <time>2022-04-28T19:15:05.362Z</time>
      </trkpt>
      <trkpt lat="44.11585" lon="6.28732">
        <ele>863.40002441406</ele>
        <time>2022-04-28T19:15:13.195Z</time>
      </trkpt>
      <trkpt lat="44.11583" lon="6.28723">
        <ele>864.40002441406</ele>
        <time>2022-04-28T19:15:21.030Z</time>
      </trkpt>
      <trkpt lat="44.11582" lon="6.28717">
        <ele>864.59997558594</ele>
        <time>2022-04-28T19:15:28.866Z</time>
      </trkpt>
      <trkpt lat="44.11578" lon="6.28704">
        <ele>865</ele>
        <time>2022-04-28T19:15:36.705Z</time>
      </trkpt>
      <trkpt lat="44.11575" lon="6.28692">
        <ele>865.40002441406</ele>
        <time>2022-04-28T19:15:44.547Z</time>
      </trkpt>
      <trkpt lat="44.11574" lon="6.28687">
        <ele>865.79998779297</ele>
        <time>2022-04-28T19:15:52.391Z</time>
      </trkpt>
      <trkpt lat="44.11569" lon="6.28666">
        <ele>867</ele>
        <time>2022-04-28T19:16:00.239Z</time>
      </trkpt>
      <trkpt lat="44.11567" lon="6.28662">
        <ele>866.79998779297</ele>
        <time>2022-04-28T19:16:08.089Z</time>
      </trkpt>
      <trkpt lat="44.1156" lon="6.28657">
        <ele>867</ele>
        <time>2022-04-28T19:16:15.941Z</time>
      </trkpt>
      <trkpt lat="44.11544" lon="6.28643">
        <ele>866.79998779297</ele>
        <time>2022-04-28T19:16:23.799Z</time>
      </trkpt>
      <trkpt lat="44.11534" lon="6.28631">
        <ele>865.59997558594</ele>
        <time>2022-04-28T19:16:31.661Z</time>
      </trkpt>
      <trkpt lat="44.11529" lon="6.28626">
        <ele>865</ele>
        <time>2022-04-28T19:16:39.525Z</time>
      </trkpt>
      <trkpt lat="44.11524" lon="6.28623">
        <ele>864.20001220703</ele>
        <time>2022-04-28T19:16:47.391Z</time>
      </trkpt>
      <trkpt lat="44.11513" lon="6.2862">
        <ele>862.59997558594</ele>
        <time>2022-04-28T19:16:55.261Z</time>
      </trkpt>
      <trkpt lat="44.11508" lon="6.28617">
        <ele>862.20001220703</ele>
        <time>2022-04-28T19:17:03.132Z</time>
      </trkpt>
      <trkpt lat="44.11504" lon="6.28613">
        <ele>861.40002441406</ele>
        <time>2022-04-28T19:17:11.005Z</time>
      </trkpt>
      <trkpt lat="44.11501" lon="6.286">
        <ele>860.40002441406</ele>
        <time>2022-04-28T19:17:18.881Z</time>
      </trkpt>
      <trkpt lat="44.115" lon="6.28594">
        <ele>859.79998779297</ele>
        <time>2022-04-28T19:17:26.758Z</time>
      </trkpt>
      <trkpt lat="44.11496" lon="6.28589">
        <ele>858.79998779297</ele>
        <time>2022-04-28T19:17:34.637Z</time>
      </trkpt>
      <trkpt lat="44.11493" lon="6.28584">
        <ele>858.20001220703</ele>
        <time>2022-04-28T19:17:42.518Z</time>
      </trkpt>
      <trkpt lat="44.11485" lon="6.28576">
        <ele>857.20001220703</ele>
        <time>2022-04-28T19:17:50.402Z</time>
      </trkpt>
      <trkpt lat="44.11478" lon="6.28568">
        <ele>855.79998779297</ele>
        <time>2022-04-28T19:17:58.289Z</time>
      </trkpt>
      <trkpt lat="44.11474" lon="6.28564">
        <ele>855.20001220703</ele>
        <time>2022-04-28T19:18:06.177Z</time>
      </trkpt>
      <trkpt lat="44.11471" lon="6.28561">
        <ele>854.59997558594</ele>
        <time>2022-04-28T19:18:14.066Z</time>
      </trkpt>
      <trkpt lat="44.11469" lon="6.28553">
        <ele>853.79998779297</ele>
        <time>2022-04-28T19:18:21.957Z</time>
      </trkpt>
      <trkpt lat="44.11468" lon="6.28549">
        <ele>853.20001220703</ele>
        <time>2022-04-28T19:18:29.849Z</time>
      </trkpt>
      <trkpt lat="44.11461" lon="6.28544">
        <ele>852.40002441406</ele>
        <time>2022-04-28T19:18:37.744Z</time>
      </trkpt>
      <trkpt lat="44.11457" lon="6.28541">
        <ele>851.40002441406</ele>
        <time>2022-04-28T19:18:45.640Z</time>
      </trkpt>
      <trkpt lat="44.11448" lon="6.28532">
        <ele>850.20001220703</ele>
        <time>2022-04-28T19:18:53.540Z</time>
      </trkpt>
      <trkpt lat="44.11444" lon="6.28527">
        <ele>849.79998779297</ele>
        <time>2022-04-28T19:19:01.441Z</time>
      </trkpt>
      <trkpt lat="44.1144" lon="6.28524">
        <ele>849.59997558594</ele>
        <time>2022-04-28T19:19:09.344Z</time>
      </trkpt>
      <trkpt lat="44.11425" lon="6.28516">
        <ele>848.79998779297</ele>
        <time>2022-04-28T19:19:17.252Z</time>
      </trkpt>
      <trkpt lat="44.11408" lon="6.28505">
        <ele>847.79998779297</ele>
        <time>2022-04-28T19:19:25.166Z</time>
      </trkpt>
      <trkpt lat="44.1139" lon="6.2849">
        <ele>847.40002441406</ele>
        <time>2022-04-28T19:19:33.086Z</time>
      </trkpt>
      <trkpt lat="44.11385" lon="6.28484">
        <ele>847</ele>
        <time>2022-04-28T19:19:41.008Z</time>
      </trkpt>
      <trkpt lat="44.1138" lon="6.28478">
        <ele>846.79998779297</ele>
        <time>2022-04-28T19:19:48.933Z</time>
      </trkpt>
      <trkpt lat="44.11375" lon="6.2847">
        <ele>846.20001220703</ele>
        <time>2022-04-28T19:19:56.860Z</time>
      </trkpt>
      <trkpt lat="44.1137" lon="6.28463">
        <ele>845.79998779297</ele>
        <time>2022-04-28T19:20:04.789Z</time>
      </trkpt>
      <trkpt lat="44.11365" lon="6.28456">
        <ele>845.40002441406</ele>
        <time>2022-04-28T19:20:12.720Z</time>
      </trkpt>
      <trkpt lat="44.11341" lon="6.28431">
        <ele>844.79998779297</ele>
        <time>2022-04-28T19:20:20.661Z</time>
      </trkpt>
      <trkpt lat="44.11332" lon="6.28425">
        <ele>844.79998779297</ele>
        <time>2022-04-28T19:20:28.605Z</time>
      </trkpt>
      <trkpt lat="44.1133" lon="6.28427">
        <ele>844.59997558594</ele>
        <time>2022-04-28T19:20:36.550Z</time>
      </trkpt>
      <trkpt lat="44.11324" lon="6.28431">
        <ele>843.79998779297</ele>
        <time>2022-04-28T19:20:44.497Z</time>
      </trkpt>
      <trkpt lat="44.11321" lon="6.28434">
        <ele>843.20001220703</ele>
        <time>2022-04-28T19:20:52.445Z</time>
      </trkpt>
      <trkpt lat="44.11316" lon="6.28435">
        <ele>842.40002441406</ele>
        <time>2022-04-28T19:21:00.395Z</time>
      </trkpt>
      <trkpt lat="44.11312" lon="6.2843">
        <ele>842</ele>
        <time>2022-04-28T19:21:08.346Z</time>
      </trkpt>
      <trkpt lat="44.11308" lon="6.28429">
        <ele>841.79998779297</ele>
        <time>2022-04-28T19:21:16.299Z</time>
      </trkpt>
      <trkpt lat="44.11301" lon="6.28428">
        <ele>841.40002441406</ele>
        <time>2022-04-28T19:21:24.254Z</time>
      </trkpt>
      <trkpt lat="44.11296" lon="6.28427">
        <ele>840.20001220703</ele>
        <time>2022-04-28T19:21:32.211Z</time>
      </trkpt>
      <trkpt lat="44.11291" lon="6.28428">
        <ele>839.20001220703</ele>
        <time>2022-04-28T19:21:40.169Z</time>
      </trkpt>
      <trkpt lat="44.11285" lon="6.28428">
        <ele>838.79998779297</ele>
        <time>2022-04-28T19:21:48.129Z</time>
      </trkpt>
      <trkpt lat="44.11274" lon="6.28425">
        <ele>837.59997558594</ele>
        <time>2022-04-28T19:21:56.092Z</time>
      </trkpt>
      <trkpt lat="44.1127" lon="6.28422">
        <ele>837</ele>
        <time>2022-04-28T19:22:04.057Z</time>
      </trkpt>
      <trkpt lat="44.11268" lon="6.28418">
        <ele>836.40002441406</ele>
        <time>2022-04-28T19:22:12.023Z</time>
      </trkpt>
      <trkpt lat="44.1126" lon="6.28413">
        <ele>835.79998779297</ele>
        <time>2022-04-28T19:22:19.992Z</time>
      </trkpt>
      <trkpt lat="44.11256" lon="6.28412">
        <ele>835.79998779297</ele>
        <time>2022-04-28T19:22:27.962Z</time>
      </trkpt>
      <trkpt lat="44.1125" lon="6.28409">
        <ele>835.20001220703</ele>
        <time>2022-04-28T19:22:35.934Z</time>
      </trkpt>
      <trkpt lat="44.11249" lon="6.28407">
        <ele>835.20001220703</ele>
        <time>2022-04-28T19:22:43.907Z</time>
      </trkpt>
      <trkpt lat="44.11246" lon="6.28398">
        <ele>834</ele>
        <time>2022-04-28T19:22:51.882Z</time>
      </trkpt>
      <trkpt lat="44.11242" lon="6.28395">
        <ele>833.79998779297</ele>
        <time>2022-04-28T19:22:59.858Z</time>
      </trkpt>
      <trkpt lat="44.11238" lon="6.28393">
        <ele>833.59997558594</ele>
        <time>2022-04-28T19:23:07.836Z</time>
      </trkpt>
      <trkpt lat="44.11234" lon="6.28389">
        <ele>833</ele>
        <time>2022-04-28T19:23:15.815Z</time>
      </trkpt>
      <trkpt lat="44.11227" lon="6.28381">
        <ele>831.20001220703</ele>
        <time>2022-04-28T19:23:23.797Z</time>
      </trkpt>
      <trkpt lat="44.11223" lon="6.28377">
        <ele>830.59997558594</ele>
        <time>2022-04-28T19:23:31.781Z</time>
      </trkpt>
      <trkpt lat="44.11219" lon="6.28373">
        <ele>830</ele>
        <time>2022-04-28T19:23:39.766Z</time>
      </trkpt>
      <trkpt lat="44.1121" lon="6.28372">
        <ele>829.20001220703</ele>
        <time>2022-04-28T19:23:47.754Z</time>
      </trkpt>
      <trkpt lat="44.11199" lon="6.28375">
        <ele>829</ele>
        <time>2022-04-28T19:23:55.746Z</time>
      </trkpt>
      <trkpt lat="44.11187" lon="6.28374">
        <ele>828.79998779297</ele>
        <time>2022-04-28T19:24:03.742Z</time>
      </trkpt>
      <trkpt lat="44.11176" lon="6.2837">
        <ele>829</ele>
        <time>2022-04-28T19:24:11.741Z</time>
      </trkpt>
      <trkpt lat="44.1117" lon="6.28368">
        <ele>828.79998779297</ele>
        <time>2022-04-28T19:24:19.742Z</time>
      </trkpt>
      <trkpt lat="44.11158" lon="6.28364">
        <ele>828.20001220703</ele>
        <time>2022-04-28T19:24:27.747Z</time>
      </trkpt>
      <trkpt lat="44.11152" lon="6.28359">
        <ele>827.79998779297</ele>
        <time>2022-04-28T19:24:35.754Z</time>
      </trkpt>
      <trkpt lat="44.11137" lon="6.28344">
        <ele>826.79998779297</ele>
        <time>2022-04-28T19:24:43.767Z</time>
      </trkpt>
      <trkpt lat="44.11132" lon="6.2834">
        <ele>827.20001220703</ele>
        <time>2022-04-28T19:24:51.782Z</time>
      </trkpt>
      <trkpt lat="44.11132" lon="6.2834">
        <ele>827.40002441406</ele>
        <time>2022-04-28T19:24:59.797Z</time>
      </trkpt>
      <trkpt lat="44.11129" lon="6.28336">
        <ele>828.20001220703</ele>
        <time>2022-04-28T19:25:07.813Z</time>
      </trkpt>
      <trkpt lat="44.11127" lon="6.2833">
        <ele>828</ele>
        <time>2022-04-28T19:25:15.831Z</time>
      </trkpt>
      <trkpt lat="44.1112" lon="6.28317">
        <ele>827</ele>
        <time>2022-04-28T19:25:23.852Z</time>
      </trkpt>
      <trkpt lat="44.11114" lon="6.28308">
        <ele>826.20001220703</ele>
        <time>2022-04-28T19:25:31.876Z</time>
      </trkpt>
      <trkpt lat="44.11109" lon="6.28303">
        <ele>825.79998779297</ele>
        <time>2022-04-28T19:25:39.902Z</time>
      </trkpt>
      <trkpt lat="44.11106" lon="6.28298">
        <ele>825.79998779297</ele>
        <time>2022-04-28T19:25:47.930Z</time>
      </trkpt>
      <trkpt lat="44.11102" lon="6.28282">
        <ele>826.59997558594</ele>
        <time>2022-04-28T19:25:55.961Z</time>
      </trkpt>
      <trkpt lat="44.11094" lon="6.2827">
        <ele>826.40002441406</ele>
        <time>2022-04-28T19:26:03.996Z</time>
      </trkpt>
      <trkpt lat="44.11088" lon="6.2826">
        <ele>825.59997558594</ele>
        <time>2022-04-28T19:26:12.034Z</time>
      </trkpt>
      <trkpt lat="44.11083" lon="6.28251">
        <ele>824.79998779297</ele>
        <time>2022-04-28T19:26:20.075Z</time>
      </trkpt>
      <trkpt lat="44.11082" lon="6.28248">
        <ele>825</ele>
        <time>2022-04-28T19:26:28.117Z</time>
      </trkpt>
      <trkpt lat="44.11084" lon="6.28239">
        <ele>825.59997558594</ele>
        <time>2022-04-28T19:26:36.161Z</time>
      </trkpt>
      <trkpt lat="44.11086" lon="6.28234">
        <ele>826.40002441406</ele>
        <time>2022-04-28T19:26:44.206Z</time>
      </trkpt>
      <trkpt lat="44.11088" lon="6.2823">
        <ele>826.79998779297</ele>
        <time>2022-04-28T19:26:52.252Z</time>
      </trkpt>
      <trkpt lat="44.11094" lon="6.28216">
        <ele>827.79998779297</ele>
        <time>2022-04-28T19:27:00.302Z</time>
      </trkpt>
      <trkpt lat="44.11102" lon="6.28199">
        <ele>829.40002441406</ele>
        <time>2022-04-28T19:27:08.356Z</time>
      </trkpt>
      <trkpt lat="44.11107" lon="6.28192">
        <ele>830.20001220703</ele>
        <time>2022-04-28T19:27:16.413Z</time>
      </trkpt>
      <trkpt lat="44.1111" lon="6.28188">
        <ele>830.59997558594</ele>
        <time>2022-04-28T19:27:24.471Z</time>
      </trkpt>
      <trkpt lat="44.11116" lon="6.28177">
        <ele>832</ele>
        <time>2022-04-28T19:27:32.532Z</time>
      </trkpt>
      <trkpt lat="44.11118" lon="6.28174">
        <ele>832.40002441406</ele>
        <time>2022-04-28T19:27:40.594Z</time>
      </trkpt>
      <trkpt lat="44.11126" lon="6.28164">
        <ele>833.59997558594</ele>
        <time>2022-04-28T19:27:48.659Z</time>
      </trkpt>
      <trkpt lat="44.1113" lon="6.28157">
        <ele>834.40002441406</ele>
        <time>2022-04-28T19:27:56.727Z</time>
      </trkpt>
      <trkpt lat="44.11131" lon="6.28154">
        <ele>834.79998779297</ele>
        <time>2022-04-28T19:28:04.795Z</time>
      </trkpt>
      <trkpt lat="44.11133" lon="6.28142">
        <ele>834</ele>
        <time>2022-04-28T19:28:12.866Z</time>
      </trkpt>
      <trkpt lat="44.11131" lon="6.28139">
        <ele>833.59997558594</ele>
        <time>2022-04-28T19:28:20.938Z</time>
      </trkpt>
      <trkpt lat="44.11128" lon="6.28135">
        <ele>833.20001220703</ele>
        <time>2022-04-28T19:28:29.011Z</time>
      </trkpt>
      <trkpt lat="44.11125" lon="6.28131">
        <ele>832.79998779297</ele>
        <time>2022-04-28T19:28:37.086Z</time>
      </trkpt>
      <trkpt lat="44.11121" lon="6.28126">
        <ele>832.59997558594</ele>
        <time>2022-04-28T19:28:45.162Z</time>
      </trkpt>
      <trkpt lat="44.11116" lon="6.28121">
        <ele>832.20001220703</ele>
        <time>2022-04-28T19:28:53.240Z</time>
      </trkpt>
      <trkpt lat="44.11107" lon="6.28112">
        <ele>831</ele>
        <time>2022-04-28T19:29:01.322Z</time>
      </trkpt>
      <trkpt lat="44.11098" lon="6.28096">
        <ele>829.40002441406</ele>
        <time>2022-04-28T19:29:09.408Z</time>
      </trkpt>
      <trkpt lat="44.11097" lon="6.28088">
        <ele>828.59997558594</ele>
        <time>2022-04-28T19:29:17.496Z</time>
      </trkpt>
      <trkpt lat="44.11098" lon="6.2808">
        <ele>828.20001220703</ele>
        <time>2022-04-28T19:29:25.586Z</time>
      </trkpt>
      <trkpt lat="44.111" lon="6.28071">
        <ele>828</ele>
        <time>2022-04-28T19:29:33.678Z</time>
      </trkpt>
      <trkpt lat="44.11102" lon="6.28062">
        <ele>827.79998779297</ele>
        <time>2022-04-28T19:29:41.772Z</time>
      </trkpt>
      <trkpt lat="44.11105" lon="6.28046">
        <ele>828</ele>
        <time>2022-04-28T19:29:49.870Z</time>
      </trkpt>
      <trkpt lat="44.11113" lon="6.28029">
        <ele>828.20001220703</ele>
        <time>2022-04-28T19:29:57.973Z</time>
      </trkpt>
      <trkpt lat="44.11118" lon="6.28018">
        <ele>828.40002441406</ele>
        <time>2022-04-28T19:30:06.079Z</time>
      </trkpt>
      <trkpt lat="44.11131" lon="6.2799">
        <ele>828.79998779297</ele>
        <time>2022-04-28T19:30:14.192Z</time>
      </trkpt>
      <trkpt lat="44.11134" lon="6.27985">
        <ele>829</ele>
        <time>2022-04-28T19:30:22.307Z</time>
      </trkpt>
      <trkpt lat="44.11139" lon="6.27976">
        <ele>829.59997558594</ele>
        <time>2022-04-28T19:30:30.424Z</time>
      </trkpt>
      <trkpt lat="44.11142" lon="6.27966">
        <ele>830.40002441406</ele>
        <time>2022-04-28T19:30:38.544Z</time>
      </trkpt>
      <trkpt lat="44.11144" lon="6.2796">
        <ele>831</ele>
        <time>2022-04-28T19:30:46.665Z</time>
      </trkpt>
      <trkpt lat="44.11151" lon="6.27938">
        <ele>832.40002441406</ele>
        <time>2022-04-28T19:30:54.792Z</time>
      </trkpt>
      <trkpt lat="44.11152" lon="6.27927">
        <ele>832.59997558594</ele>
        <time>2022-04-28T19:31:02.922Z</time>
      </trkpt>
      <trkpt lat="44.11152" lon="6.27921">
        <ele>832.59997558594</ele>
        <time>2022-04-28T19:31:11.053Z</time>
      </trkpt>
      <trkpt lat="44.11151" lon="6.279">
        <ele>831.59997558594</ele>
        <time>2022-04-28T19:31:19.189Z</time>
      </trkpt>
      <trkpt lat="44.11149" lon="6.27894">
        <ele>831.40002441406</ele>
        <time>2022-04-28T19:31:27.326Z</time>
      </trkpt>
      <trkpt lat="44.11147" lon="6.27889">
        <ele>831.40002441406</ele>
        <time>2022-04-28T19:31:35.464Z</time>
      </trkpt>
      <trkpt lat="44.11141" lon="6.27874">
        <ele>830</ele>
        <time>2022-04-28T19:31:43.606Z</time>
      </trkpt>
      <trkpt lat="44.11137" lon="6.2787">
        <ele>829</ele>
        <time>2022-04-28T19:31:51.750Z</time>
      </trkpt>
      <trkpt lat="44.11133" lon="6.27866">
        <ele>828</ele>
        <time>2022-04-28T19:31:59.895Z</time>
      </trkpt>
      <trkpt lat="44.11127" lon="6.27862">
        <ele>827</ele>
        <time>2022-04-28T19:32:08.042Z</time>
      </trkpt>
      <trkpt lat="44.11121" lon="6.27857">
        <ele>825.40002441406</ele>
        <time>2022-04-28T19:32:16.192Z</time>
      </trkpt>
      <trkpt lat="44.11116" lon="6.27852">
        <ele>823.59997558594</ele>
        <time>2022-04-28T19:32:24.344Z</time>
      </trkpt>
      <trkpt lat="44.1111" lon="6.27848">
        <ele>821.79998779297</ele>
        <time>2022-04-28T19:32:32.498Z</time>
      </trkpt>
      <trkpt lat="44.11104" lon="6.27843">
        <ele>820.20001220703</ele>
        <time>2022-04-28T19:32:40.654Z</time>
      </trkpt>
      <trkpt lat="44.11098" lon="6.27837">
        <ele>818.79998779297</ele>
        <time>2022-04-28T19:32:48.812Z</time>
      </trkpt>
      <trkpt lat="44.11093" lon="6.27832">
        <ele>817.40002441406</ele>
        <time>2022-04-28T19:32:56.972Z</time>
      </trkpt>
      <trkpt lat="44.11082" lon="6.27824">
        <ele>815.59997558594</ele>
        <time>2022-04-28T19:33:05.136Z</time>
      </trkpt>
      <trkpt lat="44.11077" lon="6.27819">
        <ele>814.79998779297</ele>
        <time>2022-04-28T19:33:13.302Z</time>
      </trkpt>
      <trkpt lat="44.11072" lon="6.27811">
        <ele>814.40002441406</ele>
        <time>2022-04-28T19:33:21.471Z</time>
      </trkpt>
      <trkpt lat="44.11066" lon="6.27795">
        <ele>813.79998779297</ele>
        <time>2022-04-28T19:33:29.644Z</time>
      </trkpt>
      <trkpt lat="44.11062" lon="6.2778">
        <ele>813</ele>
        <time>2022-04-28T19:33:37.821Z</time>
      </trkpt>
      <trkpt lat="44.11061" lon="6.27763">
        <ele>811.79998779297</ele>
        <time>2022-04-28T19:33:46.002Z</time>
      </trkpt>
      <trkpt lat="44.11059" lon="6.27741">
        <ele>810</ele>
        <time>2022-04-28T19:33:54.187Z</time>
      </trkpt>
      <trkpt lat="44.11057" lon="6.27721">
        <ele>808.59997558594</ele>
        <time>2022-04-28T19:34:02.377Z</time>
      </trkpt>
      <trkpt lat="44.11056" lon="6.27712">
        <ele>807.79998779297</ele>
        <time>2022-04-28T19:34:10.569Z</time>
      </trkpt>
      <trkpt lat="44.11055" lon="6.27705">
        <ele>807.20001220703</ele>
        <time>2022-04-28T19:34:18.763Z</time>
      </trkpt>
      <trkpt lat="44.11054" lon="6.27697">
        <ele>806.79998779297</ele>
        <time>2022-04-28T19:34:26.959Z</time>
      </trkpt>
      <trkpt lat="44.11056" lon="6.2768">
        <ele>805.59997558594</ele>
        <time>2022-04-28T19:34:35.159Z</time>
      </trkpt>
      <trkpt lat="44.11059" lon="6.27662">
        <ele>804.59997558594</ele>
        <time>2022-04-28T19:34:43.363Z</time>
      </trkpt>
      <trkpt lat="44.1106" lon="6.27653">
        <ele>804.20001220703</ele>
        <time>2022-04-28T19:34:51.569Z</time>
      </trkpt>
      <trkpt lat="44.1106" lon="6.27643">
        <ele>803.40002441406</ele>
        <time>2022-04-28T19:34:59.777Z</time>
      </trkpt>
      <trkpt lat="44.11059" lon="6.27635">
        <ele>802.40002441406</ele>
        <time>2022-04-28T19:35:07.987Z</time>
      </trkpt>
      <trkpt lat="44.11056" lon="6.27628">
        <ele>801.59997558594</ele>
        <time>2022-04-28T19:35:16.199Z</time>
      </trkpt>
      <trkpt lat="44.11054" lon="6.27622">
        <ele>801</ele>
        <time>2022-04-28T19:35:24.412Z</time>
      </trkpt>
      <trkpt lat="44.1105" lon="6.27617">
        <ele>799.59997558594</ele>
        <time>2022-04-28T19:35:32.627Z</time>
      </trkpt>
      <trkpt lat="44.11045" lon="6.27612">
        <ele>798.40002441406</ele>
        <time>2022-04-28T19:35:40.844Z</time>
      </trkpt>
      <trkpt lat="44.11039" lon="6.27608">
        <ele>797</ele>
        <time>2022-04-28T19:35:49.063Z</time>
      </trkpt>
      <trkpt lat="44.11035" lon="6.27604">
        <ele>795.79998779297</ele>
        <time>2022-04-28T19:35:57.284Z</time>
      </trkpt>
      <trkpt lat="44.11032" lon="6.27599">
        <ele>794.79998779297</ele>
        <time>2022-04-28T19:36:05.506Z</time>
      </trkpt>
      <trkpt lat="44.11032" lon="6.27592">
        <ele>793.59997558594</ele>
        <time>2022-04-28T19:36:13.730Z</time>
      </trkpt>
      <trkpt lat="44.11033" lon="6.27584">
        <ele>793</ele>
        <time>2022-04-28T19:36:21.956Z</time>
      </trkpt>
      <trkpt lat="44.11034" lon="6.27576">
        <ele>792.20001220703</ele>
        <time>2022-04-28T19:36:30.184Z</time>
      </trkpt>
      <trkpt lat="44.11033" lon="6.27564">
        <ele>791.20001220703</ele>
        <time>2022-04-28T19:36:38.414Z</time>
      </trkpt>
      <trkpt lat="44.11033" lon="6.2756">
        <ele>790.40002441406</ele>
        <time>2022-04-28T19:36:46.645Z</time>
      </trkpt>
      <trkpt lat="44.11032" lon="6.27558">
        <ele>789.79998779297</ele>
        <time>2022-04-28T19:36:54.877Z</time>
      </trkpt>
      <trkpt lat="44.11033" lon="6.27556">
        <ele>789.20001220703</ele>
        <time>2022-04-28T19:37:03.109Z</time>
      </trkpt>
      <trkpt lat="44.11035" lon="6.27555">
        <ele>788.59997558594</ele>
        <time>2022-04-28T19:37:11.342Z</time>
      </trkpt>
      <trkpt lat="44.11037" lon="6.27555">
        <ele>788.20001220703</ele>
        <time>2022-04-28T19:37:19.575Z</time>
      </trkpt>
      <trkpt lat="44.11039" lon="6.27557">
        <ele>787.40002441406</ele>
        <time>2022-04-28T19:37:27.809Z</time>
      </trkpt>
      <trkpt lat="44.11044" lon="6.27562">
        <ele>786.59997558594</ele>
        <time>2022-04-28T19:37:36.045Z</time>
      </trkpt>
      <trkpt lat="44.11048" lon="6.27565">
        <ele>786.20001220703</ele>
        <time>2022-04-28T19:37:44.283Z</time>
      </trkpt>
      <trkpt lat="44.11051" lon="6.2757">
        <ele>786</ele>
        <time>2022-04-28T19:37:52.522Z</time>
      </trkpt>
      <trkpt lat="44.11054" lon="6.27576">
        <ele>785.20001220703</ele>
        <time>2022-04-28T19:38:00.763Z</time>
      </trkpt>
      <trkpt lat="44.11057" lon="6.27581">
        <ele>784.20001220703</ele>
        <time>2022-04-28T19:38:09.005Z</time>
      </trkpt>
      <trkpt lat="44.1106" lon="6.27583">
        <ele>783.40002441406</ele>
        <time>2022-04-28T19:38:17.248Z</time>
      </trkpt>
      <trkpt lat="44.11067" lon="6.2758">
        <ele>782.20001220703</ele>
        <time>2022-04-28T19:38:25.494Z</time>
      </trkpt>
      <trkpt lat="44.11074" lon="6.27576">
        <ele>781</ele>
        <time>2022-04-28T19:38:33.742Z</time>
      </trkpt>
      <trkpt lat="44.11081" lon="6.27575">
        <ele>780</ele>
        <time>2022-04-28T19:38:41.992Z</time>
      </trkpt>
      <trkpt lat="44.11085" lon="6.27575">
        <ele>779.79998779297</ele>
        <time>2022-04-28T19:38:50.244Z</time>
      </trkpt>
      <trkpt lat="44.11088" lon="6.27576">
        <ele>779.79998779297</ele>
        <time>2022-04-28T19:38:58.497Z</time>
      </trkpt>
      <trkpt lat="44.11094" lon="6.2758">
        <ele>779.20001220703</ele>
        <time>2022-04-28T19:39:06.752Z</time>
      </trkpt>
      <trkpt lat="44.11099" lon="6.2759">
        <ele>778.59997558594</ele>
        <time>2022-04-28T19:39:15.010Z</time>
      </trkpt>
      <trkpt lat="44.11104" lon="6.27601">
        <ele>777.20001220703</ele>
        <time>2022-04-28T19:39:23.270Z</time>
      </trkpt>
      <trkpt lat="44.11107" lon="6.27607">
        <ele>776.59997558594</ele>
        <time>2022-04-28T19:39:31.532Z</time>
      </trkpt>
      <trkpt lat="44.11108" lon="6.27613">
        <ele>775.79998779297</ele>
        <time>2022-04-28T19:39:39.795Z</time>
      </trkpt>
      <trkpt lat="44.11109" lon="6.2762">
        <ele>775.20001220703</ele>
        <time>2022-04-28T19:39:48.060Z</time>
      </trkpt>
      <trkpt lat="44.11109" lon="6.27626">
        <ele>774.40002441406</ele>
        <time>2022-04-28T19:39:56.326Z</time>
      </trkpt>
      <trkpt lat="44.1111" lon="6.27633">
        <ele>773.79998779297</ele>
        <time>2022-04-28T19:40:04.594Z</time>
      </trkpt>
      <trkpt lat="44.11119" lon="6.27627">
        <ele>773.59997558594</ele>
        <time>2022-04-28T19:40:12.865Z</time>
      </trkpt>
      <trkpt lat="44.11122" lon="6.27624">
        <ele>773.59997558594</ele>
        <time>2022-04-28T19:40:21.137Z</time>
      </trkpt>
      <trkpt lat="44.11137" lon="6.27607">
        <ele>774</ele>
        <time>2022-04-28T19:40:29.416Z</time>
      </trkpt>
      <trkpt lat="44.11149" lon="6.27581">
        <ele>774</ele>
        <time>2022-04-28T19:40:37.702Z</time>
      </trkpt>
      <trkpt lat="44.11159" lon="6.27562">
        <ele>773.79998779297</ele>
        <time>2022-04-28T19:40:45.993Z</time>
      </trkpt>
      <trkpt lat="44.11163" lon="6.27557">
        <ele>773.40002441406</ele>
        <time>2022-04-28T19:40:54.286Z</time>
      </trkpt>
      <trkpt lat="44.11167" lon="6.27554">
        <ele>773.20001220703</ele>
        <time>2022-04-28T19:41:02.580Z</time>
      </trkpt>
      <trkpt lat="44.1118" lon="6.2754">
        <ele>772.59997558594</ele>
        <time>2022-04-28T19:41:10.879Z</time>
      </trkpt>
      <trkpt lat="44.11183" lon="6.27537">
        <ele>772.40002441406</ele>
        <time>2022-04-28T19:41:19.180Z</time>
      </trkpt>
      <trkpt lat="44.11193" lon="6.27526">
        <ele>771</ele>
        <time>2022-04-28T19:41:27.485Z</time>
      </trkpt>
      <trkpt lat="44.11198" lon="6.27515">
        <ele>769.59997558594</ele>
        <time>2022-04-28T19:41:35.792Z</time>
      </trkpt>
      <trkpt lat="44.11202" lon="6.27511">
        <ele>768.79998779297</ele>
        <time>2022-04-28T19:41:44.101Z</time>
      </trkpt>
      <trkpt lat="44.11204" lon="6.27508">
        <ele>768.40002441406</ele>
        <time>2022-04-28T19:41:52.411Z</time>
      </trkpt>
      <trkpt lat="44.11208" lon="6.275">
        <ele>767.20001220703</ele>
        <time>2022-04-28T19:42:00.723Z</time>
      </trkpt>
      <trkpt lat="44.11213" lon="6.27493">
        <ele>766.20001220703</ele>
        <time>2022-04-28T19:42:09.037Z</time>
      </trkpt>
      <trkpt lat="44.11216" lon="6.27489">
        <ele>765.40002441406</ele>
        <time>2022-04-28T19:42:17.353Z</time>
      </trkpt>
      <trkpt lat="44.11221" lon="6.27483">
        <ele>764.20001220703</ele>
        <time>2022-04-28T19:42:25.671Z</time>
      </trkpt>
      <trkpt lat="44.11224" lon="6.27481">
        <ele>763.20001220703</ele>
        <time>2022-04-28T19:42:33.990Z</time>
      </trkpt>
      <trkpt lat="44.11228" lon="6.27478">
        <ele>762.59997558594</ele>
        <time>2022-04-28T19:42:42.310Z</time>
      </trkpt>
      <trkpt lat="44.11231" lon="6.27476">
        <ele>761.20001220703</ele>
        <time>2022-04-28T19:42:50.631Z</time>
      </trkpt>
      <trkpt lat="44.11237" lon="6.27472">
        <ele>759.40002441406</ele>
        <time>2022-04-28T19:42:58.955Z</time>
      </trkpt>
      <trkpt lat="44.11241" lon="6.27469">
        <ele>758.40002441406</ele>
        <time>2022-04-28T19:43:07.280Z</time>
      </trkpt>
      <trkpt lat="44.11245" lon="6.27467">
        <ele>757.40002441406</ele>
        <time>2022-04-28T19:43:15.606Z</time>
      </trkpt>
      <trkpt lat="44.11252" lon="6.27465">
        <ele>755.40002441406</ele>
        <time>2022-04-28T19:43:23.934Z</time>
      </trkpt>
      <trkpt lat="44.11259" lon="6.27464">
        <ele>753.59997558594</ele>
        <time>2022-04-28T19:43:32.265Z</time>
      </trkpt>
      <trkpt lat="44.11261" lon="6.27466">
        <ele>752.79998779297</ele>
        <time>2022-04-28T19:43:40.596Z</time>
      </trkpt>
      <trkpt lat="44.11262" lon="6.27467">
        <ele>752.20001220703</ele>
        <time>2022-04-28T19:43:48.928Z</time>
      </trkpt>
      <trkpt lat="44.11264" lon="6.27469">
        <ele>751.59997558594</ele>
        <time>2022-04-28T19:43:57.261Z</time>
      </trkpt>
      <trkpt lat="44.11266" lon="6.2747">
        <ele>751</ele>
        <time>2022-04-28T19:44:05.594Z</time>
      </trkpt>
      <trkpt lat="44.11272" lon="6.27467">
        <ele>749</ele>
        <time>2022-04-28T19:44:13.929Z</time>
      </trkpt>
      <trkpt lat="44.11278" lon="6.27459">
        <ele>747.59997558594</ele>
        <time>2022-04-28T19:44:22.267Z</time>
      </trkpt>
      <trkpt lat="44.1128" lon="6.27456">
        <ele>747</ele>
        <time>2022-04-28T19:44:30.606Z</time>
      </trkpt>
      <trkpt lat="44.11281" lon="6.27451">
        <ele>746.40002441406</ele>
        <time>2022-04-28T19:44:38.946Z</time>
      </trkpt>
      <trkpt lat="44.11283" lon="6.27448">
        <ele>745.79998779297</ele>
        <time>2022-04-28T19:44:47.287Z</time>
      </trkpt>
      <trkpt lat="44.11293" lon="6.27442">
        <ele>741.79998779297</ele>
        <time>2022-04-28T19:44:55.632Z</time>
      </trkpt>
      <trkpt lat="44.11295" lon="6.27443">
        <ele>740.79998779297</ele>
        <time>2022-04-28T19:45:03.977Z</time>
      </trkpt>
      <trkpt lat="44.11296" lon="6.27447">
        <ele>739.59997558594</ele>
        <time>2022-04-28T19:45:12.323Z</time>
      </trkpt>
      <trkpt lat="44.11295" lon="6.27453">
        <ele>737.79998779297</ele>
        <time>2022-04-28T19:45:20.671Z</time>
      </trkpt>
      <trkpt lat="44.11295" lon="6.27456">
        <ele>736.59997558594</ele>
        <time>2022-04-28T19:45:29.019Z</time>
      </trkpt>
      <trkpt lat="44.11297" lon="6.27463">
        <ele>735.20001220703</ele>
        <time>2022-04-28T19:45:37.369Z</time>
      </trkpt>
      <trkpt lat="44.11298" lon="6.27467">
        <ele>734.20001220703</ele>
        <time>2022-04-28T19:45:45.720Z</time>
      </trkpt>
      <trkpt lat="44.11299" lon="6.27471">
        <ele>733.40002441406</ele>
        <time>2022-04-28T19:45:54.072Z</time>
      </trkpt>
      <trkpt lat="44.113" lon="6.27474">
        <ele>732.20001220703</ele>
        <time>2022-04-28T19:46:02.425Z</time>
      </trkpt>
      <trkpt lat="44.11301" lon="6.27477">
        <ele>731.20001220703</ele>
        <time>2022-04-28T19:46:10.778Z</time>
      </trkpt>
      <trkpt lat="44.11304" lon="6.27481">
        <ele>729.40002441406</ele>
        <time>2022-04-28T19:46:19.133Z</time>
      </trkpt>
      <trkpt lat="44.11308" lon="6.27485">
        <ele>728.40002441406</ele>
        <time>2022-04-28T19:46:27.489Z</time>
      </trkpt>
      <trkpt lat="44.11311" lon="6.27488">
        <ele>727.59997558594</ele>
        <time>2022-04-28T19:46:35.847Z</time>
      </trkpt>
      <trkpt lat="44.11317" lon="6.27492">
        <ele>726.59997558594</ele>
        <time>2022-04-28T19:46:44.207Z</time>
      </trkpt>
      <trkpt lat="44.1132" lon="6.27494">
        <ele>726</ele>
        <time>2022-04-28T19:46:52.568Z</time>
      </trkpt>
      <trkpt lat="44.11323" lon="6.27495">
        <ele>725.20001220703</ele>
        <time>2022-04-28T19:47:00.930Z</time>
      </trkpt>
      <trkpt lat="44.1133" lon="6.27496">
        <ele>722.79998779297</ele>
        <time>2022-04-28T19:47:09.294Z</time>
      </trkpt>
      <trkpt lat="44.11334" lon="6.27497">
        <ele>722</ele>
        <time>2022-04-28T19:47:17.659Z</time>
      </trkpt>
      <trkpt lat="44.11338" lon="6.27498">
        <ele>720.79998779297</ele>
        <time>2022-04-28T19:47:26.025Z</time>
      </trkpt>
      <trkpt lat="44.11341" lon="6.27499">
        <ele>719.59997558594</ele>
        <time>2022-04-28T19:47:34.393Z</time>
      </trkpt>
      <trkpt lat="44.11345" lon="6.27501">
        <ele>718.40002441406</ele>
        <time>2022-04-28T19:47:42.762Z</time>
      </trkpt>
      <trkpt lat="44.11353" lon="6.27505">
        <ele>716.79998779297</ele>
        <time>2022-04-28T19:47:51.133Z</time>
      </trkpt>
      <trkpt lat="44.11357" lon="6.27507">
        <ele>715.59997558594</ele>
        <time>2022-04-28T19:47:59.506Z</time>
      </trkpt>
      <trkpt lat="44.1136" lon="6.2751">
        <ele>713.59997558594</ele>
        <time>2022-04-28T19:48:07.880Z</time>
      </trkpt>
      <trkpt lat="44.11363" lon="6.27514">
        <ele>712.40002441406</ele>
        <time>2022-04-28T19:48:16.255Z</time>
      </trkpt>
      <trkpt lat="44.11365" lon="6.2752">
        <ele>711.59997558594</ele>
        <time>2022-04-28T19:48:24.632Z</time>
      </trkpt>
      <trkpt lat="44.11367" lon="6.27525">
        <ele>710.59997558594</ele>
        <time>2022-04-28T19:48:33.010Z</time>
      </trkpt>
      <trkpt lat="44.11372" lon="6.27535">
        <ele>709.20001220703</ele>
        <time>2022-04-28T19:48:41.391Z</time>
      </trkpt>
      <trkpt lat="44.11375" lon="6.27539">
        <ele>708.59997558594</ele>
        <time>2022-04-28T19:48:49.773Z</time>
      </trkpt>
      <trkpt lat="44.11377" lon="6.27544">
        <ele>708</ele>
        <time>2022-04-28T19:48:58.157Z</time>
      </trkpt>
      <trkpt lat="44.1138" lon="6.2755">
        <ele>707</ele>
        <time>2022-04-28T19:49:06.542Z</time>
      </trkpt>
      <trkpt lat="44.11383" lon="6.27556">
        <ele>706</ele>
        <time>2022-04-28T19:49:14.929Z</time>
      </trkpt>
      <trkpt lat="44.11387" lon="6.27563">
        <ele>704.79998779297</ele>
        <time>2022-04-28T19:49:23.318Z</time>
      </trkpt>
      <trkpt lat="44.11393" lon="6.27576">
        <ele>702.59997558594</ele>
        <time>2022-04-28T19:49:31.710Z</time>
      </trkpt>
      <trkpt lat="44.11395" lon="6.27582">
        <ele>701</ele>
        <time>2022-04-28T19:49:40.104Z</time>
      </trkpt>
      <trkpt lat="44.11397" lon="6.27588">
        <ele>699.40002441406</ele>
        <time>2022-04-28T19:49:48.499Z</time>
      </trkpt>
      <trkpt lat="44.11398" lon="6.27594">
        <ele>698.20001220703</ele>
        <time>2022-04-28T19:49:56.896Z</time>
      </trkpt>
      <trkpt lat="44.114" lon="6.276">
        <ele>697.20001220703</ele>
        <time>2022-04-28T19:50:05.294Z</time>
      </trkpt>
      <trkpt lat="44.11402" lon="6.27606">
        <ele>696.20001220703</ele>
        <time>2022-04-28T19:50:13.694Z</time>
      </trkpt>
      <trkpt lat="44.11402" lon="6.27612">
        <ele>695</ele>
        <time>2022-04-28T19:50:22.095Z</time>
      </trkpt>
      <trkpt lat="44.11401" lon="6.27618">
        <ele>693.59997558594</ele>
        <time>2022-04-28T19:50:30.498Z</time>
      </trkpt>
      <trkpt lat="44.11402" lon="6.27624">
        <ele>692.40002441406</ele>
        <time>2022-04-28T19:50:38.902Z</time>
      </trkpt>
      <trkpt lat="44.11402" lon="6.2763">
        <ele>691.59997558594</ele>
        <time>2022-04-28T19:50:47.307Z</time>
      </trkpt>
      <trkpt lat="44.11403" lon="6.27636">
        <ele>690.79998779297</ele>
        <time>2022-04-28T19:50:55.714Z</time>
      </trkpt>
      <trkpt lat="44.11407" lon="6.27643">
        <ele>688.59997558594</ele>
        <time>2022-04-28T19:51:04.123Z</time>
      </trkpt>
      <trkpt lat="44.11409" lon="6.27646">
        <ele>687.59997558594</ele>
        <time>2022-04-28T19:51:12.533Z</time>
      </trkpt>
      <trkpt lat="44.1141" lon="6.27647">
        <ele>686.79998779297</ele>
        <time>2022-04-28T19:51:20.943Z</time>
      </trkpt>
      <trkpt lat="44.11413" lon="6.27646">
        <ele>685.79998779297</ele>
        <time>2022-04-28T19:51:29.354Z</time>
      </trkpt>
      <trkpt lat="44.11418" lon="6.27641">
        <ele>684.40002441406</ele>
        <time>2022-04-28T19:51:37.767Z</time>
      </trkpt>
      <trkpt lat="44.11419" lon="6.27639">
        <ele>683.40002441406</ele>
        <time>2022-04-28T19:51:46.181Z</time>
      </trkpt>
      <trkpt lat="44.11419" lon="6.27638">
        <ele>682.59997558594</ele>
        <time>2022-04-28T19:51:54.595Z</time>
      </trkpt>
      <trkpt lat="44.11421" lon="6.27639">
        <ele>681.59997558594</ele>
        <time>2022-04-28T19:52:03.010Z</time>
      </trkpt>
      <trkpt lat="44.11423" lon="6.2764">
        <ele>681</ele>
        <time>2022-04-28T19:52:11.425Z</time>
      </trkpt>
      <trkpt lat="44.11427" lon="6.27645">
        <ele>679.59997558594</ele>
        <time>2022-04-28T19:52:19.842Z</time>
      </trkpt>
      <trkpt lat="44.11429" lon="6.27647">
        <ele>679.20001220703</ele>
        <time>2022-04-28T19:52:28.260Z</time>
      </trkpt>
      <trkpt lat="44.11431" lon="6.2765">
        <ele>678.59997558594</ele>
        <time>2022-04-28T19:52:36.679Z</time>
      </trkpt>
      <trkpt lat="44.11431" lon="6.2765">
        <ele>678.59997558594</ele>
        <time>2022-04-28T19:52:45.098Z</time>
      </trkpt>
      <trkpt lat="44.11437" lon="6.27655">
        <ele>678</ele>
        <time>2022-04-28T19:52:53.519Z</time>
      </trkpt>
      <trkpt lat="44.11439" lon="6.27658">
        <ele>678</ele>
        <time>2022-04-28T19:53:01.941Z</time>
      </trkpt>
      <trkpt lat="44.1144" lon="6.2767">
        <ele>677.79998779297</ele>
        <time>2022-04-28T19:53:10.366Z</time>
      </trkpt>
      <trkpt lat="44.11446" lon="6.27683">
        <ele>678</ele>
        <time>2022-04-28T19:53:18.794Z</time>
      </trkpt>
      <trkpt lat="44.11455" lon="6.27702">
        <ele>678.40002441406</ele>
        <time>2022-04-28T19:53:27.227Z</time>
      </trkpt>
      <trkpt lat="44.1146" lon="6.27714">
        <ele>678.59997558594</ele>
        <time>2022-04-28T19:53:35.663Z</time>
      </trkpt>
      <trkpt lat="44.11463" lon="6.27722">
        <ele>678.59997558594</ele>
        <time>2022-04-28T19:53:44.102Z</time>
      </trkpt>
      <trkpt lat="44.11473" lon="6.27746">
        <ele>678.79998779297</ele>
        <time>2022-04-28T19:53:52.547Z</time>
      </trkpt>
      <trkpt lat="44.11485" lon="6.27765">
        <ele>679</ele>
        <time>2022-04-28T19:54:00.998Z</time>
      </trkpt>
      <trkpt lat="44.11495" lon="6.27788">
        <ele>679.40002441406</ele>
        <time>2022-04-28T19:54:09.455Z</time>
      </trkpt>
      <trkpt lat="44.11498" lon="6.27793">
        <ele>679.40002441406</ele>
        <time>2022-04-28T19:54:17.913Z</time>
      </trkpt>
      <trkpt lat="44.11504" lon="6.27812">
        <ele>679.59997558594</ele>
        <time>2022-04-28T19:54:26.376Z</time>
      </trkpt>
      <trkpt lat="44.11509" lon="6.27826">
        <ele>679.79998779297</ele>
        <time>2022-04-28T19:54:34.843Z</time>
      </trkpt>
      <trkpt lat="44.11515" lon="6.27836">
        <ele>679.79998779297</ele>
        <time>2022-04-28T19:54:43.312Z</time>
      </trkpt>
      <trkpt lat="44.11522" lon="6.27852">
        <ele>679.79998779297</ele>
        <time>2022-04-28T19:54:51.786Z</time>
      </trkpt>
      <trkpt lat="44.11525" lon="6.27863">
        <ele>679.79998779297</ele>
        <time>2022-04-28T19:55:00.263Z</time>
      </trkpt>
      <trkpt lat="44.11528" lon="6.27874">
        <ele>680</ele>
        <time>2022-04-28T19:55:08.742Z</time>
      </trkpt>
      <trkpt lat="44.11532" lon="6.27887">
        <ele>680.20001220703</ele>
        <time>2022-04-28T19:55:17.224Z</time>
      </trkpt>
      <trkpt lat="44.11539" lon="6.27902">
        <ele>680</ele>
        <time>2022-04-28T19:55:25.710Z</time>
      </trkpt>
      <trkpt lat="44.11544" lon="6.27913">
        <ele>680</ele>
        <time>2022-04-28T19:55:34.200Z</time>
      </trkpt>
      <trkpt lat="44.11547" lon="6.27923">
        <ele>680</ele>
        <time>2022-04-28T19:55:42.692Z</time>
      </trkpt>
      <trkpt lat="44.11548" lon="6.27935">
        <ele>680.20001220703</ele>
        <time>2022-04-28T19:55:51.187Z</time>
      </trkpt>
      <trkpt lat="44.11551" lon="6.27954">
        <ele>680.40002441406</ele>
        <time>2022-04-28T19:55:59.686Z</time>
      </trkpt>
      <trkpt lat="44.11548" lon="6.27972">
        <ele>680.40002441406</ele>
        <time>2022-04-28T19:56:08.189Z</time>
      </trkpt>
      <trkpt lat="44.11547" lon="6.27977">
        <ele>680.40002441406</ele>
        <time>2022-04-28T19:56:16.693Z</time>
      </trkpt>
      <trkpt lat="44.11546" lon="6.27981">
        <ele>681</ele>
        <time>2022-04-28T19:56:25.199Z</time>
      </trkpt>
      <trkpt lat="44.11543" lon="6.27996">
        <ele>681.79998779297</ele>
        <time>2022-04-28T19:56:33.708Z</time>
      </trkpt>
      <trkpt lat="44.11543" lon="6.28005">
        <ele>682.20001220703</ele>
        <time>2022-04-28T19:56:42.219Z</time>
      </trkpt>
      <trkpt lat="44.11544" lon="6.28014">
        <ele>682.59997558594</ele>
        <time>2022-04-28T19:56:50.732Z</time>
      </trkpt>
      <trkpt lat="44.11543" lon="6.2804">
        <ele>683.59997558594</ele>
        <time>2022-04-28T19:56:59.251Z</time>
      </trkpt>
      <trkpt lat="44.11538" lon="6.28056">
        <ele>684.20001220703</ele>
        <time>2022-04-28T19:57:07.774Z</time>
      </trkpt>
      <trkpt lat="44.11537" lon="6.28061">
        <ele>684.59997558594</ele>
        <time>2022-04-28T19:57:16.298Z</time>
      </trkpt>
      <trkpt lat="44.11535" lon="6.28079">
        <ele>685.59997558594</ele>
        <time>2022-04-28T19:57:24.826Z</time>
      </trkpt>
      <trkpt lat="44.11535" lon="6.28092">
        <ele>686</ele>
        <time>2022-04-28T19:57:33.357Z</time>
      </trkpt>
      <trkpt lat="44.11537" lon="6.28095">
        <ele>686.20001220703</ele>
        <time>2022-04-28T19:57:41.889Z</time>
      </trkpt>
      <trkpt lat="44.11543" lon="6.281">
        <ele>686.79998779297</ele>
        <time>2022-04-28T19:57:50.424Z</time>
      </trkpt>
      <trkpt lat="44.11552" lon="6.281">
        <ele>687.20001220703</ele>
        <time>2022-04-28T19:57:58.962Z</time>
      </trkpt>
      <trkpt lat="44.11563" lon="6.28098">
        <ele>687</ele>
        <time>2022-04-28T19:58:07.503Z</time>
      </trkpt>
      <trkpt lat="44.11568" lon="6.28098">
        <ele>686.79998779297</ele>
        <time>2022-04-28T19:58:16.046Z</time>
      </trkpt>
      <trkpt lat="44.11579" lon="6.28101">
        <ele>686.20001220703</ele>
        <time>2022-04-28T19:58:24.592Z</time>
      </trkpt>
      <trkpt lat="44.11585" lon="6.28101">
        <ele>685.59997558594</ele>
        <time>2022-04-28T19:58:33.140Z</time>
      </trkpt>
      <trkpt lat="44.1159" lon="6.28101">
        <ele>685</ele>
        <time>2022-04-28T19:58:41.690Z</time>
      </trkpt>
      <trkpt lat="44.11595" lon="6.28102">
        <ele>684.79998779297</ele>
        <time>2022-04-28T19:58:50.241Z</time>
      </trkpt>
      <trkpt lat="44.11599" lon="6.28102">
        <ele>684.40002441406</ele>
        <time>2022-04-28T19:58:58.794Z</time>
      </trkpt>
      <trkpt lat="44.11605" lon="6.28104">
        <ele>683.20001220703</ele>
        <time>2022-04-28T19:59:07.348Z</time>
      </trkpt>
      <trkpt lat="44.11606" lon="6.28105">
        <ele>683.20001220703</ele>
        <time>2022-04-28T19:59:15.903Z</time>
      </trkpt>
      <trkpt lat="44.11609" lon="6.28107">
        <ele>683.20001220703</ele>
        <time>2022-04-28T19:59:24.459Z</time>
      </trkpt>
      <trkpt lat="44.11615" lon="6.28112">
        <ele>683.20001220703</ele>
        <time>2022-04-28T19:59:33.017Z</time>
      </trkpt>
      <trkpt lat="44.11627" lon="6.28124">
        <ele>683.20001220703</ele>
        <time>2022-04-28T19:59:41.580Z</time>
      </trkpt>
      <trkpt lat="44.11635" lon="6.28141">
        <ele>685</ele>
        <time>2022-04-28T19:59:50.147Z</time>
      </trkpt>
      <trkpt lat="44.11647" lon="6.2816">
        <ele>685.79998779297</ele>
        <time>2022-04-28T19:59:58.720Z</time>
      </trkpt>
      <trkpt lat="44.11654" lon="6.28176">
        <ele>686.20001220703</ele>
        <time>2022-04-28T20:00:07.297Z</time>
      </trkpt>
      <trkpt lat="44.11655" lon="6.2818">
        <ele>686.40002441406</ele>
        <time>2022-04-28T20:00:15.875Z</time>
      </trkpt>
      <trkpt lat="44.11661" lon="6.2819">
        <ele>687.20001220703</ele>
        <time>2022-04-28T20:00:24.457Z</time>
      </trkpt>
      <trkpt lat="44.11663" lon="6.28194">
        <ele>687.59997558594</ele>
        <time>2022-04-28T20:00:33.040Z</time>
      </trkpt>
      <trkpt lat="44.11669" lon="6.28203">
        <ele>688.40002441406</ele>
        <time>2022-04-28T20:00:41.625Z</time>
      </trkpt>
      <trkpt lat="44.11674" lon="6.28206">
        <ele>688.79998779297</ele>
        <time>2022-04-28T20:00:50.212Z</time>
      </trkpt>
      <trkpt lat="44.11688" lon="6.28214">
        <ele>688.40002441406</ele>
        <time>2022-04-28T20:00:58.804Z</time>
      </trkpt>
      <trkpt lat="44.11694" lon="6.28216">
        <ele>688.20001220703</ele>
        <time>2022-04-28T20:01:07.398Z</time>
      </trkpt>
      <trkpt lat="44.11711" lon="6.28225">
        <ele>687.20001220703</ele>
        <time>2022-04-28T20:01:15.998Z</time>
      </trkpt>
      <trkpt lat="44.11717" lon="6.28228">
        <ele>687</ele>
        <time>2022-04-28T20:01:24.600Z</time>
      </trkpt>
      <trkpt lat="44.1174" lon="6.2824">
        <ele>686.20001220703</ele>
        <time>2022-04-28T20:01:33.209Z</time>
      </trkpt>
      <trkpt lat="44.11745" lon="6.28242">
        <ele>686.20001220703</ele>
        <time>2022-04-28T20:01:41.820Z</time>
      </trkpt>
      <trkpt lat="44.11749" lon="6.28245">
        <ele>686</ele>
        <time>2022-04-28T20:01:50.432Z</time>
      </trkpt>
      <trkpt lat="44.11762" lon="6.28251">
        <ele>686.20001220703</ele>
        <time>2022-04-28T20:01:59.049Z</time>
      </trkpt>
      <trkpt lat="44.11775" lon="6.28269">
        <ele>686.59997558594</ele>
        <time>2022-04-28T20:02:07.671Z</time>
      </trkpt>
      <trkpt lat="44.11783" lon="6.28284">
        <ele>687.20001220703</ele>
        <time>2022-04-28T20:02:16.298Z</time>
      </trkpt>
      <trkpt lat="44.11793" lon="6.28304">
        <ele>688</ele>
        <time>2022-04-28T20:02:24.930Z</time>
      </trkpt>
      <trkpt lat="44.11795" lon="6.28307">
        <ele>688.40002441406</ele>
        <time>2022-04-28T20:02:33.563Z</time>
      </trkpt>
      <trkpt lat="44.11804" lon="6.28322">
        <ele>689.40002441406</ele>
        <time>2022-04-28T20:02:42.201Z</time>
      </trkpt>
      <trkpt lat="44.11809" lon="6.28336">
        <ele>690.59997558594</ele>
        <time>2022-04-28T20:02:50.842Z</time>
      </trkpt>
      <trkpt lat="44.11811" lon="6.2834">
        <ele>690.79998779297</ele>
        <time>2022-04-28T20:02:59.484Z</time>
      </trkpt>
      <trkpt lat="44.11813" lon="6.28353">
        <ele>691.79998779297</ele>
        <time>2022-04-28T20:03:08.129Z</time>
      </trkpt>
      <trkpt lat="44.11817" lon="6.28359">
        <ele>692</ele>
        <time>2022-04-28T20:03:16.776Z</time>
      </trkpt>
      <trkpt lat="44.1182" lon="6.28362">
        <ele>692</ele>
        <time>2022-04-28T20:03:25.424Z</time>
      </trkpt>
      <trkpt lat="44.11828" lon="6.28368">
        <ele>691</ele>
        <time>2022-04-28T20:03:34.075Z</time>
      </trkpt>
      <trkpt lat="44.11833" lon="6.2837">
        <ele>690.59997558594</ele>
        <time>2022-04-28T20:03:42.728Z</time>
      </trkpt>
      <trkpt lat="44.11838" lon="6.28371">
        <ele>690.40002441406</ele>
        <time>2022-04-28T20:03:51.383Z</time>
      </trkpt>
      <trkpt lat="44.11847" lon="6.28377">
        <ele>689.79998779297</ele>
        <time>2022-04-28T20:04:00.041Z</time>
      </trkpt>
      <trkpt lat="44.1186" lon="6.28389">
        <ele>690</ele>
        <time>2022-04-28T20:04:08.704Z</time>
      </trkpt>
      <trkpt lat="44.11863" lon="6.28391">
        <ele>690.20001220703</ele>
        <time>2022-04-28T20:04:17.368Z</time>
      </trkpt>
      <trkpt lat="44.11873" lon="6.28395">
        <ele>690.20001220703</ele>
        <time>2022-04-28T20:04:26.035Z</time>
      </trkpt>
      <trkpt lat="44.11892" lon="6.28403">
        <ele>690.59997558594</ele>
        <time>2022-04-28T20:04:34.708Z</time>
      </trkpt>
      <trkpt lat="44.11903" lon="6.28404">
        <ele>690.40002441406</ele>
        <time>2022-04-28T20:04:43.385Z</time>
      </trkpt>
      <trkpt lat="44.11909" lon="6.28405">
        <ele>690.20001220703</ele>
        <time>2022-04-28T20:04:52.064Z</time>
      </trkpt>
      <trkpt lat="44.11915" lon="6.28405">
        <ele>690</ele>
        <time>2022-04-28T20:05:00.745Z</time>
      </trkpt>
      <trkpt lat="44.11919" lon="6.28405">
        <ele>689.79998779297</ele>
        <time>2022-04-28T20:05:09.427Z</time>
      </trkpt>
      <trkpt lat="44.1193" lon="6.28399">
        <ele>689.79998779297</ele>
        <time>2022-04-28T20:05:18.113Z</time>
      </trkpt>
      <trkpt lat="44.11943" lon="6.28385">
        <ele>690.79998779297</ele>
        <time>2022-04-28T20:05:26.804Z</time>
      </trkpt>
      <trkpt lat="44.11945" lon="6.28383">
        <ele>691.20001220703</ele>
        <time>2022-04-28T20:05:35.496Z</time>
      </trkpt>
      <trkpt lat="44.11944" lon="6.28368">
        <ele>691.20001220703</ele>
        <time>2022-04-28T20:05:44.191Z</time>
      </trkpt>
      <trkpt lat="44.11944" lon="6.2836">
        <ele>690</ele>
        <time>2022-04-28T20:05:52.888Z</time>
      </trkpt>
      <trkpt lat="44.11946" lon="6.28357">
        <ele>689.59997558594</ele>
        <time>2022-04-28T20:06:01.586Z</time>
      </trkpt>
      <trkpt lat="44.1195" lon="6.28352">
        <ele>689.20001220703</ele>
        <time>2022-04-28T20:06:10.285Z</time>
      </trkpt>
      <trkpt lat="44.11953" lon="6.2835">
        <ele>689</ele>
        <time>2022-04-28T20:06:18.986Z</time>
      </trkpt>
      <trkpt lat="44.1196" lon="6.28345">
        <ele>688.79998779297</ele>
        <time>2022-04-28T20:06:27.689Z</time>
      </trkpt>
      <trkpt lat="44.11971" lon="6.28333">
        <ele>688.59997558594</ele>
        <time>2022-04-28T20:06:36.396Z</time>
      </trkpt>
      <trkpt lat="44.11974" lon="6.28333">
        <ele>688.40002441406</ele>
        <time>2022-04-28T20:06:45.104Z</time>
      </trkpt>
      <trkpt lat="44.11983" lon="6.28336">
        <ele>688.59997558594</ele>
        <time>2022-04-28T20:06:53.815Z</time>
      </trkpt>
      <trkpt lat="44.11985" lon="6.28338">
        <ele>688.59997558594</ele>
        <time>2022-04-28T20:07:02.527Z</time>
      </trkpt>
      <trkpt lat="44.11991" lon="6.28339">
        <ele>689.40002441406</ele>
        <time>2022-04-28T20:07:11.241Z</time>
      </trkpt>
      <trkpt lat="44.11997" lon="6.28337">
        <ele>689.40002441406</ele>
        <time>2022-04-28T20:07:19.957Z</time>
      </trkpt>
      <trkpt lat="44.12007" lon="6.28344">
        <ele>689</ele>
        <time>2022-04-28T20:07:28.676Z</time>
      </trkpt>
      <trkpt lat="44.12012" lon="6.28366">
        <ele>689.79998779297</ele>
        <time>2022-04-28T20:07:37.400Z</time>
      </trkpt>
      <trkpt lat="44.12014" lon="6.28374">
        <ele>690</ele>
        <time>2022-04-28T20:07:46.127Z</time>
      </trkpt>
      <trkpt lat="44.12022" lon="6.28389">
        <ele>690.59997558594</ele>
        <time>2022-04-28T20:07:54.858Z</time>
      </trkpt>
      <trkpt lat="44.12027" lon="6.28395">
        <ele>690.59997558594</ele>
        <time>2022-04-28T20:08:03.591Z</time>
      </trkpt>
      <trkpt lat="44.12034" lon="6.28402">
        <ele>691</ele>
        <time>2022-04-28T20:08:12.326Z</time>
      </trkpt>
      <trkpt lat="44.12037" lon="6.28405">
        <ele>691</ele>
        <time>2022-04-28T20:08:21.063Z</time>
      </trkpt>
      <trkpt lat="44.12041" lon="6.28407">
        <ele>691.20001220703</ele>
        <time>2022-04-28T20:08:29.801Z</time>
      </trkpt>
      <trkpt lat="44.12052" lon="6.28412">
        <ele>692</ele>
        <time>2022-04-28T20:08:38.543Z</time>
      </trkpt>
      <trkpt lat="44.12059" lon="6.28408">
        <ele>692.40002441406</ele>
        <time>2022-04-28T20:08:47.287Z</time>
      </trkpt>
      <trkpt lat="44.12062" lon="6.28404">
        <ele>692.59997558594</ele>
        <time>2022-04-28T20:08:56.032Z</time>
      </trkpt>
      <trkpt lat="44.12066" lon="6.284">
        <ele>692.79998779297</ele>
        <time>2022-04-28T20:09:04.779Z</time>
      </trkpt>
      <trkpt lat="44.12084" lon="6.28384">
        <ele>693</ele>
        <time>2022-04-28T20:09:13.533Z</time>
      </trkpt>
      <trkpt lat="44.12094" lon="6.28375">
        <ele>692.40002441406</ele>
        <time>2022-04-28T20:09:22.290Z</time>
      </trkpt>
      <trkpt lat="44.12097" lon="6.28371">
        <ele>692.20001220703</ele>
        <time>2022-04-28T20:09:31.049Z</time>
      </trkpt>
      <trkpt lat="44.12105" lon="6.28358">
        <ele>691.20001220703</ele>
        <time>2022-04-28T20:09:39.812Z</time>
      </trkpt>
      <trkpt lat="44.12107" lon="6.28353">
        <ele>691</ele>
        <time>2022-04-28T20:09:48.576Z</time>
      </trkpt>
      <trkpt lat="44.12112" lon="6.28344">
        <ele>690.79998779297</ele>
        <time>2022-04-28T20:09:57.343Z</time>
      </trkpt>
      <trkpt lat="44.12116" lon="6.28336">
        <ele>690.40002441406</ele>
        <time>2022-04-28T20:10:06.112Z</time>
      </trkpt>
      <trkpt lat="44.12118" lon="6.28332">
        <ele>690.40002441406</ele>
        <time>2022-04-28T20:10:14.882Z</time>
      </trkpt>
      <trkpt lat="44.12122" lon="6.2831">
        <ele>689.79998779297</ele>
        <time>2022-04-28T20:10:23.657Z</time>
      </trkpt>
      <trkpt lat="44.12124" lon="6.28294">
        <ele>688.79998779297</ele>
        <time>2022-04-28T20:10:32.436Z</time>
      </trkpt>
      <trkpt lat="44.12125" lon="6.28287">
        <ele>688.59997558594</ele>
        <time>2022-04-28T20:10:41.217Z</time>
      </trkpt>
      <trkpt lat="44.12129" lon="6.28273">
        <ele>688.20001220703</ele>
        <time>2022-04-28T20:10:50.001Z</time>
      </trkpt>
      <trkpt lat="44.12132" lon="6.2826">
        <ele>687.79998779297</ele>
        <time>2022-04-28T20:10:58.788Z</time>
      </trkpt>
      <trkpt lat="44.12141" lon="6.28225">
        <ele>688</ele>
        <time>2022-04-28T20:11:07.583Z</time>
      </trkpt>
      <trkpt lat="44.12146" lon="6.28204">
        <ele>687.59997558594</ele>
        <time>2022-04-28T20:11:16.384Z</time>
      </trkpt>
      <trkpt lat="44.12149" lon="6.28188">
        <ele>687.40002441406</ele>
        <time>2022-04-28T20:11:25.188Z</time>
      </trkpt>
      <trkpt lat="44.1215" lon="6.28182">
        <ele>687.40002441406</ele>
        <time>2022-04-28T20:11:33.994Z</time>
      </trkpt>
      <trkpt lat="44.12156" lon="6.28168">
        <ele>687</ele>
        <time>2022-04-28T20:11:42.803Z</time>
      </trkpt>
      <trkpt lat="44.12159" lon="6.28161">
        <ele>687</ele>
        <time>2022-04-28T20:11:51.614Z</time>
      </trkpt>
      <trkpt lat="44.12162" lon="6.28155">
        <ele>686.59997558594</ele>
        <time>2022-04-28T20:12:00.427Z</time>
      </trkpt>
      <trkpt lat="44.12167" lon="6.28142">
        <ele>686.40002441406</ele>
        <time>2022-04-28T20:12:09.243Z</time>
      </trkpt>
      <trkpt lat="44.12172" lon="6.28129">
        <ele>686.20001220703</ele>
        <time>2022-04-28T20:12:18.063Z</time>
      </trkpt>
      <trkpt lat="44.12173" lon="6.28122">
        <ele>686.20001220703</ele>
        <time>2022-04-28T20:12:26.884Z</time>
      </trkpt>
      <trkpt lat="44.12182" lon="6.28114">
        <ele>686.40002441406</ele>
        <time>2022-04-28T20:12:35.708Z</time>
      </trkpt>
      <trkpt lat="44.12188" lon="6.28118">
        <ele>686.40002441406</ele>
        <time>2022-04-28T20:12:44.535Z</time>
      </trkpt>
      <trkpt lat="44.12199" lon="6.28125">
        <ele>686.40002441406</ele>
        <time>2022-04-28T20:12:53.366Z</time>
      </trkpt>
      <trkpt lat="44.12203" lon="6.28127">
        <ele>686.40002441406</ele>
        <time>2022-04-28T20:13:02.198Z</time>
      </trkpt>
      <trkpt lat="44.12223" lon="6.28141">
        <ele>686.59997558594</ele>
        <time>2022-04-28T20:13:11.037Z</time>
      </trkpt>
      <trkpt lat="44.12259" lon="6.28166">
        <ele>687.20001220703</ele>
        <time>2022-04-28T20:13:19.889Z</time>
      </trkpt>
      <trkpt lat="44.12294" lon="6.28191">
        <ele>687.40002441406</ele>
        <time>2022-04-28T20:13:28.753Z</time>
      </trkpt>
      <trkpt lat="44.12342" lon="6.28225">
        <ele>687.40002441406</ele>
        <time>2022-04-28T20:13:37.634Z</time>
      </trkpt>
      <trkpt lat="44.12355" lon="6.28234">
        <ele>687.79998779297</ele>
        <time>2022-04-28T20:13:46.520Z</time>
      </trkpt>
      <trkpt lat="44.12376" lon="6.28247">
        <ele>688.40002441406</ele>
        <time>2022-04-28T20:13:55.413Z</time>
      </trkpt>
      <trkpt lat="44.12413" lon="6.28266">
        <ele>688.79998779297</ele>
        <time>2022-04-28T20:14:04.319Z</time>
      </trkpt>
      <trkpt lat="44.12417" lon="6.28269">
        <ele>689</ele>
        <time>2022-04-28T20:14:13.226Z</time>
      </trkpt>
      <trkpt lat="44.12448" lon="6.28282">
        <ele>690</ele>
        <time>2022-04-28T20:14:22.143Z</time>
      </trkpt>
      <trkpt lat="44.12452" lon="6.28283">
        <ele>690.20001220703</ele>
        <time>2022-04-28T20:14:31.062Z</time>
      </trkpt>
      <trkpt lat="44.12464" lon="6.28287">
        <ele>690.40002441406</ele>
        <time>2022-04-28T20:14:39.985Z</time>
      </trkpt>
      <trkpt lat="44.12477" lon="6.28292">
        <ele>690.40002441406</ele>
        <time>2022-04-28T20:14:48.912Z</time>
      </trkpt>
      <trkpt lat="44.12529" lon="6.28309">
        <ele>691</ele>
        <time>2022-04-28T20:14:57.856Z</time>
      </trkpt>
      <trkpt lat="44.12551" lon="6.28317">
        <ele>691.40002441406</ele>
        <time>2022-04-28T20:15:06.807Z</time>
      </trkpt>
      <trkpt lat="44.12564" lon="6.28321">
        <ele>691.59997558594</ele>
        <time>2022-04-28T20:15:15.762Z</time>
      </trkpt>
      <trkpt lat="44.12599" lon="6.28333">
        <ele>692.40002441406</ele>
        <time>2022-04-28T20:15:24.729Z</time>
      </trkpt>
      <trkpt lat="44.12612" lon="6.28338">
        <ele>692.59997558594</ele>
        <time>2022-04-28T20:15:33.700Z</time>
      </trkpt>
      <trkpt lat="44.12663" lon="6.28357">
        <ele>693</ele>
        <time>2022-04-28T20:15:42.687Z</time>
      </trkpt>
      <trkpt lat="44.12678" lon="6.28373">
        <ele>693.40002441406</ele>
        <time>2022-04-28T20:15:51.681Z</time>
      </trkpt>
      <trkpt lat="44.12681" lon="6.28378">
        <ele>693.59997558594</ele>
        <time>2022-04-28T20:16:00.676Z</time>
      </trkpt>
      <trkpt lat="44.1272" lon="6.2843">
        <ele>693.79998779297</ele>
        <time>2022-04-28T20:16:09.688Z</time>
      </trkpt>
      <trkpt lat="44.12724" lon="6.28435">
        <ele>693.79998779297</ele>
        <time>2022-04-28T20:16:18.702Z</time>
      </trkpt>
      <trkpt lat="44.12762" lon="6.28487">
        <ele>694.20001220703</ele>
        <time>2022-04-28T20:16:27.733Z</time>
      </trkpt>
      <trkpt lat="44.12769" lon="6.28497">
        <ele>694.59997558594</ele>
        <time>2022-04-28T20:16:36.767Z</time>
      </trkpt>
      <trkpt lat="44.12793" lon="6.28531">
        <ele>695.59997558594</ele>
        <time>2022-04-28T20:16:45.812Z</time>
      </trkpt>
      <trkpt lat="44.12796" lon="6.28536">
        <ele>695.79998779297</ele>
        <time>2022-04-28T20:16:54.858Z</time>
      </trkpt>
      <trkpt lat="44.12831" lon="6.28587">
        <ele>696.40002441406</ele>
        <time>2022-04-28T20:17:03.920Z</time>
      </trkpt>
      <trkpt lat="44.12842" lon="6.28604">
        <ele>696.59997558594</ele>
        <time>2022-04-28T20:17:12.987Z</time>
      </trkpt>
      <trkpt lat="44.12866" lon="6.28647">
        <ele>697</ele>
        <time>2022-04-28T20:17:22.067Z</time>
      </trkpt>
      <trkpt lat="44.12888" lon="6.28681">
        <ele>697.59997558594</ele>
        <time>2022-04-28T20:17:31.157Z</time>
      </trkpt>
      <trkpt lat="44.12889" lon="6.28688">
        <ele>697.79998779297</ele>
        <time>2022-04-28T20:17:40.249Z</time>
      </trkpt>
      <trkpt lat="44.12881" lon="6.28706">
        <ele>697.59997558594</ele>
        <time>2022-04-28T20:17:49.346Z</time>
      </trkpt>
      <trkpt lat="44.12842" lon="6.28768">
        <ele>698</ele>
        <time>2022-04-28T20:17:58.462Z</time>
      </trkpt>
      <trkpt lat="44.12838" lon="6.28788">
        <ele>698.40002441406</ele>
        <time>2022-04-28T20:18:07.582Z</time>
      </trkpt>
      <trkpt lat="44.12842" lon="6.28802">
        <ele>698.59997558594</ele>
        <time>2022-04-28T20:18:16.706Z</time>
      </trkpt>
      <trkpt lat="44.12845" lon="6.28808">
        <ele>698.79998779297</ele>
        <time>2022-04-28T20:18:25.831Z</time>
      </trkpt>
      <trkpt lat="44.12848" lon="6.28814">
        <ele>699</ele>
        <time>2022-04-28T20:18:34.958Z</time>
      </trkpt>
      <trkpt lat="44.12862" lon="6.28853">
        <ele>699.79998779297</ele>
        <time>2022-04-28T20:18:44.095Z</time>
      </trkpt>
      <trkpt lat="44.12863" lon="6.2886">
        <ele>700</ele>
        <time>2022-04-28T20:18:53.234Z</time>
      </trkpt>
      <trkpt lat="44.12867" lon="6.28882">
        <ele>700.40002441406</ele>
        <time>2022-04-28T20:19:02.378Z</time>
      </trkpt>
      <trkpt lat="44.12875" lon="6.28901">
        <ele>700.59997558594</ele>
        <time>2022-04-28T20:19:11.527Z</time>
      </trkpt>
      <trkpt lat="44.12884" lon="6.2892">
        <ele>700.79998779297</ele>
        <time>2022-04-28T20:19:20.681Z</time>
      </trkpt>
      <trkpt lat="44.12908" lon="6.2897">
        <ele>701.59997558594</ele>
        <time>2022-04-28T20:19:29.849Z</time>
      </trkpt>
      <trkpt lat="44.12917" lon="6.28988">
        <ele>702</ele>
        <time>2022-04-28T20:19:39.022Z</time>
      </trkpt>
      <trkpt lat="44.12937" lon="6.29031">
        <ele>702.79998779297</ele>
        <time>2022-04-28T20:19:48.207Z</time>
      </trkpt>
      <trkpt lat="44.1294" lon="6.29037">
        <ele>703</ele>
        <time>2022-04-28T20:19:57.393Z</time>
      </trkpt>
      <trkpt lat="44.1296" lon="6.29077">
        <ele>704.20001220703</ele>
        <time>2022-04-28T20:20:06.590Z</time>
      </trkpt>
      <trkpt lat="44.12968" lon="6.29095">
        <ele>704.79998779297</ele>
        <time>2022-04-28T20:20:15.792Z</time>
      </trkpt>
      <trkpt lat="44.1298" lon="6.29118">
        <ele>705.40002441406</ele>
        <time>2022-04-28T20:20:25.001Z</time>
      </trkpt>
      <trkpt lat="44.12986" lon="6.29131">
        <ele>705.79998779297</ele>
        <time>2022-04-28T20:20:34.213Z</time>
      </trkpt>
      <trkpt lat="44.12996" lon="6.29142">
        <ele>706</ele>
        <time>2022-04-28T20:20:43.429Z</time>
      </trkpt>
      <trkpt lat="44.13009" lon="6.2914">
        <ele>706</ele>
        <time>2022-04-28T20:20:52.649Z</time>
      </trkpt>
      <trkpt lat="44.13022" lon="6.29128">
        <ele>706</ele>
        <time>2022-04-28T20:21:01.874Z</time>
      </trkpt>
      <trkpt lat="44.13042" lon="6.2911">
        <ele>706</ele>
        <time>2022-04-28T20:21:11.107Z</time>
      </trkpt>
      <trkpt lat="44.13079" lon="6.29076">
        <ele>705.79998779297</ele>
        <time>2022-04-28T20:21:20.354Z</time>
      </trkpt>
      <trkpt lat="44.13085" lon="6.29073">
        <ele>705.79998779297</ele>
        <time>2022-04-28T20:21:29.603Z</time>
      </trkpt>
      <trkpt lat="44.13098" lon="6.29057">
        <ele>705.79998779297</ele>
        <time>2022-04-28T20:21:38.857Z</time>
      </trkpt>
      <trkpt lat="44.13102" lon="6.29039">
        <ele>705.59997558594</ele>
        <time>2022-04-28T20:21:48.116Z</time>
      </trkpt>
      <trkpt lat="44.13108" lon="6.2901">
        <ele>705.20001220703</ele>
        <time>2022-04-28T20:21:57.381Z</time>
      </trkpt>
      <trkpt lat="44.13117" lon="6.28949">
        <ele>704.20001220703</ele>
        <time>2022-04-28T20:22:06.661Z</time>
      </trkpt>
      <trkpt lat="44.1312" lon="6.28918">
        <ele>704</ele>
        <time>2022-04-28T20:22:15.948Z</time>
      </trkpt>
      <trkpt lat="44.13128" lon="6.28836">
        <ele>703.59997558594</ele>
        <time>2022-04-28T20:22:25.254Z</time>
      </trkpt>
      <trkpt lat="44.13135" lon="6.2877">
        <ele>703.40002441406</ele>
        <time>2022-04-28T20:22:34.575Z</time>
      </trkpt>
      <trkpt lat="44.13135" lon="6.28752">
        <ele>703.20001220703</ele>
        <time>2022-04-28T20:22:43.900Z</time>
      </trkpt>
      <trkpt lat="44.13137" lon="6.28688">
        <ele>703.20001220703</ele>
        <time>2022-04-28T20:22:53.240Z</time>
      </trkpt>
      <trkpt lat="44.13141" lon="6.28613">
        <ele>702.20001220703</ele>
        <time>2022-04-28T20:23:02.597Z</time>
      </trkpt>
      <trkpt lat="44.13139" lon="6.28579">
        <ele>702</ele>
        <time>2022-04-28T20:23:11.962Z</time>
      </trkpt>
      <trkpt lat="44.13137" lon="6.28574">
        <ele>701.79998779297</ele>
        <time>2022-04-28T20:23:21.328Z</time>
      </trkpt>
      <trkpt lat="44.13131" lon="6.28575">
        <ele>701.40002441406</ele>
        <time>2022-04-28T20:23:30.696Z</time>
      </trkpt>
      <trkpt lat="44.13129" lon="6.28583">
        <ele>701.20001220703</ele>
        <time>2022-04-28T20:23:40.066Z</time>
      </trkpt>
      <trkpt lat="44.13127" lon="6.28588">
        <ele>701</ele>
        <time>2022-04-28T20:23:49.437Z</time>
      </trkpt>
      <trkpt lat="44.13118" lon="6.28592">
        <ele>700.79998779297</ele>
        <time>2022-04-28T20:23:58.811Z</time>
      </trkpt>
      <trkpt lat="44.13113" lon="6.28601">
        <ele>700.59997558594</ele>
        <time>2022-04-28T20:24:08.188Z</time>
      </trkpt>
      <trkpt lat="44.13111" lon="6.28604">
        <ele>700.79998779297</ele>
        <time>2022-04-28T20:24:17.566Z</time>
      </trkpt>
    </trkseg>
  </trk>
</gpx>